<?xml version='1.0' encoding='UTF-8'?><gpx version="1.1" creator="JPX - https://github.com/jenetics/jpx" xmlns="http://www.topografix.com/GPX/1/1"><trk><trkseg><trkpt lat="44.0745075" lon="8.2124671"><ele>3.9999999999999996</ele><time>2026-04-05T13:04:49.947Z</time></trkpt><trkpt lat="44.0744594" lon="8.2125685"><ele>4.0</ele><time>2026-04-05T13:05:13.947Z</time></trkpt><trkpt lat="44.0744719" lon="8.2126574"><ele>4.0</ele><time>2026-04-05T13:05:22.947Z</time></trkpt><trkpt lat="44.0744965" lon="8.212782"><ele>4.0</ele><time>2026-04-05T13:06:24.947Z</time></trkpt><trkpt lat="44.074562" lon="8.2128079"><ele>3.9999999999999996</ele><time>2026-04-05T13:06:26.947Z</time></trkpt><trkpt lat="44.074656" lon="8.2128595"><ele>4.0</ele><time>2026-04-05T13:06:28.947Z</time></trkpt><trkpt lat="44.0747643" lon="8.2129263"><ele>3.9999999999999996</ele><time>2026-04-05T13:06:30.948Z</time></trkpt><trkpt lat="44.0748779" lon="8.2129829"><ele>4.0</ele><time>2026-04-05T13:06:32.947Z</time></trkpt><trkpt lat="44.0749381" lon="8.2130138"><ele>4.0</ele><time>2026-04-05T13:06:33.947Z</time></trkpt><trkpt lat="44.0750005" lon="8.2130578"><ele>4.0</ele><time>2026-04-05T13:06:34.947Z</time></trkpt><trkpt lat="44.0750662" lon="8.2131152"><ele>3.9999999999999996</ele><time>2026-04-05T13:06:35.948Z</time></trkpt><trkpt lat="44.0751441" lon="8.2131838"><ele>4.0</ele><time>2026-04-05T13:06:36.947Z</time></trkpt><trkpt lat="44.0752277" lon="8.2132543"><ele>3.9999999999999996</ele><time>2026-04-05T13:06:37.947Z</time></trkpt><trkpt lat="44.0753072" lon="8.2133239"><ele>4.0</ele><time>2026-04-05T13:06:38.947Z</time></trkpt><trkpt lat="44.0753871" lon="8.2133828"><ele>4.0</ele><time>2026-04-05T13:06:39.947Z</time></trkpt><trkpt lat="44.0754633" lon="8.213446"><ele>4.0</ele><time>2026-04-05T13:06:40.947Z</time></trkpt><trkpt lat="44.0755349" lon="8.2135045"><ele>3.9999999999999996</ele><time>2026-04-05T13:06:41.948Z</time></trkpt><trkpt lat="44.0756063" lon="8.213565"><ele>4.0</ele><time>2026-04-05T13:06:42.948Z</time></trkpt><trkpt lat="44.0756725" lon="8.213632"><ele>4.0</ele><time>2026-04-05T13:06:43.947Z</time></trkpt><trkpt lat="44.0757407" lon="8.2137001"><ele>4.0</ele><time>2026-04-05T13:06:44.947Z</time></trkpt><trkpt lat="44.0758039" lon="8.213776"><ele>4.0</ele><time>2026-04-05T13:06:45.947Z</time></trkpt><trkpt lat="44.0758776" lon="8.2138472"><ele>4.0</ele><time>2026-04-05T13:06:46.947Z</time></trkpt><trkpt lat="44.0759606" lon="8.2139154"><ele>4.0</ele><time>2026-04-05T13:06:47.948Z</time></trkpt><trkpt lat="44.076046" lon="8.2139872"><ele>3.8000000000000003</ele><time>2026-04-05T13:06:48.947Z</time></trkpt><trkpt lat="44.0761268" lon="8.2140607"><ele>3.6000000000000005</ele><time>2026-04-05T13:06:49.947Z</time></trkpt><trkpt lat="44.0762099" lon="8.2141166"><ele>3.4</ele><time>2026-04-05T13:06:50.947Z</time></trkpt><trkpt lat="44.0762988" lon="8.2141653"><ele>3.2</ele><time>2026-04-05T13:06:51.947Z</time></trkpt><trkpt lat="44.0763868" lon="8.2142091"><ele>3.0</ele><time>2026-04-05T13:06:52.947Z</time></trkpt><trkpt lat="44.0764748" lon="8.214243"><ele>3.0</ele><time>2026-04-05T13:06:53.947Z</time></trkpt><trkpt lat="44.0765523" lon="8.2142708"><ele>3.0</ele><time>2026-04-05T13:06:54.947Z</time></trkpt><trkpt lat="44.0766203" lon="8.2143045"><ele>3.0</ele><time>2026-04-05T13:06:55.947Z</time></trkpt><trkpt lat="44.0767288" lon="8.2143551"><ele>3.0</ele><time>2026-04-05T13:06:57.947Z</time></trkpt><trkpt lat="44.0767813" lon="8.2144069"><ele>3.0</ele><time>2026-04-05T13:06:59.947Z</time></trkpt><trkpt lat="44.0768726" lon="8.2143507"><ele>3.0</ele><time>2026-04-05T13:07:06.947Z</time></trkpt><trkpt lat="44.0769178" lon="8.214284"><ele>3.3333333333333335</ele><time>2026-04-05T13:07:07.947Z</time></trkpt><trkpt lat="44.0769711" lon="8.2142012"><ele>3.666666666666667</ele><time>2026-04-05T13:07:08.947Z</time></trkpt><trkpt lat="44.0770362" lon="8.2141156"><ele>4.0</ele><time>2026-04-05T13:07:09.948Z</time></trkpt><trkpt lat="44.0771061" lon="8.2140385"><ele>4.333333333333334</ele><time>2026-04-05T13:07:10.948Z</time></trkpt><trkpt lat="44.0771637" lon="8.213976"><ele>4.666666666666667</ele><time>2026-04-05T13:07:11.948Z</time></trkpt><trkpt lat="44.0772516" lon="8.2138894"><ele>5.0</ele><time>2026-04-05T13:07:13.947Z</time></trkpt><trkpt lat="44.0773116" lon="8.2138264"><ele>5.0</ele><time>2026-04-05T13:07:15.947Z</time></trkpt><trkpt lat="44.0773747" lon="8.2137513"><ele>5.0</ele><time>2026-04-05T13:07:18.947Z</time></trkpt><trkpt lat="44.0774295" lon="8.2137028"><ele>5.0</ele><time>2026-04-05T13:07:20.947Z</time></trkpt><trkpt lat="44.0774862" lon="8.2136401"><ele>5.0</ele><time>2026-04-05T13:07:22.947Z</time></trkpt><trkpt lat="44.0775564" lon="8.2135825"><ele>5.0</ele><time>2026-04-05T13:07:24.947Z</time></trkpt><trkpt lat="44.0776251" lon="8.2135318"><ele>5.0</ele><time>2026-04-05T13:07:26.947Z</time></trkpt><trkpt lat="44.0776801" lon="8.2134795"><ele>5.0</ele><time>2026-04-05T13:07:28.947Z</time></trkpt><trkpt lat="44.0777476" lon="8.2134099"><ele>5.2</ele><time>2026-04-05T13:07:31.947Z</time></trkpt><trkpt lat="44.0778119" lon="8.2133438"><ele>5.4</ele><time>2026-04-05T13:07:34.947Z</time></trkpt><trkpt lat="44.0778592" lon="8.2132405"><ele>5.6</ele><time>2026-04-05T13:07:38.947Z</time></trkpt><trkpt lat="44.077838" lon="8.2130817"><ele>5.8</ele><time>2026-04-05T13:07:40.947Z</time></trkpt><trkpt lat="44.0778026" lon="8.2129661"><ele>6.0</ele><time>2026-04-05T13:07:41.947Z</time></trkpt><trkpt lat="44.0777648" lon="8.2128362"><ele>6.199999999999999</ele><time>2026-04-05T13:07:42.947Z</time></trkpt><trkpt lat="44.0777298" lon="8.2127011"><ele>6.3999999999999995</ele><time>2026-04-05T13:07:43.948Z</time></trkpt><trkpt lat="44.0776863" lon="8.212566"><ele>6.6</ele><time>2026-04-05T13:07:44.947Z</time></trkpt><trkpt lat="44.0776306" lon="8.2124256"><ele>6.8</ele><time>2026-04-05T13:07:45.947Z</time></trkpt><trkpt lat="44.0775638" lon="8.2122884"><ele>7.0</ele><time>2026-04-05T13:07:46.947Z</time></trkpt><trkpt lat="44.0774934" lon="8.212151"><ele>6.3999999999999995</ele><time>2026-04-05T13:07:47.947Z</time></trkpt><trkpt lat="44.0774301" lon="8.2120178"><ele>5.799999999999999</ele><time>2026-04-05T13:07:48.947Z</time></trkpt><trkpt lat="44.0773731" lon="8.2118874"><ele>5.2</ele><time>2026-04-05T13:07:49.947Z</time></trkpt><trkpt lat="44.0773212" lon="8.2117603"><ele>4.6</ele><time>2026-04-05T13:07:50.947Z</time></trkpt><trkpt lat="44.0772761" lon="8.2116251"><ele>4.0</ele><time>2026-04-05T13:07:51.947Z</time></trkpt><trkpt lat="44.0772341" lon="8.2114863"><ele>4.0</ele><time>2026-04-05T13:07:52.947Z</time></trkpt><trkpt lat="44.0772097" lon="8.2113354"><ele>4.0</ele><time>2026-04-05T13:07:53.947Z</time></trkpt><trkpt lat="44.0771899" lon="8.2111828"><ele>4.0</ele><time>2026-04-05T13:07:54.948Z</time></trkpt><trkpt lat="44.0771713" lon="8.2110249"><ele>4.0</ele><time>2026-04-05T13:07:55.947Z</time></trkpt><trkpt lat="44.0771595" lon="8.2108619"><ele>4.0</ele><time>2026-04-05T13:07:56.947Z</time></trkpt><trkpt lat="44.0771635" lon="8.2106956"><ele>4.0</ele><time>2026-04-05T13:07:57.947Z</time></trkpt><trkpt lat="44.0771671" lon="8.2105309"><ele>4.0</ele><time>2026-04-05T13:07:58.947Z</time></trkpt><trkpt lat="44.077177" lon="8.2103715"><ele>4.0</ele><time>2026-04-05T13:07:59.947Z</time></trkpt><trkpt lat="44.0771838" lon="8.2102067"><ele>4.5</ele><time>2026-04-05T13:08:00.948Z</time></trkpt><trkpt lat="44.077183" lon="8.210037"><ele>5.0</ele><time>2026-04-05T13:08:01.947Z</time></trkpt><trkpt lat="44.077169" lon="8.2098725"><ele>5.5</ele><time>2026-04-05T13:08:02.947Z</time></trkpt><trkpt lat="44.077137" lon="8.20972"><ele>6.0</ele><time>2026-04-05T13:08:03.947Z</time></trkpt><trkpt lat="44.0770796" lon="8.2095808"><ele>6.6</ele><time>2026-04-05T13:08:04.947Z</time></trkpt><trkpt lat="44.0770118" lon="8.2094555"><ele>7.199999999999999</ele><time>2026-04-05T13:08:05.947Z</time></trkpt><trkpt lat="44.0769434" lon="8.2093351"><ele>7.800000000000001</ele><time>2026-04-05T13:08:06.947Z</time></trkpt><trkpt lat="44.0768907" lon="8.20921"><ele>8.4</ele><time>2026-04-05T13:08:07.947Z</time></trkpt><trkpt lat="44.0768609" lon="8.2090721"><ele>9.0</ele><time>2026-04-05T13:08:08.947Z</time></trkpt><trkpt lat="44.0768615" lon="8.2089255"><ele>9.0</ele><time>2026-04-05T13:08:09.947Z</time></trkpt><trkpt lat="44.0768884" lon="8.2087702"><ele>9.0</ele><time>2026-04-05T13:08:10.947Z</time></trkpt><trkpt lat="44.0769182" lon="8.2086136"><ele>9.0</ele><time>2026-04-05T13:08:11.948Z</time></trkpt><trkpt lat="44.0769697" lon="8.2084545"><ele>9.0</ele><time>2026-04-05T13:08:12.947Z</time></trkpt><trkpt lat="44.0770325" lon="8.2082939"><ele>8.5</ele><time>2026-04-05T13:08:13.947Z</time></trkpt><trkpt lat="44.0770995" lon="8.2081295"><ele>8.0</ele><time>2026-04-05T13:08:14.947Z</time></trkpt><trkpt lat="44.0771723" lon="8.2079678"><ele>7.5</ele><time>2026-04-05T13:08:15.947Z</time></trkpt><trkpt lat="44.0772551" lon="8.2078092"><ele>7.0</ele><time>2026-04-05T13:08:16.948Z</time></trkpt><trkpt lat="44.0773524" lon="8.2076664"><ele>7.25</ele><time>2026-04-05T13:08:17.947Z</time></trkpt><trkpt lat="44.0774608" lon="8.2075349"><ele>7.5</ele><time>2026-04-05T13:08:18.947Z</time></trkpt><trkpt lat="44.0775735" lon="8.2074008"><ele>7.75</ele><time>2026-04-05T13:08:19.947Z</time></trkpt><trkpt lat="44.0776767" lon="8.2072651"><ele>8.0</ele><time>2026-04-05T13:08:20.947Z</time></trkpt><trkpt lat="44.0777573" lon="8.2071176"><ele>8.0</ele><time>2026-04-05T13:08:21.947Z</time></trkpt><trkpt lat="44.077801" lon="8.2069482"><ele>8.0</ele><time>2026-04-05T13:08:22.947Z</time></trkpt><trkpt lat="44.0778177" lon="8.2067729"><ele>8.0</ele><time>2026-04-05T13:08:23.947Z</time></trkpt><trkpt lat="44.0778056" lon="8.2065901"><ele>8.0</ele><time>2026-04-05T13:08:24.947Z</time></trkpt><trkpt lat="44.0777799" lon="8.2063952"><ele>8.0</ele><time>2026-04-05T13:08:25.947Z</time></trkpt><trkpt lat="44.0777707" lon="8.2061931"><ele>8.0</ele><time>2026-04-05T13:08:26.947Z</time></trkpt><trkpt lat="44.0777808" lon="8.2059887"><ele>8.0</ele><time>2026-04-05T13:08:27.947Z</time></trkpt><trkpt lat="44.0778021" lon="8.2057869"><ele>8.0</ele><time>2026-04-05T13:08:28.947Z</time></trkpt><trkpt lat="44.077825" lon="8.2055856"><ele>9.0</ele><time>2026-04-05T13:08:29.947Z</time></trkpt><trkpt lat="44.0778484" lon="8.2053819"><ele>10.0</ele><time>2026-04-05T13:08:30.947Z</time></trkpt><trkpt lat="44.0778784" lon="8.2051815"><ele>11.0</ele><time>2026-04-05T13:08:31.948Z</time></trkpt><trkpt lat="44.0779063" lon="8.2049824"><ele>12.0</ele><time>2026-04-05T13:08:32.947Z</time></trkpt><trkpt lat="44.0779287" lon="8.2047807"><ele>12.5</ele><time>2026-04-05T13:08:33.948Z</time></trkpt><trkpt lat="44.077926" lon="8.2045871"><ele>13.0</ele><time>2026-04-05T13:08:34.947Z</time></trkpt><trkpt lat="44.0778971" lon="8.2043981"><ele>13.5</ele><time>2026-04-05T13:08:35.947Z</time></trkpt><trkpt lat="44.0778493" lon="8.204241"><ele>14.0</ele><time>2026-04-05T13:08:36.947Z</time></trkpt><trkpt lat="44.0777718" lon="8.2040965"><ele>14.75</ele><time>2026-04-05T13:08:37.947Z</time></trkpt><trkpt lat="44.0776673" lon="8.2039499"><ele>15.5</ele><time>2026-04-05T13:08:38.947Z</time></trkpt><trkpt lat="44.0775561" lon="8.2038127"><ele>16.25</ele><time>2026-04-05T13:08:39.947Z</time></trkpt><trkpt lat="44.0774474" lon="8.2036688"><ele>17.0</ele><time>2026-04-05T13:08:40.947Z</time></trkpt><trkpt lat="44.0773417" lon="8.203515"><ele>17.0</ele><time>2026-04-05T13:08:41.948Z</time></trkpt><trkpt lat="44.0772424" lon="8.2033571"><ele>17.0</ele><time>2026-04-05T13:08:42.947Z</time></trkpt><trkpt lat="44.0771547" lon="8.2032045"><ele>17.0</ele><time>2026-04-05T13:08:43.947Z</time></trkpt><trkpt lat="44.0770864" lon="8.2030407"><ele>17.0</ele><time>2026-04-05T13:08:44.947Z</time></trkpt><trkpt lat="44.0770428" lon="8.2028591"><ele>17.0</ele><time>2026-04-05T13:08:45.948Z</time></trkpt><trkpt lat="44.0770103" lon="8.2026552"><ele>17.0</ele><time>2026-04-05T13:08:46.947Z</time></trkpt><trkpt lat="44.0769957" lon="8.2024415"><ele>17.0</ele><time>2026-04-05T13:08:47.948Z</time></trkpt><trkpt lat="44.0769757" lon="8.2022267"><ele>17.0</ele><time>2026-04-05T13:08:48.947Z</time></trkpt><trkpt lat="44.0769523" lon="8.2020207"><ele>17.0</ele><time>2026-04-05T13:08:49.947Z</time></trkpt><trkpt lat="44.0769248" lon="8.2018129"><ele>17.0</ele><time>2026-04-05T13:08:50.947Z</time></trkpt><trkpt lat="44.0769016" lon="8.2015982"><ele>18.333333333333336</ele><time>2026-04-05T13:08:51.947Z</time></trkpt><trkpt lat="44.0768822" lon="8.2013828"><ele>19.666666666666668</ele><time>2026-04-05T13:08:52.947Z</time></trkpt><trkpt lat="44.0768602" lon="8.2011711"><ele>21.0</ele><time>2026-04-05T13:08:53.947Z</time></trkpt><trkpt lat="44.0768462" lon="8.200953"><ele>21.0</ele><time>2026-04-05T13:08:54.947Z</time></trkpt><trkpt lat="44.0768318" lon="8.2007384"><ele>21.0</ele><time>2026-04-05T13:08:55.947Z</time></trkpt><trkpt lat="44.0768094" lon="8.2005249"><ele>21.0</ele><time>2026-04-05T13:08:56.947Z</time></trkpt><trkpt lat="44.0767908" lon="8.2003091"><ele>20.75</ele><time>2026-04-05T13:08:57.947Z</time></trkpt><trkpt lat="44.0767749" lon="8.2001091"><ele>20.5</ele><time>2026-04-05T13:08:58.947Z</time></trkpt><trkpt lat="44.0767586" lon="8.1999232"><ele>20.25</ele><time>2026-04-05T13:08:59.947Z</time></trkpt><trkpt lat="44.0767364" lon="8.1997532"><ele>20.0</ele><time>2026-04-05T13:09:00.947Z</time></trkpt><trkpt lat="44.0767182" lon="8.1995923"><ele>19.25</ele><time>2026-04-05T13:09:01.947Z</time></trkpt><trkpt lat="44.0766994" lon="8.1994255"><ele>18.5</ele><time>2026-04-05T13:09:02.947Z</time></trkpt><trkpt lat="44.0766857" lon="8.1992487"><ele>17.75</ele><time>2026-04-05T13:09:03.947Z</time></trkpt><trkpt lat="44.0766718" lon="8.1990777"><ele>17.0</ele><time>2026-04-05T13:09:04.948Z</time></trkpt><trkpt lat="44.0766454" lon="8.1989111"><ele>16.75</ele><time>2026-04-05T13:09:05.947Z</time></trkpt><trkpt lat="44.0766111" lon="8.1987496"><ele>16.5</ele><time>2026-04-05T13:09:06.947Z</time></trkpt><trkpt lat="44.0765678" lon="8.1985944"><ele>16.25</ele><time>2026-04-05T13:09:07.947Z</time></trkpt><trkpt lat="44.0765206" lon="8.1984543"><ele>16.0</ele><time>2026-04-05T13:09:08.947Z</time></trkpt><trkpt lat="44.0764715" lon="8.1983271"><ele>15.4</ele><time>2026-04-05T13:09:09.947Z</time></trkpt><trkpt lat="44.076418" lon="8.1981998"><ele>14.8</ele><time>2026-04-05T13:09:10.948Z</time></trkpt><trkpt lat="44.0763738" lon="8.1980731"><ele>14.200000000000001</ele><time>2026-04-05T13:09:11.947Z</time></trkpt><trkpt lat="44.0763247" lon="8.1979423"><ele>13.600000000000001</ele><time>2026-04-05T13:09:12.947Z</time></trkpt><trkpt lat="44.0762747" lon="8.1978099"><ele>13.0</ele><time>2026-04-05T13:09:13.947Z</time></trkpt><trkpt lat="44.0762193" lon="8.1976794"><ele>13.0</ele><time>2026-04-05T13:09:14.947Z</time></trkpt><trkpt lat="44.076164" lon="8.1975502"><ele>13.0</ele><time>2026-04-05T13:09:15.947Z</time></trkpt><trkpt lat="44.0761042" lon="8.1974223"><ele>13.0</ele><time>2026-04-05T13:09:16.948Z</time></trkpt><trkpt lat="44.0760477" lon="8.1972946"><ele>13.0</ele><time>2026-04-05T13:09:17.947Z</time></trkpt><trkpt lat="44.075993" lon="8.1971728"><ele>13.0</ele><time>2026-04-05T13:09:18.947Z</time></trkpt><trkpt lat="44.0759408" lon="8.1970567"><ele>13.833333333333332</ele><time>2026-04-05T13:09:19.947Z</time></trkpt><trkpt lat="44.0759" lon="8.1969507"><ele>14.666666666666666</ele><time>2026-04-05T13:09:20.947Z</time></trkpt><trkpt lat="44.0758676" lon="8.1968616"><ele>15.5</ele><time>2026-04-05T13:09:21.947Z</time></trkpt><trkpt lat="44.0758445" lon="8.1967772"><ele>16.333333333333332</ele><time>2026-04-05T13:09:22.947Z</time></trkpt><trkpt lat="44.0758247" lon="8.1966358"><ele>17.166666666666668</ele><time>2026-04-05T13:09:24.948Z</time></trkpt><trkpt lat="44.0758116" lon="8.1964989"><ele>18.0</ele><time>2026-04-05T13:09:59.947Z</time></trkpt><trkpt lat="44.0757996" lon="8.1964022"><ele>18.6</ele><time>2026-04-05T13:10:00.948Z</time></trkpt><trkpt lat="44.0757901" lon="8.196288"><ele>19.200000000000003</ele><time>2026-04-05T13:10:01.947Z</time></trkpt><trkpt lat="44.0757761" lon="8.1961613"><ele>19.8</ele><time>2026-04-05T13:10:02.947Z</time></trkpt><trkpt lat="44.0757588" lon="8.1960248"><ele>20.400000000000002</ele><time>2026-04-05T13:10:03.947Z</time></trkpt><trkpt lat="44.0757429" lon="8.1958839"><ele>21.0</ele><time>2026-04-05T13:10:04.947Z</time></trkpt><trkpt lat="44.0757218" lon="8.1957338"><ele>21.5</ele><time>2026-04-05T13:10:05.947Z</time></trkpt><trkpt lat="44.0756862" lon="8.1955835"><ele>22.0</ele><time>2026-04-05T13:10:06.947Z</time></trkpt><trkpt lat="44.0756453" lon="8.1954343"><ele>22.5</ele><time>2026-04-05T13:10:07.947Z</time></trkpt><trkpt lat="44.0755871" lon="8.1952877"><ele>23.0</ele><time>2026-04-05T13:10:08.947Z</time></trkpt><trkpt lat="44.0755203" lon="8.1951508"><ele>23.0</ele><time>2026-04-05T13:10:09.948Z</time></trkpt><trkpt lat="44.0754588" lon="8.1950141"><ele>23.0</ele><time>2026-04-05T13:10:10.948Z</time></trkpt><trkpt lat="44.0753986" lon="8.1948772"><ele>23.0</ele><time>2026-04-05T13:10:11.947Z</time></trkpt><trkpt lat="44.0753461" lon="8.1947445"><ele>23.0</ele><time>2026-04-05T13:10:12.947Z</time></trkpt><trkpt lat="44.0752946" lon="8.1946184"><ele>23.0</ele><time>2026-04-05T13:10:13.947Z</time></trkpt><trkpt lat="44.0752462" lon="8.1944869"><ele>23.5</ele><time>2026-04-05T13:10:14.947Z</time></trkpt><trkpt lat="44.0751968" lon="8.1943583"><ele>24.0</ele><time>2026-04-05T13:10:15.947Z</time></trkpt><trkpt lat="44.0751479" lon="8.1942216"><ele>24.5</ele><time>2026-04-05T13:10:16.947Z</time></trkpt><trkpt lat="44.0750891" lon="8.194078"><ele>25.0</ele><time>2026-04-05T13:10:17.947Z</time></trkpt><trkpt lat="44.075028" lon="8.1939176"><ele>25.0</ele><time>2026-04-05T13:10:18.948Z</time></trkpt><trkpt lat="44.0749653" lon="8.1937514"><ele>25.0</ele><time>2026-04-05T13:10:19.947Z</time></trkpt><trkpt lat="44.0748909" lon="8.1935829"><ele>25.0</ele><time>2026-04-05T13:10:20.947Z</time></trkpt><trkpt lat="44.0748247" lon="8.1934048"><ele>25.0</ele><time>2026-04-05T13:10:21.947Z</time></trkpt><trkpt lat="44.0747578" lon="8.1932257"><ele>25.333333333333336</ele><time>2026-04-05T13:10:22.948Z</time></trkpt><trkpt lat="44.0746983" lon="8.1930302"><ele>25.666666666666664</ele><time>2026-04-05T13:10:23.947Z</time></trkpt><trkpt lat="44.074654" lon="8.1928278"><ele>26.0</ele><time>2026-04-05T13:10:24.947Z</time></trkpt><trkpt lat="44.0746109" lon="8.1926219"><ele>26.0</ele><time>2026-04-05T13:10:25.947Z</time></trkpt><trkpt lat="44.0745758" lon="8.1924159"><ele>26.0</ele><time>2026-04-05T13:10:26.947Z</time></trkpt><trkpt lat="44.0745513" lon="8.1922042"><ele>26.0</ele><time>2026-04-05T13:10:27.947Z</time></trkpt><trkpt lat="44.074532" lon="8.1919875"><ele>26.666666666666664</ele><time>2026-04-05T13:10:28.947Z</time></trkpt><trkpt lat="44.0745128" lon="8.1917646"><ele>27.333333333333336</ele><time>2026-04-05T13:10:29.948Z</time></trkpt><trkpt lat="44.0745066" lon="8.1915338"><ele>28.0</ele><time>2026-04-05T13:10:30.947Z</time></trkpt><trkpt lat="44.0745081" lon="8.1912949"><ele>28.333333333333336</ele><time>2026-04-05T13:10:31.947Z</time></trkpt><trkpt lat="44.0744968" lon="8.1910576"><ele>28.666666666666664</ele><time>2026-04-05T13:10:32.947Z</time></trkpt><trkpt lat="44.0744943" lon="8.1908304"><ele>29.0</ele><time>2026-04-05T13:10:33.947Z</time></trkpt><trkpt lat="44.0744929" lon="8.1905927"><ele>29.333333333333332</ele><time>2026-04-05T13:10:34.947Z</time></trkpt><trkpt lat="44.0744903" lon="8.19036"><ele>29.666666666666664</ele><time>2026-04-05T13:10:35.947Z</time></trkpt><trkpt lat="44.0744802" lon="8.1901346"><ele>30.0</ele><time>2026-04-05T13:10:36.947Z</time></trkpt><trkpt lat="44.0744752" lon="8.1899047"><ele>29.333333333333336</ele><time>2026-04-05T13:10:37.947Z</time></trkpt><trkpt lat="44.0744678" lon="8.1896756"><ele>28.666666666666668</ele><time>2026-04-05T13:10:38.948Z</time></trkpt><trkpt lat="44.0744674" lon="8.1894503"><ele>28.0</ele><time>2026-04-05T13:10:39.947Z</time></trkpt><trkpt lat="44.0744628" lon="8.1892153"><ele>27.666666666666668</ele><time>2026-04-05T13:10:40.947Z</time></trkpt><trkpt lat="44.0744527" lon="8.1889715"><ele>27.333333333333336</ele><time>2026-04-05T13:10:41.947Z</time></trkpt><trkpt lat="44.0744505" lon="8.1887348"><ele>27.0</ele><time>2026-04-05T13:10:42.947Z</time></trkpt><trkpt lat="44.0744522" lon="8.1884977"><ele>27.0</ele><time>2026-04-05T13:10:43.947Z</time></trkpt><trkpt lat="44.0744377" lon="8.1882582"><ele>27.0</ele><time>2026-04-05T13:10:44.947Z</time></trkpt><trkpt lat="44.0744218" lon="8.1880209"><ele>27.0</ele><time>2026-04-05T13:10:45.947Z</time></trkpt><trkpt lat="44.0744132" lon="8.1877921"><ele>27.0</ele><time>2026-04-05T13:10:46.947Z</time></trkpt><trkpt lat="44.0744027" lon="8.1875679"><ele>27.0</ele><time>2026-04-05T13:10:47.947Z</time></trkpt><trkpt lat="44.0743995" lon="8.1873577"><ele>27.0</ele><time>2026-04-05T13:10:48.947Z</time></trkpt><trkpt lat="44.0744077" lon="8.1871598"><ele>27.0</ele><time>2026-04-05T13:10:49.947Z</time></trkpt><trkpt lat="44.0744248" lon="8.1869603"><ele>27.0</ele><time>2026-04-05T13:10:50.947Z</time></trkpt><trkpt lat="44.0744728" lon="8.1867679"><ele>27.0</ele><time>2026-04-05T13:10:51.948Z</time></trkpt><trkpt lat="44.074545" lon="8.1865876"><ele>27.0</ele><time>2026-04-05T13:10:52.947Z</time></trkpt><trkpt lat="44.0746237" lon="8.1864177"><ele>27.0</ele><time>2026-04-05T13:10:53.947Z</time></trkpt><trkpt lat="44.0747028" lon="8.1862417"><ele>27.0</ele><time>2026-04-05T13:10:54.947Z</time></trkpt><trkpt lat="44.0747763" lon="8.1860646"><ele>27.0</ele><time>2026-04-05T13:10:55.947Z</time></trkpt><trkpt lat="44.0748536" lon="8.1858883"><ele>27.0</ele><time>2026-04-05T13:10:56.947Z</time></trkpt><trkpt lat="44.0749333" lon="8.185727"><ele>27.25</ele><time>2026-04-05T13:10:57.947Z</time></trkpt><trkpt lat="44.0750162" lon="8.1855883"><ele>27.5</ele><time>2026-04-05T13:10:58.948Z</time></trkpt><trkpt lat="44.0751204" lon="8.1854737"><ele>27.75</ele><time>2026-04-05T13:10:59.947Z</time></trkpt><trkpt lat="44.0752424" lon="8.1853718"><ele>28.0</ele><time>2026-04-05T13:11:00.947Z</time></trkpt><trkpt lat="44.0753781" lon="8.1852717"><ele>28.0</ele><time>2026-04-05T13:11:01.947Z</time></trkpt><trkpt lat="44.0755117" lon="8.185174"><ele>28.0</ele><time>2026-04-05T13:11:02.948Z</time></trkpt><trkpt lat="44.0756465" lon="8.1850738"><ele>28.0</ele><time>2026-04-05T13:11:03.947Z</time></trkpt><trkpt lat="44.075785" lon="8.1849732"><ele>28.666666666666668</ele><time>2026-04-05T13:11:04.947Z</time></trkpt><trkpt lat="44.0759266" lon="8.1848925"><ele>29.333333333333336</ele><time>2026-04-05T13:11:05.947Z</time></trkpt><trkpt lat="44.0760733" lon="8.1848265"><ele>30.0</ele><time>2026-04-05T13:11:06.947Z</time></trkpt><trkpt lat="44.0762298" lon="8.1847766"><ele>30.666666666666664</ele><time>2026-04-05T13:11:07.948Z</time></trkpt><trkpt lat="44.0763934" lon="8.1847267"><ele>31.333333333333332</ele><time>2026-04-05T13:11:08.947Z</time></trkpt><trkpt lat="44.0765499" lon="8.1846737"><ele>32.0</ele><time>2026-04-05T13:11:09.947Z</time></trkpt><trkpt lat="44.0767064" lon="8.184611"><ele>32.666666666666664</ele><time>2026-04-05T13:11:10.947Z</time></trkpt><trkpt lat="44.0768652" lon="8.1845564"><ele>33.333333333333336</ele><time>2026-04-05T13:11:11.947Z</time></trkpt><trkpt lat="44.0770208" lon="8.1844779"><ele>34.0</ele><time>2026-04-05T13:11:12.947Z</time></trkpt><trkpt lat="44.077167" lon="8.1843839"><ele>34.0</ele><time>2026-04-05T13:11:13.947Z</time></trkpt><trkpt lat="44.0773045" lon="8.1842826"><ele>34.0</ele><time>2026-04-05T13:11:14.947Z</time></trkpt><trkpt lat="44.077441" lon="8.1841794"><ele>34.0</ele><time>2026-04-05T13:11:15.947Z</time></trkpt><trkpt lat="44.0775761" lon="8.1840767"><ele>35.66666666666667</ele><time>2026-04-05T13:11:16.948Z</time></trkpt><trkpt lat="44.0777131" lon="8.1839665"><ele>37.333333333333336</ele><time>2026-04-05T13:11:17.947Z</time></trkpt><trkpt lat="44.0778503" lon="8.1838465"><ele>39.0</ele><time>2026-04-05T13:11:18.947Z</time></trkpt><trkpt lat="44.0779823" lon="8.18371"><ele>39.0</ele><time>2026-04-05T13:11:19.947Z</time></trkpt><trkpt lat="44.0781067" lon="8.1835585"><ele>39.0</ele><time>2026-04-05T13:11:20.947Z</time></trkpt><trkpt lat="44.0782229" lon="8.1833963"><ele>39.0</ele><time>2026-04-05T13:11:21.948Z</time></trkpt><trkpt lat="44.0783372" lon="8.1832254"><ele>39.666666666666664</ele><time>2026-04-05T13:11:22.947Z</time></trkpt><trkpt lat="44.0784489" lon="8.1830505"><ele>40.33333333333333</ele><time>2026-04-05T13:11:23.947Z</time></trkpt><trkpt lat="44.0785597" lon="8.1828776"><ele>41.0</ele><time>2026-04-05T13:11:24.947Z</time></trkpt><trkpt lat="44.0786738" lon="8.1827103"><ele>41.0</ele><time>2026-04-05T13:11:25.947Z</time></trkpt><trkpt lat="44.0787787" lon="8.1825583"><ele>41.0</ele><time>2026-04-05T13:11:26.947Z</time></trkpt><trkpt lat="44.0788654" lon="8.1824106"><ele>41.0</ele><time>2026-04-05T13:11:27.947Z</time></trkpt><trkpt lat="44.0789416" lon="8.182267"><ele>41.0</ele><time>2026-04-05T13:11:28.947Z</time></trkpt><trkpt lat="44.0789894" lon="8.1820969"><ele>40.5</ele><time>2026-04-05T13:11:29.947Z</time></trkpt><trkpt lat="44.0789986" lon="8.1819056"><ele>40.0</ele><time>2026-04-05T13:11:30.947Z</time></trkpt><trkpt lat="44.0789851" lon="8.1817001"><ele>39.5</ele><time>2026-04-05T13:11:31.947Z</time></trkpt><trkpt lat="44.0789629" lon="8.1814897"><ele>39.0</ele><time>2026-04-05T13:11:32.947Z</time></trkpt><trkpt lat="44.0789394" lon="8.1812668"><ele>39.0</ele><time>2026-04-05T13:11:33.947Z</time></trkpt><trkpt lat="44.0789172" lon="8.1810476"><ele>39.0</ele><time>2026-04-05T13:11:34.948Z</time></trkpt><trkpt lat="44.0788985" lon="8.1808194"><ele>39.0</ele><time>2026-04-05T13:11:35.948Z</time></trkpt><trkpt lat="44.0788788" lon="8.1805881"><ele>40.666666666666664</ele><time>2026-04-05T13:11:36.947Z</time></trkpt><trkpt lat="44.0788675" lon="8.1803573"><ele>42.33333333333333</ele><time>2026-04-05T13:11:37.947Z</time></trkpt><trkpt lat="44.0788602" lon="8.1801296"><ele>44.0</ele><time>2026-04-05T13:11:38.947Z</time></trkpt><trkpt lat="44.0788663" lon="8.1799121"><ele>44.666666666666664</ele><time>2026-04-05T13:11:39.947Z</time></trkpt><trkpt lat="44.0788906" lon="8.1797023"><ele>45.333333333333336</ele><time>2026-04-05T13:11:40.946Z</time></trkpt><trkpt lat="44.0789375" lon="8.1794973"><ele>46.0</ele><time>2026-04-05T13:11:41.946Z</time></trkpt><trkpt lat="44.0789973" lon="8.1792871"><ele>46.0</ele><time>2026-04-05T13:11:42.946Z</time></trkpt><trkpt lat="44.0790529" lon="8.1790754"><ele>46.0</ele><time>2026-04-05T13:11:43.946Z</time></trkpt><trkpt lat="44.0791063" lon="8.1788592"><ele>46.0</ele><time>2026-04-05T13:11:44.946Z</time></trkpt><trkpt lat="44.0791474" lon="8.1786385"><ele>47.333333333333336</ele><time>2026-04-05T13:11:45.946Z</time></trkpt><trkpt lat="44.0791865" lon="8.1784147"><ele>48.66666666666667</ele><time>2026-04-05T13:11:46.946Z</time></trkpt><trkpt lat="44.0792286" lon="8.1781947"><ele>50.0</ele><time>2026-04-05T13:11:47.946Z</time></trkpt><trkpt lat="44.0792577" lon="8.1779689"><ele>51.0</ele><time>2026-04-05T13:11:48.947Z</time></trkpt><trkpt lat="44.0792697" lon="8.177743"><ele>52.0</ele><time>2026-04-05T13:11:49.946Z</time></trkpt><trkpt lat="44.0792602" lon="8.1775018"><ele>53.0</ele><time>2026-04-05T13:11:50.947Z</time></trkpt><trkpt lat="44.0792347" lon="8.1772685"><ele>53.333333333333336</ele><time>2026-04-05T13:11:51.946Z</time></trkpt><trkpt lat="44.0791956" lon="8.1770463"><ele>53.66666666666667</ele><time>2026-04-05T13:11:52.946Z</time></trkpt><trkpt lat="44.079144" lon="8.1768165"><ele>54.0</ele><time>2026-04-05T13:11:53.946Z</time></trkpt><trkpt lat="44.0790832" lon="8.176589"><ele>52.0</ele><time>2026-04-05T13:11:54.946Z</time></trkpt><trkpt lat="44.079013" lon="8.1763658"><ele>50.0</ele><time>2026-04-05T13:11:55.947Z</time></trkpt><trkpt lat="44.0789449" lon="8.1761375"><ele>48.0</ele><time>2026-04-05T13:11:56.947Z</time></trkpt><trkpt lat="44.0788811" lon="8.1759017"><ele>48.0</ele><time>2026-04-05T13:11:57.946Z</time></trkpt><trkpt lat="44.0788152" lon="8.175676"><ele>48.0</ele><time>2026-04-05T13:11:58.946Z</time></trkpt><trkpt lat="44.0787585" lon="8.1754459"><ele>48.0</ele><time>2026-04-05T13:11:59.946Z</time></trkpt><trkpt lat="44.0787178" lon="8.1752056"><ele>48.0</ele><time>2026-04-05T13:12:00.946Z</time></trkpt><trkpt lat="44.0786834" lon="8.1749586"><ele>48.0</ele><time>2026-04-05T13:12:01.946Z</time></trkpt><trkpt lat="44.0786512" lon="8.174727"><ele>48.0</ele><time>2026-04-05T13:12:02.946Z</time></trkpt><trkpt lat="44.0786364" lon="8.1744853"><ele>47.666666666666664</ele><time>2026-04-05T13:12:03.946Z</time></trkpt><trkpt lat="44.0786508" lon="8.1742474"><ele>47.33333333333333</ele><time>2026-04-05T13:12:04.946Z</time></trkpt><trkpt lat="44.0786651" lon="8.1740098"><ele>47.0</ele><time>2026-04-05T13:12:05.946Z</time></trkpt><trkpt lat="44.0786707" lon="8.1737675"><ele>48.33333333333333</ele><time>2026-04-05T13:12:06.946Z</time></trkpt><trkpt lat="44.0786773" lon="8.1735268"><ele>49.666666666666664</ele><time>2026-04-05T13:12:07.946Z</time></trkpt><trkpt lat="44.0786841" lon="8.1732832"><ele>51.0</ele><time>2026-04-05T13:12:08.947Z</time></trkpt><trkpt lat="44.0786824" lon="8.1730402"><ele>52.0</ele><time>2026-04-05T13:12:09.946Z</time></trkpt><trkpt lat="44.0786855" lon="8.1728093"><ele>53.0</ele><time>2026-04-05T13:12:10.946Z</time></trkpt><trkpt lat="44.0786924" lon="8.1725649"><ele>54.0</ele><time>2026-04-05T13:12:11.946Z</time></trkpt><trkpt lat="44.0786979" lon="8.1723262"><ele>54.0</ele><time>2026-04-05T13:12:12.947Z</time></trkpt><trkpt lat="44.0786922" lon="8.1720903"><ele>54.0</ele><time>2026-04-05T13:12:13.946Z</time></trkpt><trkpt lat="44.0786882" lon="8.1718551"><ele>54.0</ele><time>2026-04-05T13:12:14.946Z</time></trkpt><trkpt lat="44.078691" lon="8.1716203"><ele>55.0</ele><time>2026-04-05T13:12:15.946Z</time></trkpt><trkpt lat="44.0786968" lon="8.1713878"><ele>56.0</ele><time>2026-04-05T13:12:16.946Z</time></trkpt><trkpt lat="44.0787022" lon="8.1711527"><ele>57.0</ele><time>2026-04-05T13:12:17.946Z</time></trkpt><trkpt lat="44.0787035" lon="8.1709228"><ele>57.0</ele><time>2026-04-05T13:12:18.946Z</time></trkpt><trkpt lat="44.0787046" lon="8.1706933"><ele>57.0</ele><time>2026-04-05T13:12:19.946Z</time></trkpt><trkpt lat="44.0787044" lon="8.1704729"><ele>57.0</ele><time>2026-04-05T13:12:20.946Z</time></trkpt><trkpt lat="44.0787027" lon="8.1702523"><ele>57.66666666666667</ele><time>2026-04-05T13:12:21.947Z</time></trkpt><trkpt lat="44.0786966" lon="8.1700251"><ele>58.333333333333336</ele><time>2026-04-05T13:12:22.946Z</time></trkpt><trkpt lat="44.0786799" lon="8.1697933"><ele>59.0</ele><time>2026-04-05T13:12:23.946Z</time></trkpt><trkpt lat="44.078656" lon="8.1695611"><ele>59.0</ele><time>2026-04-05T13:12:24.947Z</time></trkpt><trkpt lat="44.0786284" lon="8.169331"><ele>59.0</ele><time>2026-04-05T13:12:25.946Z</time></trkpt><trkpt lat="44.0785897" lon="8.169088"><ele>59.0</ele><time>2026-04-05T13:12:26.946Z</time></trkpt><trkpt lat="44.078552" lon="8.1688514"><ele>58.66666666666667</ele><time>2026-04-05T13:12:27.946Z</time></trkpt><trkpt lat="44.0785158" lon="8.1686105"><ele>58.33333333333333</ele><time>2026-04-05T13:12:28.946Z</time></trkpt><trkpt lat="44.0784773" lon="8.1683664"><ele>58.0</ele><time>2026-04-05T13:12:29.947Z</time></trkpt><trkpt lat="44.0784353" lon="8.1681252"><ele>58.0</ele><time>2026-04-05T13:12:30.946Z</time></trkpt><trkpt lat="44.078383" lon="8.1678901"><ele>58.0</ele><time>2026-04-05T13:12:31.946Z</time></trkpt><trkpt lat="44.0783219" lon="8.167652"><ele>58.0</ele><time>2026-04-05T13:12:32.946Z</time></trkpt><trkpt lat="44.0782593" lon="8.1674164"><ele>56.0</ele><time>2026-04-05T13:12:33.946Z</time></trkpt><trkpt lat="44.078201" lon="8.1671835"><ele>54.0</ele><time>2026-04-05T13:12:34.946Z</time></trkpt><trkpt lat="44.0781537" lon="8.1669391"><ele>52.0</ele><time>2026-04-05T13:12:35.946Z</time></trkpt><trkpt lat="44.078119" lon="8.1666924"><ele>53.0</ele><time>2026-04-05T13:12:36.947Z</time></trkpt><trkpt lat="44.0781036" lon="8.1664523"><ele>54.0</ele><time>2026-04-05T13:12:37.947Z</time></trkpt><trkpt lat="44.0780992" lon="8.1662068"><ele>55.0</ele><time>2026-04-05T13:12:38.947Z</time></trkpt><trkpt lat="44.0780875" lon="8.1659585"><ele>55.0</ele><time>2026-04-05T13:12:39.946Z</time></trkpt><trkpt lat="44.0780725" lon="8.165706"><ele>55.0</ele><time>2026-04-05T13:12:40.946Z</time></trkpt><trkpt lat="44.0780674" lon="8.1654562"><ele>55.0</ele><time>2026-04-05T13:12:41.946Z</time></trkpt><trkpt lat="44.0780579" lon="8.1652023"><ele>55.0</ele><time>2026-04-05T13:12:42.946Z</time></trkpt><trkpt lat="44.0780459" lon="8.1649484"><ele>55.0</ele><time>2026-04-05T13:12:43.946Z</time></trkpt><trkpt lat="44.0780317" lon="8.1647035"><ele>55.0</ele><time>2026-04-05T13:12:44.946Z</time></trkpt><trkpt lat="44.0780218" lon="8.1644506"><ele>55.33333333333333</ele><time>2026-04-05T13:12:45.946Z</time></trkpt><trkpt lat="44.0780215" lon="8.1642027"><ele>55.66666666666667</ele><time>2026-04-05T13:12:46.946Z</time></trkpt><trkpt lat="44.0780242" lon="8.1639603"><ele>56.0</ele><time>2026-04-05T13:12:47.947Z</time></trkpt><trkpt lat="44.0780262" lon="8.1637245"><ele>56.0</ele><time>2026-04-05T13:12:48.946Z</time></trkpt><trkpt lat="44.0780308" lon="8.1634951"><ele>56.0</ele><time>2026-04-05T13:12:49.947Z</time></trkpt><trkpt lat="44.0780382" lon="8.163262"><ele>56.0</ele><time>2026-04-05T13:12:50.946Z</time></trkpt><trkpt lat="44.0780471" lon="8.1630265"><ele>55.66666666666667</ele><time>2026-04-05T13:12:51.946Z</time></trkpt><trkpt lat="44.0780583" lon="8.1627888"><ele>55.33333333333333</ele><time>2026-04-05T13:12:52.946Z</time></trkpt><trkpt lat="44.078076" lon="8.162553"><ele>55.0</ele><time>2026-04-05T13:12:53.946Z</time></trkpt><trkpt lat="44.0780908" lon="8.162318"><ele>54.666666666666664</ele><time>2026-04-05T13:12:54.946Z</time></trkpt><trkpt lat="44.0781124" lon="8.1620894"><ele>54.33333333333333</ele><time>2026-04-05T13:12:55.946Z</time></trkpt><trkpt lat="44.0781346" lon="8.1618603"><ele>54.0</ele><time>2026-04-05T13:12:56.946Z</time></trkpt><trkpt lat="44.078159" lon="8.161633"><ele>54.0</ele><time>2026-04-05T13:12:57.946Z</time></trkpt><trkpt lat="44.0781843" lon="8.1614243"><ele>54.0</ele><time>2026-04-05T13:12:58.946Z</time></trkpt><trkpt lat="44.0782062" lon="8.1612144"><ele>54.0</ele><time>2026-04-05T13:12:59.946Z</time></trkpt><trkpt lat="44.0782311" lon="8.1610193"><ele>54.0</ele><time>2026-04-05T13:13:00.946Z</time></trkpt><trkpt lat="44.0782643" lon="8.160823"><ele>52.5</ele><time>2026-04-05T13:13:01.946Z</time></trkpt><trkpt lat="44.0783067" lon="8.1606264"><ele>51.0</ele><time>2026-04-05T13:13:02.946Z</time></trkpt><trkpt lat="44.0783709" lon="8.1604486"><ele>49.5</ele><time>2026-04-05T13:13:03.946Z</time></trkpt><trkpt lat="44.0784496" lon="8.160292"><ele>48.0</ele><time>2026-04-05T13:13:04.946Z</time></trkpt><trkpt lat="44.0785348" lon="8.1601545"><ele>48.0</ele><time>2026-04-05T13:13:05.946Z</time></trkpt><trkpt lat="44.0786269" lon="8.1600382"><ele>48.0</ele><time>2026-04-05T13:13:06.946Z</time></trkpt><trkpt lat="44.0787117" lon="8.1599212"><ele>48.0</ele><time>2026-04-05T13:13:07.946Z</time></trkpt><trkpt lat="44.0787713" lon="8.1598007"><ele>48.0</ele><time>2026-04-05T13:13:08.947Z</time></trkpt><trkpt lat="44.0788004" lon="8.1596644"><ele>46.8</ele><time>2026-04-05T13:13:09.946Z</time></trkpt><trkpt lat="44.0787888" lon="8.1595237"><ele>45.599999999999994</ele><time>2026-04-05T13:13:10.947Z</time></trkpt><trkpt lat="44.0787425" lon="8.1593875"><ele>44.400000000000006</ele><time>2026-04-05T13:13:11.946Z</time></trkpt><trkpt lat="44.0786737" lon="8.1592626"><ele>43.2</ele><time>2026-04-05T13:13:12.946Z</time></trkpt><trkpt lat="44.0785901" lon="8.1591623"><ele>42.0</ele><time>2026-04-05T13:13:13.946Z</time></trkpt><trkpt lat="44.0785276" lon="8.1590726"><ele>41.6</ele><time>2026-04-05T13:13:14.946Z</time></trkpt><trkpt lat="44.0784907" lon="8.1589734"><ele>41.2</ele><time>2026-04-05T13:13:15.946Z</time></trkpt><trkpt lat="44.0784892" lon="8.158862"><ele>40.8</ele><time>2026-04-05T13:13:16.946Z</time></trkpt><trkpt lat="44.0785205" lon="8.1587434"><ele>40.4</ele><time>2026-04-05T13:13:17.946Z</time></trkpt><trkpt lat="44.0785713" lon="8.1586185"><ele>40.0</ele><time>2026-04-05T13:13:18.946Z</time></trkpt><trkpt lat="44.078638" lon="8.1584821"><ele>40.0</ele><time>2026-04-05T13:13:19.946Z</time></trkpt><trkpt lat="44.0787091" lon="8.1583284"><ele>40.0</ele><time>2026-04-05T13:13:20.946Z</time></trkpt><trkpt lat="44.0787771" lon="8.1581751"><ele>40.0</ele><time>2026-04-05T13:13:21.946Z</time></trkpt><trkpt lat="44.0788434" lon="8.1580361"><ele>40.0</ele><time>2026-04-05T13:13:22.947Z</time></trkpt><trkpt lat="44.0789028" lon="8.1579146"><ele>40.0</ele><time>2026-04-05T13:13:23.946Z</time></trkpt><trkpt lat="44.0789574" lon="8.1578054"><ele>40.0</ele><time>2026-04-05T13:13:24.946Z</time></trkpt><trkpt lat="44.0790079" lon="8.1577091"><ele>40.0</ele><time>2026-04-05T13:13:25.947Z</time></trkpt><trkpt lat="44.0790572" lon="8.1576189"><ele>40.0</ele><time>2026-04-05T13:13:26.946Z</time></trkpt><trkpt lat="44.0790992" lon="8.1575454"><ele>40.0</ele><time>2026-04-05T13:13:27.946Z</time></trkpt><trkpt lat="44.0791576" lon="8.1574435"><ele>40.0</ele><time>2026-04-05T13:13:29.947Z</time></trkpt><trkpt lat="44.0791753" lon="8.1573492"><ele>39.333333333333336</ele><time>2026-04-05T13:15:04.946Z</time></trkpt><trkpt lat="44.0792274" lon="8.1572077"><ele>38.66666666666667</ele><time>2026-04-05T13:15:06.946Z</time></trkpt><trkpt lat="44.0792627" lon="8.1571258"><ele>38.0</ele><time>2026-04-05T13:15:07.947Z</time></trkpt><trkpt lat="44.0792984" lon="8.1570473"><ele>37.333333333333336</ele><time>2026-04-05T13:15:08.946Z</time></trkpt><trkpt lat="44.0793634" lon="8.1569349"><ele>36.666666666666664</ele><time>2026-04-05T13:15:10.946Z</time></trkpt><trkpt lat="44.0794264" lon="8.1568719"><ele>36.0</ele><time>2026-04-05T13:15:12.946Z</time></trkpt><trkpt lat="44.0795467" lon="8.1568197"><ele>36.0</ele><time>2026-04-05T13:15:14.946Z</time></trkpt><trkpt lat="44.0796325" lon="8.1567866"><ele>36.0</ele><time>2026-04-05T13:15:15.946Z</time></trkpt><trkpt lat="44.0797293" lon="8.1567459"><ele>36.0</ele><time>2026-04-05T13:15:16.946Z</time></trkpt><trkpt lat="44.0798265" lon="8.1566963"><ele>36.0</ele><time>2026-04-05T13:15:17.946Z</time></trkpt><trkpt lat="44.0799243" lon="8.1566447"><ele>36.0</ele><time>2026-04-05T13:15:18.946Z</time></trkpt><trkpt lat="44.0800207" lon="8.1565745"><ele>36.2</ele><time>2026-04-05T13:15:19.947Z</time></trkpt><trkpt lat="44.080119" lon="8.1565112"><ele>36.400000000000006</ele><time>2026-04-05T13:15:20.946Z</time></trkpt><trkpt lat="44.0802167" lon="8.1564544"><ele>36.6</ele><time>2026-04-05T13:15:21.946Z</time></trkpt><trkpt lat="44.0803177" lon="8.1563939"><ele>36.800000000000004</ele><time>2026-04-05T13:15:22.946Z</time></trkpt><trkpt lat="44.0804197" lon="8.1563249"><ele>37.0</ele><time>2026-04-05T13:15:23.946Z</time></trkpt><trkpt lat="44.0805246" lon="8.1562463"><ele>37.0</ele><time>2026-04-05T13:15:24.946Z</time></trkpt><trkpt lat="44.0806378" lon="8.1561522"><ele>37.0</ele><time>2026-04-05T13:15:25.946Z</time></trkpt><trkpt lat="44.0807563" lon="8.1560445"><ele>37.0</ele><time>2026-04-05T13:15:26.946Z</time></trkpt><trkpt lat="44.0808824" lon="8.1559333"><ele>37.0</ele><time>2026-04-05T13:15:27.947Z</time></trkpt><trkpt lat="44.0810116" lon="8.1558135"><ele>38.0</ele><time>2026-04-05T13:15:28.946Z</time></trkpt><trkpt lat="44.0811511" lon="8.1556964"><ele>39.0</ele><time>2026-04-05T13:15:29.946Z</time></trkpt><trkpt lat="44.0812944" lon="8.155572"><ele>40.0</ele><time>2026-04-05T13:15:30.946Z</time></trkpt><trkpt lat="44.0814351" lon="8.1554388"><ele>40.0</ele><time>2026-04-05T13:15:31.946Z</time></trkpt><trkpt lat="44.0815746" lon="8.1552997"><ele>40.0</ele><time>2026-04-05T13:15:32.946Z</time></trkpt><trkpt lat="44.0817141" lon="8.1551692"><ele>40.0</ele><time>2026-04-05T13:15:33.946Z</time></trkpt><trkpt lat="44.081851" lon="8.1550495"><ele>41.333333333333336</ele><time>2026-04-05T13:15:34.946Z</time></trkpt><trkpt lat="44.0819851" lon="8.1549216"><ele>42.666666666666664</ele><time>2026-04-05T13:15:35.946Z</time></trkpt><trkpt lat="44.0821193" lon="8.1547961"><ele>44.0</ele><time>2026-04-05T13:15:36.946Z</time></trkpt><trkpt lat="44.0822436" lon="8.1546659"><ele>44.33333333333333</ele><time>2026-04-05T13:15:37.946Z</time></trkpt><trkpt lat="44.0823611" lon="8.1545205"><ele>44.666666666666664</ele><time>2026-04-05T13:15:38.946Z</time></trkpt><trkpt lat="44.0824756" lon="8.1543671"><ele>45.0</ele><time>2026-04-05T13:15:39.947Z</time></trkpt><trkpt lat="44.0825883" lon="8.1541976"><ele>45.666666666666664</ele><time>2026-04-05T13:15:40.946Z</time></trkpt><trkpt lat="44.0827021" lon="8.1540303"><ele>46.33333333333333</ele><time>2026-04-05T13:15:41.946Z</time></trkpt><trkpt lat="44.0828067" lon="8.1538603"><ele>47.0</ele><time>2026-04-05T13:15:42.946Z</time></trkpt><trkpt lat="44.0829109" lon="8.1536955"><ele>47.0</ele><time>2026-04-05T13:15:43.946Z</time></trkpt><trkpt lat="44.0830237" lon="8.1535262"><ele>47.0</ele><time>2026-04-05T13:15:44.946Z</time></trkpt><trkpt lat="44.0831342" lon="8.1533496"><ele>47.0</ele><time>2026-04-05T13:15:45.946Z</time></trkpt><trkpt lat="44.0832453" lon="8.1531784"><ele>48.33333333333333</ele><time>2026-04-05T13:15:46.946Z</time></trkpt><trkpt lat="44.0833508" lon="8.1530028"><ele>49.666666666666664</ele><time>2026-04-05T13:15:47.946Z</time></trkpt><trkpt lat="44.0834636" lon="8.1528252"><ele>51.0</ele><time>2026-04-05T13:15:48.946Z</time></trkpt><trkpt lat="44.0835684" lon="8.1526476"><ele>51.0</ele><time>2026-04-05T13:15:49.946Z</time></trkpt><trkpt lat="44.0836732" lon="8.1524745"><ele>51.0</ele><time>2026-04-05T13:15:50.946Z</time></trkpt><trkpt lat="44.0837781" lon="8.1523001"><ele>51.0</ele><time>2026-04-05T13:15:51.946Z</time></trkpt><trkpt lat="44.0838856" lon="8.1521292"><ele>50.66666666666667</ele><time>2026-04-05T13:15:52.946Z</time></trkpt><trkpt lat="44.0840012" lon="8.1519555"><ele>50.333333333333336</ele><time>2026-04-05T13:15:53.946Z</time></trkpt><trkpt lat="44.0841205" lon="8.1517893"><ele>50.0</ele><time>2026-04-05T13:15:54.946Z</time></trkpt><trkpt lat="44.0842347" lon="8.1516152"><ele>49.66666666666667</ele><time>2026-04-05T13:15:55.946Z</time></trkpt><trkpt lat="44.0843533" lon="8.1514375"><ele>49.33333333333333</ele><time>2026-04-05T13:15:56.946Z</time></trkpt><trkpt lat="44.0844652" lon="8.1512603"><ele>49.0</ele><time>2026-04-05T13:15:57.946Z</time></trkpt><trkpt lat="44.0845735" lon="8.1510822"><ele>49.0</ele><time>2026-04-05T13:15:58.946Z</time></trkpt><trkpt lat="44.0846727" lon="8.1508994"><ele>49.0</ele><time>2026-04-05T13:15:59.946Z</time></trkpt><trkpt lat="44.0847782" lon="8.1507142"><ele>49.0</ele><time>2026-04-05T13:16:00.946Z</time></trkpt><trkpt lat="44.0848792" lon="8.1505317"><ele>49.33333333333333</ele><time>2026-04-05T13:16:01.947Z</time></trkpt><trkpt lat="44.0849839" lon="8.1503516"><ele>49.66666666666667</ele><time>2026-04-05T13:16:02.946Z</time></trkpt><trkpt lat="44.0850883" lon="8.1501749"><ele>50.0</ele><time>2026-04-05T13:16:03.946Z</time></trkpt><trkpt lat="44.0851817" lon="8.1499954"><ele>50.0</ele><time>2026-04-05T13:16:04.946Z</time></trkpt><trkpt lat="44.0852793" lon="8.1498122"><ele>50.0</ele><time>2026-04-05T13:16:05.946Z</time></trkpt><trkpt lat="44.0853796" lon="8.1496268"><ele>50.0</ele><time>2026-04-05T13:16:06.946Z</time></trkpt><trkpt lat="44.0854794" lon="8.1494495"><ele>50.0</ele><time>2026-04-05T13:16:07.946Z</time></trkpt><trkpt lat="44.085588" lon="8.1492876"><ele>50.0</ele><time>2026-04-05T13:16:08.946Z</time></trkpt><trkpt lat="44.0857078" lon="8.1491243"><ele>50.0</ele><time>2026-04-05T13:16:09.946Z</time></trkpt><trkpt lat="44.085835" lon="8.1489612"><ele>51.333333333333336</ele><time>2026-04-05T13:16:10.946Z</time></trkpt><trkpt lat="44.0859492" lon="8.148801"><ele>52.66666666666667</ele><time>2026-04-05T13:16:11.946Z</time></trkpt><trkpt lat="44.0860666" lon="8.148651"><ele>54.0</ele><time>2026-04-05T13:16:12.946Z</time></trkpt><trkpt lat="44.0861848" lon="8.1485012"><ele>54.0</ele><time>2026-04-05T13:16:13.946Z</time></trkpt><trkpt lat="44.0863008" lon="8.1483526"><ele>54.0</ele><time>2026-04-05T13:16:14.946Z</time></trkpt><trkpt lat="44.0864184" lon="8.1481934"><ele>54.0</ele><time>2026-04-05T13:16:15.946Z</time></trkpt><trkpt lat="44.0865343" lon="8.1480339"><ele>55.0</ele><time>2026-04-05T13:16:16.946Z</time></trkpt><trkpt lat="44.0866533" lon="8.1478757"><ele>56.0</ele><time>2026-04-05T13:16:17.946Z</time></trkpt><trkpt lat="44.0867743" lon="8.1477188"><ele>57.0</ele><time>2026-04-05T13:16:18.947Z</time></trkpt><trkpt lat="44.0868958" lon="8.1475658"><ele>57.0</ele><time>2026-04-05T13:16:19.946Z</time></trkpt><trkpt lat="44.0870124" lon="8.1474149"><ele>57.0</ele><time>2026-04-05T13:16:20.946Z</time></trkpt><trkpt lat="44.0871238" lon="8.1472571"><ele>57.0</ele><time>2026-04-05T13:16:21.946Z</time></trkpt><trkpt lat="44.0872385" lon="8.1471058"><ele>57.25</ele><time>2026-04-05T13:16:22.946Z</time></trkpt><trkpt lat="44.0873521" lon="8.1469582"><ele>57.5</ele><time>2026-04-05T13:16:23.946Z</time></trkpt><trkpt lat="44.0874536" lon="8.1468114"><ele>57.75</ele><time>2026-04-05T13:16:24.946Z</time></trkpt><trkpt lat="44.0875507" lon="8.146673"><ele>58.0</ele><time>2026-04-05T13:16:25.946Z</time></trkpt><trkpt lat="44.0876346" lon="8.1465167"><ele>58.25</ele><time>2026-04-05T13:16:26.946Z</time></trkpt><trkpt lat="44.0876972" lon="8.14634"><ele>58.5</ele><time>2026-04-05T13:16:27.946Z</time></trkpt><trkpt lat="44.0877453" lon="8.1461455"><ele>58.75</ele><time>2026-04-05T13:16:28.946Z</time></trkpt><trkpt lat="44.0877945" lon="8.1459493"><ele>59.0</ele><time>2026-04-05T13:16:29.946Z</time></trkpt><trkpt lat="44.0878435" lon="8.1457495"><ele>57.66666666666667</ele><time>2026-04-05T13:16:30.946Z</time></trkpt><trkpt lat="44.0879" lon="8.1455452"><ele>56.33333333333333</ele><time>2026-04-05T13:16:31.946Z</time></trkpt><trkpt lat="44.0879691" lon="8.1453424"><ele>55.0</ele><time>2026-04-05T13:16:32.946Z</time></trkpt><trkpt lat="44.0880371" lon="8.1451258"><ele>55.0</ele><time>2026-04-05T13:16:33.947Z</time></trkpt><trkpt lat="44.0881008" lon="8.144903"><ele>55.0</ele><time>2026-04-05T13:16:34.946Z</time></trkpt><trkpt lat="44.088174" lon="8.1446785"><ele>55.0</ele><time>2026-04-05T13:16:35.946Z</time></trkpt><trkpt lat="44.0882378" lon="8.1444489"><ele>55.0</ele><time>2026-04-05T13:16:36.946Z</time></trkpt><trkpt lat="44.0883063" lon="8.1442168"><ele>55.0</ele><time>2026-04-05T13:16:37.946Z</time></trkpt><trkpt lat="44.0883724" lon="8.1439857"><ele>55.0</ele><time>2026-04-05T13:16:38.946Z</time></trkpt><trkpt lat="44.0884366" lon="8.1437622"><ele>55.0</ele><time>2026-04-05T13:16:39.946Z</time></trkpt><trkpt lat="44.0885013" lon="8.1435372"><ele>55.0</ele><time>2026-04-05T13:16:40.946Z</time></trkpt><trkpt lat="44.0885633" lon="8.143322"><ele>55.0</ele><time>2026-04-05T13:16:41.947Z</time></trkpt><trkpt lat="44.0886256" lon="8.1431068"><ele>53.33333333333333</ele><time>2026-04-05T13:16:42.946Z</time></trkpt><trkpt lat="44.088675" lon="8.1428831"><ele>51.66666666666667</ele><time>2026-04-05T13:16:43.946Z</time></trkpt><trkpt lat="44.0887168" lon="8.1426552"><ele>50.0</ele><time>2026-04-05T13:16:44.946Z</time></trkpt><trkpt lat="44.0887575" lon="8.1424206"><ele>51.0</ele><time>2026-04-05T13:16:45.946Z</time></trkpt><trkpt lat="44.0887939" lon="8.1421776"><ele>52.0</ele><time>2026-04-05T13:16:46.946Z</time></trkpt><trkpt lat="44.0888298" lon="8.1419431"><ele>53.0</ele><time>2026-04-05T13:16:47.946Z</time></trkpt><trkpt lat="44.0888611" lon="8.1417029"><ele>53.0</ele><time>2026-04-05T13:16:48.946Z</time></trkpt><trkpt lat="44.0888925" lon="8.1414649"><ele>53.0</ele><time>2026-04-05T13:16:49.946Z</time></trkpt><trkpt lat="44.0889183" lon="8.1412267"><ele>53.0</ele><time>2026-04-05T13:16:50.946Z</time></trkpt><trkpt lat="44.0889432" lon="8.1409913"><ele>53.0</ele><time>2026-04-05T13:16:51.946Z</time></trkpt><trkpt lat="44.0889652" lon="8.1407601"><ele>53.0</ele><time>2026-04-05T13:16:52.946Z</time></trkpt><trkpt lat="44.088989" lon="8.1405502"><ele>53.0</ele><time>2026-04-05T13:16:53.946Z</time></trkpt><trkpt lat="44.0890188" lon="8.1403444"><ele>52.25</ele><time>2026-04-05T13:16:54.946Z</time></trkpt><trkpt lat="44.0890518" lon="8.1401438"><ele>51.5</ele><time>2026-04-05T13:16:55.946Z</time></trkpt><trkpt lat="44.0891002" lon="8.139955"><ele>50.75</ele><time>2026-04-05T13:16:56.946Z</time></trkpt><trkpt lat="44.0891614" lon="8.1397794"><ele>50.0</ele><time>2026-04-05T13:16:57.946Z</time></trkpt><trkpt lat="44.0892335" lon="8.1396069"><ele>53.66666666666667</ele><time>2026-04-05T13:16:58.946Z</time></trkpt><trkpt lat="44.0893101" lon="8.1394308"><ele>57.33333333333333</ele><time>2026-04-05T13:16:59.946Z</time></trkpt><trkpt lat="44.0893943" lon="8.1392483"><ele>61.0</ele><time>2026-04-05T13:17:00.946Z</time></trkpt><trkpt lat="44.0894854" lon="8.139058"><ele>58.33333333333333</ele><time>2026-04-05T13:17:01.946Z</time></trkpt><trkpt lat="44.089573" lon="8.1388765"><ele>55.66666666666667</ele><time>2026-04-05T13:17:02.947Z</time></trkpt><trkpt lat="44.0896668" lon="8.1386925"><ele>53.0</ele><time>2026-04-05T13:17:03.947Z</time></trkpt><trkpt lat="44.08976" lon="8.1385071"><ele>53.0</ele><time>2026-04-05T13:17:04.946Z</time></trkpt><trkpt lat="44.0898528" lon="8.1383271"><ele>53.0</ele><time>2026-04-05T13:17:05.946Z</time></trkpt><trkpt lat="44.0899533" lon="8.1381457"><ele>53.0</ele><time>2026-04-05T13:17:06.946Z</time></trkpt><trkpt lat="44.0900446" lon="8.13796"><ele>55.333333333333336</ele><time>2026-04-05T13:17:07.946Z</time></trkpt><trkpt lat="44.0901354" lon="8.1377736"><ele>57.66666666666667</ele><time>2026-04-05T13:17:08.946Z</time></trkpt><trkpt lat="44.0902238" lon="8.1375894"><ele>60.0</ele><time>2026-04-05T13:17:09.946Z</time></trkpt><trkpt lat="44.0903108" lon="8.1374074"><ele>59.33333333333333</ele><time>2026-04-05T13:17:10.946Z</time></trkpt><trkpt lat="44.0903926" lon="8.1372259"><ele>58.666666666666664</ele><time>2026-04-05T13:17:11.947Z</time></trkpt><trkpt lat="44.0904752" lon="8.1370431"><ele>58.0</ele><time>2026-04-05T13:17:12.946Z</time></trkpt><trkpt lat="44.0905583" lon="8.1368639"><ele>58.0</ele><time>2026-04-05T13:17:13.946Z</time></trkpt><trkpt lat="44.0906392" lon="8.1366899"><ele>58.0</ele><time>2026-04-05T13:17:14.946Z</time></trkpt><trkpt lat="44.090722" lon="8.1365184"><ele>58.0</ele><time>2026-04-05T13:17:15.947Z</time></trkpt><trkpt lat="44.0908037" lon="8.1363497"><ele>58.0</ele><time>2026-04-05T13:17:16.946Z</time></trkpt><trkpt lat="44.0908873" lon="8.1361816"><ele>58.0</ele><time>2026-04-05T13:17:17.946Z</time></trkpt><trkpt lat="44.0909668" lon="8.1360181"><ele>58.0</ele><time>2026-04-05T13:17:18.947Z</time></trkpt><trkpt lat="44.0910427" lon="8.1358639"><ele>58.0</ele><time>2026-04-05T13:17:19.946Z</time></trkpt><trkpt lat="44.0911175" lon="8.135723"><ele>58.0</ele><time>2026-04-05T13:17:20.946Z</time></trkpt><trkpt lat="44.0911906" lon="8.1355985"><ele>58.0</ele><time>2026-04-05T13:17:21.946Z</time></trkpt><trkpt lat="44.091259" lon="8.1354693"><ele>58.0</ele><time>2026-04-05T13:17:22.946Z</time></trkpt><trkpt lat="44.0913196" lon="8.1353198"><ele>58.0</ele><time>2026-04-05T13:17:23.946Z</time></trkpt><trkpt lat="44.0913652" lon="8.135154"><ele>58.0</ele><time>2026-04-05T13:17:24.946Z</time></trkpt><trkpt lat="44.091397" lon="8.1349747"><ele>59.75</ele><time>2026-04-05T13:17:25.946Z</time></trkpt><trkpt lat="44.091424" lon="8.1347873"><ele>61.5</ele><time>2026-04-05T13:17:26.947Z</time></trkpt><trkpt lat="44.0914565" lon="8.1345903"><ele>63.25</ele><time>2026-04-05T13:17:27.946Z</time></trkpt><trkpt lat="44.0914915" lon="8.1343974"><ele>65.0</ele><time>2026-04-05T13:17:28.946Z</time></trkpt><trkpt lat="44.0915208" lon="8.1342025"><ele>65.0</ele><time>2026-04-05T13:17:29.946Z</time></trkpt><trkpt lat="44.0915537" lon="8.1340165"><ele>65.0</ele><time>2026-04-05T13:17:30.946Z</time></trkpt><trkpt lat="44.0915867" lon="8.133835"><ele>65.0</ele><time>2026-04-05T13:17:31.946Z</time></trkpt><trkpt lat="44.0916167" lon="8.133679"><ele>65.0</ele><time>2026-04-05T13:17:32.946Z</time></trkpt><trkpt lat="44.0916392" lon="8.1335321"><ele>65.75</ele><time>2026-04-05T13:17:33.946Z</time></trkpt><trkpt lat="44.0916562" lon="8.1333734"><ele>66.5</ele><time>2026-04-05T13:17:34.946Z</time></trkpt><trkpt lat="44.0916773" lon="8.1332172"><ele>67.25</ele><time>2026-04-05T13:17:35.946Z</time></trkpt><trkpt lat="44.0917038" lon="8.1330698"><ele>68.0</ele><time>2026-04-05T13:17:36.946Z</time></trkpt><trkpt lat="44.0917233" lon="8.132917"><ele>68.0</ele><time>2026-04-05T13:17:37.946Z</time></trkpt><trkpt lat="44.0917535" lon="8.1327553"><ele>68.0</ele><time>2026-04-05T13:17:38.946Z</time></trkpt><trkpt lat="44.0917964" lon="8.1326012"><ele>68.0</ele><time>2026-04-05T13:17:39.946Z</time></trkpt><trkpt lat="44.0918488" lon="8.1324495"><ele>68.0</ele><time>2026-04-05T13:17:40.946Z</time></trkpt><trkpt lat="44.0918945" lon="8.132278"><ele>67.75</ele><time>2026-04-05T13:17:41.946Z</time></trkpt><trkpt lat="44.0919254" lon="8.132102"><ele>67.5</ele><time>2026-04-05T13:17:42.946Z</time></trkpt><trkpt lat="44.0919289" lon="8.1319194"><ele>67.25</ele><time>2026-04-05T13:17:43.946Z</time></trkpt><trkpt lat="44.0919182" lon="8.1317454"><ele>67.0</ele><time>2026-04-05T13:17:44.946Z</time></trkpt><trkpt lat="44.0919091" lon="8.1315832"><ele>67.0</ele><time>2026-04-05T13:17:45.947Z</time></trkpt><trkpt lat="44.0919029" lon="8.1314262"><ele>67.0</ele><time>2026-04-05T13:17:46.946Z</time></trkpt><trkpt lat="44.0918967" lon="8.131267"><ele>67.0</ele><time>2026-04-05T13:17:47.946Z</time></trkpt><trkpt lat="44.0918924" lon="8.1311107"><ele>67.0</ele><time>2026-04-05T13:17:48.946Z</time></trkpt><trkpt lat="44.0918922" lon="8.1309685"><ele>67.0</ele><time>2026-04-05T13:17:49.946Z</time></trkpt><trkpt lat="44.0918909" lon="8.1308277"><ele>66.6</ele><time>2026-04-05T13:17:50.946Z</time></trkpt><trkpt lat="44.0918881" lon="8.1306934"><ele>66.2</ele><time>2026-04-05T13:17:51.946Z</time></trkpt><trkpt lat="44.0918856" lon="8.1305671"><ele>65.8</ele><time>2026-04-05T13:17:52.946Z</time></trkpt><trkpt lat="44.0919008" lon="8.1304417"><ele>65.4</ele><time>2026-04-05T13:17:53.946Z</time></trkpt><trkpt lat="44.0919232" lon="8.1303147"><ele>65.0</ele><time>2026-04-05T13:17:54.946Z</time></trkpt><trkpt lat="44.0919396" lon="8.1301784"><ele>65.0</ele><time>2026-04-05T13:17:55.946Z</time></trkpt><trkpt lat="44.0919554" lon="8.1300364"><ele>65.0</ele><time>2026-04-05T13:17:56.946Z</time></trkpt><trkpt lat="44.0919674" lon="8.1299013"><ele>65.0</ele><time>2026-04-05T13:17:57.947Z</time></trkpt><trkpt lat="44.0919805" lon="8.1297633"><ele>65.0</ele><time>2026-04-05T13:17:58.946Z</time></trkpt><trkpt lat="44.0919902" lon="8.1296267"><ele>65.0</ele><time>2026-04-05T13:17:59.946Z</time></trkpt><trkpt lat="44.0920067" lon="8.1294933"><ele>65.6</ele><time>2026-04-05T13:18:00.946Z</time></trkpt><trkpt lat="44.0920331" lon="8.1293671"><ele>66.2</ele><time>2026-04-05T13:18:01.946Z</time></trkpt><trkpt lat="44.0920737" lon="8.1292502"><ele>66.8</ele><time>2026-04-05T13:18:02.947Z</time></trkpt><trkpt lat="44.0921184" lon="8.129137"><ele>67.4</ele><time>2026-04-05T13:18:03.946Z</time></trkpt><trkpt lat="44.0921673" lon="8.1290258"><ele>68.0</ele><time>2026-04-05T13:18:04.947Z</time></trkpt><trkpt lat="44.0922166" lon="8.1289152"><ele>68.33333333333334</ele><time>2026-04-05T13:18:05.946Z</time></trkpt><trkpt lat="44.0922657" lon="8.1288129"><ele>68.66666666666667</ele><time>2026-04-05T13:18:06.946Z</time></trkpt><trkpt lat="44.0923133" lon="8.1287247"><ele>69.0</ele><time>2026-04-05T13:18:07.946Z</time></trkpt><trkpt lat="44.092359" lon="8.1286432"><ele>69.33333333333333</ele><time>2026-04-05T13:18:08.946Z</time></trkpt><trkpt lat="44.0924051" lon="8.1285642"><ele>69.66666666666666</ele><time>2026-04-05T13:18:09.946Z</time></trkpt><trkpt lat="44.0924503" lon="8.1284829"><ele>70.0</ele><time>2026-04-05T13:18:10.947Z</time></trkpt><trkpt lat="44.0924927" lon="8.1284059"><ele>70.33333333333333</ele><time>2026-04-05T13:18:11.946Z</time></trkpt><trkpt lat="44.0925394" lon="8.1283368"><ele>70.66666666666666</ele><time>2026-04-05T13:18:12.946Z</time></trkpt><trkpt lat="44.0925902" lon="8.1282718"><ele>71.0</ele><time>2026-04-05T13:18:13.946Z</time></trkpt><trkpt lat="44.092654" lon="8.1282167"><ele>71.33333333333333</ele><time>2026-04-05T13:18:14.946Z</time></trkpt><trkpt lat="44.0927343" lon="8.1281694"><ele>71.66666666666667</ele><time>2026-04-05T13:18:15.947Z</time></trkpt><trkpt lat="44.092828" lon="8.1281289"><ele>72.0</ele><time>2026-04-05T13:18:16.946Z</time></trkpt><trkpt lat="44.0929465" lon="8.1280917"><ele>72.5</ele><time>2026-04-05T13:18:17.947Z</time></trkpt><trkpt lat="44.0930738" lon="8.1280562"><ele>73.0</ele><time>2026-04-05T13:18:18.946Z</time></trkpt><trkpt lat="44.093207" lon="8.1280245"><ele>73.5</ele><time>2026-04-05T13:18:19.946Z</time></trkpt><trkpt lat="44.0933421" lon="8.1279956"><ele>74.0</ele><time>2026-04-05T13:18:20.946Z</time></trkpt><trkpt lat="44.0934734" lon="8.1279676"><ele>74.5</ele><time>2026-04-05T13:18:21.947Z</time></trkpt><trkpt lat="44.0936087" lon="8.1279408"><ele>75.0</ele><time>2026-04-05T13:18:22.946Z</time></trkpt><trkpt lat="44.0937448" lon="8.1279349"><ele>75.5</ele><time>2026-04-05T13:18:23.946Z</time></trkpt><trkpt lat="44.0938845" lon="8.127947"><ele>76.0</ele><time>2026-04-05T13:18:24.946Z</time></trkpt><trkpt lat="44.0940249" lon="8.1279735"><ele>76.0</ele><time>2026-04-05T13:18:25.946Z</time></trkpt><trkpt lat="44.0941679" lon="8.1280022"><ele>76.0</ele><time>2026-04-05T13:18:26.946Z</time></trkpt><trkpt lat="44.0943128" lon="8.1280218"><ele>76.0</ele><time>2026-04-05T13:18:27.946Z</time></trkpt><trkpt lat="44.0944604" lon="8.1280269"><ele>76.0</ele><time>2026-04-05T13:18:28.947Z</time></trkpt><trkpt lat="44.09461" lon="8.1280127"><ele>76.0</ele><time>2026-04-05T13:18:29.946Z</time></trkpt><trkpt lat="44.0947583" lon="8.1279766"><ele>76.0</ele><time>2026-04-05T13:18:30.946Z</time></trkpt><trkpt lat="44.0949107" lon="8.1279265"><ele>76.0</ele><time>2026-04-05T13:18:31.947Z</time></trkpt><trkpt lat="44.095054" lon="8.1278564"><ele>76.33333333333333</ele><time>2026-04-05T13:18:32.946Z</time></trkpt><trkpt lat="44.0951934" lon="8.1277782"><ele>76.66666666666667</ele><time>2026-04-05T13:18:33.947Z</time></trkpt><trkpt lat="44.0953303" lon="8.1276954"><ele>77.0</ele><time>2026-04-05T13:18:34.946Z</time></trkpt><trkpt lat="44.0954703" lon="8.1276103"><ele>77.0</ele><time>2026-04-05T13:18:35.947Z</time></trkpt><trkpt lat="44.0956031" lon="8.1275095"><ele>77.0</ele><time>2026-04-05T13:18:36.946Z</time></trkpt><trkpt lat="44.0957261" lon="8.1273857"><ele>77.0</ele><time>2026-04-05T13:18:37.946Z</time></trkpt><trkpt lat="44.0958438" lon="8.1272439"><ele>78.66666666666667</ele><time>2026-04-05T13:18:38.947Z</time></trkpt><trkpt lat="44.0959527" lon="8.1270915"><ele>80.33333333333333</ele><time>2026-04-05T13:18:39.946Z</time></trkpt><trkpt lat="44.0960443" lon="8.1269288"><ele>82.0</ele><time>2026-04-05T13:18:40.947Z</time></trkpt><trkpt lat="44.0961318" lon="8.1267513"><ele>82.0</ele><time>2026-04-05T13:18:41.946Z</time></trkpt><trkpt lat="44.0962225" lon="8.1265719"><ele>82.0</ele><time>2026-04-05T13:18:42.946Z</time></trkpt><trkpt lat="44.0963104" lon="8.1263929"><ele>82.0</ele><time>2026-04-05T13:18:43.946Z</time></trkpt><trkpt lat="44.0963995" lon="8.1262133"><ele>82.66666666666666</ele><time>2026-04-05T13:18:44.946Z</time></trkpt><trkpt lat="44.0964981" lon="8.1260358"><ele>83.33333333333333</ele><time>2026-04-05T13:18:45.946Z</time></trkpt><trkpt lat="44.0965997" lon="8.1258703"><ele>84.0</ele><time>2026-04-05T13:18:46.947Z</time></trkpt><trkpt lat="44.0967084" lon="8.1257139"><ele>84.0</ele><time>2026-04-05T13:18:47.946Z</time></trkpt><trkpt lat="44.096819" lon="8.1255537"><ele>84.0</ele><time>2026-04-05T13:18:48.947Z</time></trkpt><trkpt lat="44.0969212" lon="8.1254049"><ele>84.0</ele><time>2026-04-05T13:18:49.946Z</time></trkpt><trkpt lat="44.0970288" lon="8.1252721"><ele>84.0</ele><time>2026-04-05T13:18:50.947Z</time></trkpt><trkpt lat="44.0971341" lon="8.1251655"><ele>84.0</ele><time>2026-04-05T13:18:51.946Z</time></trkpt><trkpt lat="44.0972532" lon="8.1250947"><ele>84.0</ele><time>2026-04-05T13:18:52.946Z</time></trkpt><trkpt lat="44.0973828" lon="8.1250789"><ele>84.0</ele><time>2026-04-05T13:18:53.946Z</time></trkpt><trkpt lat="44.0975163" lon="8.1250836"><ele>86.25</ele><time>2026-04-05T13:18:54.946Z</time></trkpt><trkpt lat="44.0976558" lon="8.1251135"><ele>88.5</ele><time>2026-04-05T13:18:55.946Z</time></trkpt><trkpt lat="44.0978005" lon="8.1251705"><ele>90.75</ele><time>2026-04-05T13:18:56.946Z</time></trkpt><trkpt lat="44.0979505" lon="8.1252347"><ele>93.0</ele><time>2026-04-05T13:18:57.946Z</time></trkpt><trkpt lat="44.0981082" lon="8.125299"><ele>92.66666666666667</ele><time>2026-04-05T13:18:58.946Z</time></trkpt><trkpt lat="44.0982724" lon="8.1253363"><ele>92.33333333333334</ele><time>2026-04-05T13:18:59.946Z</time></trkpt><trkpt lat="44.0984279" lon="8.1253323"><ele>92.0</ele><time>2026-04-05T13:19:00.947Z</time></trkpt><trkpt lat="44.0985794" lon="8.1252955"><ele>92.0</ele><time>2026-04-05T13:19:01.946Z</time></trkpt><trkpt lat="44.0987282" lon="8.1252198"><ele>92.0</ele><time>2026-04-05T13:19:02.946Z</time></trkpt><trkpt lat="44.0988651" lon="8.1251049"><ele>92.0</ele><time>2026-04-05T13:19:03.946Z</time></trkpt><trkpt lat="44.0989942" lon="8.1249657"><ele>92.0</ele><time>2026-04-05T13:19:04.946Z</time></trkpt><trkpt lat="44.0991051" lon="8.124809"><ele>92.0</ele><time>2026-04-05T13:19:05.946Z</time></trkpt><trkpt lat="44.0992174" lon="8.1246559"><ele>92.0</ele><time>2026-04-05T13:19:06.946Z</time></trkpt><trkpt lat="44.0993324" lon="8.1245062"><ele>92.0</ele><time>2026-04-05T13:19:07.946Z</time></trkpt><trkpt lat="44.0994445" lon="8.1243616"><ele>92.0</ele><time>2026-04-05T13:19:08.947Z</time></trkpt><trkpt lat="44.0995591" lon="8.1242176"><ele>92.0</ele><time>2026-04-05T13:19:09.946Z</time></trkpt><trkpt lat="44.0996727" lon="8.1240619"><ele>92.25</ele><time>2026-04-05T13:19:10.947Z</time></trkpt><trkpt lat="44.0997838" lon="8.1239069"><ele>92.5</ele><time>2026-04-05T13:19:11.947Z</time></trkpt><trkpt lat="44.0998841" lon="8.1237569"><ele>92.75</ele><time>2026-04-05T13:19:12.946Z</time></trkpt><trkpt lat="44.0999867" lon="8.1236241"><ele>93.0</ele><time>2026-04-05T13:19:13.946Z</time></trkpt><trkpt lat="44.1001006" lon="8.1235005"><ele>93.0</ele><time>2026-04-05T13:19:14.946Z</time></trkpt><trkpt lat="44.1002253" lon="8.1233846"><ele>93.0</ele><time>2026-04-05T13:19:15.946Z</time></trkpt><trkpt lat="44.1003593" lon="8.1232862"><ele>93.0</ele><time>2026-04-05T13:19:16.946Z</time></trkpt><trkpt lat="44.1005008" lon="8.1232093"><ele>95.33333333333334</ele><time>2026-04-05T13:19:17.946Z</time></trkpt><trkpt lat="44.1006551" lon="8.1231706"><ele>97.66666666666667</ele><time>2026-04-05T13:19:18.946Z</time></trkpt><trkpt lat="44.1008102" lon="8.123163"><ele>100.0</ele><time>2026-04-05T13:19:19.947Z</time></trkpt><trkpt lat="44.1009685" lon="8.123184"><ele>100.0</ele><time>2026-04-05T13:19:20.946Z</time></trkpt><trkpt lat="44.10112" lon="8.1232203"><ele>100.0</ele><time>2026-04-05T13:19:21.946Z</time></trkpt><trkpt lat="44.1012579" lon="8.1232876"><ele>100.0</ele><time>2026-04-05T13:19:22.946Z</time></trkpt><trkpt lat="44.1013912" lon="8.123378"><ele>100.0</ele><time>2026-04-05T13:19:23.946Z</time></trkpt><trkpt lat="44.1015209" lon="8.123481"><ele>99.0</ele><time>2026-04-05T13:19:24.946Z</time></trkpt><trkpt lat="44.1016517" lon="8.1235813"><ele>98.0</ele><time>2026-04-05T13:19:25.946Z</time></trkpt><trkpt lat="44.1017924" lon="8.1236537"><ele>97.0</ele><time>2026-04-05T13:19:26.946Z</time></trkpt><trkpt lat="44.1019503" lon="8.123698"><ele>97.0</ele><time>2026-04-05T13:19:27.946Z</time></trkpt><trkpt lat="44.1021178" lon="8.1237144"><ele>97.0</ele><time>2026-04-05T13:19:28.946Z</time></trkpt><trkpt lat="44.1022775" lon="8.123725"><ele>97.0</ele><time>2026-04-05T13:19:29.946Z</time></trkpt><trkpt lat="44.102433" lon="8.1237426"><ele>97.66666666666667</ele><time>2026-04-05T13:19:30.947Z</time></trkpt><trkpt lat="44.1025916" lon="8.1237708"><ele>98.33333333333334</ele><time>2026-04-05T13:19:31.947Z</time></trkpt><trkpt lat="44.1027522" lon="8.1238152"><ele>99.0</ele><time>2026-04-05T13:19:32.946Z</time></trkpt><trkpt lat="44.1029094" lon="8.123888"><ele>99.0</ele><time>2026-04-05T13:19:33.946Z</time></trkpt><trkpt lat="44.1030606" lon="8.1239775"><ele>99.0</ele><time>2026-04-05T13:19:34.947Z</time></trkpt><trkpt lat="44.1032078" lon="8.1240663"><ele>99.0</ele><time>2026-04-05T13:19:35.946Z</time></trkpt><trkpt lat="44.1033589" lon="8.1241674"><ele>101.66666666666666</ele><time>2026-04-05T13:19:36.946Z</time></trkpt><trkpt lat="44.103514" lon="8.124265"><ele>104.33333333333333</ele><time>2026-04-05T13:19:37.946Z</time></trkpt><trkpt lat="44.1036495" lon="8.1243622"><ele>107.0</ele><time>2026-04-05T13:19:38.946Z</time></trkpt><trkpt lat="44.1037864" lon="8.1244592"><ele>107.0</ele><time>2026-04-05T13:19:39.946Z</time></trkpt><trkpt lat="44.103926" lon="8.124548"><ele>107.0</ele><time>2026-04-05T13:19:40.946Z</time></trkpt><trkpt lat="44.1040691" lon="8.1246402"><ele>107.0</ele><time>2026-04-05T13:19:41.946Z</time></trkpt><trkpt lat="44.1042076" lon="8.1247106"><ele>106.25</ele><time>2026-04-05T13:19:42.946Z</time></trkpt><trkpt lat="44.1043487" lon="8.1247581"><ele>105.5</ele><time>2026-04-05T13:19:43.946Z</time></trkpt><trkpt lat="44.1044867" lon="8.1247624"><ele>104.75</ele><time>2026-04-05T13:19:44.946Z</time></trkpt><trkpt lat="44.1046317" lon="8.1247209"><ele>104.0</ele><time>2026-04-05T13:19:45.946Z</time></trkpt><trkpt lat="44.1047758" lon="8.1246574"><ele>104.0</ele><time>2026-04-05T13:19:46.947Z</time></trkpt><trkpt lat="44.1049191" lon="8.1245739"><ele>104.0</ele><time>2026-04-05T13:19:47.946Z</time></trkpt><trkpt lat="44.1050563" lon="8.1244685"><ele>104.0</ele><time>2026-04-05T13:19:48.946Z</time></trkpt><trkpt lat="44.1051891" lon="8.1243287"><ele>104.0</ele><time>2026-04-05T13:19:49.946Z</time></trkpt><trkpt lat="44.1053122" lon="8.1241781"><ele>104.0</ele><time>2026-04-05T13:19:50.946Z</time></trkpt><trkpt lat="44.1054298" lon="8.1240249"><ele>104.0</ele><time>2026-04-05T13:19:51.946Z</time></trkpt><trkpt lat="44.1055525" lon="8.123878"><ele>105.0</ele><time>2026-04-05T13:19:52.946Z</time></trkpt><trkpt lat="44.1056783" lon="8.1237398"><ele>106.0</ele><time>2026-04-05T13:19:53.947Z</time></trkpt><trkpt lat="44.1058052" lon="8.1236092"><ele>107.0</ele><time>2026-04-05T13:19:54.946Z</time></trkpt><trkpt lat="44.1059422" lon="8.123479"><ele>107.0</ele><time>2026-04-05T13:19:55.946Z</time></trkpt><trkpt lat="44.1060771" lon="8.1233412"><ele>107.0</ele><time>2026-04-05T13:19:56.946Z</time></trkpt><trkpt lat="44.1062164" lon="8.1232112"><ele>107.0</ele><time>2026-04-05T13:19:57.946Z</time></trkpt><trkpt lat="44.1063568" lon="8.1230716"><ele>109.0</ele><time>2026-04-05T13:19:58.946Z</time></trkpt><trkpt lat="44.1064973" lon="8.1229352"><ele>111.0</ele><time>2026-04-05T13:19:59.946Z</time></trkpt><trkpt lat="44.1066385" lon="8.1227876"><ele>113.0</ele><time>2026-04-05T13:20:00.946Z</time></trkpt><trkpt lat="44.106775" lon="8.1226541"><ele>112.0</ele><time>2026-04-05T13:20:01.946Z</time></trkpt><trkpt lat="44.1069093" lon="8.1225238"><ele>111.0</ele><time>2026-04-05T13:20:02.946Z</time></trkpt><trkpt lat="44.1070405" lon="8.1223955"><ele>110.0</ele><time>2026-04-05T13:20:03.946Z</time></trkpt><trkpt lat="44.1071779" lon="8.1222696"><ele>110.0</ele><time>2026-04-05T13:20:04.946Z</time></trkpt><trkpt lat="44.1073123" lon="8.1221301"><ele>110.0</ele><time>2026-04-05T13:20:05.946Z</time></trkpt><trkpt lat="44.1074471" lon="8.121999"><ele>110.0</ele><time>2026-04-05T13:20:06.947Z</time></trkpt><trkpt lat="44.107579" lon="8.1218767"><ele>108.0</ele><time>2026-04-05T13:20:07.946Z</time></trkpt><trkpt lat="44.1077083" lon="8.1217542"><ele>106.0</ele><time>2026-04-05T13:20:08.946Z</time></trkpt><trkpt lat="44.1078278" lon="8.1216203"><ele>104.0</ele><time>2026-04-05T13:20:09.946Z</time></trkpt><trkpt lat="44.1079304" lon="8.1214697"><ele>104.0</ele><time>2026-04-05T13:20:10.946Z</time></trkpt><trkpt lat="44.1080145" lon="8.1213029"><ele>104.0</ele><time>2026-04-05T13:20:11.947Z</time></trkpt><trkpt lat="44.1080712" lon="8.1211106"><ele>104.0</ele><time>2026-04-05T13:20:12.947Z</time></trkpt><trkpt lat="44.1081027" lon="8.1209004"><ele>106.66666666666666</ele><time>2026-04-05T13:20:13.946Z</time></trkpt><trkpt lat="44.1081015" lon="8.1206918"><ele>109.33333333333334</ele><time>2026-04-05T13:20:14.946Z</time></trkpt><trkpt lat="44.1080812" lon="8.120474"><ele>112.0</ele><time>2026-04-05T13:20:15.946Z</time></trkpt><trkpt lat="44.1080446" lon="8.1202563"><ele>112.0</ele><time>2026-04-05T13:20:16.946Z</time></trkpt><trkpt lat="44.1080154" lon="8.1200466"><ele>112.0</ele><time>2026-04-05T13:20:17.946Z</time></trkpt><trkpt lat="44.1080087" lon="8.1198428"><ele>112.0</ele><time>2026-04-05T13:20:18.946Z</time></trkpt><trkpt lat="44.1080157" lon="8.1196365"><ele>112.0</ele><time>2026-04-05T13:20:19.947Z</time></trkpt><trkpt lat="44.1080282" lon="8.1194241"><ele>113.66666666666667</ele><time>2026-04-05T13:20:20.946Z</time></trkpt><trkpt lat="44.1080457" lon="8.1192028"><ele>115.33333333333334</ele><time>2026-04-05T13:20:21.946Z</time></trkpt><trkpt lat="44.1080657" lon="8.118978"><ele>117.0</ele><time>2026-04-05T13:20:22.947Z</time></trkpt><trkpt lat="44.108098" lon="8.1187564"><ele>115.0</ele><time>2026-04-05T13:20:23.946Z</time></trkpt><trkpt lat="44.1081417" lon="8.1185411"><ele>113.0</ele><time>2026-04-05T13:20:24.946Z</time></trkpt><trkpt lat="44.1081944" lon="8.1183329"><ele>111.0</ele><time>2026-04-05T13:20:25.946Z</time></trkpt><trkpt lat="44.1082659" lon="8.11814"><ele>111.0</ele><time>2026-04-05T13:20:26.946Z</time></trkpt><trkpt lat="44.1083543" lon="8.1179608"><ele>111.0</ele><time>2026-04-05T13:20:27.946Z</time></trkpt><trkpt lat="44.1084482" lon="8.1178007"><ele>111.0</ele><time>2026-04-05T13:20:28.946Z</time></trkpt><trkpt lat="44.1085486" lon="8.1176626"><ele>111.0</ele><time>2026-04-05T13:20:29.946Z</time></trkpt><trkpt lat="44.10864" lon="8.117521"><ele>114.25</ele><time>2026-04-05T13:20:30.947Z</time></trkpt><trkpt lat="44.1087127" lon="8.1173644"><ele>117.5</ele><time>2026-04-05T13:20:31.946Z</time></trkpt><trkpt lat="44.1087642" lon="8.1171981"><ele>120.75</ele><time>2026-04-05T13:20:32.946Z</time></trkpt><trkpt lat="44.1088101" lon="8.1170404"><ele>124.0</ele><time>2026-04-05T13:20:33.946Z</time></trkpt><trkpt lat="44.1088419" lon="8.1168982"><ele>124.0</ele><time>2026-04-05T13:20:34.946Z</time></trkpt><trkpt lat="44.1088683" lon="8.1167725"><ele>124.0</ele><time>2026-04-05T13:20:35.946Z</time></trkpt><trkpt lat="44.1089037" lon="8.116638"><ele>124.0</ele><time>2026-04-05T13:20:36.946Z</time></trkpt><trkpt lat="44.1089579" lon="8.116501"><ele>124.0</ele><time>2026-04-05T13:20:37.946Z</time></trkpt><trkpt lat="44.1090232" lon="8.1163744"><ele>124.0</ele><time>2026-04-05T13:20:38.946Z</time></trkpt><trkpt lat="44.1091076" lon="8.1162472"><ele>124.25</ele><time>2026-04-05T13:20:39.946Z</time></trkpt><trkpt lat="44.1092085" lon="8.1161262"><ele>124.5</ele><time>2026-04-05T13:20:40.946Z</time></trkpt><trkpt lat="44.1093214" lon="8.1159988"><ele>124.75</ele><time>2026-04-05T13:20:41.946Z</time></trkpt><trkpt lat="44.1094354" lon="8.1158585"><ele>125.0</ele><time>2026-04-05T13:20:42.946Z</time></trkpt><trkpt lat="44.1095462" lon="8.1157246"><ele>126.5</ele><time>2026-04-05T13:20:43.946Z</time></trkpt><trkpt lat="44.1096577" lon="8.1156009"><ele>128.0</ele><time>2026-04-05T13:20:44.946Z</time></trkpt><trkpt lat="44.1097618" lon="8.1154955"><ele>129.5</ele><time>2026-04-05T13:20:45.946Z</time></trkpt><trkpt lat="44.1098634" lon="8.115413"><ele>131.0</ele><time>2026-04-05T13:20:46.946Z</time></trkpt><trkpt lat="44.1099841" lon="8.1153498"><ele>131.0</ele><time>2026-04-05T13:20:47.946Z</time></trkpt><trkpt lat="44.1101087" lon="8.1152883"><ele>131.0</ele><time>2026-04-05T13:20:48.946Z</time></trkpt><trkpt lat="44.1102391" lon="8.1152305"><ele>131.0</ele><time>2026-04-05T13:20:49.946Z</time></trkpt><trkpt lat="44.1103722" lon="8.1151672"><ele>131.0</ele><time>2026-04-05T13:20:50.947Z</time></trkpt><trkpt lat="44.1105089" lon="8.1151143"><ele>131.0</ele><time>2026-04-05T13:20:51.946Z</time></trkpt><trkpt lat="44.110641" lon="8.1150454"><ele>131.0</ele><time>2026-04-05T13:20:52.946Z</time></trkpt><trkpt lat="44.1107723" lon="8.1149608"><ele>131.0</ele><time>2026-04-05T13:20:53.946Z</time></trkpt><trkpt lat="44.1109012" lon="8.1148764"><ele>131.0</ele><time>2026-04-05T13:20:54.946Z</time></trkpt><trkpt lat="44.1110266" lon="8.1147833"><ele>135.25</ele><time>2026-04-05T13:20:55.946Z</time></trkpt><trkpt lat="44.1111508" lon="8.1147028"><ele>139.5</ele><time>2026-04-05T13:20:56.946Z</time></trkpt><trkpt lat="44.1112639" lon="8.1146532"><ele>143.75</ele><time>2026-04-05T13:20:57.946Z</time></trkpt><trkpt lat="44.1113819" lon="8.1146233"><ele>148.0</ele><time>2026-04-05T13:20:58.946Z</time></trkpt><trkpt lat="44.1115009" lon="8.1146476"><ele>145.0</ele><time>2026-04-05T13:20:59.947Z</time></trkpt><trkpt lat="44.1116253" lon="8.1146947"><ele>142.0</ele><time>2026-04-05T13:21:00.946Z</time></trkpt><trkpt lat="44.1117547" lon="8.1147455"><ele>139.0</ele><time>2026-04-05T13:21:01.946Z</time></trkpt><trkpt lat="44.1118887" lon="8.1148089"><ele>136.0</ele><time>2026-04-05T13:21:02.946Z</time></trkpt><trkpt lat="44.1120212" lon="8.1148951"><ele>132.0</ele><time>2026-04-05T13:21:03.946Z</time></trkpt><trkpt lat="44.1121578" lon="8.1149927"><ele>128.0</ele><time>2026-04-05T13:21:04.946Z</time></trkpt><trkpt lat="44.1122874" lon="8.1150905"><ele>124.0</ele><time>2026-04-05T13:21:05.946Z</time></trkpt><trkpt lat="44.1124272" lon="8.1151862"><ele>124.0</ele><time>2026-04-05T13:21:06.946Z</time></trkpt><trkpt lat="44.1125662" lon="8.1152796"><ele>124.0</ele><time>2026-04-05T13:21:07.946Z</time></trkpt><trkpt lat="44.112706" lon="8.1153703"><ele>124.0</ele><time>2026-04-05T13:21:08.946Z</time></trkpt><trkpt lat="44.1128374" lon="8.115463"><ele>124.0</ele><time>2026-04-05T13:21:09.946Z</time></trkpt><trkpt lat="44.1129713" lon="8.1155541"><ele>124.0</ele><time>2026-04-05T13:21:10.946Z</time></trkpt><trkpt lat="44.1130939" lon="8.1156509"><ele>124.0</ele><time>2026-04-05T13:21:11.947Z</time></trkpt><trkpt lat="44.1132031" lon="8.1157572"><ele>124.0</ele><time>2026-04-05T13:21:12.946Z</time></trkpt><trkpt lat="44.1132969" lon="8.115861"><ele>123.6</ele><time>2026-04-05T13:21:13.946Z</time></trkpt><trkpt lat="44.1133538" lon="8.1159897"><ele>123.2</ele><time>2026-04-05T13:21:14.946Z</time></trkpt><trkpt lat="44.1133866" lon="8.1161315"><ele>122.79999999999998</ele><time>2026-04-05T13:21:15.946Z</time></trkpt><trkpt lat="44.11341" lon="8.1162804"><ele>122.39999999999999</ele><time>2026-04-05T13:21:16.946Z</time></trkpt><trkpt lat="44.1134203" lon="8.116431"><ele>122.0</ele><time>2026-04-05T13:21:17.947Z</time></trkpt><trkpt lat="44.1134167" lon="8.1165807"><ele>121.8</ele><time>2026-04-05T13:21:18.946Z</time></trkpt><trkpt lat="44.1134041" lon="8.1167388"><ele>121.6</ele><time>2026-04-05T13:21:19.946Z</time></trkpt><trkpt lat="44.1133922" lon="8.1168908"><ele>121.39999999999999</ele><time>2026-04-05T13:21:20.947Z</time></trkpt><trkpt lat="44.1133907" lon="8.1170254"><ele>121.19999999999999</ele><time>2026-04-05T13:21:21.946Z</time></trkpt><trkpt lat="44.1133975" lon="8.1171433"><ele>121.0</ele><time>2026-04-05T13:21:22.947Z</time></trkpt><trkpt lat="44.1134293" lon="8.1172542"><ele>121.0</ele><time>2026-04-05T13:21:23.946Z</time></trkpt><trkpt lat="44.1134822" lon="8.1173501"><ele>121.0</ele><time>2026-04-05T13:21:24.946Z</time></trkpt><trkpt lat="44.1135582" lon="8.1174312"><ele>121.0</ele><time>2026-04-05T13:21:25.946Z</time></trkpt><trkpt lat="44.1136507" lon="8.1175106"><ele>121.0</ele><time>2026-04-05T13:21:26.946Z</time></trkpt><trkpt lat="44.113762" lon="8.1175936"><ele>121.0</ele><time>2026-04-05T13:21:27.947Z</time></trkpt><trkpt lat="44.1138827" lon="8.1176721"><ele>124.0</ele><time>2026-04-05T13:21:28.946Z</time></trkpt><trkpt lat="44.114013" lon="8.1177454"><ele>127.0</ele><time>2026-04-05T13:21:29.946Z</time></trkpt><trkpt lat="44.1141519" lon="8.1178112"><ele>130.0</ele><time>2026-04-05T13:21:30.946Z</time></trkpt><trkpt lat="44.114296" lon="8.1178643"><ele>133.0</ele><time>2026-04-05T13:21:31.946Z</time></trkpt><trkpt lat="44.1144348" lon="8.1179191"><ele>133.0</ele><time>2026-04-05T13:21:32.946Z</time></trkpt><trkpt lat="44.1145724" lon="8.1179694"><ele>133.0</ele><time>2026-04-05T13:21:33.946Z</time></trkpt><trkpt lat="44.1146974" lon="8.1180215"><ele>133.0</ele><time>2026-04-05T13:21:34.946Z</time></trkpt><trkpt lat="44.1148119" lon="8.1180565"><ele>133.0</ele><time>2026-04-05T13:21:35.947Z</time></trkpt><trkpt lat="44.1149124" lon="8.1180884"><ele>131.8</ele><time>2026-04-05T13:21:36.946Z</time></trkpt><trkpt lat="44.1150087" lon="8.1180905"><ele>130.60000000000002</ele><time>2026-04-05T13:21:37.947Z</time></trkpt><trkpt lat="44.1151039" lon="8.118051"><ele>129.39999999999998</ele><time>2026-04-05T13:21:38.946Z</time></trkpt><trkpt lat="44.1152015" lon="8.1180073"><ele>128.2</ele><time>2026-04-05T13:21:39.946Z</time></trkpt><trkpt lat="44.1153031" lon="8.1179654"><ele>127.0</ele><time>2026-04-05T13:21:40.946Z</time></trkpt><trkpt lat="44.1154139" lon="8.1179597"><ele>127.0</ele><time>2026-04-05T13:21:41.946Z</time></trkpt><trkpt lat="44.1155313" lon="8.117966"><ele>127.0</ele><time>2026-04-05T13:21:42.946Z</time></trkpt><trkpt lat="44.1156529" lon="8.1179818"><ele>127.0</ele><time>2026-04-05T13:21:43.946Z</time></trkpt><trkpt lat="44.1157756" lon="8.1180037"><ele>127.0</ele><time>2026-04-05T13:21:44.946Z</time></trkpt><trkpt lat="44.1158941" lon="8.1180289"><ele>129.5</ele><time>2026-04-05T13:21:45.946Z</time></trkpt><trkpt lat="44.1160133" lon="8.1180524"><ele>132.0</ele><time>2026-04-05T13:21:46.946Z</time></trkpt><trkpt lat="44.1161395" lon="8.1180816"><ele>134.5</ele><time>2026-04-05T13:21:47.946Z</time></trkpt><trkpt lat="44.1162632" lon="8.1181108"><ele>137.0</ele><time>2026-04-05T13:21:48.946Z</time></trkpt><trkpt lat="44.1163727" lon="8.1181354"><ele>137.0</ele><time>2026-04-05T13:21:49.946Z</time></trkpt><trkpt lat="44.1164706" lon="8.1181532"><ele>137.0</ele><time>2026-04-05T13:21:50.947Z</time></trkpt><trkpt lat="44.1165589" lon="8.1181396"><ele>137.0</ele><time>2026-04-05T13:21:51.946Z</time></trkpt><trkpt lat="44.1166189" lon="8.1180722"><ele>137.0</ele><time>2026-04-05T13:21:52.946Z</time></trkpt><trkpt lat="44.1166767" lon="8.11799"><ele>137.0</ele><time>2026-04-05T13:21:53.946Z</time></trkpt><trkpt lat="44.1167384" lon="8.1179336"><ele>137.0</ele><time>2026-04-05T13:21:54.946Z</time></trkpt><trkpt lat="44.11682" lon="8.1179209"><ele>139.6</ele><time>2026-04-05T13:21:55.946Z</time></trkpt><trkpt lat="44.1169182" lon="8.1179381"><ele>142.2</ele><time>2026-04-05T13:21:56.946Z</time></trkpt><trkpt lat="44.1170219" lon="8.117951"><ele>144.8</ele><time>2026-04-05T13:21:57.946Z</time></trkpt><trkpt lat="44.1171184" lon="8.1179281"><ele>147.4</ele><time>2026-04-05T13:21:58.946Z</time></trkpt><trkpt lat="44.1171986" lon="8.1178643"><ele>150.0</ele><time>2026-04-05T13:21:59.946Z</time></trkpt><trkpt lat="44.1172554" lon="8.117757"><ele>150.0</ele><time>2026-04-05T13:22:00.946Z</time></trkpt><trkpt lat="44.1172955" lon="8.1176183"><ele>150.0</ele><time>2026-04-05T13:22:01.947Z</time></trkpt><trkpt lat="44.1173361" lon="8.1174645"><ele>150.0</ele><time>2026-04-05T13:22:02.946Z</time></trkpt><trkpt lat="44.1173662" lon="8.1172897"><ele>150.0</ele><time>2026-04-05T13:22:03.946Z</time></trkpt><trkpt lat="44.1174081" lon="8.1171232"><ele>153.2</ele><time>2026-04-05T13:22:04.946Z</time></trkpt><trkpt lat="44.1174596" lon="8.116969"><ele>156.4</ele><time>2026-04-05T13:22:05.946Z</time></trkpt><trkpt lat="44.1175151" lon="8.1168359"><ele>159.60000000000002</ele><time>2026-04-05T13:22:06.946Z</time></trkpt><trkpt lat="44.1175705" lon="8.1167487"><ele>162.8</ele><time>2026-04-05T13:22:07.946Z</time></trkpt><trkpt lat="44.1176442" lon="8.1167064"><ele>166.0</ele><time>2026-04-05T13:22:08.946Z</time></trkpt><trkpt lat="44.1177227" lon="8.1167352"><ele>166.0</ele><time>2026-04-05T13:22:09.946Z</time></trkpt><trkpt lat="44.1178162" lon="8.116782"><ele>166.0</ele><time>2026-04-05T13:22:10.946Z</time></trkpt><trkpt lat="44.1179155" lon="8.1168127"><ele>166.0</ele><time>2026-04-05T13:22:11.946Z</time></trkpt><trkpt lat="44.1180135" lon="8.116829"><ele>166.0</ele><time>2026-04-05T13:22:12.946Z</time></trkpt><trkpt lat="44.1180975" lon="8.1168084"><ele>166.0</ele><time>2026-04-05T13:22:13.946Z</time></trkpt><trkpt lat="44.1181626" lon="8.1167564"><ele>166.0</ele><time>2026-04-05T13:22:14.946Z</time></trkpt><trkpt lat="44.1181463" lon="8.1165701"><ele>166.0</ele><time>2026-04-05T13:22:16.946Z</time></trkpt><trkpt lat="44.1181092" lon="8.1164775"><ele>166.0</ele><time>2026-04-05T13:22:17.946Z</time></trkpt><trkpt lat="44.118072" lon="8.1163792"><ele>166.0</ele><time>2026-04-05T13:22:18.946Z</time></trkpt><trkpt lat="44.11805" lon="8.1162724"><ele>166.0</ele><time>2026-04-05T13:22:19.947Z</time></trkpt><trkpt lat="44.1180578" lon="8.1161589"><ele>166.8</ele><time>2026-04-05T13:22:20.946Z</time></trkpt><trkpt lat="44.118099" lon="8.116049"><ele>167.60000000000002</ele><time>2026-04-05T13:22:21.946Z</time></trkpt><trkpt lat="44.1181594" lon="8.1159589"><ele>168.4</ele><time>2026-04-05T13:22:22.947Z</time></trkpt><trkpt lat="44.1182425" lon="8.1158981"><ele>169.2</ele><time>2026-04-05T13:22:23.947Z</time></trkpt><trkpt lat="44.1183445" lon="8.1158674"><ele>170.0</ele><time>2026-04-05T13:22:24.946Z</time></trkpt><trkpt lat="44.1184487" lon="8.1158527"><ele>170.0</ele><time>2026-04-05T13:22:25.946Z</time></trkpt><trkpt lat="44.1185684" lon="8.1158536"><ele>170.0</ele><time>2026-04-05T13:22:26.946Z</time></trkpt><trkpt lat="44.1187021" lon="8.1158808"><ele>170.0</ele><time>2026-04-05T13:22:27.946Z</time></trkpt><trkpt lat="44.1188465" lon="8.1159299"><ele>170.0</ele><time>2026-04-05T13:22:28.946Z</time></trkpt><trkpt lat="44.1189905" lon="8.1160036"><ele>171.0</ele><time>2026-04-05T13:22:29.947Z</time></trkpt><trkpt lat="44.1191341" lon="8.1160904"><ele>172.0</ele><time>2026-04-05T13:22:30.946Z</time></trkpt><trkpt lat="44.1192743" lon="8.1161935"><ele>173.0</ele><time>2026-04-05T13:22:31.946Z</time></trkpt><trkpt lat="44.1194136" lon="8.1163056"><ele>173.0</ele><time>2026-04-05T13:22:32.946Z</time></trkpt><trkpt lat="44.1195429" lon="8.1164175"><ele>173.0</ele><time>2026-04-05T13:22:33.946Z</time></trkpt><trkpt lat="44.1196583" lon="8.116529"><ele>173.0</ele><time>2026-04-05T13:22:34.947Z</time></trkpt><trkpt lat="44.1197612" lon="8.1166253"><ele>173.0</ele><time>2026-04-05T13:22:35.946Z</time></trkpt><trkpt lat="44.1198618" lon="8.1166936"><ele>177.0</ele><time>2026-04-05T13:22:36.946Z</time></trkpt><trkpt lat="44.1199658" lon="8.1167384"><ele>181.0</ele><time>2026-04-05T13:22:37.946Z</time></trkpt><trkpt lat="44.1200761" lon="8.1167567"><ele>185.0</ele><time>2026-04-05T13:22:38.946Z</time></trkpt><trkpt lat="44.1201913" lon="8.1167712"><ele>189.0</ele><time>2026-04-05T13:22:39.946Z</time></trkpt><trkpt lat="44.1203006" lon="8.1168044"><ele>193.0</ele><time>2026-04-05T13:22:40.946Z</time></trkpt><trkpt lat="44.1203926" lon="8.1168522"><ele>192.99999999999997</ele><time>2026-04-05T13:22:41.946Z</time></trkpt><trkpt lat="44.1204546" lon="8.1169355"><ele>193.0</ele><time>2026-04-05T13:22:42.946Z</time></trkpt><trkpt lat="44.1205014" lon="8.1170358"><ele>193.0</ele><time>2026-04-05T13:22:43.946Z</time></trkpt><trkpt lat="44.1205354" lon="8.1171356"><ele>193.0</ele><time>2026-04-05T13:22:44.946Z</time></trkpt><trkpt lat="44.1205736" lon="8.11722"><ele>192.99999999999997</ele><time>2026-04-05T13:22:45.946Z</time></trkpt><trkpt lat="44.120625" lon="8.1172786"><ele>193.0</ele><time>2026-04-05T13:22:46.946Z</time></trkpt><trkpt lat="44.120703" lon="8.1172672"><ele>193.75</ele><time>2026-04-05T13:22:47.946Z</time></trkpt><trkpt lat="44.1207841" lon="8.1172104"><ele>194.5</ele><time>2026-04-05T13:22:48.946Z</time></trkpt><trkpt lat="44.1208667" lon="8.1171221"><ele>195.25</ele><time>2026-04-05T13:22:49.946Z</time></trkpt><trkpt lat="44.1209476" lon="8.1169884"><ele>196.0</ele><time>2026-04-05T13:22:50.946Z</time></trkpt><trkpt lat="44.1210129" lon="8.1168182"><ele>196.0</ele><time>2026-04-05T13:22:51.946Z</time></trkpt><trkpt lat="44.1210634" lon="8.1166309"><ele>196.0</ele><time>2026-04-05T13:22:52.947Z</time></trkpt><trkpt lat="44.1211016" lon="8.1164511"><ele>196.0</ele><time>2026-04-05T13:22:53.946Z</time></trkpt><trkpt lat="44.1211362" lon="8.116299"><ele>196.0</ele><time>2026-04-05T13:22:54.946Z</time></trkpt><trkpt lat="44.1211837" lon="8.1161869"><ele>196.8</ele><time>2026-04-05T13:22:55.946Z</time></trkpt><trkpt lat="44.121258" lon="8.1161176"><ele>197.60000000000002</ele><time>2026-04-05T13:22:56.947Z</time></trkpt><trkpt lat="44.1213481" lon="8.1160978"><ele>198.4</ele><time>2026-04-05T13:22:57.946Z</time></trkpt><trkpt lat="44.1214524" lon="8.1161048"><ele>199.2</ele><time>2026-04-05T13:22:58.946Z</time></trkpt><trkpt lat="44.1215698" lon="8.1161257"><ele>200.0</ele><time>2026-04-05T13:22:59.947Z</time></trkpt><trkpt lat="44.1216876" lon="8.1161307"><ele>200.0</ele><time>2026-04-05T13:23:00.946Z</time></trkpt><trkpt lat="44.121793" lon="8.1160921"><ele>200.0</ele><time>2026-04-05T13:23:01.946Z</time></trkpt><trkpt lat="44.1218705" lon="8.1159998"><ele>200.0</ele><time>2026-04-05T13:23:02.946Z</time></trkpt><trkpt lat="44.1219295" lon="8.1158649"><ele>200.0</ele><time>2026-04-05T13:23:03.946Z</time></trkpt><trkpt lat="44.1219638" lon="8.1157068"><ele>200.0</ele><time>2026-04-05T13:23:04.946Z</time></trkpt><trkpt lat="44.1219845" lon="8.1155346"><ele>196.6</ele><time>2026-04-05T13:23:05.946Z</time></trkpt><trkpt lat="44.1219985" lon="8.1153744"><ele>193.2</ele><time>2026-04-05T13:23:06.946Z</time></trkpt><trkpt lat="44.1220277" lon="8.1152296"><ele>189.8</ele><time>2026-04-05T13:23:07.946Z</time></trkpt><trkpt lat="44.1220734" lon="8.1150984"><ele>186.4</ele><time>2026-04-05T13:23:08.946Z</time></trkpt><trkpt lat="44.1221339" lon="8.114991"><ele>183.0</ele><time>2026-04-05T13:23:09.946Z</time></trkpt><trkpt lat="44.1222151" lon="8.1149039"><ele>182.25</ele><time>2026-04-05T13:23:10.946Z</time></trkpt><trkpt lat="44.1223205" lon="8.1148498"><ele>181.5</ele><time>2026-04-05T13:23:11.946Z</time></trkpt><trkpt lat="44.1224484" lon="8.1148254"><ele>180.75</ele><time>2026-04-05T13:23:12.946Z</time></trkpt><trkpt lat="44.1225907" lon="8.1148485"><ele>180.0</ele><time>2026-04-05T13:23:13.946Z</time></trkpt><trkpt lat="44.1227289" lon="8.1148977"><ele>188.5</ele><time>2026-04-05T13:23:14.946Z</time></trkpt><trkpt lat="44.1228698" lon="8.1149672"><ele>197.0</ele><time>2026-04-05T13:23:15.946Z</time></trkpt><trkpt lat="44.1230123" lon="8.115041"><ele>205.5</ele><time>2026-04-05T13:23:16.946Z</time></trkpt><trkpt lat="44.1231396" lon="8.1151054"><ele>214.0</ele><time>2026-04-05T13:23:17.947Z</time></trkpt><trkpt lat="44.1232646" lon="8.1151359"><ele>215.2</ele><time>2026-04-05T13:23:18.946Z</time></trkpt><trkpt lat="44.1233739" lon="8.1151256"><ele>216.39999999999998</ele><time>2026-04-05T13:23:19.946Z</time></trkpt><trkpt lat="44.1234676" lon="8.1150712"><ele>217.6</ele><time>2026-04-05T13:23:20.946Z</time></trkpt><trkpt lat="44.1235493" lon="8.1149714"><ele>218.8</ele><time>2026-04-05T13:23:21.946Z</time></trkpt><trkpt lat="44.1236365" lon="8.1148382"><ele>220.0</ele><time>2026-04-05T13:23:22.946Z</time></trkpt><trkpt lat="44.123731" lon="8.1147314"><ele>216.8</ele><time>2026-04-05T13:23:23.946Z</time></trkpt><trkpt lat="44.1238342" lon="8.1146522"><ele>213.6</ele><time>2026-04-05T13:23:24.946Z</time></trkpt><trkpt lat="44.1239302" lon="8.1146021"><ele>210.39999999999998</ele><time>2026-04-05T13:23:25.947Z</time></trkpt><trkpt lat="44.1240226" lon="8.11459"><ele>207.2</ele><time>2026-04-05T13:23:26.946Z</time></trkpt><trkpt lat="44.1241138" lon="8.1146117"><ele>204.0</ele><time>2026-04-05T13:23:27.946Z</time></trkpt><trkpt lat="44.1242" lon="8.1146348"><ele>204.0</ele><time>2026-04-05T13:23:28.947Z</time></trkpt><trkpt lat="44.1242803" lon="8.1146015"><ele>204.0</ele><time>2026-04-05T13:23:29.946Z</time></trkpt><trkpt lat="44.1243629" lon="8.1145175"><ele>204.0</ele><time>2026-04-05T13:23:30.946Z</time></trkpt><trkpt lat="44.1244597" lon="8.114425"><ele>204.0</ele><time>2026-04-05T13:23:31.947Z</time></trkpt><trkpt lat="44.1245592" lon="8.1143285"><ele>204.0</ele><time>2026-04-05T13:23:32.947Z</time></trkpt><trkpt lat="44.1246607" lon="8.1142391"><ele>204.0</ele><time>2026-04-05T13:23:33.946Z</time></trkpt><trkpt lat="44.1247643" lon="8.1141751"><ele>204.0</ele><time>2026-04-05T13:23:34.946Z</time></trkpt><trkpt lat="44.1248765" lon="8.1141426"><ele>204.0</ele><time>2026-04-05T13:23:35.946Z</time></trkpt><trkpt lat="44.1249972" lon="8.1141285"><ele>204.0</ele><time>2026-04-05T13:23:36.946Z</time></trkpt><trkpt lat="44.1251261" lon="8.1141248"><ele>208.0</ele><time>2026-04-05T13:23:37.946Z</time></trkpt><trkpt lat="44.1252537" lon="8.114112"><ele>212.0</ele><time>2026-04-05T13:23:38.946Z</time></trkpt><trkpt lat="44.1253869" lon="8.1141005"><ele>216.0</ele><time>2026-04-05T13:23:39.946Z</time></trkpt><trkpt lat="44.1255261" lon="8.1141003"><ele>220.0</ele><time>2026-04-05T13:23:40.946Z</time></trkpt><trkpt lat="44.125663" lon="8.1141114"><ele>223.75</ele><time>2026-04-05T13:23:41.946Z</time></trkpt><trkpt lat="44.1257963" lon="8.1141366"><ele>227.5</ele><time>2026-04-05T13:23:42.946Z</time></trkpt><trkpt lat="44.1259283" lon="8.1141726"><ele>231.25</ele><time>2026-04-05T13:23:43.946Z</time></trkpt><trkpt lat="44.1260633" lon="8.1142217"><ele>235.0</ele><time>2026-04-05T13:23:44.946Z</time></trkpt><trkpt lat="44.1261863" lon="8.1142859"><ele>234.99999999999997</ele><time>2026-04-05T13:23:45.946Z</time></trkpt><trkpt lat="44.126289" lon="8.1143539"><ele>235.0</ele><time>2026-04-05T13:23:46.946Z</time></trkpt><trkpt lat="44.1263819" lon="8.1144075"><ele>235.0</ele><time>2026-04-05T13:23:47.946Z</time></trkpt><trkpt lat="44.1264656" lon="8.114415"><ele>235.0</ele><time>2026-04-05T13:23:48.946Z</time></trkpt><trkpt lat="44.1265361" lon="8.1143884"><ele>234.99999999999997</ele><time>2026-04-05T13:23:49.946Z</time></trkpt><trkpt lat="44.1265811" lon="8.1143086"><ele>235.0</ele><time>2026-04-05T13:23:50.946Z</time></trkpt><trkpt lat="44.1266157" lon="8.1142044"><ele>239.4</ele><time>2026-04-05T13:23:51.946Z</time></trkpt><trkpt lat="44.1265944" lon="8.1140749"><ele>243.8</ele><time>2026-04-05T13:23:52.946Z</time></trkpt><trkpt lat="44.1265498" lon="8.1139458"><ele>248.2</ele><time>2026-04-05T13:23:53.946Z</time></trkpt><trkpt lat="44.1264912" lon="8.1138182"><ele>252.6</ele><time>2026-04-05T13:23:54.946Z</time></trkpt><trkpt lat="44.1264333" lon="8.1136879"><ele>257.0</ele><time>2026-04-05T13:23:55.947Z</time></trkpt><trkpt lat="44.1263967" lon="8.1135482"><ele>253.2</ele><time>2026-04-05T13:23:56.946Z</time></trkpt><trkpt lat="44.1263907" lon="8.1134063"><ele>249.39999999999998</ele><time>2026-04-05T13:23:57.946Z</time></trkpt><trkpt lat="44.1264028" lon="8.1132681"><ele>245.60000000000002</ele><time>2026-04-05T13:23:58.946Z</time></trkpt><trkpt lat="44.1264381" lon="8.1131369"><ele>241.8</ele><time>2026-04-05T13:23:59.946Z</time></trkpt><trkpt lat="44.1264974" lon="8.1130132"><ele>238.0</ele><time>2026-04-05T13:24:00.946Z</time></trkpt><trkpt lat="44.1265746" lon="8.1128893"><ele>238.0</ele><time>2026-04-05T13:24:01.946Z</time></trkpt><trkpt lat="44.1266602" lon="8.1127684"><ele>238.0</ele><time>2026-04-05T13:24:02.946Z</time></trkpt><trkpt lat="44.1267462" lon="8.1126514"><ele>238.0</ele><time>2026-04-05T13:24:03.946Z</time></trkpt><trkpt lat="44.1268487" lon="8.1125489"><ele>238.0</ele><time>2026-04-05T13:24:04.946Z</time></trkpt><trkpt lat="44.1269491" lon="8.1124686"><ele>238.0</ele><time>2026-04-05T13:24:05.946Z</time></trkpt><trkpt lat="44.1270588" lon="8.1124093"><ele>238.0</ele><time>2026-04-05T13:24:06.946Z</time></trkpt><trkpt lat="44.1271685" lon="8.1123706"><ele>238.0</ele><time>2026-04-05T13:24:07.946Z</time></trkpt><trkpt lat="44.1272923" lon="8.1123459"><ele>238.0</ele><time>2026-04-05T13:24:08.946Z</time></trkpt><trkpt lat="44.1274107" lon="8.1123603"><ele>243.0</ele><time>2026-04-05T13:24:09.946Z</time></trkpt><trkpt lat="44.1275263" lon="8.112423"><ele>248.0</ele><time>2026-04-05T13:24:10.946Z</time></trkpt><trkpt lat="44.1276349" lon="8.1125198"><ele>253.0</ele><time>2026-04-05T13:24:11.946Z</time></trkpt><trkpt lat="44.1277255" lon="8.1126137"><ele>258.0</ele><time>2026-04-05T13:24:12.947Z</time></trkpt><trkpt lat="44.1278139" lon="8.1126817"><ele>258.0</ele><time>2026-04-05T13:24:13.946Z</time></trkpt><trkpt lat="44.1279136" lon="8.1127053"><ele>258.0</ele><time>2026-04-05T13:24:14.947Z</time></trkpt><trkpt lat="44.1280177" lon="8.1126837"><ele>258.0</ele><time>2026-04-05T13:24:15.946Z</time></trkpt><trkpt lat="44.1281153" lon="8.1126194"><ele>258.0</ele><time>2026-04-05T13:24:16.946Z</time></trkpt><trkpt lat="44.128216" lon="8.1125303"><ele>258.0</ele><time>2026-04-05T13:24:17.946Z</time></trkpt><trkpt lat="44.128325" lon="8.1124606"><ele>251.60000000000002</ele><time>2026-04-05T13:24:18.946Z</time></trkpt><trkpt lat="44.128429" lon="8.1123989"><ele>245.20000000000002</ele><time>2026-04-05T13:24:19.946Z</time></trkpt><trkpt lat="44.1285374" lon="8.1123615"><ele>238.8</ele><time>2026-04-05T13:24:20.946Z</time></trkpt><trkpt lat="44.128643" lon="8.1123286"><ele>232.4</ele><time>2026-04-05T13:24:21.946Z</time></trkpt><trkpt lat="44.128727" lon="8.112263"><ele>226.0</ele><time>2026-04-05T13:24:22.947Z</time></trkpt><trkpt lat="44.1288196" lon="8.1121814"><ele>226.0</ele><time>2026-04-05T13:24:23.946Z</time></trkpt><trkpt lat="44.1288862" lon="8.1120531"><ele>226.00000000000003</ele><time>2026-04-05T13:24:24.947Z</time></trkpt><trkpt lat="44.1289288" lon="8.1119097"><ele>226.00000000000003</ele><time>2026-04-05T13:24:25.946Z</time></trkpt><trkpt lat="44.1289619" lon="8.1117808"><ele>226.0</ele><time>2026-04-05T13:24:26.946Z</time></trkpt><trkpt lat="44.1290027" lon="8.1116837"><ele>226.0</ele><time>2026-04-05T13:24:27.946Z</time></trkpt><trkpt lat="44.129066" lon="8.1116433"><ele>230.20000000000002</ele><time>2026-04-05T13:24:28.946Z</time></trkpt><trkpt lat="44.1291545" lon="8.1116637"><ele>234.40000000000003</ele><time>2026-04-05T13:24:29.946Z</time></trkpt><trkpt lat="44.1292568" lon="8.1117158"><ele>238.6</ele><time>2026-04-05T13:24:30.946Z</time></trkpt><trkpt lat="44.1293625" lon="8.1117793"><ele>242.8</ele><time>2026-04-05T13:24:31.946Z</time></trkpt><trkpt lat="44.1294758" lon="8.1118363"><ele>247.0</ele><time>2026-04-05T13:24:32.946Z</time></trkpt><trkpt lat="44.1295985" lon="8.1118865"><ele>247.0</ele><time>2026-04-05T13:24:33.947Z</time></trkpt><trkpt lat="44.1297204" lon="8.111936"><ele>247.0</ele><time>2026-04-05T13:24:34.947Z</time></trkpt><trkpt lat="44.1298318" lon="8.1120029"><ele>247.0</ele><time>2026-04-05T13:24:35.946Z</time></trkpt><trkpt lat="44.1299297" lon="8.1120944"><ele>247.0</ele><time>2026-04-05T13:24:36.946Z</time></trkpt><trkpt lat="44.130001" lon="8.1121999"><ele>247.2</ele><time>2026-04-05T13:24:37.946Z</time></trkpt><trkpt lat="44.1300701" lon="8.1123061"><ele>247.39999999999998</ele><time>2026-04-05T13:24:38.946Z</time></trkpt><trkpt lat="44.130145" lon="8.1123866"><ele>247.60000000000002</ele><time>2026-04-05T13:24:39.946Z</time></trkpt><trkpt lat="44.1302301" lon="8.1124273"><ele>247.8</ele><time>2026-04-05T13:24:40.946Z</time></trkpt><trkpt lat="44.1303151" lon="8.1124336"><ele>248.0</ele><time>2026-04-05T13:24:41.946Z</time></trkpt><trkpt lat="44.1303988" lon="8.1123791"><ele>248.0</ele><time>2026-04-05T13:24:42.946Z</time></trkpt><trkpt lat="44.130489" lon="8.1122968"><ele>248.0</ele><time>2026-04-05T13:24:43.946Z</time></trkpt><trkpt lat="44.1305863" lon="8.1122054"><ele>248.0</ele><time>2026-04-05T13:24:44.946Z</time></trkpt><trkpt lat="44.1306927" lon="8.1121179"><ele>248.0</ele><time>2026-04-05T13:24:45.946Z</time></trkpt><trkpt lat="44.1308094" lon="8.1120462"><ele>248.75</ele><time>2026-04-05T13:24:46.946Z</time></trkpt><trkpt lat="44.1309406" lon="8.1120223"><ele>249.5</ele><time>2026-04-05T13:24:47.946Z</time></trkpt><trkpt lat="44.1310581" lon="8.1120228"><ele>250.25</ele><time>2026-04-05T13:24:48.946Z</time></trkpt><trkpt lat="44.131168" lon="8.1120681"><ele>251.0</ele><time>2026-04-05T13:24:49.946Z</time></trkpt><trkpt lat="44.131261" lon="8.1121117"><ele>251.0</ele><time>2026-04-05T13:24:50.946Z</time></trkpt><trkpt lat="44.1313569" lon="8.1121223"><ele>251.00000000000003</ele><time>2026-04-05T13:24:51.947Z</time></trkpt><trkpt lat="44.1314421" lon="8.1120607"><ele>251.00000000000003</ele><time>2026-04-05T13:24:52.946Z</time></trkpt><trkpt lat="44.1315169" lon="8.1119505"><ele>251.0</ele><time>2026-04-05T13:24:53.946Z</time></trkpt><trkpt lat="44.1315965" lon="8.1118185"><ele>251.0</ele><time>2026-04-05T13:24:54.946Z</time></trkpt><trkpt lat="44.1316799" lon="8.1116963"><ele>250.75</ele><time>2026-04-05T13:24:55.946Z</time></trkpt><trkpt lat="44.1317719" lon="8.1115933"><ele>250.5</ele><time>2026-04-05T13:24:56.947Z</time></trkpt><trkpt lat="44.1318664" lon="8.1115106"><ele>250.25</ele><time>2026-04-05T13:24:57.946Z</time></trkpt><trkpt lat="44.1319688" lon="8.1114515"><ele>250.0</ele><time>2026-04-05T13:24:58.946Z</time></trkpt><trkpt lat="44.1320822" lon="8.1114169"><ele>250.0</ele><time>2026-04-05T13:24:59.946Z</time></trkpt><trkpt lat="44.1321999" lon="8.1114021"><ele>250.0</ele><time>2026-04-05T13:25:00.946Z</time></trkpt><trkpt lat="44.1323279" lon="8.1113828"><ele>250.0</ele><time>2026-04-05T13:25:01.946Z</time></trkpt><trkpt lat="44.1324606" lon="8.1113635"><ele>250.0</ele><time>2026-04-05T13:25:02.946Z</time></trkpt><trkpt lat="44.1325932" lon="8.1113398"><ele>253.5</ele><time>2026-04-05T13:25:03.947Z</time></trkpt><trkpt lat="44.1327183" lon="8.1113158"><ele>257.0</ele><time>2026-04-05T13:25:04.946Z</time></trkpt><trkpt lat="44.1328312" lon="8.1113085"><ele>260.5</ele><time>2026-04-05T13:25:05.946Z</time></trkpt><trkpt lat="44.1329451" lon="8.1113302"><ele>264.0</ele><time>2026-04-05T13:25:06.946Z</time></trkpt><trkpt lat="44.1330667" lon="8.111373"><ele>264.0</ele><time>2026-04-05T13:25:07.946Z</time></trkpt><trkpt lat="44.1331896" lon="8.1114134"><ele>264.0</ele><time>2026-04-05T13:25:08.947Z</time></trkpt><trkpt lat="44.1333142" lon="8.1114607"><ele>264.0</ele><time>2026-04-05T13:25:09.946Z</time></trkpt><trkpt lat="44.1334342" lon="8.1114984"><ele>264.0</ele><time>2026-04-05T13:25:10.946Z</time></trkpt><trkpt lat="44.133564" lon="8.1115479"><ele>265.0</ele><time>2026-04-05T13:25:11.947Z</time></trkpt><trkpt lat="44.1336875" lon="8.1115941"><ele>266.0</ele><time>2026-04-05T13:25:12.946Z</time></trkpt><trkpt lat="44.1337963" lon="8.1116281"><ele>267.0</ele><time>2026-04-05T13:25:13.946Z</time></trkpt><trkpt lat="44.1338918" lon="8.1116268"><ele>268.0</ele><time>2026-04-05T13:25:14.946Z</time></trkpt><trkpt lat="44.1339757" lon="8.111582"><ele>269.0</ele><time>2026-04-05T13:25:15.946Z</time></trkpt><trkpt lat="44.1340487" lon="8.1114885"><ele>270.83333333333337</ele><time>2026-04-05T13:25:16.946Z</time></trkpt><trkpt lat="44.1341196" lon="8.1113905"><ele>272.6666666666667</ele><time>2026-04-05T13:25:17.947Z</time></trkpt><trkpt lat="44.1341876" lon="8.1113137"><ele>274.5</ele><time>2026-04-05T13:25:18.946Z</time></trkpt><trkpt lat="44.1342581" lon="8.111284"><ele>276.3333333333333</ele><time>2026-04-05T13:25:19.946Z</time></trkpt><trkpt lat="44.1343251" lon="8.1113618"><ele>278.16666666666663</ele><time>2026-04-05T13:25:21.947Z</time></trkpt><trkpt lat="44.1342921" lon="8.1114878"><ele>280.0</ele><time>2026-04-05T13:25:23.946Z</time></trkpt><trkpt lat="44.1342342" lon="8.1115451"><ele>282.8333333333333</ele><time>2026-04-05T13:25:24.946Z</time></trkpt><trkpt lat="44.134162" lon="8.1115789"><ele>285.66666666666663</ele><time>2026-04-05T13:25:25.947Z</time></trkpt><trkpt lat="44.1340913" lon="8.1116064"><ele>288.5</ele><time>2026-04-05T13:25:26.946Z</time></trkpt><trkpt lat="44.1340138" lon="8.111637"><ele>291.3333333333333</ele><time>2026-04-05T13:25:27.946Z</time></trkpt><trkpt lat="44.1339239" lon="8.1116741"><ele>294.1666666666667</ele><time>2026-04-05T13:25:28.946Z</time></trkpt><trkpt lat="44.133828" lon="8.1117065"><ele>297.0</ele><time>2026-04-05T13:25:29.947Z</time></trkpt><trkpt lat="44.1337238" lon="8.1117319"><ele>297.0</ele><time>2026-04-05T13:25:30.946Z</time></trkpt><trkpt lat="44.1336179" lon="8.111727"><ele>297.0</ele><time>2026-04-05T13:25:31.946Z</time></trkpt><trkpt lat="44.1335102" lon="8.1117013"><ele>297.0</ele><time>2026-04-05T13:25:32.946Z</time></trkpt><trkpt lat="44.133392" lon="8.1116713"><ele>297.0</ele><time>2026-04-05T13:25:33.946Z</time></trkpt><trkpt lat="44.133269" lon="8.1116513"><ele>296.25</ele><time>2026-04-05T13:25:34.946Z</time></trkpt><trkpt lat="44.1331467" lon="8.111636"><ele>295.5</ele><time>2026-04-05T13:25:35.946Z</time></trkpt><trkpt lat="44.1330216" lon="8.1116206"><ele>294.75</ele><time>2026-04-05T13:25:36.947Z</time></trkpt><trkpt lat="44.1328996" lon="8.111618"><ele>294.0</ele><time>2026-04-05T13:25:37.946Z</time></trkpt><trkpt lat="44.1327813" lon="8.1116343"><ele>294.0</ele><time>2026-04-05T13:25:38.946Z</time></trkpt><trkpt lat="44.1326655" lon="8.1116816"><ele>294.0</ele><time>2026-04-05T13:25:39.946Z</time></trkpt><trkpt lat="44.1325532" lon="8.1117573"><ele>294.0</ele><time>2026-04-05T13:25:40.946Z</time></trkpt><trkpt lat="44.1324466" lon="8.1118354"><ele>294.0</ele><time>2026-04-05T13:25:41.946Z</time></trkpt><trkpt lat="44.1323406" lon="8.111903"><ele>288.75</ele><time>2026-04-05T13:25:42.946Z</time></trkpt><trkpt lat="44.1322324" lon="8.1119685"><ele>283.5</ele><time>2026-04-05T13:25:43.946Z</time></trkpt><trkpt lat="44.1321249" lon="8.1120261"><ele>278.25</ele><time>2026-04-05T13:25:44.946Z</time></trkpt><trkpt lat="44.1320216" lon="8.112087"><ele>273.0</ele><time>2026-04-05T13:25:45.946Z</time></trkpt><trkpt lat="44.1319321" lon="8.1121682"><ele>273.0</ele><time>2026-04-05T13:25:46.946Z</time></trkpt><trkpt lat="44.1318495" lon="8.1122632"><ele>273.0</ele><time>2026-04-05T13:25:47.946Z</time></trkpt><trkpt lat="44.1317786" lon="8.1123745"><ele>273.0</ele><time>2026-04-05T13:25:48.946Z</time></trkpt><trkpt lat="44.1317081" lon="8.11248"><ele>273.0</ele><time>2026-04-05T13:25:49.946Z</time></trkpt><trkpt lat="44.1316295" lon="8.1125753"><ele>273.0</ele><time>2026-04-05T13:25:50.946Z</time></trkpt><trkpt lat="44.1315371" lon="8.1126525"><ele>276.8</ele><time>2026-04-05T13:25:51.946Z</time></trkpt><trkpt lat="44.1314367" lon="8.1127289"><ele>280.6</ele><time>2026-04-05T13:25:52.946Z</time></trkpt><trkpt lat="44.1313372" lon="8.1127959"><ele>284.4</ele><time>2026-04-05T13:25:53.946Z</time></trkpt><trkpt lat="44.1312365" lon="8.1128337"><ele>288.2</ele><time>2026-04-05T13:25:54.946Z</time></trkpt><trkpt lat="44.1311304" lon="8.1128287"><ele>292.0</ele><time>2026-04-05T13:25:55.946Z</time></trkpt><trkpt lat="44.1310142" lon="8.1128049"><ele>292.0</ele><time>2026-04-05T13:25:56.946Z</time></trkpt><trkpt lat="44.1308962" lon="8.1127857"><ele>292.0</ele><time>2026-04-05T13:25:57.946Z</time></trkpt><trkpt lat="44.1307849" lon="8.1127645"><ele>292.0</ele><time>2026-04-05T13:25:58.947Z</time></trkpt><trkpt lat="44.1306797" lon="8.1127338"><ele>292.0</ele><time>2026-04-05T13:25:59.946Z</time></trkpt><trkpt lat="44.130589" lon="8.1127092"><ele>292.0</ele><time>2026-04-05T13:26:00.946Z</time></trkpt><trkpt lat="44.1305041" lon="8.1127142"><ele>291.66666666666663</ele><time>2026-04-05T13:26:01.946Z</time></trkpt><trkpt lat="44.1304216" lon="8.112758"><ele>291.3333333333333</ele><time>2026-04-05T13:26:02.947Z</time></trkpt><trkpt lat="44.130367" lon="8.112855"><ele>291.0</ele><time>2026-04-05T13:26:03.946Z</time></trkpt><trkpt lat="44.1303331" lon="8.1129746"><ele>290.6666666666667</ele><time>2026-04-05T13:26:04.946Z</time></trkpt><trkpt lat="44.1303043" lon="8.1131006"><ele>290.33333333333337</ele><time>2026-04-05T13:26:05.946Z</time></trkpt><trkpt lat="44.130267" lon="8.113207"><ele>290.0</ele><time>2026-04-05T13:26:06.946Z</time></trkpt><trkpt lat="44.1302079" lon="8.1132666"><ele>290.0</ele><time>2026-04-05T13:26:07.946Z</time></trkpt><trkpt lat="44.1301357" lon="8.1132834"><ele>290.0</ele><time>2026-04-05T13:26:08.946Z</time></trkpt><trkpt lat="44.1300455" lon="8.1132712"><ele>290.0</ele><time>2026-04-05T13:26:09.946Z</time></trkpt><trkpt lat="44.1299472" lon="8.1132277"><ele>290.0</ele><time>2026-04-05T13:26:10.946Z</time></trkpt><trkpt lat="44.1298489" lon="8.1131463"><ele>290.0</ele><time>2026-04-05T13:26:11.947Z</time></trkpt><trkpt lat="44.1297523" lon="8.1130727"><ele>289.0</ele><time>2026-04-05T13:26:12.946Z</time></trkpt><trkpt lat="44.1296468" lon="8.1130187"><ele>288.0</ele><time>2026-04-05T13:26:13.946Z</time></trkpt><trkpt lat="44.1295463" lon="8.1129829"><ele>287.0</ele><time>2026-04-05T13:26:14.947Z</time></trkpt><trkpt lat="44.1294535" lon="8.112964"><ele>286.0</ele><time>2026-04-05T13:26:15.946Z</time></trkpt><trkpt lat="44.1293741" lon="8.1129693"><ele>285.0</ele><time>2026-04-05T13:26:16.946Z</time></trkpt><trkpt lat="44.1293003" lon="8.1130151"><ele>285.0</ele><time>2026-04-05T13:26:17.946Z</time></trkpt><trkpt lat="44.1292342" lon="8.1131018"><ele>285.0</ele><time>2026-04-05T13:26:18.946Z</time></trkpt><trkpt lat="44.1291724" lon="8.1132097"><ele>285.0</ele><time>2026-04-05T13:26:19.946Z</time></trkpt><trkpt lat="44.1291018" lon="8.1133013"><ele>285.0</ele><time>2026-04-05T13:26:20.946Z</time></trkpt><trkpt lat="44.1290232" lon="8.1133625"><ele>285.0</ele><time>2026-04-05T13:26:21.946Z</time></trkpt><trkpt lat="44.1289326" lon="8.1133605"><ele>287.8</ele><time>2026-04-05T13:26:22.946Z</time></trkpt><trkpt lat="44.1288396" lon="8.1133199"><ele>290.6</ele><time>2026-04-05T13:26:23.946Z</time></trkpt><trkpt lat="44.1287524" lon="8.1132579"><ele>293.4</ele><time>2026-04-05T13:26:24.947Z</time></trkpt><trkpt lat="44.1286668" lon="8.1131948"><ele>296.2</ele><time>2026-04-05T13:26:25.947Z</time></trkpt><trkpt lat="44.12859" lon="8.1131605"><ele>299.0</ele><time>2026-04-05T13:26:26.946Z</time></trkpt><trkpt lat="44.1285101" lon="8.1131727"><ele>299.0</ele><time>2026-04-05T13:26:27.946Z</time></trkpt><trkpt lat="44.1284419" lon="8.1132226"><ele>299.0</ele><time>2026-04-05T13:26:28.946Z</time></trkpt><trkpt lat="44.1283902" lon="8.1133195"><ele>299.0</ele><time>2026-04-05T13:26:29.946Z</time></trkpt><trkpt lat="44.1283953" lon="8.1134423"><ele>299.0</ele><time>2026-04-05T13:26:30.946Z</time></trkpt><trkpt lat="44.1284392" lon="8.1135577"><ele>299.0</ele><time>2026-04-05T13:26:31.946Z</time></trkpt><trkpt lat="44.1284989" lon="8.1136382"><ele>299.0</ele><time>2026-04-05T13:26:32.946Z</time></trkpt><trkpt lat="44.1285863" lon="8.113669"><ele>299.0</ele><time>2026-04-05T13:26:33.946Z</time></trkpt><trkpt lat="44.1286794" lon="8.1136503"><ele>299.0</ele><time>2026-04-05T13:26:34.946Z</time></trkpt><trkpt lat="44.1287671" lon="8.1135997"><ele>299.0</ele><time>2026-04-05T13:26:35.946Z</time></trkpt><trkpt lat="44.1288595" lon="8.1135584"><ele>299.0</ele><time>2026-04-05T13:26:36.946Z</time></trkpt><trkpt lat="44.1289564" lon="8.1135454"><ele>299.0</ele><time>2026-04-05T13:26:37.946Z</time></trkpt><trkpt lat="44.129054" lon="8.1135353"><ele>296.2</ele><time>2026-04-05T13:26:38.946Z</time></trkpt><trkpt lat="44.1291489" lon="8.1134809"><ele>293.4</ele><time>2026-04-05T13:26:39.946Z</time></trkpt><trkpt lat="44.1292347" lon="8.1133873"><ele>290.6</ele><time>2026-04-05T13:26:40.946Z</time></trkpt><trkpt lat="44.1293199" lon="8.1132728"><ele>287.8</ele><time>2026-04-05T13:26:41.946Z</time></trkpt><trkpt lat="44.1293943" lon="8.1131794"><ele>285.0</ele><time>2026-04-05T13:26:42.947Z</time></trkpt><trkpt lat="44.1294579" lon="8.1131165"><ele>285.0</ele><time>2026-04-05T13:26:43.947Z</time></trkpt><trkpt lat="44.1295286" lon="8.1130931"><ele>285.0</ele><time>2026-04-05T13:26:44.946Z</time></trkpt><trkpt lat="44.1296024" lon="8.1131044"><ele>285.0</ele><time>2026-04-05T13:26:45.946Z</time></trkpt><trkpt lat="44.1296758" lon="8.1131585"><ele>285.0</ele><time>2026-04-05T13:26:46.947Z</time></trkpt><trkpt lat="44.1297572" lon="8.1132463"><ele>285.0</ele><time>2026-04-05T13:26:47.946Z</time></trkpt><trkpt lat="44.1298452" lon="8.1133532"><ele>294.0</ele><time>2026-04-05T13:26:48.946Z</time></trkpt><trkpt lat="44.1299395" lon="8.1134521"><ele>303.0</ele><time>2026-04-05T13:26:49.945Z</time></trkpt><trkpt lat="44.130036" lon="8.1135242"><ele>312.0</ele><time>2026-04-05T13:26:50.945Z</time></trkpt><trkpt lat="44.1301394" lon="8.1135655"><ele>321.0</ele><time>2026-04-05T13:26:51.945Z</time></trkpt><trkpt lat="44.1302464" lon="8.1135867"><ele>330.0</ele><time>2026-04-05T13:26:52.945Z</time></trkpt><trkpt lat="44.1303522" lon="8.1135812"><ele>330.0</ele><time>2026-04-05T13:26:53.945Z</time></trkpt><trkpt lat="44.1304569" lon="8.1135419"><ele>330.0</ele><time>2026-04-05T13:26:54.946Z</time></trkpt><trkpt lat="44.1305526" lon="8.1134621"><ele>330.0</ele><time>2026-04-05T13:26:55.945Z</time></trkpt><trkpt lat="44.130643" lon="8.1133657"><ele>330.0</ele><time>2026-04-05T13:26:56.945Z</time></trkpt><trkpt lat="44.1307226" lon="8.1132847"><ele>330.0</ele><time>2026-04-05T13:26:57.945Z</time></trkpt><trkpt lat="44.1308057" lon="8.1132571"><ele>331.0</ele><time>2026-04-05T13:26:58.945Z</time></trkpt><trkpt lat="44.1308927" lon="8.1132745"><ele>332.0</ele><time>2026-04-05T13:26:59.945Z</time></trkpt><trkpt lat="44.1309897" lon="8.1133268"><ele>333.0</ele><time>2026-04-05T13:27:00.945Z</time></trkpt><trkpt lat="44.1311031" lon="8.1133904"><ele>334.0</ele><time>2026-04-05T13:27:01.946Z</time></trkpt><trkpt lat="44.1312144" lon="8.1134435"><ele>335.0</ele><time>2026-04-05T13:27:02.945Z</time></trkpt><trkpt lat="44.1313295" lon="8.1134769"><ele>335.0</ele><time>2026-04-05T13:27:03.945Z</time></trkpt><trkpt lat="44.131448" lon="8.1134827"><ele>335.0</ele><time>2026-04-05T13:27:04.945Z</time></trkpt><trkpt lat="44.131562" lon="8.1134474"><ele>335.0</ele><time>2026-04-05T13:27:05.945Z</time></trkpt><trkpt lat="44.1316739" lon="8.1133886"><ele>335.0</ele><time>2026-04-05T13:27:06.945Z</time></trkpt><trkpt lat="44.1317813" lon="8.1133261"><ele>336.4</ele><time>2026-04-05T13:27:07.945Z</time></trkpt><trkpt lat="44.1318845" lon="8.1132778"><ele>337.8</ele><time>2026-04-05T13:27:08.945Z</time></trkpt><trkpt lat="44.1319797" lon="8.1132347"><ele>339.20000000000005</ele><time>2026-04-05T13:27:09.945Z</time></trkpt><trkpt lat="44.1320634" lon="8.1131991"><ele>340.6</ele><time>2026-04-05T13:27:10.945Z</time></trkpt><trkpt lat="44.1321304" lon="8.1131673"><ele>342.0</ele><time>2026-04-05T13:27:11.945Z</time></trkpt><trkpt lat="44.1322278" lon="8.1131061"><ele>340.0</ele><time>2026-04-05T13:27:13.945Z</time></trkpt><trkpt lat="44.1323195" lon="8.1130388"><ele>338.0</ele><time>2026-04-05T13:27:15.945Z</time></trkpt><trkpt lat="44.1324231" lon="8.1129626"><ele>336.0</ele><time>2026-04-05T13:27:17.946Z</time></trkpt><trkpt lat="44.1324815" lon="8.1129191"><ele>334.0</ele><time>2026-04-05T13:27:18.945Z</time></trkpt><trkpt lat="44.1325389" lon="8.1128738"><ele>332.0</ele><time>2026-04-05T13:27:19.945Z</time></trkpt><trkpt lat="44.1325961" lon="8.1128232"><ele>330.0</ele><time>2026-04-05T13:27:20.945Z</time></trkpt><trkpt lat="44.1326594" lon="8.1127765"><ele>330.0</ele><time>2026-04-05T13:27:21.945Z</time></trkpt><trkpt lat="44.1327207" lon="8.1127347"><ele>330.0</ele><time>2026-04-05T13:27:22.945Z</time></trkpt><trkpt lat="44.1327818" lon="8.1126919"><ele>330.0</ele><time>2026-04-05T13:27:23.946Z</time></trkpt><trkpt lat="44.1328505" lon="8.1126735"><ele>330.0</ele><time>2026-04-05T13:27:24.945Z</time></trkpt><trkpt lat="44.132924" lon="8.1126813"><ele>330.0</ele><time>2026-04-05T13:27:25.945Z</time></trkpt><trkpt lat="44.1330038" lon="8.112719"><ele>330.0</ele><time>2026-04-05T13:27:26.945Z</time></trkpt><trkpt lat="44.1330913" lon="8.1127908"><ele>330.0</ele><time>2026-04-05T13:27:27.945Z</time></trkpt><trkpt lat="44.1331827" lon="8.1128748"><ele>330.0</ele><time>2026-04-05T13:27:28.945Z</time></trkpt><trkpt lat="44.1332714" lon="8.112964"><ele>330.0</ele><time>2026-04-05T13:27:29.945Z</time></trkpt><trkpt lat="44.1333667" lon="8.113038"><ele>330.0</ele><time>2026-04-05T13:27:30.945Z</time></trkpt><trkpt lat="44.1334655" lon="8.1131016"><ele>330.0</ele><time>2026-04-05T13:27:31.945Z</time></trkpt><trkpt lat="44.1335649" lon="8.1131556"><ele>330.2</ele><time>2026-04-05T13:27:32.945Z</time></trkpt><trkpt lat="44.1336699" lon="8.1132103"><ele>330.4</ele><time>2026-04-05T13:27:33.945Z</time></trkpt><trkpt lat="44.1337647" lon="8.1132637"><ele>330.6</ele><time>2026-04-05T13:27:34.945Z</time></trkpt><trkpt lat="44.1338544" lon="8.1133205"><ele>330.8</ele><time>2026-04-05T13:27:35.945Z</time></trkpt><trkpt lat="44.133919" lon="8.1133887"><ele>331.0</ele><time>2026-04-05T13:27:36.945Z</time></trkpt><trkpt lat="44.1339577" lon="8.1134805"><ele>335.8333333333333</ele><time>2026-04-05T13:27:37.945Z</time></trkpt><trkpt lat="44.1339743" lon="8.1135799"><ele>340.66666666666663</ele><time>2026-04-05T13:27:38.945Z</time></trkpt><trkpt lat="44.1339758" lon="8.113686"><ele>345.5</ele><time>2026-04-05T13:27:39.945Z</time></trkpt><trkpt lat="44.1339349" lon="8.1137719"><ele>350.3333333333333</ele><time>2026-04-05T13:27:40.946Z</time></trkpt><trkpt lat="44.133867" lon="8.1138216"><ele>355.1666666666667</ele><time>2026-04-05T13:27:41.945Z</time></trkpt><trkpt lat="44.1337893" lon="8.1138307"><ele>360.0</ele><time>2026-04-05T13:27:42.945Z</time></trkpt><trkpt lat="44.1337161" lon="8.1137684"><ele>360.0</ele><time>2026-04-05T13:27:43.945Z</time></trkpt><trkpt lat="44.1336716" lon="8.1136605"><ele>360.0</ele><time>2026-04-05T13:27:44.945Z</time></trkpt><trkpt lat="44.1336414" lon="8.1135271"><ele>360.0</ele><time>2026-04-05T13:27:45.945Z</time></trkpt><trkpt lat="44.1336126" lon="8.1133954"><ele>360.0</ele><time>2026-04-05T13:27:46.945Z</time></trkpt><trkpt lat="44.133556" lon="8.113288"><ele>360.0</ele><time>2026-04-05T13:27:47.946Z</time></trkpt><trkpt lat="44.1334738" lon="8.1132136"><ele>354.2</ele><time>2026-04-05T13:27:48.945Z</time></trkpt><trkpt lat="44.1333712" lon="8.1131653"><ele>348.4</ele><time>2026-04-05T13:27:49.945Z</time></trkpt><trkpt lat="44.1332584" lon="8.1131289"><ele>342.6</ele><time>2026-04-05T13:27:50.945Z</time></trkpt><trkpt lat="44.1331522" lon="8.1130938"><ele>336.8</ele><time>2026-04-05T13:27:51.945Z</time></trkpt><trkpt lat="44.1330483" lon="8.113054"><ele>331.0</ele><time>2026-04-05T13:27:52.945Z</time></trkpt><trkpt lat="44.132961" lon="8.1130153"><ele>330.8</ele><time>2026-04-05T13:27:53.945Z</time></trkpt><trkpt lat="44.1328737" lon="8.1130163"><ele>330.6</ele><time>2026-04-05T13:27:54.945Z</time></trkpt><trkpt lat="44.1327935" lon="8.1130581"><ele>330.4</ele><time>2026-04-05T13:27:55.945Z</time></trkpt><trkpt lat="44.1327142" lon="8.113158"><ele>330.2</ele><time>2026-04-05T13:27:56.945Z</time></trkpt><trkpt lat="44.1326431" lon="8.1132747"><ele>330.0</ele><time>2026-04-05T13:27:57.945Z</time></trkpt><trkpt lat="44.1325705" lon="8.1133916"><ele>332.4</ele><time>2026-04-05T13:27:58.945Z</time></trkpt><trkpt lat="44.1324839" lon="8.1134879"><ele>334.8</ele><time>2026-04-05T13:27:59.945Z</time></trkpt><trkpt lat="44.1323978" lon="8.113576"><ele>337.20000000000005</ele><time>2026-04-05T13:28:00.945Z</time></trkpt><trkpt lat="44.1323037" lon="8.1136581"><ele>339.6</ele><time>2026-04-05T13:28:01.945Z</time></trkpt><trkpt lat="44.1322017" lon="8.1137343"><ele>342.0</ele><time>2026-04-05T13:28:02.945Z</time></trkpt><trkpt lat="44.1320957" lon="8.1138202"><ele>342.0</ele><time>2026-04-05T13:28:03.945Z</time></trkpt><trkpt lat="44.1319943" lon="8.1139263"><ele>342.0</ele><time>2026-04-05T13:28:04.945Z</time></trkpt><trkpt lat="44.1318953" lon="8.1140479"><ele>342.0</ele><time>2026-04-05T13:28:05.945Z</time></trkpt><trkpt lat="44.131801" lon="8.1141609"><ele>342.0</ele><time>2026-04-05T13:28:06.945Z</time></trkpt><trkpt lat="44.1317048" lon="8.1142516"><ele>347.6</ele><time>2026-04-05T13:28:07.945Z</time></trkpt><trkpt lat="44.131614" lon="8.1143353"><ele>353.20000000000005</ele><time>2026-04-05T13:28:08.945Z</time></trkpt><trkpt lat="44.1315157" lon="8.1143815"><ele>358.8</ele><time>2026-04-05T13:28:09.945Z</time></trkpt><trkpt lat="44.1314055" lon="8.1143722"><ele>364.4</ele><time>2026-04-05T13:28:10.945Z</time></trkpt><trkpt lat="44.1312936" lon="8.1143304"><ele>370.0</ele><time>2026-04-05T13:28:11.945Z</time></trkpt><trkpt lat="44.1311851" lon="8.1142736"><ele>370.0</ele><time>2026-04-05T13:28:12.945Z</time></trkpt><trkpt lat="44.1310711" lon="8.1142239"><ele>370.0</ele><time>2026-04-05T13:28:13.945Z</time></trkpt><trkpt lat="44.1309576" lon="8.1141976"><ele>370.0</ele><time>2026-04-05T13:28:14.945Z</time></trkpt><trkpt lat="44.1308386" lon="8.1142017"><ele>370.0</ele><time>2026-04-05T13:28:15.945Z</time></trkpt><trkpt lat="44.1307307" lon="8.114241"><ele>368.5</ele><time>2026-04-05T13:28:16.945Z</time></trkpt><trkpt lat="44.1306178" lon="8.114304"><ele>367.0</ele><time>2026-04-05T13:28:17.945Z</time></trkpt><trkpt lat="44.1305155" lon="8.1143681"><ele>365.5</ele><time>2026-04-05T13:28:18.945Z</time></trkpt><trkpt lat="44.1304041" lon="8.1144272"><ele>364.0</ele><time>2026-04-05T13:28:19.945Z</time></trkpt><trkpt lat="44.1302984" lon="8.1144649"><ele>364.0</ele><time>2026-04-05T13:28:20.945Z</time></trkpt><trkpt lat="44.1301837" lon="8.1144792"><ele>364.0</ele><time>2026-04-05T13:28:21.945Z</time></trkpt><trkpt lat="44.1300706" lon="8.1144923"><ele>364.0</ele><time>2026-04-05T13:28:22.946Z</time></trkpt><trkpt lat="44.1299623" lon="8.1145211"><ele>364.0</ele><time>2026-04-05T13:28:23.945Z</time></trkpt><trkpt lat="44.1298779" lon="8.1145749"><ele>364.0</ele><time>2026-04-05T13:28:24.945Z</time></trkpt><trkpt lat="44.129823" lon="8.1146561"><ele>362.6</ele><time>2026-04-05T13:28:25.945Z</time></trkpt><trkpt lat="44.1297835" lon="8.1147513"><ele>361.2</ele><time>2026-04-05T13:28:26.945Z</time></trkpt><trkpt lat="44.1298037" lon="8.114871"><ele>359.8</ele><time>2026-04-05T13:28:27.946Z</time></trkpt><trkpt lat="44.1298501" lon="8.1149896"><ele>358.40000000000003</ele><time>2026-04-05T13:28:28.945Z</time></trkpt><trkpt lat="44.1299271" lon="8.1150879"><ele>357.0</ele><time>2026-04-05T13:28:29.945Z</time></trkpt><trkpt lat="44.1300219" lon="8.11516"><ele>358.40000000000003</ele><time>2026-04-05T13:28:30.945Z</time></trkpt><trkpt lat="44.130109" lon="8.115209"><ele>359.8</ele><time>2026-04-05T13:28:31.945Z</time></trkpt><trkpt lat="44.1301976" lon="8.1152146"><ele>361.2</ele><time>2026-04-05T13:28:32.945Z</time></trkpt><trkpt lat="44.1302557" lon="8.1151237"><ele>362.6</ele><time>2026-04-05T13:28:33.946Z</time></trkpt><trkpt lat="44.1302969" lon="8.1149936"><ele>364.0</ele><time>2026-04-05T13:28:34.945Z</time></trkpt><trkpt lat="44.1303247" lon="8.1148607"><ele>364.0</ele><time>2026-04-05T13:28:35.945Z</time></trkpt><trkpt lat="44.1303612" lon="8.1147475"><ele>364.0</ele><time>2026-04-05T13:28:36.945Z</time></trkpt><trkpt lat="44.1304315" lon="8.1146575"><ele>364.0</ele><time>2026-04-05T13:28:37.945Z</time></trkpt><trkpt lat="44.1305315" lon="8.1146003"><ele>364.0</ele><time>2026-04-05T13:28:38.945Z</time></trkpt><trkpt lat="44.1306408" lon="8.1145788"><ele>364.0</ele><time>2026-04-05T13:28:39.945Z</time></trkpt><trkpt lat="44.1307761" lon="8.1146047"><ele>365.5</ele><time>2026-04-05T13:28:40.945Z</time></trkpt><trkpt lat="44.1309119" lon="8.1146449"><ele>367.0</ele><time>2026-04-05T13:28:41.945Z</time></trkpt><trkpt lat="44.1310569" lon="8.1146801"><ele>368.5</ele><time>2026-04-05T13:28:42.945Z</time></trkpt><trkpt lat="44.1311882" lon="8.1146949"><ele>370.0</ele><time>2026-04-05T13:28:43.945Z</time></trkpt><trkpt lat="44.1313052" lon="8.1146982"><ele>370.0</ele><time>2026-04-05T13:28:44.945Z</time></trkpt><trkpt lat="44.1313996" lon="8.1147124"><ele>370.0</ele><time>2026-04-05T13:28:45.945Z</time></trkpt><trkpt lat="44.1314767" lon="8.1147536"><ele>370.0</ele><time>2026-04-05T13:28:46.945Z</time></trkpt><trkpt lat="44.1315256" lon="8.1148213"><ele>370.0</ele><time>2026-04-05T13:28:47.945Z</time></trkpt><trkpt lat="44.1315274" lon="8.1149277"><ele>370.0</ele><time>2026-04-05T13:28:48.945Z</time></trkpt><trkpt lat="44.131501" lon="8.1150377"><ele>370.0</ele><time>2026-04-05T13:28:49.945Z</time></trkpt><trkpt lat="44.1314353" lon="8.1151147"><ele>370.0</ele><time>2026-04-05T13:28:50.945Z</time></trkpt><trkpt lat="44.1313558" lon="8.1151589"><ele>370.0</ele><time>2026-04-05T13:28:51.946Z</time></trkpt><trkpt lat="44.1312679" lon="8.115138"><ele>370.0</ele><time>2026-04-05T13:28:52.945Z</time></trkpt><trkpt lat="44.1311864" lon="8.115066"><ele>370.0</ele><time>2026-04-05T13:28:53.945Z</time></trkpt><trkpt lat="44.1310955" lon="8.1149724"><ele>370.0</ele><time>2026-04-05T13:28:54.945Z</time></trkpt><trkpt lat="44.1309957" lon="8.1148833"><ele>370.0</ele><time>2026-04-05T13:28:55.945Z</time></trkpt><trkpt lat="44.1308894" lon="8.1148212"><ele>370.0</ele><time>2026-04-05T13:28:56.945Z</time></trkpt><trkpt lat="44.130781" lon="8.1147841"><ele>370.0</ele><time>2026-04-05T13:28:57.945Z</time></trkpt><trkpt lat="44.130664" lon="8.1147821"><ele>370.0</ele><time>2026-04-05T13:28:58.945Z</time></trkpt><trkpt lat="44.1305562" lon="8.1148147"><ele>368.8</ele><time>2026-04-05T13:28:59.945Z</time></trkpt><trkpt lat="44.1304665" lon="8.114886"><ele>367.6</ele><time>2026-04-05T13:29:00.945Z</time></trkpt><trkpt lat="44.1304037" lon="8.1149864"><ele>366.4</ele><time>2026-04-05T13:29:01.945Z</time></trkpt><trkpt lat="44.130363" lon="8.1151062"><ele>365.2</ele><time>2026-04-05T13:29:02.945Z</time></trkpt><trkpt lat="44.1303495" lon="8.1152333"><ele>364.0</ele><time>2026-04-05T13:29:03.945Z</time></trkpt><trkpt lat="44.1303687" lon="8.1153647"><ele>368.0</ele><time>2026-04-05T13:29:04.945Z</time></trkpt><trkpt lat="44.130413" lon="8.1154834"><ele>372.0</ele><time>2026-04-05T13:29:05.945Z</time></trkpt><trkpt lat="44.1304746" lon="8.1155967"><ele>376.0</ele><time>2026-04-05T13:29:06.945Z</time></trkpt><trkpt lat="44.1305295" lon="8.1157227"><ele>380.0</ele><time>2026-04-05T13:29:07.945Z</time></trkpt><trkpt lat="44.1305648" lon="8.1158645"><ele>384.0</ele><time>2026-04-05T13:29:08.945Z</time></trkpt><trkpt lat="44.1305869" lon="8.1160172"><ele>385.25</ele><time>2026-04-05T13:29:09.945Z</time></trkpt><trkpt lat="44.1306043" lon="8.116181"><ele>386.5</ele><time>2026-04-05T13:29:10.945Z</time></trkpt><trkpt lat="44.1306229" lon="8.1163562"><ele>387.75</ele><time>2026-04-05T13:29:11.945Z</time></trkpt><trkpt lat="44.1306426" lon="8.1165309"><ele>389.0</ele><time>2026-04-05T13:29:12.945Z</time></trkpt><trkpt lat="44.1306724" lon="8.1167023"><ele>392.6</ele><time>2026-04-05T13:29:13.945Z</time></trkpt><trkpt lat="44.1307059" lon="8.1168676"><ele>396.2</ele><time>2026-04-05T13:29:14.945Z</time></trkpt><trkpt lat="44.1307511" lon="8.1170107"><ele>399.8</ele><time>2026-04-05T13:29:15.945Z</time></trkpt><trkpt lat="44.1308078" lon="8.1171352"><ele>403.40000000000003</ele><time>2026-04-05T13:29:16.945Z</time></trkpt><trkpt lat="44.1308686" lon="8.1172414"><ele>407.0</ele><time>2026-04-05T13:29:17.945Z</time></trkpt><trkpt lat="44.1309349" lon="8.1173417"><ele>407.75</ele><time>2026-04-05T13:29:18.945Z</time></trkpt><trkpt lat="44.1310014" lon="8.1174561"><ele>408.5</ele><time>2026-04-05T13:29:19.945Z</time></trkpt><trkpt lat="44.1310783" lon="8.1175711"><ele>409.25</ele><time>2026-04-05T13:29:20.945Z</time></trkpt><trkpt lat="44.1311629" lon="8.1176898"><ele>410.0</ele><time>2026-04-05T13:29:21.945Z</time></trkpt><trkpt lat="44.1312513" lon="8.1178148"><ele>410.0</ele><time>2026-04-05T13:29:22.945Z</time></trkpt><trkpt lat="44.1313385" lon="8.1179363"><ele>410.0</ele><time>2026-04-05T13:29:23.946Z</time></trkpt><trkpt lat="44.1314328" lon="8.1180548"><ele>410.0</ele><time>2026-04-05T13:29:24.945Z</time></trkpt><trkpt lat="44.1315264" lon="8.1181691"><ele>410.0</ele><time>2026-04-05T13:29:25.945Z</time></trkpt><trkpt lat="44.1316196" lon="8.1182898"><ele>412.25</ele><time>2026-04-05T13:29:26.945Z</time></trkpt><trkpt lat="44.1317047" lon="8.1184269"><ele>414.5</ele><time>2026-04-05T13:29:27.945Z</time></trkpt><trkpt lat="44.1317849" lon="8.1185778"><ele>416.75</ele><time>2026-04-05T13:29:28.946Z</time></trkpt><trkpt lat="44.1318603" lon="8.1187375"><ele>419.0</ele><time>2026-04-05T13:29:29.945Z</time></trkpt><trkpt lat="44.1319376" lon="8.1188959"><ele>419.0</ele><time>2026-04-05T13:29:30.945Z</time></trkpt><trkpt lat="44.1320032" lon="8.119054"><ele>419.0</ele><time>2026-04-05T13:29:31.945Z</time></trkpt><trkpt lat="44.1320665" lon="8.1192214"><ele>419.0</ele><time>2026-04-05T13:29:32.945Z</time></trkpt><trkpt lat="44.132121" lon="8.1193915"><ele>419.0</ele><time>2026-04-05T13:29:33.945Z</time></trkpt><trkpt lat="44.1321592" lon="8.1195633"><ele>419.25</ele><time>2026-04-05T13:29:34.945Z</time></trkpt><trkpt lat="44.1321818" lon="8.11975"><ele>419.5</ele><time>2026-04-05T13:29:35.945Z</time></trkpt><trkpt lat="44.1321986" lon="8.1199413"><ele>419.75</ele><time>2026-04-05T13:29:36.945Z</time></trkpt><trkpt lat="44.1322115" lon="8.1201359"><ele>420.0</ele><time>2026-04-05T13:29:37.945Z</time></trkpt><trkpt lat="44.1322279" lon="8.1203263"><ele>421.25</ele><time>2026-04-05T13:29:38.945Z</time></trkpt><trkpt lat="44.1322514" lon="8.12051"><ele>422.5</ele><time>2026-04-05T13:29:39.946Z</time></trkpt><trkpt lat="44.1322851" lon="8.1206865"><ele>423.75</ele><time>2026-04-05T13:29:40.945Z</time></trkpt><trkpt lat="44.1323286" lon="8.1208668"><ele>425.0</ele><time>2026-04-05T13:29:41.945Z</time></trkpt><trkpt lat="44.1323806" lon="8.1210309"><ele>426.6</ele><time>2026-04-05T13:29:42.945Z</time></trkpt><trkpt lat="44.132438" lon="8.1211755"><ele>428.2</ele><time>2026-04-05T13:29:43.945Z</time></trkpt><trkpt lat="44.1324784" lon="8.1213065"><ele>429.79999999999995</ele><time>2026-04-05T13:29:44.946Z</time></trkpt><trkpt lat="44.1324857" lon="8.1214336"><ele>431.4</ele><time>2026-04-05T13:29:45.945Z</time></trkpt><trkpt lat="44.1324729" lon="8.1215489"><ele>433.0</ele><time>2026-04-05T13:29:46.945Z</time></trkpt><trkpt lat="44.1324182" lon="8.121632"><ele>432.6666666666667</ele><time>2026-04-05T13:29:47.945Z</time></trkpt><trkpt lat="44.132342" lon="8.1216869"><ele>432.33333333333337</ele><time>2026-04-05T13:29:48.945Z</time></trkpt><trkpt lat="44.1322622" lon="8.1217071"><ele>432.0</ele><time>2026-04-05T13:29:49.945Z</time></trkpt><trkpt lat="44.1321864" lon="8.1216966"><ele>431.66666666666663</ele><time>2026-04-05T13:29:50.946Z</time></trkpt><trkpt lat="44.1321184" lon="8.1216409"><ele>431.3333333333333</ele><time>2026-04-05T13:29:51.945Z</time></trkpt><trkpt lat="44.1320744" lon="8.1214885"><ele>431.0</ele><time>2026-04-05T13:29:52.945Z</time></trkpt><trkpt lat="44.1320264" lon="8.1213138"><ele>431.0</ele><time>2026-04-05T13:29:53.945Z</time></trkpt><trkpt lat="44.1319646" lon="8.1211504"><ele>431.0</ele><time>2026-04-05T13:29:54.945Z</time></trkpt><trkpt lat="44.1318795" lon="8.1210205"><ele>431.0</ele><time>2026-04-05T13:29:55.946Z</time></trkpt><trkpt lat="44.1317711" lon="8.1209317"><ele>431.0</ele><time>2026-04-05T13:29:56.945Z</time></trkpt><trkpt lat="44.1316615" lon="8.120879"><ele>431.0</ele><time>2026-04-05T13:29:57.945Z</time></trkpt><trkpt lat="44.1315573" lon="8.1208442"><ele>431.0</ele><time>2026-04-05T13:29:58.945Z</time></trkpt><trkpt lat="44.1314636" lon="8.1207996"><ele>431.0</ele><time>2026-04-05T13:29:59.945Z</time></trkpt><trkpt lat="44.1313992" lon="8.1207223"><ele>431.0</ele><time>2026-04-05T13:30:00.945Z</time></trkpt><trkpt lat="44.1313681" lon="8.1206202"><ele>431.0</ele><time>2026-04-05T13:30:01.946Z</time></trkpt><trkpt lat="44.131368" lon="8.1205032"><ele>432.0</ele><time>2026-04-05T13:30:02.945Z</time></trkpt><trkpt lat="44.1313856" lon="8.1203738"><ele>433.0</ele><time>2026-04-05T13:30:03.945Z</time></trkpt><trkpt lat="44.131404" lon="8.1202392"><ele>434.0</ele><time>2026-04-05T13:30:04.945Z</time></trkpt><trkpt lat="44.1313961" lon="8.1201126"><ele>435.0</ele><time>2026-04-05T13:30:05.945Z</time></trkpt><trkpt lat="44.1313785" lon="8.1199993"><ele>436.0</ele><time>2026-04-05T13:30:06.946Z</time></trkpt><trkpt lat="44.1313342" lon="8.11989"><ele>436.0</ele><time>2026-04-05T13:30:07.945Z</time></trkpt><trkpt lat="44.1312613" lon="8.1197775"><ele>436.0</ele><time>2026-04-05T13:30:08.945Z</time></trkpt><trkpt lat="44.1311718" lon="8.1196581"><ele>436.0</ele><time>2026-04-05T13:30:09.945Z</time></trkpt><trkpt lat="44.1310943" lon="8.1195327"><ele>436.0</ele><time>2026-04-05T13:30:10.945Z</time></trkpt><trkpt lat="44.1310158" lon="8.1194087"><ele>436.0</ele><time>2026-04-05T13:30:11.945Z</time></trkpt><trkpt lat="44.1309439" lon="8.1192928"><ele>436.0</ele><time>2026-04-05T13:30:12.945Z</time></trkpt><trkpt lat="44.130871" lon="8.1192029"><ele>436.0</ele><time>2026-04-05T13:30:13.945Z</time></trkpt><trkpt lat="44.1307736" lon="8.1191535"><ele>436.0</ele><time>2026-04-05T13:30:14.945Z</time></trkpt><trkpt lat="44.1306628" lon="8.119115"><ele>436.0</ele><time>2026-04-05T13:30:15.946Z</time></trkpt><trkpt lat="44.1305467" lon="8.1190861"><ele>433.0</ele><time>2026-04-05T13:30:16.946Z</time></trkpt><trkpt lat="44.1304319" lon="8.1190494"><ele>430.0</ele><time>2026-04-05T13:30:17.946Z</time></trkpt><trkpt lat="44.1303293" lon="8.1189992"><ele>427.0</ele><time>2026-04-05T13:30:18.945Z</time></trkpt><trkpt lat="44.1302524" lon="8.1189225"><ele>424.0</ele><time>2026-04-05T13:30:19.945Z</time></trkpt><trkpt lat="44.1301987" lon="8.1188162"><ele>421.0</ele><time>2026-04-05T13:30:20.945Z</time></trkpt><trkpt lat="44.1301556" lon="8.1187153"><ele>421.00000000000006</ele><time>2026-04-05T13:30:21.945Z</time></trkpt><trkpt lat="44.1300738" lon="8.1186136"><ele>421.0</ele><time>2026-04-05T13:30:23.945Z</time></trkpt><trkpt lat="44.1299915" lon="8.118618"><ele>421.0</ele><time>2026-04-05T13:30:25.945Z</time></trkpt><trkpt lat="44.1299224" lon="8.1186746"><ele>421.0</ele><time>2026-04-05T13:30:27.945Z</time></trkpt><trkpt lat="44.1298722" lon="8.1187544"><ele>421.00000000000006</ele><time>2026-04-05T13:30:29.945Z</time></trkpt><trkpt lat="44.1298411" lon="8.1188469"><ele>421.0</ele><time>2026-04-05T13:30:31.945Z</time></trkpt><trkpt lat="44.1298447" lon="8.1189691"><ele>421.33333333333337</ele><time>2026-04-05T13:30:33.945Z</time></trkpt><trkpt lat="44.1298297" lon="8.1191199"><ele>421.6666666666667</ele><time>2026-04-05T13:30:35.945Z</time></trkpt><trkpt lat="44.1298033" lon="8.1192087"><ele>422.0</ele><time>2026-04-05T13:30:36.945Z</time></trkpt><trkpt lat="44.1297683" lon="8.1193088"><ele>422.33333333333337</ele><time>2026-04-05T13:30:37.945Z</time></trkpt><trkpt lat="44.129728" lon="8.1194131"><ele>422.6666666666667</ele><time>2026-04-05T13:30:38.945Z</time></trkpt><trkpt lat="44.1296878" lon="8.1195155"><ele>423.0</ele><time>2026-04-05T13:30:39.945Z</time></trkpt><trkpt lat="44.1296391" lon="8.1196211"><ele>423.0</ele><time>2026-04-05T13:30:40.945Z</time></trkpt><trkpt lat="44.1295789" lon="8.1197088"><ele>423.0</ele><time>2026-04-05T13:30:41.945Z</time></trkpt><trkpt lat="44.1295065" lon="8.1197786"><ele>423.0</ele><time>2026-04-05T13:30:42.946Z</time></trkpt><trkpt lat="44.1294154" lon="8.1198226"><ele>423.0</ele><time>2026-04-05T13:30:43.946Z</time></trkpt><trkpt lat="44.1293095" lon="8.1198419"><ele>423.0</ele><time>2026-04-05T13:30:44.945Z</time></trkpt><trkpt lat="44.1292028" lon="8.1198624"><ele>423.0</ele><time>2026-04-05T13:30:45.945Z</time></trkpt><trkpt lat="44.129096" lon="8.1198908"><ele>423.0</ele><time>2026-04-05T13:30:46.946Z</time></trkpt><trkpt lat="44.1289933" lon="8.1199292"><ele>423.0</ele><time>2026-04-05T13:30:47.945Z</time></trkpt><trkpt lat="44.128881" lon="8.1199729"><ele>423.0</ele><time>2026-04-05T13:30:48.945Z</time></trkpt><trkpt lat="44.1287763" lon="8.1200221"><ele>423.0</ele><time>2026-04-05T13:30:49.945Z</time></trkpt><trkpt lat="44.1286757" lon="8.1200702"><ele>427.0</ele><time>2026-04-05T13:30:50.945Z</time></trkpt><trkpt lat="44.1285754" lon="8.120119"><ele>431.0</ele><time>2026-04-05T13:30:51.945Z</time></trkpt><trkpt lat="44.1284736" lon="8.1201723"><ele>434.99999999999994</ele><time>2026-04-05T13:30:52.945Z</time></trkpt><trkpt lat="44.1283771" lon="8.1202332"><ele>439.0</ele><time>2026-04-05T13:30:53.945Z</time></trkpt><trkpt lat="44.128292" lon="8.1203041"><ele>443.0</ele><time>2026-04-05T13:30:54.945Z</time></trkpt><trkpt lat="44.1282075" lon="8.12038"><ele>443.59999999999997</ele><time>2026-04-05T13:30:55.945Z</time></trkpt><trkpt lat="44.1281153" lon="8.1204515"><ele>444.19999999999993</ele><time>2026-04-05T13:30:56.945Z</time></trkpt><trkpt lat="44.1280189" lon="8.1204983"><ele>444.8</ele><time>2026-04-05T13:30:57.945Z</time></trkpt><trkpt lat="44.1279237" lon="8.120528"><ele>445.4</ele><time>2026-04-05T13:30:58.945Z</time></trkpt><trkpt lat="44.1278208" lon="8.1205149"><ele>446.0</ele><time>2026-04-05T13:30:59.945Z</time></trkpt><trkpt lat="44.1277208" lon="8.1204767"><ele>446.0</ele><time>2026-04-05T13:31:00.945Z</time></trkpt><trkpt lat="44.1276185" lon="8.1204148"><ele>446.0</ele><time>2026-04-05T13:31:01.946Z</time></trkpt><trkpt lat="44.1275106" lon="8.1203468"><ele>446.0</ele><time>2026-04-05T13:31:02.945Z</time></trkpt><trkpt lat="44.1274021" lon="8.1202753"><ele>446.0</ele><time>2026-04-05T13:31:03.945Z</time></trkpt><trkpt lat="44.1272935" lon="8.1202134"><ele>445.0</ele><time>2026-04-05T13:31:04.945Z</time></trkpt><trkpt lat="44.1271848" lon="8.120183"><ele>444.0</ele><time>2026-04-05T13:31:05.946Z</time></trkpt><trkpt lat="44.1270687" lon="8.1201989"><ele>443.0</ele><time>2026-04-05T13:31:06.945Z</time></trkpt><trkpt lat="44.1269655" lon="8.1202625"><ele>442.0</ele><time>2026-04-05T13:31:07.945Z</time></trkpt><trkpt lat="44.1268523" lon="8.1203423"><ele>442.0</ele><time>2026-04-05T13:31:08.945Z</time></trkpt><trkpt lat="44.1267483" lon="8.1204291"><ele>442.0</ele><time>2026-04-05T13:31:09.945Z</time></trkpt><trkpt lat="44.1266359" lon="8.1205121"><ele>442.0</ele><time>2026-04-05T13:31:10.946Z</time></trkpt><trkpt lat="44.1265212" lon="8.1205903"><ele>442.0</ele><time>2026-04-05T13:31:11.945Z</time></trkpt><trkpt lat="44.1264047" lon="8.1206749"><ele>444.0</ele><time>2026-04-05T13:31:12.945Z</time></trkpt><trkpt lat="44.1262831" lon="8.1207616"><ele>446.0</ele><time>2026-04-05T13:31:13.945Z</time></trkpt><trkpt lat="44.1261641" lon="8.1208482"><ele>448.0</ele><time>2026-04-05T13:31:14.945Z</time></trkpt><trkpt lat="44.1260482" lon="8.1209393"><ele>450.0</ele><time>2026-04-05T13:31:15.945Z</time></trkpt><trkpt lat="44.1259394" lon="8.1210356"><ele>450.0</ele><time>2026-04-05T13:31:16.945Z</time></trkpt><trkpt lat="44.1258393" lon="8.1211417"><ele>450.0</ele><time>2026-04-05T13:31:17.945Z</time></trkpt><trkpt lat="44.1257453" lon="8.1212633"><ele>450.0</ele><time>2026-04-05T13:31:18.945Z</time></trkpt><trkpt lat="44.1256576" lon="8.1214058"><ele>450.0</ele><time>2026-04-05T13:31:19.945Z</time></trkpt><trkpt lat="44.1255753" lon="8.1215626"><ele>447.25</ele><time>2026-04-05T13:31:20.945Z</time></trkpt><trkpt lat="44.1255036" lon="8.1217136"><ele>444.5</ele><time>2026-04-05T13:31:21.945Z</time></trkpt><trkpt lat="44.1254326" lon="8.121863"><ele>441.75</ele><time>2026-04-05T13:31:22.945Z</time></trkpt><trkpt lat="44.125367" lon="8.122012"><ele>439.0</ele><time>2026-04-05T13:31:23.945Z</time></trkpt><trkpt lat="44.1253083" lon="8.1221633"><ele>439.0</ele><time>2026-04-05T13:31:24.945Z</time></trkpt><trkpt lat="44.1252616" lon="8.1223208"><ele>439.0</ele><time>2026-04-05T13:31:25.945Z</time></trkpt><trkpt lat="44.1252193" lon="8.1224636"><ele>439.0</ele><time>2026-04-05T13:31:26.945Z</time></trkpt><trkpt lat="44.1251787" lon="8.1225971"><ele>439.0</ele><time>2026-04-05T13:31:27.945Z</time></trkpt><trkpt lat="44.125145" lon="8.1227206"><ele>439.0</ele><time>2026-04-05T13:31:28.945Z</time></trkpt><trkpt lat="44.125118" lon="8.1228385"><ele>442.1666666666667</ele><time>2026-04-05T13:31:29.945Z</time></trkpt><trkpt lat="44.125098" lon="8.1229534"><ele>445.33333333333337</ele><time>2026-04-05T13:31:30.945Z</time></trkpt><trkpt lat="44.1250908" lon="8.1230619"><ele>448.5</ele><time>2026-04-05T13:31:31.945Z</time></trkpt><trkpt lat="44.1250854" lon="8.1231684"><ele>451.66666666666663</ele><time>2026-04-05T13:31:32.945Z</time></trkpt><trkpt lat="44.1250798" lon="8.1232721"><ele>454.8333333333333</ele><time>2026-04-05T13:31:33.945Z</time></trkpt><trkpt lat="44.1250694" lon="8.1233813"><ele>458.0</ele><time>2026-04-05T13:31:34.946Z</time></trkpt><trkpt lat="44.1250434" lon="8.1234943"><ele>455.99999999999994</ele><time>2026-04-05T13:31:35.945Z</time></trkpt><trkpt lat="44.1250034" lon="8.1236028"><ele>454.0</ele><time>2026-04-05T13:31:36.946Z</time></trkpt><trkpt lat="44.1249513" lon="8.1236968"><ele>452.0</ele><time>2026-04-05T13:31:37.945Z</time></trkpt><trkpt lat="44.1248822" lon="8.1237728"><ele>450.0</ele><time>2026-04-05T13:31:38.945Z</time></trkpt><trkpt lat="44.1247998" lon="8.1238262"><ele>447.99999999999994</ele><time>2026-04-05T13:31:39.945Z</time></trkpt><trkpt lat="44.1247113" lon="8.1238665"><ele>446.0</ele><time>2026-04-05T13:31:40.945Z</time></trkpt><trkpt lat="44.1246196" lon="8.1239072"><ele>445.99999999999994</ele><time>2026-04-05T13:31:41.945Z</time></trkpt><trkpt lat="44.124534" lon="8.1239492"><ele>446.0</ele><time>2026-04-05T13:31:42.945Z</time></trkpt><trkpt lat="44.1244482" lon="8.123996"><ele>446.0</ele><time>2026-04-05T13:31:43.945Z</time></trkpt><trkpt lat="44.1243639" lon="8.1240393"><ele>446.0</ele><time>2026-04-05T13:31:44.945Z</time></trkpt><trkpt lat="44.1242826" lon="8.1240738"><ele>445.99999999999994</ele><time>2026-04-05T13:31:45.946Z</time></trkpt><trkpt lat="44.1242011" lon="8.1241142"><ele>446.0</ele><time>2026-04-05T13:31:46.945Z</time></trkpt><trkpt lat="44.1241211" lon="8.1241589"><ele>449.3333333333333</ele><time>2026-04-05T13:31:47.945Z</time></trkpt><trkpt lat="44.1240404" lon="8.1241992"><ele>452.66666666666663</ele><time>2026-04-05T13:31:48.945Z</time></trkpt><trkpt lat="44.1239704" lon="8.1242347"><ele>456.0</ele><time>2026-04-05T13:31:49.945Z</time></trkpt><trkpt lat="44.1239117" lon="8.1242667"><ele>459.33333333333337</ele><time>2026-04-05T13:31:50.945Z</time></trkpt><trkpt lat="44.12385" lon="8.124315"><ele>462.6666666666667</ele><time>2026-04-05T13:31:51.945Z</time></trkpt><trkpt lat="44.1238" lon="8.1243733"><ele>466.0</ele><time>2026-04-05T13:31:52.945Z</time></trkpt><trkpt lat="44.123745" lon="8.12453"><ele>466.00000000000006</ele><time>2026-04-05T13:31:54.945Z</time></trkpt><trkpt lat="44.1237717" lon="8.1246933"><ele>466.0</ele><time>2026-04-05T13:31:56.945Z</time></trkpt><trkpt lat="44.1238217" lon="8.1247683"><ele>466.0</ele><time>2026-04-05T13:31:57.945Z</time></trkpt><trkpt lat="44.123885" lon="8.1248467"><ele>466.0</ele><time>2026-04-05T13:31:58.945Z</time></trkpt><trkpt lat="44.1239483" lon="8.12493"><ele>466.00000000000006</ele><time>2026-04-05T13:31:59.946Z</time></trkpt><trkpt lat="44.124005" lon="8.125015"><ele>466.0</ele><time>2026-04-05T13:32:00.945Z</time></trkpt><trkpt lat="44.12407" lon="8.1251"><ele>470.0</ele><time>2026-04-05T13:32:01.945Z</time></trkpt><trkpt lat="44.1241367" lon="8.125185"><ele>474.0</ele><time>2026-04-05T13:32:02.946Z</time></trkpt><trkpt lat="44.12421" lon="8.1252733"><ele>478.0</ele><time>2026-04-05T13:32:03.945Z</time></trkpt><trkpt lat="44.124275" lon="8.12536"><ele>482.0</ele><time>2026-04-05T13:32:04.945Z</time></trkpt><trkpt lat="44.1243333" lon="8.125445"><ele>486.0</ele><time>2026-04-05T13:32:05.945Z</time></trkpt><trkpt lat="44.1244017" lon="8.1255333"><ele>486.0</ele><time>2026-04-05T13:32:06.945Z</time></trkpt><trkpt lat="44.1244733" lon="8.1256283"><ele>486.0</ele><time>2026-04-05T13:32:07.945Z</time></trkpt><trkpt lat="44.1245633" lon="8.1257083"><ele>486.0</ele><time>2026-04-05T13:32:08.946Z</time></trkpt><trkpt lat="44.1246417" lon="8.12578"><ele>486.0</ele><time>2026-04-05T13:32:09.945Z</time></trkpt><trkpt lat="44.1247333" lon="8.125835"><ele>486.0</ele><time>2026-04-05T13:32:10.945Z</time></trkpt><trkpt lat="44.1248367" lon="8.12589"><ele>486.0</ele><time>2026-04-05T13:32:11.945Z</time></trkpt><trkpt lat="44.1249383" lon="8.125955"><ele>486.0</ele><time>2026-04-05T13:32:12.945Z</time></trkpt><trkpt lat="44.125035" lon="8.1260217"><ele>486.0</ele><time>2026-04-05T13:32:13.945Z</time></trkpt><trkpt lat="44.1251333" lon="8.1260833"><ele>486.0</ele><time>2026-04-05T13:32:14.946Z</time></trkpt><trkpt lat="44.1252417" lon="8.126145"><ele>486.0</ele><time>2026-04-05T13:32:15.945Z</time></trkpt><trkpt lat="44.1253517" lon="8.12622"><ele>486.0</ele><time>2026-04-05T13:32:16.945Z</time></trkpt><trkpt lat="44.1254583" lon="8.1262933"><ele>486.0</ele><time>2026-04-05T13:32:17.945Z</time></trkpt><trkpt lat="44.1255683" lon="8.1263533"><ele>486.0</ele><time>2026-04-05T13:32:18.945Z</time></trkpt><trkpt lat="44.1256783" lon="8.1264083"><ele>486.0</ele><time>2026-04-05T13:32:19.945Z</time></trkpt><trkpt lat="44.1257767" lon="8.1264683"><ele>484.8</ele><time>2026-04-05T13:32:20.945Z</time></trkpt><trkpt lat="44.1258783" lon="8.1265333"><ele>483.6</ele><time>2026-04-05T13:32:21.945Z</time></trkpt><trkpt lat="44.1259783" lon="8.1265933"><ele>482.4</ele><time>2026-04-05T13:32:22.945Z</time></trkpt><trkpt lat="44.1260733" lon="8.1266583"><ele>481.2</ele><time>2026-04-05T13:32:23.945Z</time></trkpt><trkpt lat="44.1261633" lon="8.1267217"><ele>480.0</ele><time>2026-04-05T13:32:24.945Z</time></trkpt><trkpt lat="44.1262583" lon="8.1267833"><ele>480.0</ele><time>2026-04-05T13:32:25.945Z</time></trkpt><trkpt lat="44.1263533" lon="8.126855"><ele>480.0</ele><time>2026-04-05T13:32:26.945Z</time></trkpt><trkpt lat="44.1264367" lon="8.1269333"><ele>480.0</ele><time>2026-04-05T13:32:27.945Z</time></trkpt><trkpt lat="44.1264917" lon="8.1270433"><ele>480.0</ele><time>2026-04-05T13:32:28.946Z</time></trkpt><trkpt lat="44.1265283" lon="8.127175"><ele>480.0</ele><time>2026-04-05T13:32:29.945Z</time></trkpt><trkpt lat="44.1265583" lon="8.1273067"><ele>483.5</ele><time>2026-04-05T13:32:30.946Z</time></trkpt><trkpt lat="44.1265917" lon="8.1274233"><ele>487.0</ele><time>2026-04-05T13:32:31.945Z</time></trkpt><trkpt lat="44.12661" lon="8.1275417"><ele>490.5</ele><time>2026-04-05T13:32:32.946Z</time></trkpt><trkpt lat="44.1266283" lon="8.1276517"><ele>494.0</ele><time>2026-04-05T13:32:33.945Z</time></trkpt><trkpt lat="44.1266617" lon="8.1277667"><ele>497.5</ele><time>2026-04-05T13:32:34.945Z</time></trkpt><trkpt lat="44.126685" lon="8.1278767"><ele>501.0</ele><time>2026-04-05T13:32:35.945Z</time></trkpt><trkpt lat="44.126705" lon="8.12799"><ele>501.0</ele><time>2026-04-05T13:32:36.945Z</time></trkpt><trkpt lat="44.126725" lon="8.1281"><ele>501.0</ele><time>2026-04-05T13:32:37.945Z</time></trkpt><trkpt lat="44.126735" lon="8.1282133"><ele>501.0</ele><time>2026-04-05T13:32:38.945Z</time></trkpt><trkpt lat="44.1267433" lon="8.1283333"><ele>501.0</ele><time>2026-04-05T13:32:39.946Z</time></trkpt><trkpt lat="44.126735" lon="8.1284533"><ele>501.0</ele><time>2026-04-05T13:32:40.945Z</time></trkpt><trkpt lat="44.1267267" lon="8.1285783"><ele>501.0</ele><time>2026-04-05T13:32:41.945Z</time></trkpt><trkpt lat="44.1267217" lon="8.1287133"><ele>499.6666666666667</ele><time>2026-04-05T13:32:42.945Z</time></trkpt><trkpt lat="44.1267117" lon="8.1288433"><ele>498.33333333333337</ele><time>2026-04-05T13:32:43.945Z</time></trkpt><trkpt lat="44.126715" lon="8.1289683"><ele>497.0</ele><time>2026-04-05T13:32:44.945Z</time></trkpt><trkpt lat="44.1267433" lon="8.1290967"><ele>495.6666666666667</ele><time>2026-04-05T13:32:45.945Z</time></trkpt><trkpt lat="44.126785" lon="8.129205"><ele>494.33333333333337</ele><time>2026-04-05T13:32:46.946Z</time></trkpt><trkpt lat="44.1268433" lon="8.12928"><ele>493.0</ele><time>2026-04-05T13:32:47.945Z</time></trkpt><trkpt lat="44.1269067" lon="8.129345"><ele>491.83333333333337</ele><time>2026-04-05T13:32:48.946Z</time></trkpt><trkpt lat="44.1269783" lon="8.129405"><ele>490.6666666666667</ele><time>2026-04-05T13:32:49.945Z</time></trkpt><trkpt lat="44.1270467" lon="8.1294667"><ele>489.5</ele><time>2026-04-05T13:32:50.945Z</time></trkpt><trkpt lat="44.1271167" lon="8.1295317"><ele>488.33333333333337</ele><time>2026-04-05T13:32:51.945Z</time></trkpt><trkpt lat="44.127185" lon="8.1296"><ele>487.1666666666667</ele><time>2026-04-05T13:32:52.945Z</time></trkpt><trkpt lat="44.12725" lon="8.1296617"><ele>486.0</ele><time>2026-04-05T13:32:53.945Z</time></trkpt><trkpt lat="44.1273167" lon="8.129735"><ele>486.0</ele><time>2026-04-05T13:32:54.945Z</time></trkpt><trkpt lat="44.1273683" lon="8.1298167"><ele>486.0</ele><time>2026-04-05T13:32:55.945Z</time></trkpt><trkpt lat="44.1274167" lon="8.129905"><ele>486.0</ele><time>2026-04-05T13:32:56.945Z</time></trkpt><trkpt lat="44.12745" lon="8.1300067"><ele>486.0</ele><time>2026-04-05T13:32:57.945Z</time></trkpt><trkpt lat="44.127475" lon="8.1301067"><ele>486.0</ele><time>2026-04-05T13:32:58.945Z</time></trkpt><trkpt lat="44.12748" lon="8.1302033"><ele>486.0</ele><time>2026-04-05T13:32:59.946Z</time></trkpt><trkpt lat="44.12746" lon="8.1302917"><ele>487.71428571428567</ele><time>2026-04-05T13:33:00.945Z</time></trkpt><trkpt lat="44.1274183" lon="8.13036"><ele>489.42857142857144</ele><time>2026-04-05T13:33:01.945Z</time></trkpt><trkpt lat="44.1273583" lon="8.1304117"><ele>491.1428571428571</ele><time>2026-04-05T13:33:02.945Z</time></trkpt><trkpt lat="44.1273033" lon="8.1304717"><ele>492.85714285714283</ele><time>2026-04-05T13:33:03.945Z</time></trkpt><trkpt lat="44.1272533" lon="8.1305367"><ele>494.57142857142856</ele><time>2026-04-05T13:33:04.945Z</time></trkpt><trkpt lat="44.1272067" lon="8.1306"><ele>496.2857142857143</ele><time>2026-04-05T13:33:05.945Z</time></trkpt><trkpt lat="44.1271667" lon="8.130675"><ele>498.0</ele><time>2026-04-05T13:33:06.946Z</time></trkpt><trkpt lat="44.1271367" lon="8.130755"><ele>493.2857142857143</ele><time>2026-04-05T13:33:07.945Z</time></trkpt><trkpt lat="44.12712" lon="8.130845"><ele>488.57142857142856</ele><time>2026-04-05T13:33:08.946Z</time></trkpt><trkpt lat="44.1271117" lon="8.1309433"><ele>483.85714285714283</ele><time>2026-04-05T13:33:09.945Z</time></trkpt><trkpt lat="44.1271167" lon="8.1310467"><ele>479.1428571428571</ele><time>2026-04-05T13:33:10.945Z</time></trkpt><trkpt lat="44.127125" lon="8.1311483"><ele>474.42857142857144</ele><time>2026-04-05T13:33:11.945Z</time></trkpt><trkpt lat="44.127135" lon="8.1312517"><ele>469.71428571428567</ele><time>2026-04-05T13:33:12.945Z</time></trkpt><trkpt lat="44.1271417" lon="8.1313517"><ele>465.0</ele><time>2026-04-05T13:33:13.945Z</time></trkpt><trkpt lat="44.1271433" lon="8.13145"><ele>465.0</ele><time>2026-04-05T13:33:14.945Z</time></trkpt><trkpt lat="44.1271483" lon="8.1315517"><ele>465.0</ele><time>2026-04-05T13:33:15.945Z</time></trkpt><trkpt lat="44.1271583" lon="8.1316633"><ele>465.0</ele><time>2026-04-05T13:33:16.946Z</time></trkpt><trkpt lat="44.1271767" lon="8.1317717"><ele>465.0</ele><time>2026-04-05T13:33:17.945Z</time></trkpt><trkpt lat="44.1271967" lon="8.1318717"><ele>465.0</ele><time>2026-04-05T13:33:18.946Z</time></trkpt><trkpt lat="44.1272133" lon="8.13196"><ele>465.0</ele><time>2026-04-05T13:33:19.945Z</time></trkpt><trkpt lat="44.127215" lon="8.1321067"><ele>467.5</ele><time>2026-04-05T13:33:21.946Z</time></trkpt><trkpt lat="44.1271467" lon="8.1321883"><ele>470.0</ele><time>2026-04-05T13:33:23.945Z</time></trkpt><trkpt lat="44.1270267" lon="8.1322017"><ele>472.5</ele><time>2026-04-05T13:33:25.945Z</time></trkpt><trkpt lat="44.1269617" lon="8.1322033"><ele>475.0</ele><time>2026-04-05T13:33:26.945Z</time></trkpt><trkpt lat="44.1268883" lon="8.132205"><ele>477.5</ele><time>2026-04-05T13:33:27.945Z</time></trkpt><trkpt lat="44.1268117" lon="8.1321983"><ele>480.0</ele><time>2026-04-05T13:33:28.945Z</time></trkpt><trkpt lat="44.126725" lon="8.132175"><ele>480.0</ele><time>2026-04-05T13:33:29.945Z</time></trkpt><trkpt lat="44.1266533" lon="8.1321567"><ele>480.0</ele><time>2026-04-05T13:33:30.945Z</time></trkpt><trkpt lat="44.126575" lon="8.1321367"><ele>480.0</ele><time>2026-04-05T13:33:31.945Z</time></trkpt><trkpt lat="44.1264867" lon="8.1321067"><ele>480.0</ele><time>2026-04-05T13:33:32.945Z</time></trkpt><trkpt lat="44.126405" lon="8.13208"><ele>480.0</ele><time>2026-04-05T13:33:33.945Z</time></trkpt><trkpt lat="44.126325" lon="8.1320783"><ele>480.0</ele><time>2026-04-05T13:33:34.945Z</time></trkpt><trkpt lat="44.1262483" lon="8.1321"><ele>481.8</ele><time>2026-04-05T13:33:35.945Z</time></trkpt><trkpt lat="44.1261733" lon="8.132135"><ele>483.6</ele><time>2026-04-05T13:33:36.946Z</time></trkpt><trkpt lat="44.1261133" lon="8.132185"><ele>485.4</ele><time>2026-04-05T13:33:37.945Z</time></trkpt><trkpt lat="44.1260317" lon="8.1322967"><ele>487.2</ele><time>2026-04-05T13:33:39.945Z</time></trkpt><trkpt lat="44.1259617" lon="8.1324067"><ele>489.0</ele><time>2026-04-05T13:33:41.945Z</time></trkpt><trkpt lat="44.12591" lon="8.1325383"><ele>489.0</ele><time>2026-04-05T13:33:43.945Z</time></trkpt><trkpt lat="44.12591" lon="8.1326583"><ele>489.0</ele><time>2026-04-05T13:33:45.945Z</time></trkpt><trkpt lat="44.1259883" lon="8.1326983"><ele>489.0</ele><time>2026-04-05T13:33:48.945Z</time></trkpt><trkpt lat="44.1260483" lon="8.1325883"><ele>489.0</ele><time>2026-04-05T13:33:50.945Z</time></trkpt><trkpt lat="44.1260967" lon="8.132475"><ele>489.0</ele><time>2026-04-05T13:33:52.945Z</time></trkpt><trkpt lat="44.1261417" lon="8.1323867"><ele>489.0</ele><time>2026-04-05T13:33:54.945Z</time></trkpt><trkpt lat="44.1261967" lon="8.1323167"><ele>489.0</ele><time>2026-04-05T13:33:56.946Z</time></trkpt><trkpt lat="44.1262733" lon="8.1323167"><ele>489.0</ele><time>2026-04-05T13:33:58.945Z</time></trkpt><trkpt lat="44.1263233" lon="8.1323883"><ele>489.0</ele><time>2026-04-05T13:34:00.945Z</time></trkpt><trkpt lat="44.12629" lon="8.1325017"><ele>489.0</ele><time>2026-04-05T13:34:02.945Z</time></trkpt><trkpt lat="44.1262067" lon="8.132615"><ele>489.0</ele><time>2026-04-05T13:34:04.945Z</time></trkpt><trkpt lat="44.1261383" lon="8.1327467"><ele>489.0</ele><time>2026-04-05T13:34:06.945Z</time></trkpt><trkpt lat="44.1261033" lon="8.1328233"><ele>489.0</ele><time>2026-04-05T13:34:07.945Z</time></trkpt><trkpt lat="44.126055" lon="8.1329867"><ele>489.0</ele><time>2026-04-05T13:34:09.945Z</time></trkpt><trkpt lat="44.1260383" lon="8.1330817"><ele>489.0</ele><time>2026-04-05T13:34:10.945Z</time></trkpt><trkpt lat="44.12602" lon="8.1331833"><ele>489.0</ele><time>2026-04-05T13:34:11.945Z</time></trkpt><trkpt lat="44.1260033" lon="8.1332833"><ele>489.0</ele><time>2026-04-05T13:34:12.945Z</time></trkpt><trkpt lat="44.125995" lon="8.1333783"><ele>492.1666666666667</ele><time>2026-04-05T13:34:13.945Z</time></trkpt><trkpt lat="44.1259867" lon="8.1334833"><ele>495.33333333333337</ele><time>2026-04-05T13:34:14.945Z</time></trkpt><trkpt lat="44.12599" lon="8.1335933"><ele>498.5</ele><time>2026-04-05T13:34:15.945Z</time></trkpt><trkpt lat="44.125985" lon="8.1337017"><ele>501.6666666666667</ele><time>2026-04-05T13:34:16.945Z</time></trkpt><trkpt lat="44.12597" lon="8.133815"><ele>504.83333333333337</ele><time>2026-04-05T13:34:17.945Z</time></trkpt><trkpt lat="44.1259467" lon="8.1339317"><ele>508.0</ele><time>2026-04-05T13:34:18.946Z</time></trkpt><trkpt lat="44.1259133" lon="8.1340333"><ele>510.50000000000006</ele><time>2026-04-05T13:34:19.945Z</time></trkpt><trkpt lat="44.125875" lon="8.13413"><ele>513.0</ele><time>2026-04-05T13:34:20.945Z</time></trkpt><trkpt lat="44.1258317" lon="8.134225"><ele>515.5</ele><time>2026-04-05T13:34:21.946Z</time></trkpt><trkpt lat="44.1257783" lon="8.1343183"><ele>518.0</ele><time>2026-04-05T13:34:22.945Z</time></trkpt><trkpt lat="44.1257267" lon="8.1344117"><ele>520.5</ele><time>2026-04-05T13:34:23.945Z</time></trkpt><trkpt lat="44.125675" lon="8.1345067"><ele>523.0</ele><time>2026-04-05T13:34:24.945Z</time></trkpt><trkpt lat="44.12562" lon="8.1346033"><ele>520.1666666666667</ele><time>2026-04-05T13:34:25.945Z</time></trkpt><trkpt lat="44.1255633" lon="8.1346983"><ele>517.3333333333334</ele><time>2026-04-05T13:34:26.945Z</time></trkpt><trkpt lat="44.125515" lon="8.13479"><ele>514.5</ele><time>2026-04-05T13:34:27.945Z</time></trkpt><trkpt lat="44.125475" lon="8.1348933"><ele>511.66666666666663</ele><time>2026-04-05T13:34:28.945Z</time></trkpt><trkpt lat="44.1254367" lon="8.1350067"><ele>508.8333333333333</ele><time>2026-04-05T13:34:29.945Z</time></trkpt><trkpt lat="44.1254017" lon="8.1351267"><ele>506.0</ele><time>2026-04-05T13:34:30.945Z</time></trkpt><trkpt lat="44.1253767" lon="8.13523"><ele>506.00000000000006</ele><time>2026-04-05T13:34:31.945Z</time></trkpt><trkpt lat="44.1253617" lon="8.1353267"><ele>506.0</ele><time>2026-04-05T13:34:32.945Z</time></trkpt><trkpt lat="44.12535" lon="8.13542"><ele>506.00000000000006</ele><time>2026-04-05T13:34:33.946Z</time></trkpt><trkpt lat="44.125335" lon="8.135515"><ele>506.00000000000006</ele><time>2026-04-05T13:34:34.945Z</time></trkpt><trkpt lat="44.1253033" lon="8.1356117"><ele>506.0</ele><time>2026-04-05T13:34:35.945Z</time></trkpt><trkpt lat="44.125265" lon="8.135695"><ele>506.00000000000006</ele><time>2026-04-05T13:34:36.945Z</time></trkpt><trkpt lat="44.1252067" lon="8.1357817"><ele>506.00000000000006</ele><time>2026-04-05T13:34:37.945Z</time></trkpt><trkpt lat="44.12515" lon="8.1358767"><ele>510.75</ele><time>2026-04-05T13:34:38.945Z</time></trkpt><trkpt lat="44.12509" lon="8.1360017"><ele>515.5</ele><time>2026-04-05T13:34:39.945Z</time></trkpt><trkpt lat="44.1250333" lon="8.1361483"><ele>520.25</ele><time>2026-04-05T13:34:40.945Z</time></trkpt><trkpt lat="44.1249783" lon="8.1363"><ele>525.0</ele><time>2026-04-05T13:34:41.945Z</time></trkpt><trkpt lat="44.124925" lon="8.1364367"><ele>522.4</ele><time>2026-04-05T13:34:42.945Z</time></trkpt><trkpt lat="44.12487" lon="8.1365483"><ele>519.8</ele><time>2026-04-05T13:34:43.946Z</time></trkpt><trkpt lat="44.1248" lon="8.1366167"><ele>517.2</ele><time>2026-04-05T13:34:44.945Z</time></trkpt><trkpt lat="44.1247167" lon="8.1366417"><ele>514.6</ele><time>2026-04-05T13:34:45.945Z</time></trkpt><trkpt lat="44.1246133" lon="8.13664"><ele>512.0</ele><time>2026-04-05T13:34:46.945Z</time></trkpt><trkpt lat="44.12449" lon="8.1366283"><ele>518.5</ele><time>2026-04-05T13:34:47.945Z</time></trkpt><trkpt lat="44.1243567" lon="8.13664"><ele>525.0</ele><time>2026-04-05T13:34:48.945Z</time></trkpt><trkpt lat="44.1242333" lon="8.1366533"><ele>531.5</ele><time>2026-04-05T13:34:49.946Z</time></trkpt><trkpt lat="44.1241083" lon="8.13668"><ele>538.0</ele><time>2026-04-05T13:34:50.945Z</time></trkpt><trkpt lat="44.12399" lon="8.1367083"><ele>538.0</ele><time>2026-04-05T13:34:51.945Z</time></trkpt><trkpt lat="44.1238717" lon="8.1367617"><ele>538.0</ele><time>2026-04-05T13:34:52.945Z</time></trkpt><trkpt lat="44.1237467" lon="8.1367983"><ele>538.0</ele><time>2026-04-05T13:34:53.945Z</time></trkpt><trkpt lat="44.123625" lon="8.136815"><ele>538.0</ele><time>2026-04-05T13:34:54.945Z</time></trkpt><trkpt lat="44.1235083" lon="8.1367983"><ele>538.0</ele><time>2026-04-05T13:34:55.945Z</time></trkpt><trkpt lat="44.1233867" lon="8.1367583"><ele>538.0</ele><time>2026-04-05T13:34:56.946Z</time></trkpt><trkpt lat="44.1232667" lon="8.1367067"><ele>538.0</ele><time>2026-04-05T13:34:57.946Z</time></trkpt><trkpt lat="44.123165" lon="8.1366783"><ele>538.0</ele><time>2026-04-05T13:34:58.945Z</time></trkpt><trkpt lat="44.1230467" lon="8.1366967"><ele>535.4</ele><time>2026-04-05T13:34:59.945Z</time></trkpt><trkpt lat="44.1229617" lon="8.136755"><ele>532.8</ele><time>2026-04-05T13:35:00.945Z</time></trkpt><trkpt lat="44.1229017" lon="8.1368567"><ele>530.2</ele><time>2026-04-05T13:35:01.945Z</time></trkpt><trkpt lat="44.1228783" lon="8.13698"><ele>527.6</ele><time>2026-04-05T13:35:02.945Z</time></trkpt><trkpt lat="44.12287" lon="8.1371383"><ele>525.0</ele><time>2026-04-05T13:35:03.946Z</time></trkpt><trkpt lat="44.12289" lon="8.1372983"><ele>526.5</ele><time>2026-04-05T13:35:04.945Z</time></trkpt><trkpt lat="44.1229183" lon="8.1374683"><ele>528.0</ele><time>2026-04-05T13:35:05.945Z</time></trkpt><trkpt lat="44.122965" lon="8.1376333"><ele>529.5</ele><time>2026-04-05T13:35:06.945Z</time></trkpt><trkpt lat="44.12302" lon="8.1377817"><ele>531.0</ele><time>2026-04-05T13:35:07.945Z</time></trkpt><trkpt lat="44.1230833" lon="8.1379133"><ele>531.0</ele><time>2026-04-05T13:35:08.945Z</time></trkpt><trkpt lat="44.1231533" lon="8.1380383"><ele>531.0</ele><time>2026-04-05T13:35:09.945Z</time></trkpt><trkpt lat="44.123225" lon="8.1381667"><ele>531.0</ele><time>2026-04-05T13:35:10.945Z</time></trkpt><trkpt lat="44.1232867" lon="8.1382983"><ele>531.0</ele><time>2026-04-05T13:35:11.945Z</time></trkpt><trkpt lat="44.1233233" lon="8.1384267"><ele>531.0</ele><time>2026-04-05T13:35:12.945Z</time></trkpt><trkpt lat="44.1233317" lon="8.1385567"><ele>533.2</ele><time>2026-04-05T13:35:13.945Z</time></trkpt><trkpt lat="44.1232983" lon="8.1386733"><ele>535.4000000000001</ele><time>2026-04-05T13:35:14.945Z</time></trkpt><trkpt lat="44.1232383" lon="8.13879"><ele>537.6</ele><time>2026-04-05T13:35:15.945Z</time></trkpt><trkpt lat="44.1231667" lon="8.138915"><ele>539.8000000000001</ele><time>2026-04-05T13:35:16.946Z</time></trkpt><trkpt lat="44.1231" lon="8.139045"><ele>542.0</ele><time>2026-04-05T13:35:17.946Z</time></trkpt><trkpt lat="44.1230433" lon="8.1391933"><ele>544.6</ele><time>2026-04-05T13:35:18.945Z</time></trkpt><trkpt lat="44.1229783" lon="8.139335"><ele>547.2</ele><time>2026-04-05T13:35:19.946Z</time></trkpt><trkpt lat="44.12291" lon="8.13946"><ele>549.8</ele><time>2026-04-05T13:35:20.945Z</time></trkpt><trkpt lat="44.1228533" lon="8.13956"><ele>552.4</ele><time>2026-04-05T13:35:21.945Z</time></trkpt><trkpt lat="44.1227867" lon="8.1396267"><ele>555.0</ele><time>2026-04-05T13:35:22.945Z</time></trkpt><trkpt lat="44.1227067" lon="8.13966"><ele>555.0</ele><time>2026-04-05T13:35:23.945Z</time></trkpt><trkpt lat="44.1226167" lon="8.1396567"><ele>555.0</ele><time>2026-04-05T13:35:24.945Z</time></trkpt><trkpt lat="44.1225217" lon="8.1396183"><ele>555.0</ele><time>2026-04-05T13:35:25.945Z</time></trkpt><trkpt lat="44.1224317" lon="8.139495"><ele>555.0</ele><time>2026-04-05T13:35:26.945Z</time></trkpt><trkpt lat="44.1223283" lon="8.1394"><ele>555.0</ele><time>2026-04-05T13:35:27.945Z</time></trkpt><trkpt lat="44.1222317" lon="8.1393183"><ele>556.1666666666666</ele><time>2026-04-05T13:35:28.946Z</time></trkpt><trkpt lat="44.122135" lon="8.1392833"><ele>557.3333333333334</ele><time>2026-04-05T13:35:29.945Z</time></trkpt><trkpt lat="44.122045" lon="8.13929"><ele>558.5</ele><time>2026-04-05T13:35:30.945Z</time></trkpt><trkpt lat="44.1219767" lon="8.13932"><ele>559.6666666666667</ele><time>2026-04-05T13:35:31.945Z</time></trkpt><trkpt lat="44.1219167" lon="8.139405"><ele>560.8333333333334</ele><time>2026-04-05T13:35:32.945Z</time></trkpt><trkpt lat="44.1218583" lon="8.13951"><ele>562.0</ele><time>2026-04-05T13:35:33.945Z</time></trkpt><trkpt lat="44.1218" lon="8.1395933"><ele>562.0</ele><time>2026-04-05T13:35:34.945Z</time></trkpt><trkpt lat="44.121735" lon="8.1396233"><ele>562.0</ele><time>2026-04-05T13:35:35.945Z</time></trkpt><trkpt lat="44.121665" lon="8.13962"><ele>562.0</ele><time>2026-04-05T13:35:36.945Z</time></trkpt><trkpt lat="44.121585" lon="8.1395483"><ele>562.0</ele><time>2026-04-05T13:35:37.945Z</time></trkpt><trkpt lat="44.12149" lon="8.1394783"><ele>562.0</ele><time>2026-04-05T13:35:38.945Z</time></trkpt><trkpt lat="44.1213917" lon="8.1394383"><ele>562.0</ele><time>2026-04-05T13:35:39.945Z</time></trkpt><trkpt lat="44.1212933" lon="8.1394167"><ele>563.75</ele><time>2026-04-05T13:35:40.946Z</time></trkpt><trkpt lat="44.121185" lon="8.1394283"><ele>565.5</ele><time>2026-04-05T13:35:41.945Z</time></trkpt><trkpt lat="44.121065" lon="8.13948"><ele>567.25</ele><time>2026-04-05T13:35:42.945Z</time></trkpt><trkpt lat="44.12096" lon="8.1395483"><ele>569.0</ele><time>2026-04-05T13:35:43.945Z</time></trkpt><trkpt lat="44.1208683" lon="8.13962"><ele>569.0</ele><time>2026-04-05T13:35:44.945Z</time></trkpt><trkpt lat="44.120775" lon="8.1396933"><ele>569.0</ele><time>2026-04-05T13:35:45.946Z</time></trkpt><trkpt lat="44.1207" lon="8.1397417"><ele>569.0</ele><time>2026-04-05T13:35:46.945Z</time></trkpt><trkpt lat="44.1206233" lon="8.13975"><ele>569.0</ele><time>2026-04-05T13:35:47.945Z</time></trkpt><trkpt lat="44.1205317" lon="8.1396517"><ele>569.0</ele><time>2026-04-05T13:35:49.945Z</time></trkpt><trkpt lat="44.1205417" lon="8.1394967"><ele>569.8</ele><time>2026-04-05T13:35:50.945Z</time></trkpt><trkpt lat="44.12052" lon="8.1393417"><ele>570.5999999999999</ele><time>2026-04-05T13:35:51.945Z</time></trkpt><trkpt lat="44.1204917" lon="8.1391783"><ele>571.4</ele><time>2026-04-05T13:35:52.945Z</time></trkpt><trkpt lat="44.12046" lon="8.13903"><ele>572.1999999999999</ele><time>2026-04-05T13:35:53.945Z</time></trkpt><trkpt lat="44.12041" lon="8.1389083"><ele>573.0</ele><time>2026-04-05T13:35:54.946Z</time></trkpt><trkpt lat="44.1203633" lon="8.1388067"><ele>570.3333333333334</ele><time>2026-04-05T13:35:55.945Z</time></trkpt><trkpt lat="44.1203" lon="8.1387317"><ele>567.6666666666666</ele><time>2026-04-05T13:35:56.945Z</time></trkpt><trkpt lat="44.1202333" lon="8.138695"><ele>565.0</ele><time>2026-04-05T13:35:57.945Z</time></trkpt><trkpt lat="44.1201517" lon="8.1387367"><ele>562.3333333333333</ele><time>2026-04-05T13:35:58.945Z</time></trkpt><trkpt lat="44.120105" lon="8.1387967"><ele>559.6666666666666</ele><time>2026-04-05T13:35:59.945Z</time></trkpt><trkpt lat="44.1200983" lon="8.1389033"><ele>557.0</ele><time>2026-04-05T13:36:00.945Z</time></trkpt><trkpt lat="44.120115" lon="8.13903"><ele>560.2</ele><time>2026-04-05T13:36:01.945Z</time></trkpt><trkpt lat="44.12015" lon="8.1391633"><ele>563.4000000000001</ele><time>2026-04-05T13:36:02.945Z</time></trkpt><trkpt lat="44.1201867" lon="8.1392967"><ele>566.5999999999999</ele><time>2026-04-05T13:36:03.945Z</time></trkpt><trkpt lat="44.1202333" lon="8.1394383"><ele>569.8</ele><time>2026-04-05T13:36:04.946Z</time></trkpt><trkpt lat="44.12027" lon="8.1395767"><ele>573.0</ele><time>2026-04-05T13:36:05.945Z</time></trkpt><trkpt lat="44.1203" lon="8.1397183"><ele>573.0</ele><time>2026-04-05T13:36:06.945Z</time></trkpt><trkpt lat="44.120345" lon="8.1398567"><ele>573.0</ele><time>2026-04-05T13:36:07.945Z</time></trkpt><trkpt lat="44.1203867" lon="8.1399917"><ele>573.0</ele><time>2026-04-05T13:36:08.945Z</time></trkpt><trkpt lat="44.12042" lon="8.1401417"><ele>573.0</ele><time>2026-04-05T13:36:09.945Z</time></trkpt><trkpt lat="44.1204667" lon="8.1402917"><ele>573.0</ele><time>2026-04-05T13:36:10.945Z</time></trkpt><trkpt lat="44.120525" lon="8.140425"><ele>576.0</ele><time>2026-04-05T13:36:11.945Z</time></trkpt><trkpt lat="44.1205917" lon="8.1405567"><ele>579.0</ele><time>2026-04-05T13:36:12.945Z</time></trkpt><trkpt lat="44.1206567" lon="8.140685"><ele>582.0</ele><time>2026-04-05T13:36:13.945Z</time></trkpt><trkpt lat="44.12074" lon="8.14079"><ele>585.0</ele><time>2026-04-05T13:36:14.945Z</time></trkpt><trkpt lat="44.1208183" lon="8.1408667"><ele>588.0</ele><time>2026-04-05T13:36:15.945Z</time></trkpt><trkpt lat="44.12088" lon="8.14091"><ele>588.6</ele><time>2026-04-05T13:36:16.945Z</time></trkpt><trkpt lat="44.1209833" lon="8.1408983"><ele>589.1999999999999</ele><time>2026-04-05T13:36:18.945Z</time></trkpt><trkpt lat="44.1210317" lon="8.1408367"><ele>589.8</ele><time>2026-04-05T13:36:19.945Z</time></trkpt><trkpt lat="44.121035" lon="8.14067"><ele>590.4</ele><time>2026-04-05T13:36:20.946Z</time></trkpt><trkpt lat="44.1210583" lon="8.1405417"><ele>591.0</ele><time>2026-04-05T13:36:21.945Z</time></trkpt><trkpt lat="44.1211" lon="8.14043"><ele>591.0</ele><time>2026-04-05T13:36:22.946Z</time></trkpt><trkpt lat="44.1211433" lon="8.1403483"><ele>591.0</ele><time>2026-04-05T13:36:23.946Z</time></trkpt><trkpt lat="44.1212167" lon="8.1403383"><ele>591.0</ele><time>2026-04-05T13:36:24.946Z</time></trkpt><trkpt lat="44.1212733" lon="8.14038"><ele>591.0</ele><time>2026-04-05T13:36:25.945Z</time></trkpt><trkpt lat="44.1213217" lon="8.1404583"><ele>591.0</ele><time>2026-04-05T13:36:26.945Z</time></trkpt><trkpt lat="44.1213617" lon="8.1405733"><ele>591.0</ele><time>2026-04-05T13:36:27.945Z</time></trkpt><trkpt lat="44.1214133" lon="8.140695"><ele>594.8</ele><time>2026-04-05T13:36:28.945Z</time></trkpt><trkpt lat="44.121465" lon="8.14081"><ele>598.6</ele><time>2026-04-05T13:36:29.945Z</time></trkpt><trkpt lat="44.1215283" lon="8.140925"><ele>602.4</ele><time>2026-04-05T13:36:30.946Z</time></trkpt><trkpt lat="44.1216" lon="8.141035"><ele>606.2</ele><time>2026-04-05T13:36:31.946Z</time></trkpt><trkpt lat="44.1216617" lon="8.1411317"><ele>610.0</ele><time>2026-04-05T13:36:32.946Z</time></trkpt><trkpt lat="44.1217367" lon="8.1411917"><ele>610.0</ele><time>2026-04-05T13:36:33.946Z</time></trkpt><trkpt lat="44.12183" lon="8.1412"><ele>610.0</ele><time>2026-04-05T13:36:34.945Z</time></trkpt><trkpt lat="44.1219217" lon="8.14117"><ele>610.0</ele><time>2026-04-05T13:36:35.945Z</time></trkpt><trkpt lat="44.1220167" lon="8.1411317"><ele>610.0</ele><time>2026-04-05T13:36:36.945Z</time></trkpt><trkpt lat="44.122095" lon="8.1411217"><ele>610.0</ele><time>2026-04-05T13:36:37.945Z</time></trkpt><trkpt lat="44.1221717" lon="8.1412433"><ele>610.0</ele><time>2026-04-05T13:36:39.945Z</time></trkpt><trkpt lat="44.12218" lon="8.1413333"><ele>610.0</ele><time>2026-04-05T13:36:40.946Z</time></trkpt><trkpt lat="44.122125" lon="8.1413883"><ele>610.0</ele><time>2026-04-05T13:36:41.945Z</time></trkpt><trkpt lat="44.12205" lon="8.1414233"><ele>610.0</ele><time>2026-04-05T13:36:42.945Z</time></trkpt><trkpt lat="44.121945" lon="8.1414483"><ele>610.0</ele><time>2026-04-05T13:36:43.945Z</time></trkpt><trkpt lat="44.1218467" lon="8.14146"><ele>610.0</ele><time>2026-04-05T13:36:44.945Z</time></trkpt><trkpt lat="44.121745" lon="8.141455"><ele>610.0</ele><time>2026-04-05T13:36:45.945Z</time></trkpt><trkpt lat="44.1216617" lon="8.1414267"><ele>610.0</ele><time>2026-04-05T13:36:46.945Z</time></trkpt><trkpt lat="44.1215817" lon="8.1413567"><ele>610.0</ele><time>2026-04-05T13:36:47.945Z</time></trkpt><trkpt lat="44.12151" lon="8.1412617"><ele>610.0</ele><time>2026-04-05T13:36:48.946Z</time></trkpt><trkpt lat="44.1214317" lon="8.14119"><ele>610.0</ele><time>2026-04-05T13:36:49.945Z</time></trkpt><trkpt lat="44.1213583" lon="8.14116"><ele>610.0</ele><time>2026-04-05T13:36:50.945Z</time></trkpt><trkpt lat="44.1212667" lon="8.1412717"><ele>610.8333333333334</ele><time>2026-04-05T13:36:52.945Z</time></trkpt><trkpt lat="44.12123" lon="8.14138"><ele>611.6666666666667</ele><time>2026-04-05T13:36:53.946Z</time></trkpt><trkpt lat="44.121195" lon="8.1414917"><ele>612.5</ele><time>2026-04-05T13:36:54.945Z</time></trkpt><trkpt lat="44.1211517" lon="8.1415883"><ele>613.3333333333334</ele><time>2026-04-05T13:36:55.945Z</time></trkpt><trkpt lat="44.1210967" lon="8.14165"><ele>614.1666666666666</ele><time>2026-04-05T13:36:56.945Z</time></trkpt><trkpt lat="44.1210267" lon="8.141675"><ele>615.0</ele><time>2026-04-05T13:36:57.945Z</time></trkpt><trkpt lat="44.12094" lon="8.14163"><ele>615.0</ele><time>2026-04-05T13:36:58.945Z</time></trkpt><trkpt lat="44.12087" lon="8.1415017"><ele>615.0</ele><time>2026-04-05T13:36:59.946Z</time></trkpt><trkpt lat="44.120805" lon="8.1413867"><ele>615.0</ele><time>2026-04-05T13:37:00.946Z</time></trkpt><trkpt lat="44.120735" lon="8.1412833"><ele>615.0</ele><time>2026-04-05T13:37:01.945Z</time></trkpt><trkpt lat="44.1206533" lon="8.1411983"><ele>615.0</ele><time>2026-04-05T13:37:02.945Z</time></trkpt><trkpt lat="44.1205667" lon="8.1411233"><ele>614.2</ele><time>2026-04-05T13:37:03.945Z</time></trkpt><trkpt lat="44.1204833" lon="8.1410833"><ele>613.4</ele><time>2026-04-05T13:37:04.945Z</time></trkpt><trkpt lat="44.1203783" lon="8.14109"><ele>612.6</ele><time>2026-04-05T13:37:05.946Z</time></trkpt><trkpt lat="44.12028" lon="8.1411517"><ele>611.8</ele><time>2026-04-05T13:37:06.945Z</time></trkpt><trkpt lat="44.1201983" lon="8.14124"><ele>611.0</ele><time>2026-04-05T13:37:07.945Z</time></trkpt><trkpt lat="44.120115" lon="8.141365"><ele>611.0</ele><time>2026-04-05T13:37:08.945Z</time></trkpt><trkpt lat="44.1200533" lon="8.1414883"><ele>611.0</ele><time>2026-04-05T13:37:09.945Z</time></trkpt><trkpt lat="44.1199917" lon="8.1416267"><ele>611.0</ele><time>2026-04-05T13:37:10.945Z</time></trkpt><trkpt lat="44.1199317" lon="8.141765"><ele>611.0</ele><time>2026-04-05T13:37:11.945Z</time></trkpt><trkpt lat="44.1198633" lon="8.14189"><ele>614.0</ele><time>2026-04-05T13:37:12.945Z</time></trkpt><trkpt lat="44.1197817" lon="8.1419983"><ele>617.0</ele><time>2026-04-05T13:37:13.945Z</time></trkpt><trkpt lat="44.1196767" lon="8.1420783"><ele>620.0</ele><time>2026-04-05T13:37:14.946Z</time></trkpt><trkpt lat="44.119565" lon="8.1421567"><ele>623.0</ele><time>2026-04-05T13:37:15.945Z</time></trkpt><trkpt lat="44.11944" lon="8.142215"><ele>623.0</ele><time>2026-04-05T13:37:16.945Z</time></trkpt><trkpt lat="44.1193133" lon="8.14224"><ele>623.0</ele><time>2026-04-05T13:37:17.945Z</time></trkpt><trkpt lat="44.11919" lon="8.142275"><ele>623.0</ele><time>2026-04-05T13:37:18.945Z</time></trkpt><trkpt lat="44.1190583" lon="8.14229"><ele>623.0</ele><time>2026-04-05T13:37:19.945Z</time></trkpt><trkpt lat="44.1189317" lon="8.14231"><ele>618.5</ele><time>2026-04-05T13:37:20.945Z</time></trkpt><trkpt lat="44.1188" lon="8.1423433"><ele>614.0</ele><time>2026-04-05T13:37:21.945Z</time></trkpt><trkpt lat="44.1186767" lon="8.1423783"><ele>609.5</ele><time>2026-04-05T13:37:22.946Z</time></trkpt><trkpt lat="44.11856" lon="8.1424267"><ele>605.0</ele><time>2026-04-05T13:37:23.945Z</time></trkpt><trkpt lat="44.1184517" lon="8.1424767"><ele>608.0</ele><time>2026-04-05T13:37:24.945Z</time></trkpt><trkpt lat="44.1183483" lon="8.142535"><ele>611.0</ele><time>2026-04-05T13:37:25.945Z</time></trkpt><trkpt lat="44.118265" lon="8.14263"><ele>614.0</ele><time>2026-04-05T13:37:26.945Z</time></trkpt><trkpt lat="44.1181883" lon="8.1427367"><ele>617.0</ele><time>2026-04-05T13:37:27.945Z</time></trkpt><trkpt lat="44.1181167" lon="8.1428667"><ele>620.0</ele><time>2026-04-05T13:37:28.945Z</time></trkpt><trkpt lat="44.1180467" lon="8.1430033"><ele>620.0</ele><time>2026-04-05T13:37:29.945Z</time></trkpt><trkpt lat="44.117975" lon="8.143125"><ele>620.0</ele><time>2026-04-05T13:37:30.946Z</time></trkpt><trkpt lat="44.1178867" lon="8.1432367"><ele>620.0</ele><time>2026-04-05T13:37:31.945Z</time></trkpt><trkpt lat="44.11778" lon="8.1433117"><ele>620.0</ele><time>2026-04-05T13:37:32.945Z</time></trkpt><trkpt lat="44.1176683" lon="8.1433717"><ele>626.2</ele><time>2026-04-05T13:37:33.945Z</time></trkpt><trkpt lat="44.1175533" lon="8.1433967"><ele>632.4</ele><time>2026-04-05T13:37:34.945Z</time></trkpt><trkpt lat="44.1174417" lon="8.1434083"><ele>638.5999999999999</ele><time>2026-04-05T13:37:35.945Z</time></trkpt><trkpt lat="44.1173383" lon="8.1434117"><ele>644.8</ele><time>2026-04-05T13:37:36.945Z</time></trkpt><trkpt lat="44.1172467" lon="8.1434183"><ele>651.0</ele><time>2026-04-05T13:37:37.945Z</time></trkpt><trkpt lat="44.117175" lon="8.1434483"><ele>651.0</ele><time>2026-04-05T13:37:38.945Z</time></trkpt><trkpt lat="44.117115" lon="8.143485"><ele>651.0</ele><time>2026-04-05T13:37:39.946Z</time></trkpt><trkpt lat="44.1170417" lon="8.143525"><ele>651.0</ele><time>2026-04-05T13:37:41.945Z</time></trkpt><trkpt lat="44.1169783" lon="8.143515"><ele>651.0</ele><time>2026-04-05T13:38:30.945Z</time></trkpt><trkpt lat="44.1168983" lon="8.1435133"><ele>651.0</ele><time>2026-04-05T13:38:32.945Z</time></trkpt><trkpt lat="44.1167883" lon="8.1434667"><ele>651.0</ele><time>2026-04-05T13:38:34.946Z</time></trkpt><trkpt lat="44.1166883" lon="8.1434267"><ele>651.0</ele><time>2026-04-05T13:38:36.946Z</time></trkpt><trkpt lat="44.1165783" lon="8.1433833"><ele>651.0</ele><time>2026-04-05T13:38:38.945Z</time></trkpt><trkpt lat="44.11646" lon="8.143405"><ele>651.0</ele><time>2026-04-05T13:38:40.945Z</time></trkpt><trkpt lat="44.1164017" lon="8.1434417"><ele>651.0</ele><time>2026-04-05T13:38:41.945Z</time></trkpt><trkpt lat="44.1162983" lon="8.14356"><ele>651.0</ele><time>2026-04-05T13:38:43.945Z</time></trkpt><trkpt lat="44.1162533" lon="8.143645"><ele>652.5714285714286</ele><time>2026-04-05T13:38:44.945Z</time></trkpt><trkpt lat="44.1162117" lon="8.1437383"><ele>654.1428571428571</ele><time>2026-04-05T13:38:45.945Z</time></trkpt><trkpt lat="44.1161767" lon="8.1438317"><ele>655.7142857142858</ele><time>2026-04-05T13:38:46.945Z</time></trkpt><trkpt lat="44.1161433" lon="8.1439233"><ele>657.2857142857142</ele><time>2026-04-05T13:38:47.945Z</time></trkpt><trkpt lat="44.1161067" lon="8.144"><ele>658.8571428571429</ele><time>2026-04-05T13:38:48.945Z</time></trkpt><trkpt lat="44.1160583" lon="8.1440583"><ele>660.4285714285714</ele><time>2026-04-05T13:38:49.945Z</time></trkpt><trkpt lat="44.1160083" lon="8.1441267"><ele>662.0</ele><time>2026-04-05T13:38:50.945Z</time></trkpt><trkpt lat="44.1159483" lon="8.1441933"><ele>662.0</ele><time>2026-04-05T13:38:51.945Z</time></trkpt><trkpt lat="44.115885" lon="8.14425"><ele>662.0</ele><time>2026-04-05T13:38:52.946Z</time></trkpt><trkpt lat="44.1158317" lon="8.144305"><ele>662.0</ele><time>2026-04-05T13:38:53.946Z</time></trkpt><trkpt lat="44.115735" lon="8.1443867"><ele>662.0</ele><time>2026-04-05T13:38:55.945Z</time></trkpt><trkpt lat="44.115675" lon="8.1444367"><ele>662.0</ele><time>2026-04-05T13:38:56.945Z</time></trkpt><trkpt lat="44.1156133" lon="8.144495"><ele>662.0</ele><time>2026-04-05T13:38:57.945Z</time></trkpt><trkpt lat="44.1155567" lon="8.1445483"><ele>664.5</ele><time>2026-04-05T13:38:58.945Z</time></trkpt><trkpt lat="44.1155067" lon="8.1446033"><ele>667.0</ele><time>2026-04-05T13:38:59.945Z</time></trkpt><trkpt lat="44.1154333" lon="8.1447567"><ele>669.5</ele><time>2026-04-05T13:39:01.945Z</time></trkpt><trkpt lat="44.1154" lon="8.1448433"><ele>672.0</ele><time>2026-04-05T13:39:02.945Z</time></trkpt><trkpt lat="44.1153633" lon="8.1449217"><ele>674.5</ele><time>2026-04-05T13:39:03.945Z</time></trkpt><trkpt lat="44.1153267" lon="8.1450067"><ele>677.0</ele><time>2026-04-05T13:39:04.945Z</time></trkpt><trkpt lat="44.11529" lon="8.1450983"><ele>677.0</ele><time>2026-04-05T13:39:05.945Z</time></trkpt><trkpt lat="44.1152517" lon="8.145185"><ele>677.0</ele><time>2026-04-05T13:39:06.945Z</time></trkpt><trkpt lat="44.1152083" lon="8.1452767"><ele>677.0</ele><time>2026-04-05T13:39:07.945Z</time></trkpt><trkpt lat="44.1151617" lon="8.1453617"><ele>677.0</ele><time>2026-04-05T13:39:08.945Z</time></trkpt><trkpt lat="44.1151133" lon="8.1454417"><ele>677.0</ele><time>2026-04-05T13:39:09.945Z</time></trkpt><trkpt lat="44.1150667" lon="8.1455233"><ele>677.0</ele><time>2026-04-05T13:39:10.946Z</time></trkpt><trkpt lat="44.1150217" lon="8.14561"><ele>676.9999999999999</ele><time>2026-04-05T13:39:11.945Z</time></trkpt><trkpt lat="44.11498" lon="8.14569"><ele>677.0</ele><time>2026-04-05T13:39:12.945Z</time></trkpt><trkpt lat="44.1149333" lon="8.14577"><ele>677.0</ele><time>2026-04-05T13:39:13.945Z</time></trkpt><trkpt lat="44.1148867" lon="8.1458517"><ele>677.0</ele><time>2026-04-05T13:39:14.945Z</time></trkpt><trkpt lat="44.11484" lon="8.1459383"><ele>677.0</ele><time>2026-04-05T13:39:15.945Z</time></trkpt><trkpt lat="44.114795" lon="8.14602"><ele>676.9999999999999</ele><time>2026-04-05T13:39:16.946Z</time></trkpt><trkpt lat="44.1147567" lon="8.1461067"><ele>677.0</ele><time>2026-04-05T13:39:17.945Z</time></trkpt><trkpt lat="44.114715" lon="8.1461967"><ele>676.5</ele><time>2026-04-05T13:39:18.945Z</time></trkpt><trkpt lat="44.114675" lon="8.1462867"><ele>676.0</ele><time>2026-04-05T13:39:19.945Z</time></trkpt><trkpt lat="44.1146367" lon="8.146385"><ele>675.5</ele><time>2026-04-05T13:39:20.945Z</time></trkpt><trkpt lat="44.114605" lon="8.146495"><ele>675.0</ele><time>2026-04-05T13:39:21.945Z</time></trkpt><trkpt lat="44.11458" lon="8.1465967"><ele>674.5</ele><time>2026-04-05T13:39:22.945Z</time></trkpt><trkpt lat="44.1145633" lon="8.146705"><ele>674.0</ele><time>2026-04-05T13:39:23.945Z</time></trkpt><trkpt lat="44.1145533" lon="8.1468117"><ele>676.5</ele><time>2026-04-05T13:39:24.946Z</time></trkpt><trkpt lat="44.114545" lon="8.1469233"><ele>679.0</ele><time>2026-04-05T13:39:25.946Z</time></trkpt><trkpt lat="44.1145367" lon="8.1470367"><ele>681.5</ele><time>2026-04-05T13:39:26.946Z</time></trkpt><trkpt lat="44.1145267" lon="8.1471417"><ele>684.0</ele><time>2026-04-05T13:39:27.945Z</time></trkpt><trkpt lat="44.1145183" lon="8.147245"><ele>686.5</ele><time>2026-04-05T13:39:28.945Z</time></trkpt><trkpt lat="44.1145017" lon="8.1473383"><ele>689.0</ele><time>2026-04-05T13:39:29.945Z</time></trkpt><trkpt lat="44.1144717" lon="8.1474733"><ele>689.0</ele><time>2026-04-05T13:39:31.945Z</time></trkpt><trkpt lat="44.114375" lon="8.1475817"><ele>689.0</ele><time>2026-04-05T13:39:33.945Z</time></trkpt><trkpt lat="44.1143117" lon="8.1476433"><ele>689.0</ele><time>2026-04-05T13:39:34.945Z</time></trkpt><trkpt lat="44.114245" lon="8.1477067"><ele>689.0</ele><time>2026-04-05T13:39:35.945Z</time></trkpt><trkpt lat="44.1141767" lon="8.1477817"><ele>689.0</ele><time>2026-04-05T13:39:36.945Z</time></trkpt><trkpt lat="44.11411" lon="8.147855"><ele>686.1666666666666</ele><time>2026-04-05T13:39:37.945Z</time></trkpt><trkpt lat="44.1140433" lon="8.1479233"><ele>683.3333333333333</ele><time>2026-04-05T13:39:38.945Z</time></trkpt><trkpt lat="44.1139833" lon="8.1479883"><ele>680.5</ele><time>2026-04-05T13:39:39.945Z</time></trkpt><trkpt lat="44.1139183" lon="8.1480433"><ele>677.6666666666666</ele><time>2026-04-05T13:39:40.945Z</time></trkpt><trkpt lat="44.1138483" lon="8.1481017"><ele>674.8333333333334</ele><time>2026-04-05T13:39:41.945Z</time></trkpt><trkpt lat="44.113775" lon="8.148165"><ele>672.0</ele><time>2026-04-05T13:39:42.945Z</time></trkpt><trkpt lat="44.1136967" lon="8.14823"><ele>672.0</ele><time>2026-04-05T13:39:43.945Z</time></trkpt><trkpt lat="44.1136283" lon="8.1483033"><ele>672.0</ele><time>2026-04-05T13:39:44.946Z</time></trkpt><trkpt lat="44.1135767" lon="8.1483917"><ele>672.0</ele><time>2026-04-05T13:39:45.945Z</time></trkpt><trkpt lat="44.1135417" lon="8.148485"><ele>672.0</ele><time>2026-04-05T13:39:46.945Z</time></trkpt><trkpt lat="44.1135117" lon="8.1485717"><ele>672.0</ele><time>2026-04-05T13:39:47.945Z</time></trkpt><trkpt lat="44.1134733" lon="8.1486633"><ele>672.0</ele><time>2026-04-05T13:39:48.945Z</time></trkpt><trkpt lat="44.113435" lon="8.1487533"><ele>672.0</ele><time>2026-04-05T13:39:49.945Z</time></trkpt><trkpt lat="44.1134" lon="8.14884"><ele>672.0</ele><time>2026-04-05T13:39:50.945Z</time></trkpt><trkpt lat="44.1133667" lon="8.148935"><ele>672.0</ele><time>2026-04-05T13:39:51.945Z</time></trkpt><trkpt lat="44.11334" lon="8.149015"><ele>672.0</ele><time>2026-04-05T13:39:52.945Z</time></trkpt><trkpt lat="44.113315" lon="8.1491017"><ele>672.0</ele><time>2026-04-05T13:39:53.946Z</time></trkpt><trkpt lat="44.1132883" lon="8.1491833"><ele>672.0</ele><time>2026-04-05T13:39:54.945Z</time></trkpt><trkpt lat="44.113245" lon="8.1493383"><ele>670.2</ele><time>2026-04-05T13:39:56.945Z</time></trkpt><trkpt lat="44.1132" lon="8.1494967"><ele>668.4000000000001</ele><time>2026-04-05T13:39:58.945Z</time></trkpt><trkpt lat="44.1131683" lon="8.14959"><ele>666.5999999999999</ele><time>2026-04-05T13:39:59.946Z</time></trkpt><trkpt lat="44.1131267" lon="8.1496867"><ele>664.8</ele><time>2026-04-05T13:40:00.945Z</time></trkpt><trkpt lat="44.11307" lon="8.1497917"><ele>663.0</ele><time>2026-04-05T13:40:01.945Z</time></trkpt><trkpt lat="44.1130317" lon="8.14989"><ele>663.0</ele><time>2026-04-05T13:40:02.945Z</time></trkpt><trkpt lat="44.1129933" lon="8.1499967"><ele>663.0</ele><time>2026-04-05T13:40:03.945Z</time></trkpt><trkpt lat="44.1129583" lon="8.1501017"><ele>663.0</ele><time>2026-04-05T13:40:04.945Z</time></trkpt><trkpt lat="44.1129367" lon="8.1502117"><ele>663.0</ele><time>2026-04-05T13:40:05.945Z</time></trkpt><trkpt lat="44.1129167" lon="8.1503833"><ele>663.0</ele><time>2026-04-05T13:40:07.945Z</time></trkpt><trkpt lat="44.1128967" lon="8.1504683"><ele>663.0</ele><time>2026-04-05T13:40:08.945Z</time></trkpt><trkpt lat="44.1128483" lon="8.150625"><ele>665.0</ele><time>2026-04-05T13:40:10.945Z</time></trkpt><trkpt lat="44.112825" lon="8.1507133"><ele>667.0</ele><time>2026-04-05T13:40:11.945Z</time></trkpt><trkpt lat="44.1128133" lon="8.1508"><ele>669.0</ele><time>2026-04-05T13:40:12.945Z</time></trkpt><trkpt lat="44.112805" lon="8.1508983"><ele>671.0</ele><time>2026-04-05T13:40:13.945Z</time></trkpt><trkpt lat="44.1128017" lon="8.150995"><ele>673.0</ele><time>2026-04-05T13:40:14.945Z</time></trkpt><trkpt lat="44.1128233" lon="8.1511717"><ele>675.0</ele><time>2026-04-05T13:40:16.945Z</time></trkpt><trkpt lat="44.1128367" lon="8.1512667"><ele>675.0</ele><time>2026-04-05T13:40:17.945Z</time></trkpt><trkpt lat="44.112855" lon="8.1513617"><ele>675.0</ele><time>2026-04-05T13:40:18.945Z</time></trkpt><trkpt lat="44.1128767" lon="8.1514583"><ele>675.0</ele><time>2026-04-05T13:40:19.945Z</time></trkpt><trkpt lat="44.1128933" lon="8.1515433"><ele>675.0</ele><time>2026-04-05T13:40:20.945Z</time></trkpt><trkpt lat="44.1129117" lon="8.1516283"><ele>675.0</ele><time>2026-04-05T13:40:21.945Z</time></trkpt><trkpt lat="44.112935" lon="8.1517183"><ele>675.0</ele><time>2026-04-05T13:40:22.945Z</time></trkpt><trkpt lat="44.11296" lon="8.1518067"><ele>675.0</ele><time>2026-04-05T13:40:23.945Z</time></trkpt><trkpt lat="44.112985" lon="8.15189"><ele>676.8333333333334</ele><time>2026-04-05T13:40:24.945Z</time></trkpt><trkpt lat="44.11301" lon="8.1519733"><ele>678.6666666666666</ele><time>2026-04-05T13:40:25.945Z</time></trkpt><trkpt lat="44.11305" lon="8.152105"><ele>680.5</ele><time>2026-04-05T13:40:27.945Z</time></trkpt><trkpt lat="44.1130117" lon="8.1521883"><ele>682.3333333333333</ele><time>2026-04-05T13:40:29.945Z</time></trkpt><trkpt lat="44.1129133" lon="8.1522833"><ele>684.1666666666666</ele><time>2026-04-05T13:40:31.945Z</time></trkpt><trkpt lat="44.1128583" lon="8.1523367"><ele>686.0</ele><time>2026-04-05T13:40:32.945Z</time></trkpt><trkpt lat="44.1128017" lon="8.152395"><ele>688.0</ele><time>2026-04-05T13:40:33.945Z</time></trkpt><trkpt lat="44.1127567" lon="8.1524567"><ele>690.0</ele><time>2026-04-05T13:40:34.946Z</time></trkpt><trkpt lat="44.1126683" lon="8.1525917"><ele>692.0</ele><time>2026-04-05T13:40:36.946Z</time></trkpt><trkpt lat="44.1126283" lon="8.1526733"><ele>694.0</ele><time>2026-04-05T13:40:37.945Z</time></trkpt><trkpt lat="44.1125917" lon="8.1527633"><ele>696.0</ele><time>2026-04-05T13:40:38.946Z</time></trkpt><trkpt lat="44.11256" lon="8.1528583"><ele>698.0</ele><time>2026-04-05T13:40:39.946Z</time></trkpt><trkpt lat="44.112545" lon="8.152955"><ele>698.0</ele><time>2026-04-05T13:40:40.945Z</time></trkpt><trkpt lat="44.11254" lon="8.1530567"><ele>698.0</ele><time>2026-04-05T13:40:41.945Z</time></trkpt><trkpt lat="44.1125167" lon="8.1531633"><ele>698.0</ele><time>2026-04-05T13:40:42.945Z</time></trkpt><trkpt lat="44.1124933" lon="8.1532733"><ele>698.0</ele><time>2026-04-05T13:40:43.945Z</time></trkpt><trkpt lat="44.112475" lon="8.1533767"><ele>698.0</ele><time>2026-04-05T13:40:44.945Z</time></trkpt><trkpt lat="44.1124633" lon="8.1534733"><ele>698.0</ele><time>2026-04-05T13:40:45.945Z</time></trkpt><trkpt lat="44.1124467" lon="8.153565"><ele>697.2</ele><time>2026-04-05T13:40:46.945Z</time></trkpt><trkpt lat="44.1124083" lon="8.1537283"><ele>696.4</ele><time>2026-04-05T13:40:48.946Z</time></trkpt><trkpt lat="44.11237" lon="8.1539"><ele>695.6</ele><time>2026-04-05T13:40:50.945Z</time></trkpt><trkpt lat="44.1123533" lon="8.15399"><ele>694.8000000000001</ele><time>2026-04-05T13:40:51.945Z</time></trkpt><trkpt lat="44.11234" lon="8.1540817"><ele>694.0</ele><time>2026-04-05T13:40:52.945Z</time></trkpt><trkpt lat="44.11233" lon="8.1542467"><ele>693.8571428571429</ele><time>2026-04-05T13:40:54.945Z</time></trkpt><trkpt lat="44.1123317" lon="8.1543417"><ele>693.7142857142857</ele><time>2026-04-05T13:40:55.945Z</time></trkpt><trkpt lat="44.112325" lon="8.15444"><ele>693.5714285714286</ele><time>2026-04-05T13:40:56.945Z</time></trkpt><trkpt lat="44.1123233" lon="8.1545433"><ele>693.4285714285714</ele><time>2026-04-05T13:40:57.945Z</time></trkpt><trkpt lat="44.11231" lon="8.154645"><ele>693.2857142857142</ele><time>2026-04-05T13:40:58.945Z</time></trkpt><trkpt lat="44.1123033" lon="8.1547483"><ele>693.1428571428571</ele><time>2026-04-05T13:40:59.945Z</time></trkpt><trkpt lat="44.1123" lon="8.154845"><ele>693.0</ele><time>2026-04-05T13:41:00.945Z</time></trkpt><trkpt lat="44.1123" lon="8.1549367"><ele>695.2857142857143</ele><time>2026-04-05T13:41:01.945Z</time></trkpt><trkpt lat="44.11229" lon="8.1550267"><ele>697.5714285714286</ele><time>2026-04-05T13:41:02.945Z</time></trkpt><trkpt lat="44.1122817" lon="8.155125"><ele>699.8571428571429</ele><time>2026-04-05T13:41:03.945Z</time></trkpt><trkpt lat="44.1122783" lon="8.155215"><ele>702.1428571428571</ele><time>2026-04-05T13:41:04.945Z</time></trkpt><trkpt lat="44.1122717" lon="8.1553217"><ele>704.4285714285714</ele><time>2026-04-05T13:41:05.945Z</time></trkpt><trkpt lat="44.1122633" lon="8.1554167"><ele>706.7142857142858</ele><time>2026-04-05T13:41:06.946Z</time></trkpt><trkpt lat="44.1122617" lon="8.1555233"><ele>709.0</ele><time>2026-04-05T13:41:07.945Z</time></trkpt><trkpt lat="44.11226" lon="8.1556283"><ele>711.1666666666667</ele><time>2026-04-05T13:41:08.945Z</time></trkpt><trkpt lat="44.11225" lon="8.1557333"><ele>713.3333333333334</ele><time>2026-04-05T13:41:09.945Z</time></trkpt><trkpt lat="44.1122417" lon="8.155835"><ele>715.5</ele><time>2026-04-05T13:41:10.945Z</time></trkpt><trkpt lat="44.1122317" lon="8.15594"><ele>717.6666666666666</ele><time>2026-04-05T13:41:11.945Z</time></trkpt><trkpt lat="44.11222" lon="8.156035"><ele>719.8333333333333</ele><time>2026-04-05T13:41:12.945Z</time></trkpt><trkpt lat="44.1121983" lon="8.1562017"><ele>722.0</ele><time>2026-04-05T13:41:14.944Z</time></trkpt><trkpt lat="44.1121867" lon="8.1562883"><ele>722.0</ele><time>2026-04-05T13:41:15.944Z</time></trkpt><trkpt lat="44.1121717" lon="8.1563783"><ele>722.0</ele><time>2026-04-05T13:41:16.945Z</time></trkpt><trkpt lat="44.112155" lon="8.1564667"><ele>722.0</ele><time>2026-04-05T13:41:17.945Z</time></trkpt><trkpt lat="44.1121433" lon="8.15656"><ele>722.0</ele><time>2026-04-05T13:41:18.945Z</time></trkpt><trkpt lat="44.11209" lon="8.15671"><ele>722.0</ele><time>2026-04-05T13:41:20.944Z</time></trkpt><trkpt lat="44.1120533" lon="8.1567817"><ele>722.0</ele><time>2026-04-05T13:41:21.944Z</time></trkpt><trkpt lat="44.112015" lon="8.1568517"><ele>722.0</ele><time>2026-04-05T13:41:22.944Z</time></trkpt><trkpt lat="44.1119317" lon="8.1569783"><ele>723.1428571428572</ele><time>2026-04-05T13:41:24.945Z</time></trkpt><trkpt lat="44.11189" lon="8.1570483"><ele>724.2857142857142</ele><time>2026-04-05T13:41:25.945Z</time></trkpt><trkpt lat="44.1118483" lon="8.15712"><ele>725.4285714285714</ele><time>2026-04-05T13:41:26.944Z</time></trkpt><trkpt lat="44.11181" lon="8.1571933"><ele>726.5714285714287</ele><time>2026-04-05T13:41:27.944Z</time></trkpt><trkpt lat="44.1117783" lon="8.15727"><ele>727.7142857142858</ele><time>2026-04-05T13:41:28.944Z</time></trkpt><trkpt lat="44.1117517" lon="8.1573533"><ele>728.8571428571429</ele><time>2026-04-05T13:41:29.944Z</time></trkpt><trkpt lat="44.1117367" lon="8.1574433"><ele>730.0</ele><time>2026-04-05T13:41:30.944Z</time></trkpt><trkpt lat="44.1117283" lon="8.1575483"><ele>730.0000000000001</ele><time>2026-04-05T13:41:31.945Z</time></trkpt><trkpt lat="44.11173" lon="8.15765"><ele>730.0</ele><time>2026-04-05T13:41:32.944Z</time></trkpt><trkpt lat="44.111745" lon="8.15775"><ele>730.0</ele><time>2026-04-05T13:41:33.944Z</time></trkpt><trkpt lat="44.111755" lon="8.1578517"><ele>730.0</ele><time>2026-04-05T13:41:34.944Z</time></trkpt><trkpt lat="44.11177" lon="8.1579567"><ele>730.0</ele><time>2026-04-05T13:41:35.944Z</time></trkpt><trkpt lat="44.1117917" lon="8.1580617"><ele>730.0000000000001</ele><time>2026-04-05T13:41:36.944Z</time></trkpt><trkpt lat="44.1118117" lon="8.15816"><ele>730.0</ele><time>2026-04-05T13:41:37.944Z</time></trkpt><trkpt lat="44.1118317" lon="8.1582633"><ele>730.8333333333334</ele><time>2026-04-05T13:41:38.944Z</time></trkpt><trkpt lat="44.1118533" lon="8.158365"><ele>731.6666666666667</ele><time>2026-04-05T13:41:39.944Z</time></trkpt><trkpt lat="44.111875" lon="8.1584683"><ele>732.5</ele><time>2026-04-05T13:41:40.945Z</time></trkpt><trkpt lat="44.1118983" lon="8.1585683"><ele>733.3333333333334</ele><time>2026-04-05T13:41:41.944Z</time></trkpt><trkpt lat="44.1119133" lon="8.1586767"><ele>734.1666666666666</ele><time>2026-04-05T13:41:42.944Z</time></trkpt><trkpt lat="44.1119317" lon="8.158785"><ele>735.0</ele><time>2026-04-05T13:41:43.944Z</time></trkpt><trkpt lat="44.111945" lon="8.1588967"><ele>735.0</ele><time>2026-04-05T13:41:44.944Z</time></trkpt><trkpt lat="44.111955" lon="8.1590067"><ele>735.0</ele><time>2026-04-05T13:41:45.944Z</time></trkpt><trkpt lat="44.1119583" lon="8.159115"><ele>735.0</ele><time>2026-04-05T13:41:46.944Z</time></trkpt><trkpt lat="44.1119483" lon="8.159225"><ele>735.0</ele><time>2026-04-05T13:41:47.944Z</time></trkpt><trkpt lat="44.1119317" lon="8.1593333"><ele>735.0</ele><time>2026-04-05T13:41:48.944Z</time></trkpt><trkpt lat="44.1119183" lon="8.1594433"><ele>735.0</ele><time>2026-04-05T13:41:49.944Z</time></trkpt><trkpt lat="44.1118967" lon="8.1595533"><ele>735.3333333333334</ele><time>2026-04-05T13:41:50.944Z</time></trkpt><trkpt lat="44.111865" lon="8.1596617"><ele>735.6666666666666</ele><time>2026-04-05T13:41:51.944Z</time></trkpt><trkpt lat="44.111815" lon="8.1597683"><ele>736.0</ele><time>2026-04-05T13:41:52.944Z</time></trkpt><trkpt lat="44.1117783" lon="8.1598717"><ele>736.3333333333333</ele><time>2026-04-05T13:41:53.944Z</time></trkpt><trkpt lat="44.1117517" lon="8.1599767"><ele>736.6666666666666</ele><time>2026-04-05T13:41:54.945Z</time></trkpt><trkpt lat="44.1117233" lon="8.1600867"><ele>737.0</ele><time>2026-04-05T13:41:55.944Z</time></trkpt><trkpt lat="44.1116833" lon="8.1601933"><ele>735.5</ele><time>2026-04-05T13:41:56.944Z</time></trkpt><trkpt lat="44.11165" lon="8.1603033"><ele>734.0</ele><time>2026-04-05T13:41:57.944Z</time></trkpt><trkpt lat="44.11161" lon="8.1604117"><ele>732.5</ele><time>2026-04-05T13:41:58.944Z</time></trkpt><trkpt lat="44.11157" lon="8.1605183"><ele>731.0</ele><time>2026-04-05T13:41:59.944Z</time></trkpt><trkpt lat="44.1115367" lon="8.1606233"><ele>729.5</ele><time>2026-04-05T13:42:00.944Z</time></trkpt><trkpt lat="44.111515" lon="8.160725"><ele>728.0</ele><time>2026-04-05T13:42:01.944Z</time></trkpt><trkpt lat="44.1115017" lon="8.1608317"><ele>729.8571428571429</ele><time>2026-04-05T13:42:02.944Z</time></trkpt><trkpt lat="44.11149" lon="8.1609333"><ele>731.7142857142858</ele><time>2026-04-05T13:42:03.944Z</time></trkpt><trkpt lat="44.1114817" lon="8.1610283"><ele>733.5714285714286</ele><time>2026-04-05T13:42:04.944Z</time></trkpt><trkpt lat="44.111495" lon="8.1611267"><ele>735.4285714285714</ele><time>2026-04-05T13:42:05.944Z</time></trkpt><trkpt lat="44.1115017" lon="8.16123"><ele>737.2857142857143</ele><time>2026-04-05T13:42:06.944Z</time></trkpt><trkpt lat="44.111505" lon="8.1613367"><ele>739.1428571428571</ele><time>2026-04-05T13:42:07.944Z</time></trkpt><trkpt lat="44.111505" lon="8.1614433"><ele>741.0</ele><time>2026-04-05T13:42:08.944Z</time></trkpt><trkpt lat="44.1115" lon="8.1615467"><ele>741.0</ele><time>2026-04-05T13:42:09.944Z</time></trkpt><trkpt lat="44.1115" lon="8.1616417"><ele>741.0</ele><time>2026-04-05T13:42:10.944Z</time></trkpt><trkpt lat="44.111495" lon="8.161795"><ele>741.0</ele><time>2026-04-05T13:42:12.944Z</time></trkpt><trkpt lat="44.1114867" lon="8.1619133"><ele>741.0</ele><time>2026-04-05T13:42:14.944Z</time></trkpt><trkpt lat="44.111455" lon="8.161995"><ele>741.0</ele><time>2026-04-05T13:42:16.944Z</time></trkpt><trkpt lat="44.111395" lon="8.1620817"><ele>741.0</ele><time>2026-04-05T13:42:18.944Z</time></trkpt><trkpt lat="44.11133" lon="8.1621467"><ele>741.0</ele><time>2026-04-05T13:42:20.944Z</time></trkpt><trkpt lat="44.11126" lon="8.162155"><ele>741.0</ele><time>2026-04-05T13:42:22.944Z</time></trkpt><trkpt lat="44.1112067" lon="8.162085"><ele>741.0</ele><time>2026-04-05T13:42:25.944Z</time></trkpt><trkpt lat="44.11115" lon="8.1620067"><ele>741.0</ele><time>2026-04-05T13:42:27.944Z</time></trkpt><trkpt lat="44.1110833" lon="8.1619417"><ele>741.0</ele><time>2026-04-05T13:42:29.944Z</time></trkpt><trkpt lat="44.1110017" lon="8.1619"><ele>741.0</ele><time>2026-04-05T13:42:31.944Z</time></trkpt><trkpt lat="44.1109383" lon="8.1618583"><ele>741.0</ele><time>2026-04-05T13:42:33.944Z</time></trkpt><trkpt lat="44.11085" lon="8.16183"><ele>741.0</ele><time>2026-04-05T13:42:35.945Z</time></trkpt><trkpt lat="44.1107683" lon="8.1618283"><ele>741.0</ele><time>2026-04-05T13:42:37.944Z</time></trkpt><trkpt lat="44.1106867" lon="8.1618517"><ele>741.0</ele><time>2026-04-05T13:42:39.944Z</time></trkpt><trkpt lat="44.110605" lon="8.1618467"><ele>741.0</ele><time>2026-04-05T13:42:41.944Z</time></trkpt><trkpt lat="44.1105417" lon="8.1618483"><ele>741.0</ele><time>2026-04-05T13:42:43.944Z</time></trkpt><trkpt lat="44.11047" lon="8.1618717"><ele>742.1428571428571</ele><time>2026-04-05T13:42:45.944Z</time></trkpt><trkpt lat="44.1103933" lon="8.1618833"><ele>743.2857142857143</ele><time>2026-04-05T13:42:47.944Z</time></trkpt><trkpt lat="44.11033" lon="8.16191"><ele>744.4285714285714</ele><time>2026-04-05T13:42:49.944Z</time></trkpt><trkpt lat="44.1102683" lon="8.1619433"><ele>745.5714285714286</ele><time>2026-04-05T13:42:51.945Z</time></trkpt><trkpt lat="44.1102117" lon="8.1619817"><ele>746.7142857142858</ele><time>2026-04-05T13:42:53.945Z</time></trkpt><trkpt lat="44.1101533" lon="8.162015"><ele>747.8571428571429</ele><time>2026-04-05T13:42:55.945Z</time></trkpt><trkpt lat="44.110085" lon="8.1620783"><ele>749.0</ele><time>2026-04-05T13:42:57.944Z</time></trkpt><trkpt lat="44.1100117" lon="8.16215"><ele>749.0</ele><time>2026-04-05T13:42:59.944Z</time></trkpt><trkpt lat="44.1099217" lon="8.1622083"><ele>749.0</ele><time>2026-04-05T13:43:01.944Z</time></trkpt><trkpt lat="44.1098133" lon="8.1622667"><ele>749.0</ele><time>2026-04-05T13:43:03.944Z</time></trkpt><trkpt lat="44.1097433" lon="8.1623"><ele>749.0</ele><time>2026-04-05T13:43:04.944Z</time></trkpt><trkpt lat="44.1096683" lon="8.1623367"><ele>749.0</ele><time>2026-04-05T13:43:05.944Z</time></trkpt><trkpt lat="44.1095917" lon="8.1623717"><ele>748.8333333333333</ele><time>2026-04-05T13:43:06.945Z</time></trkpt><trkpt lat="44.1095267" lon="8.1624"><ele>748.6666666666666</ele><time>2026-04-05T13:43:07.944Z</time></trkpt><trkpt lat="44.1094333" lon="8.1624183"><ele>748.5</ele><time>2026-04-05T13:43:09.944Z</time></trkpt><trkpt lat="44.109375" lon="8.1623533"><ele>748.3333333333334</ele><time>2026-04-05T13:43:12.944Z</time></trkpt><trkpt lat="44.10939" lon="8.1622117"><ele>748.1666666666667</ele><time>2026-04-05T13:43:15.944Z</time></trkpt><trkpt lat="44.10939" lon="8.1621"><ele>748.0</ele><time>2026-04-05T13:43:17.944Z</time></trkpt><trkpt lat="44.10935" lon="8.16201"><ele>748.0</ele><time>2026-04-05T13:43:19.944Z</time></trkpt><trkpt lat="44.1092933" lon="8.1619633"><ele>748.0</ele><time>2026-04-05T13:43:21.945Z</time></trkpt><trkpt lat="44.1091967" lon="8.162005"><ele>748.0</ele><time>2026-04-05T13:43:24.944Z</time></trkpt><trkpt lat="44.1091033" lon="8.162035"><ele>748.0</ele><time>2026-04-05T13:43:27.944Z</time></trkpt><trkpt lat="44.1090233" lon="8.162035"><ele>748.0</ele><time>2026-04-05T13:43:29.944Z</time></trkpt><trkpt lat="44.1089533" lon="8.1620033"><ele>748.0</ele><time>2026-04-05T13:43:31.944Z</time></trkpt><trkpt lat="44.10889" lon="8.1619417"><ele>747.5</ele><time>2026-04-05T13:43:33.944Z</time></trkpt><trkpt lat="44.108845" lon="8.161875"><ele>747.0</ele><time>2026-04-05T13:43:35.944Z</time></trkpt><trkpt lat="44.1088017" lon="8.161785"><ele>746.5</ele><time>2026-04-05T13:43:37.945Z</time></trkpt><trkpt lat="44.1087767" lon="8.1616983"><ele>746.0</ele><time>2026-04-05T13:43:39.944Z</time></trkpt><trkpt lat="44.1087433" lon="8.1616033"><ele>745.5</ele><time>2026-04-05T13:43:41.944Z</time></trkpt><trkpt lat="44.1087183" lon="8.1614783"><ele>745.0</ele><time>2026-04-05T13:43:43.945Z</time></trkpt><trkpt lat="44.10869" lon="8.16136"><ele>745.0</ele><time>2026-04-05T13:43:45.944Z</time></trkpt><trkpt lat="44.1086633" lon="8.1612583"><ele>745.0</ele><time>2026-04-05T13:43:47.944Z</time></trkpt><trkpt lat="44.1086383" lon="8.1611633"><ele>745.0</ele><time>2026-04-05T13:43:49.945Z</time></trkpt><trkpt lat="44.10861" lon="8.16107"><ele>745.0</ele><time>2026-04-05T13:43:51.944Z</time></trkpt><trkpt lat="44.1085833" lon="8.16099"><ele>745.0</ele><time>2026-04-05T13:43:53.944Z</time></trkpt><trkpt lat="44.1085283" lon="8.1609167"><ele>745.0</ele><time>2026-04-05T13:43:55.944Z</time></trkpt><trkpt lat="44.1084617" lon="8.1608783"><ele>745.0</ele><time>2026-04-05T13:43:57.945Z</time></trkpt><trkpt lat="44.1083867" lon="8.1609317"><ele>745.0</ele><time>2026-04-05T13:44:00.944Z</time></trkpt><trkpt lat="44.1083617" lon="8.161045"><ele>745.0</ele><time>2026-04-05T13:44:03.944Z</time></trkpt><trkpt lat="44.1083417" lon="8.16113"><ele>745.0</ele><time>2026-04-05T13:44:05.944Z</time></trkpt><trkpt lat="44.1083283" lon="8.1612267"><ele>745.0</ele><time>2026-04-05T13:44:07.944Z</time></trkpt><trkpt lat="44.108305" lon="8.16133"><ele>745.0</ele><time>2026-04-05T13:44:09.944Z</time></trkpt><trkpt lat="44.1082733" lon="8.161435"><ele>745.0</ele><time>2026-04-05T13:44:11.944Z</time></trkpt><trkpt lat="44.1082417" lon="8.1615483"><ele>744.2</ele><time>2026-04-05T13:44:13.944Z</time></trkpt><trkpt lat="44.108195" lon="8.1616683"><ele>743.4</ele><time>2026-04-05T13:44:15.944Z</time></trkpt><trkpt lat="44.1081467" lon="8.1617783"><ele>742.5999999999999</ele><time>2026-04-05T13:44:17.944Z</time></trkpt><trkpt lat="44.1081017" lon="8.16189"><ele>741.8</ele><time>2026-04-05T13:44:19.944Z</time></trkpt><trkpt lat="44.10806" lon="8.162025"><ele>741.0</ele><time>2026-04-05T13:44:21.945Z</time></trkpt><trkpt lat="44.1080283" lon="8.16214"><ele>741.0</ele><time>2026-04-05T13:44:23.945Z</time></trkpt><trkpt lat="44.1079933" lon="8.1622433"><ele>741.0</ele><time>2026-04-05T13:44:25.944Z</time></trkpt><trkpt lat="44.1079583" lon="8.16234"><ele>741.0</ele><time>2026-04-05T13:44:27.945Z</time></trkpt><trkpt lat="44.107905" lon="8.1624033"><ele>741.0</ele><time>2026-04-05T13:44:29.944Z</time></trkpt><trkpt lat="44.10785" lon="8.1624567"><ele>741.0</ele><time>2026-04-05T13:44:31.944Z</time></trkpt><trkpt lat="44.1077717" lon="8.1624817"><ele>741.0</ele><time>2026-04-05T13:44:34.945Z</time></trkpt><trkpt lat="44.1077067" lon="8.1624767"><ele>741.0</ele><time>2026-04-05T13:44:37.945Z</time></trkpt><trkpt lat="44.1076133" lon="8.1624367"><ele>741.0</ele><time>2026-04-05T13:45:17.944Z</time></trkpt><trkpt lat="44.1075633" lon="8.1623667"><ele>741.0</ele><time>2026-04-05T13:45:19.944Z</time></trkpt><trkpt lat="44.10751" lon="8.1622733"><ele>741.0</ele><time>2026-04-05T13:45:21.944Z</time></trkpt><trkpt lat="44.1074567" lon="8.1621767"><ele>741.0</ele><time>2026-04-05T13:45:23.945Z</time></trkpt><trkpt lat="44.1073983" lon="8.16208"><ele>741.0</ele><time>2026-04-05T13:45:25.944Z</time></trkpt><trkpt lat="44.107345" lon="8.161975"><ele>741.0</ele><time>2026-04-05T13:45:27.944Z</time></trkpt><trkpt lat="44.1072883" lon="8.1618767"><ele>737.1999999999999</ele><time>2026-04-05T13:45:29.944Z</time></trkpt><trkpt lat="44.1072267" lon="8.1617767"><ele>733.4</ele><time>2026-04-05T13:45:31.944Z</time></trkpt><trkpt lat="44.10716" lon="8.1616783"><ele>729.6</ele><time>2026-04-05T13:45:33.944Z</time></trkpt><trkpt lat="44.1070967" lon="8.1615883"><ele>725.8</ele><time>2026-04-05T13:45:35.944Z</time></trkpt><trkpt lat="44.1070367" lon="8.1614833"><ele>722.0</ele><time>2026-04-05T13:45:37.945Z</time></trkpt><trkpt lat="44.106975" lon="8.1613683"><ele>722.0</ele><time>2026-04-05T13:45:39.945Z</time></trkpt><trkpt lat="44.1069133" lon="8.1612467"><ele>722.0</ele><time>2026-04-05T13:45:41.945Z</time></trkpt><trkpt lat="44.1068617" lon="8.1611383"><ele>722.0</ele><time>2026-04-05T13:45:43.944Z</time></trkpt><trkpt lat="44.1068333" lon="8.1610417"><ele>722.0</ele><time>2026-04-05T13:45:45.944Z</time></trkpt><trkpt lat="44.1068083" lon="8.1609567"><ele>722.0</ele><time>2026-04-05T13:45:47.944Z</time></trkpt><trkpt lat="44.10679" lon="8.1608367"><ele>722.0</ele><time>2026-04-05T13:45:50.944Z</time></trkpt><trkpt lat="44.1067783" lon="8.16073"><ele>725.0</ele><time>2026-04-05T13:45:52.944Z</time></trkpt><trkpt lat="44.10675" lon="8.160605"><ele>728.0</ele><time>2026-04-05T13:45:54.944Z</time></trkpt><trkpt lat="44.1067233" lon="8.1604833"><ele>731.0</ele><time>2026-04-05T13:45:56.944Z</time></trkpt><trkpt lat="44.1066833" lon="8.1603617"><ele>734.0</ele><time>2026-04-05T13:45:58.944Z</time></trkpt><trkpt lat="44.1066217" lon="8.16026"><ele>737.0</ele><time>2026-04-05T13:46:00.944Z</time></trkpt><trkpt lat="44.10655" lon="8.1601933"><ele>731.8333333333333</ele><time>2026-04-05T13:46:02.944Z</time></trkpt><trkpt lat="44.1064933" lon="8.1601367"><ele>726.6666666666666</ele><time>2026-04-05T13:46:04.944Z</time></trkpt><trkpt lat="44.10644" lon="8.16009"><ele>721.5</ele><time>2026-04-05T13:46:06.944Z</time></trkpt><trkpt lat="44.1063733" lon="8.1599967"><ele>716.3333333333334</ele><time>2026-04-05T13:46:09.944Z</time></trkpt><trkpt lat="44.1063133" lon="8.15994"><ele>711.1666666666667</ele><time>2026-04-05T13:46:11.944Z</time></trkpt><trkpt lat="44.1062483" lon="8.1598783"><ele>706.0</ele><time>2026-04-05T13:46:13.944Z</time></trkpt><trkpt lat="44.1062033" lon="8.1597933"><ele>706.0</ele><time>2026-04-05T13:46:15.944Z</time></trkpt><trkpt lat="44.10618" lon="8.159705"><ele>706.0</ele><time>2026-04-05T13:46:17.944Z</time></trkpt><trkpt lat="44.1061967" lon="8.1596183"><ele>706.0</ele><time>2026-04-05T13:46:19.944Z</time></trkpt><trkpt lat="44.1062317" lon="8.15949"><ele>706.0</ele><time>2026-04-05T13:46:22.944Z</time></trkpt><trkpt lat="44.1062517" lon="8.1593967"><ele>706.0</ele><time>2026-04-05T13:46:24.944Z</time></trkpt><trkpt lat="44.10626" lon="8.1592783"><ele>706.0</ele><time>2026-04-05T13:46:26.944Z</time></trkpt><trkpt lat="44.1062717" lon="8.1591683"><ele>706.0</ele><time>2026-04-05T13:46:28.944Z</time></trkpt><trkpt lat="44.1062917" lon="8.1590833"><ele>706.0</ele><time>2026-04-05T13:46:30.944Z</time></trkpt><trkpt lat="44.1062683" lon="8.1589867"><ele>706.0</ele><time>2026-04-05T13:46:33.944Z</time></trkpt><trkpt lat="44.1061933" lon="8.1590033"><ele>706.0</ele><time>2026-04-05T13:46:36.944Z</time></trkpt><trkpt lat="44.1061183" lon="8.1590867"><ele>706.0</ele><time>2026-04-05T13:46:39.945Z</time></trkpt><trkpt lat="44.1060633" lon="8.1591533"><ele>706.0</ele><time>2026-04-05T13:46:41.944Z</time></trkpt><trkpt lat="44.1060067" lon="8.1592067"><ele>706.0</ele><time>2026-04-05T13:46:43.944Z</time></trkpt><trkpt lat="44.1059517" lon="8.15926"><ele>706.0</ele><time>2026-04-05T13:46:45.944Z</time></trkpt><trkpt lat="44.1058833" lon="8.1593283"><ele>706.0</ele><time>2026-04-05T13:46:47.944Z</time></trkpt><trkpt lat="44.1058233" lon="8.15937"><ele>706.0</ele><time>2026-04-05T13:46:49.945Z</time></trkpt><trkpt lat="44.1057717" lon="8.159435"><ele>706.0</ele><time>2026-04-05T13:46:51.944Z</time></trkpt><trkpt lat="44.1057117" lon="8.1595067"><ele>706.0</ele><time>2026-04-05T13:46:53.944Z</time></trkpt><trkpt lat="44.10564" lon="8.159575"><ele>703.3333333333334</ele><time>2026-04-05T13:46:55.944Z</time></trkpt><trkpt lat="44.105565" lon="8.1596567"><ele>700.6666666666667</ele><time>2026-04-05T13:46:57.944Z</time></trkpt><trkpt lat="44.1054883" lon="8.1596983"><ele>698.0</ele><time>2026-04-05T13:46:59.944Z</time></trkpt><trkpt lat="44.1054167" lon="8.15965"><ele>695.3333333333334</ele><time>2026-04-05T13:47:02.944Z</time></trkpt><trkpt lat="44.1054133" lon="8.1595433"><ele>692.6666666666666</ele><time>2026-04-05T13:47:05.944Z</time></trkpt><trkpt lat="44.105475" lon="8.159455"><ele>690.0</ele><time>2026-04-05T13:47:09.944Z</time></trkpt><trkpt lat="44.1055367" lon="8.1593617"><ele>690.0</ele><time>2026-04-05T13:47:12.944Z</time></trkpt><trkpt lat="44.1056" lon="8.1592867"><ele>690.0</ele><time>2026-04-05T13:47:15.945Z</time></trkpt><trkpt lat="44.105655" lon="8.1591833"><ele>690.0</ele><time>2026-04-05T13:47:18.944Z</time></trkpt><trkpt lat="44.10568" lon="8.1590717"><ele>690.0</ele><time>2026-04-05T13:47:20.944Z</time></trkpt><trkpt lat="44.10569" lon="8.15895"><ele>690.0</ele><time>2026-04-05T13:47:22.944Z</time></trkpt><trkpt lat="44.1057117" lon="8.15883"><ele>690.0</ele><time>2026-04-05T13:47:24.944Z</time></trkpt><trkpt lat="44.1057267" lon="8.15872"><ele>690.8333333333334</ele><time>2026-04-05T13:47:26.944Z</time></trkpt><trkpt lat="44.1057433" lon="8.158585"><ele>691.6666666666666</ele><time>2026-04-05T13:47:28.944Z</time></trkpt><trkpt lat="44.105755" lon="8.1584467"><ele>692.5</ele><time>2026-04-05T13:47:30.944Z</time></trkpt><trkpt lat="44.1057667" lon="8.1583183"><ele>693.3333333333333</ele><time>2026-04-05T13:47:32.945Z</time></trkpt><trkpt lat="44.1057617" lon="8.1582117"><ele>694.1666666666666</ele><time>2026-04-05T13:47:34.945Z</time></trkpt><trkpt lat="44.1057467" lon="8.15812"><ele>695.0</ele><time>2026-04-05T13:47:36.944Z</time></trkpt><trkpt lat="44.1057333" lon="8.1580333"><ele>692.2857142857143</ele><time>2026-04-05T13:47:38.944Z</time></trkpt><trkpt lat="44.105665" lon="8.1580117"><ele>689.5714285714286</ele><time>2026-04-05T13:47:42.944Z</time></trkpt><trkpt lat="44.1056517" lon="8.1581017"><ele>686.8571428571429</ele><time>2026-04-05T13:47:45.944Z</time></trkpt><trkpt lat="44.1056267" lon="8.1582217"><ele>684.1428571428571</ele><time>2026-04-05T13:47:48.944Z</time></trkpt><trkpt lat="44.1055983" lon="8.1583067"><ele>681.4285714285714</ele><time>2026-04-05T13:47:50.944Z</time></trkpt><trkpt lat="44.1055567" lon="8.1583783"><ele>678.7142857142858</ele><time>2026-04-05T13:47:52.944Z</time></trkpt><trkpt lat="44.1054983" lon="8.158445"><ele>676.0</ele><time>2026-04-05T13:47:54.944Z</time></trkpt><trkpt lat="44.1054417" lon="8.1585083"><ele>676.0</ele><time>2026-04-05T13:47:56.944Z</time></trkpt><trkpt lat="44.105385" lon="8.1585783"><ele>676.0</ele><time>2026-04-05T13:47:58.945Z</time></trkpt><trkpt lat="44.105315" lon="8.1586583"><ele>676.0</ele><time>2026-04-05T13:48:01.944Z</time></trkpt><trkpt lat="44.1052467" lon="8.1587033"><ele>676.0</ele><time>2026-04-05T13:48:04.944Z</time></trkpt><trkpt lat="44.1052283" lon="8.15861"><ele>676.0</ele><time>2026-04-05T13:48:08.944Z</time></trkpt><trkpt lat="44.105285" lon="8.1585267"><ele>676.0</ele><time>2026-04-05T13:48:12.944Z</time></trkpt><trkpt lat="44.105315" lon="8.1584467"><ele>676.0</ele><time>2026-04-05T13:48:14.944Z</time></trkpt><trkpt lat="44.1053217" lon="8.1583583"><ele>676.0</ele><time>2026-04-05T13:48:16.944Z</time></trkpt><trkpt lat="44.1053217" lon="8.15823"><ele>676.0</ele><time>2026-04-05T13:48:19.945Z</time></trkpt><trkpt lat="44.10533" lon="8.1581333"><ele>676.0</ele><time>2026-04-05T13:48:21.945Z</time></trkpt><trkpt lat="44.10532" lon="8.158035"><ele>676.0</ele><time>2026-04-05T13:48:23.944Z</time></trkpt><trkpt lat="44.1053183" lon="8.1579217"><ele>676.0</ele><time>2026-04-05T13:48:25.944Z</time></trkpt><trkpt lat="44.1053133" lon="8.1578217"><ele>675.0</ele><time>2026-04-05T13:48:27.944Z</time></trkpt><trkpt lat="44.1053017" lon="8.157715"><ele>674.0</ele><time>2026-04-05T13:48:29.944Z</time></trkpt><trkpt lat="44.1053117" lon="8.1576"><ele>673.0</ele><time>2026-04-05T13:48:31.944Z</time></trkpt><trkpt lat="44.1053317" lon="8.1574917"><ele>672.0</ele><time>2026-04-05T13:48:33.944Z</time></trkpt><trkpt lat="44.1053517" lon="8.157395"><ele>671.0</ele><time>2026-04-05T13:48:35.944Z</time></trkpt><trkpt lat="44.105355" lon="8.1572767"><ele>670.0</ele><time>2026-04-05T13:48:38.944Z</time></trkpt><trkpt lat="44.1053267" lon="8.157175"><ele>670.0</ele><time>2026-04-05T13:48:40.944Z</time></trkpt><trkpt lat="44.1053" lon="8.1570567"><ele>670.0</ele><time>2026-04-05T13:48:42.944Z</time></trkpt><trkpt lat="44.1052533" lon="8.15695"><ele>670.0</ele><time>2026-04-05T13:48:44.944Z</time></trkpt><trkpt lat="44.105195" lon="8.15686"><ele>670.0</ele><time>2026-04-05T13:48:46.944Z</time></trkpt><trkpt lat="44.105125" lon="8.1567867"><ele>670.0</ele><time>2026-04-05T13:48:48.944Z</time></trkpt><trkpt lat="44.105045" lon="8.156735"><ele>670.0</ele><time>2026-04-05T13:48:50.944Z</time></trkpt><trkpt lat="44.104975" lon="8.1566833"><ele>667.6666666666667</ele><time>2026-04-05T13:48:52.944Z</time></trkpt><trkpt lat="44.10489" lon="8.1566383"><ele>665.3333333333334</ele><time>2026-04-05T13:48:54.944Z</time></trkpt><trkpt lat="44.1047917" lon="8.1565883"><ele>663.0</ele><time>2026-04-05T13:48:56.944Z</time></trkpt><trkpt lat="44.104705" lon="8.1565583"><ele>660.6666666666666</ele><time>2026-04-05T13:48:58.944Z</time></trkpt><trkpt lat="44.1046417" lon="8.1565267"><ele>658.3333333333333</ele><time>2026-04-05T13:49:00.944Z</time></trkpt><trkpt lat="44.1045817" lon="8.156495"><ele>656.0</ele><time>2026-04-05T13:49:02.945Z</time></trkpt><trkpt lat="44.10451" lon="8.1564367"><ele>656.0</ele><time>2026-04-05T13:49:04.944Z</time></trkpt><trkpt lat="44.1044817" lon="8.1563583"><ele>656.0</ele><time>2026-04-05T13:49:06.944Z</time></trkpt><trkpt lat="44.1044867" lon="8.1562483"><ele>656.0</ele><time>2026-04-05T13:49:08.944Z</time></trkpt><trkpt lat="44.1044933" lon="8.1561417"><ele>656.0</ele><time>2026-04-05T13:49:10.944Z</time></trkpt><trkpt lat="44.104495" lon="8.15603"><ele>656.0</ele><time>2026-04-05T13:49:12.945Z</time></trkpt><trkpt lat="44.10449" lon="8.1559033"><ele>656.0</ele><time>2026-04-05T13:49:14.944Z</time></trkpt><trkpt lat="44.1044683" lon="8.1557867"><ele>656.5999999999999</ele><time>2026-04-05T13:49:16.944Z</time></trkpt><trkpt lat="44.104445" lon="8.1556817"><ele>657.2</ele><time>2026-04-05T13:49:18.944Z</time></trkpt><trkpt lat="44.104415" lon="8.155575"><ele>657.8</ele><time>2026-04-05T13:49:20.944Z</time></trkpt><trkpt lat="44.10437" lon="8.1554383"><ele>658.4000000000001</ele><time>2026-04-05T13:49:22.944Z</time></trkpt><trkpt lat="44.104325" lon="8.155275"><ele>659.0</ele><time>2026-04-05T13:49:24.944Z</time></trkpt><trkpt lat="44.1043083" lon="8.1551167"><ele>659.0</ele><time>2026-04-05T13:49:26.944Z</time></trkpt><trkpt lat="44.1042833" lon="8.1549517"><ele>659.0</ele><time>2026-04-05T13:49:28.945Z</time></trkpt><trkpt lat="44.1042767" lon="8.1548183"><ele>659.0</ele><time>2026-04-05T13:49:30.944Z</time></trkpt><trkpt lat="44.10429" lon="8.15468"><ele>659.0</ele><time>2026-04-05T13:49:32.944Z</time></trkpt><trkpt lat="44.1042967" lon="8.154575"><ele>659.0</ele><time>2026-04-05T13:49:34.944Z</time></trkpt><trkpt lat="44.1042717" lon="8.1544683"><ele>659.8333333333333</ele><time>2026-04-05T13:49:36.944Z</time></trkpt><trkpt lat="44.1042133" lon="8.1543833"><ele>660.6666666666666</ele><time>2026-04-05T13:49:38.944Z</time></trkpt><trkpt lat="44.1041333" lon="8.1543333"><ele>661.5</ele><time>2026-04-05T13:49:40.944Z</time></trkpt><trkpt lat="44.1040533" lon="8.154295"><ele>662.3333333333334</ele><time>2026-04-05T13:49:42.944Z</time></trkpt><trkpt lat="44.1039733" lon="8.1542517"><ele>663.1666666666667</ele><time>2026-04-05T13:49:44.944Z</time></trkpt><trkpt lat="44.1039017" lon="8.1541833"><ele>664.0</ele><time>2026-04-05T13:49:46.944Z</time></trkpt><trkpt lat="44.1038383" lon="8.154105"><ele>664.1666666666667</ele><time>2026-04-05T13:49:48.944Z</time></trkpt><trkpt lat="44.1037667" lon="8.1540333"><ele>664.3333333333334</ele><time>2026-04-05T13:49:50.945Z</time></trkpt><trkpt lat="44.1036983" lon="8.1539517"><ele>664.5</ele><time>2026-04-05T13:49:52.944Z</time></trkpt><trkpt lat="44.103645" lon="8.1538617"><ele>664.6666666666666</ele><time>2026-04-05T13:49:54.944Z</time></trkpt><trkpt lat="44.1036" lon="8.153785"><ele>664.8333333333333</ele><time>2026-04-05T13:49:56.944Z</time></trkpt><trkpt lat="44.103565" lon="8.15369"><ele>665.0</ele><time>2026-04-05T13:49:59.944Z</time></trkpt><trkpt lat="44.1035117" lon="8.1535933"><ele>665.0</ele><time>2026-04-05T13:50:02.944Z</time></trkpt><trkpt lat="44.10348" lon="8.153515"><ele>665.0</ele><time>2026-04-05T13:50:04.944Z</time></trkpt><trkpt lat="44.1034483" lon="8.15343"><ele>665.0</ele><time>2026-04-05T13:50:07.944Z</time></trkpt><trkpt lat="44.1034217" lon="8.153315"><ele>665.0</ele><time>2026-04-05T13:50:10.944Z</time></trkpt><trkpt lat="44.1034017" lon="8.1532083"><ele>665.0</ele><time>2026-04-05T13:50:13.944Z</time></trkpt><trkpt lat="44.10338" lon="8.1530967"><ele>665.0</ele><time>2026-04-05T13:50:16.944Z</time></trkpt><trkpt lat="44.1033533" lon="8.1530083"><ele>667.6</ele><time>2026-04-05T13:50:19.944Z</time></trkpt><trkpt lat="44.1033283" lon="8.1528883"><ele>670.2</ele><time>2026-04-05T13:50:36.944Z</time></trkpt><trkpt lat="44.1033" lon="8.152775"><ele>672.8</ele><time>2026-04-05T13:50:38.944Z</time></trkpt><trkpt lat="44.1032867" lon="8.1526467"><ele>675.4</ele><time>2026-04-05T13:50:40.944Z</time></trkpt><trkpt lat="44.1032667" lon="8.1525283"><ele>678.0</ele><time>2026-04-05T13:50:42.944Z</time></trkpt><trkpt lat="44.1032367" lon="8.152385"><ele>673.8</ele><time>2026-04-05T13:50:44.944Z</time></trkpt><trkpt lat="44.10322" lon="8.1522383"><ele>669.5999999999999</ele><time>2026-04-05T13:50:46.944Z</time></trkpt><trkpt lat="44.103215" lon="8.15209"><ele>665.4000000000001</ele><time>2026-04-05T13:50:48.945Z</time></trkpt><trkpt lat="44.1032167" lon="8.1519583"><ele>661.2</ele><time>2026-04-05T13:50:50.944Z</time></trkpt><trkpt lat="44.1032017" lon="8.1518583"><ele>657.0</ele><time>2026-04-05T13:50:52.944Z</time></trkpt><trkpt lat="44.103195" lon="8.1517317"><ele>657.0</ele><time>2026-04-05T13:50:55.945Z</time></trkpt><trkpt lat="44.1031917" lon="8.15164"><ele>657.0</ele><time>2026-04-05T13:50:57.944Z</time></trkpt><trkpt lat="44.103165" lon="8.15155"><ele>657.0</ele><time>2026-04-05T13:50:59.944Z</time></trkpt><trkpt lat="44.10315" lon="8.1514283"><ele>657.0</ele><time>2026-04-05T13:51:01.944Z</time></trkpt><trkpt lat="44.1031467" lon="8.1512917"><ele>657.0</ele><time>2026-04-05T13:51:03.944Z</time></trkpt><trkpt lat="44.1031383" lon="8.15112"><ele>657.0</ele><time>2026-04-05T13:51:05.944Z</time></trkpt><trkpt lat="44.1031317" lon="8.15103"><ele>658.7142857142857</ele><time>2026-04-05T13:51:06.944Z</time></trkpt><trkpt lat="44.1031317" lon="8.1509367"><ele>660.4285714285714</ele><time>2026-04-05T13:51:07.944Z</time></trkpt><trkpt lat="44.1031317" lon="8.1508467"><ele>662.1428571428571</ele><time>2026-04-05T13:51:08.944Z</time></trkpt><trkpt lat="44.103135" lon="8.1507583"><ele>663.8571428571429</ele><time>2026-04-05T13:51:09.944Z</time></trkpt><trkpt lat="44.10313" lon="8.1506683"><ele>665.5714285714286</ele><time>2026-04-05T13:51:10.944Z</time></trkpt><trkpt lat="44.10312" lon="8.1505767"><ele>667.2857142857143</ele><time>2026-04-05T13:51:11.944Z</time></trkpt><trkpt lat="44.1031133" lon="8.1504883"><ele>669.0</ele><time>2026-04-05T13:51:12.944Z</time></trkpt><trkpt lat="44.1031083" lon="8.1503983"><ele>670.5</ele><time>2026-04-05T13:51:13.944Z</time></trkpt><trkpt lat="44.1031017" lon="8.1502867"><ele>672.0</ele><time>2026-04-05T13:51:14.944Z</time></trkpt><trkpt lat="44.103095" lon="8.1501717"><ele>673.5</ele><time>2026-04-05T13:51:15.945Z</time></trkpt><trkpt lat="44.1030833" lon="8.1500667"><ele>675.0</ele><time>2026-04-05T13:51:16.944Z</time></trkpt><trkpt lat="44.1030733" lon="8.14997"><ele>676.5</ele><time>2026-04-05T13:51:17.944Z</time></trkpt><trkpt lat="44.1030533" lon="8.14982"><ele>678.0</ele><time>2026-04-05T13:51:19.945Z</time></trkpt><trkpt lat="44.1030183" lon="8.1496817"><ele>679.5</ele><time>2026-04-05T13:51:21.944Z</time></trkpt><trkpt lat="44.1029967" lon="8.1495467"><ele>681.0</ele><time>2026-04-05T13:51:23.944Z</time></trkpt><trkpt lat="44.102965" lon="8.1494217"><ele>682.5</ele><time>2026-04-05T13:51:25.944Z</time></trkpt><trkpt lat="44.1029233" lon="8.1493283"><ele>684.0</ele><time>2026-04-05T13:51:27.944Z</time></trkpt><trkpt lat="44.1028717" lon="8.14924"><ele>685.5</ele><time>2026-04-05T13:51:29.944Z</time></trkpt><trkpt lat="44.102815" lon="8.1491467"><ele>687.0</ele><time>2026-04-05T13:51:31.945Z</time></trkpt><trkpt lat="44.1027517" lon="8.14906"><ele>686.3333333333334</ele><time>2026-04-05T13:51:33.944Z</time></trkpt><trkpt lat="44.1026967" lon="8.1489733"><ele>685.6666666666666</ele><time>2026-04-05T13:51:35.944Z</time></trkpt><trkpt lat="44.1026367" lon="8.1488917"><ele>685.0</ele><time>2026-04-05T13:51:37.944Z</time></trkpt><trkpt lat="44.1025933" lon="8.1488067"><ele>684.3333333333333</ele><time>2026-04-05T13:51:39.945Z</time></trkpt><trkpt lat="44.1025583" lon="8.1487267"><ele>683.6666666666666</ele><time>2026-04-05T13:51:41.944Z</time></trkpt><trkpt lat="44.102525" lon="8.14865"><ele>683.0</ele><time>2026-04-05T13:51:43.944Z</time></trkpt><trkpt lat="44.1024717" lon="8.148565"><ele>683.8333333333333</ele><time>2026-04-05T13:51:45.944Z</time></trkpt><trkpt lat="44.1024083" lon="8.1484833"><ele>684.6666666666666</ele><time>2026-04-05T13:51:47.944Z</time></trkpt><trkpt lat="44.10234" lon="8.1483917"><ele>685.5</ele><time>2026-04-05T13:51:50.944Z</time></trkpt><trkpt lat="44.10228" lon="8.1483583"><ele>686.3333333333334</ele><time>2026-04-05T13:51:52.944Z</time></trkpt><trkpt lat="44.1022017" lon="8.148385"><ele>687.1666666666667</ele><time>2026-04-05T13:51:56.944Z</time></trkpt><trkpt lat="44.1021517" lon="8.1484383"><ele>688.0</ele><time>2026-04-05T13:51:58.944Z</time></trkpt><trkpt lat="44.10209" lon="8.1485417"><ele>688.0000000000001</ele><time>2026-04-05T13:52:01.944Z</time></trkpt><trkpt lat="44.10205" lon="8.148635"><ele>688.0</ele><time>2026-04-05T13:52:03.944Z</time></trkpt><trkpt lat="44.1020033" lon="8.1487183"><ele>688.0</ele><time>2026-04-05T13:52:05.944Z</time></trkpt><trkpt lat="44.1019533" lon="8.1488117"><ele>688.0</ele><time>2026-04-05T13:52:07.944Z</time></trkpt><trkpt lat="44.1019133" lon="8.1488867"><ele>688.0</ele><time>2026-04-05T13:52:09.944Z</time></trkpt><trkpt lat="44.101875" lon="8.14896"><ele>688.0000000000001</ele><time>2026-04-05T13:52:11.944Z</time></trkpt><trkpt lat="44.10184" lon="8.1490433"><ele>688.0</ele><time>2026-04-05T13:52:13.944Z</time></trkpt><trkpt lat="44.1018033" lon="8.149135"><ele>689.1666666666667</ele><time>2026-04-05T13:52:15.944Z</time></trkpt><trkpt lat="44.10178" lon="8.14923"><ele>690.3333333333334</ele><time>2026-04-05T13:52:17.944Z</time></trkpt><trkpt lat="44.10176" lon="8.1493317"><ele>691.5</ele><time>2026-04-05T13:52:19.944Z</time></trkpt><trkpt lat="44.101745" lon="8.1494283"><ele>692.6666666666666</ele><time>2026-04-05T13:52:21.944Z</time></trkpt><trkpt lat="44.1017033" lon="8.1495233"><ele>693.8333333333333</ele><time>2026-04-05T13:52:24.944Z</time></trkpt><trkpt lat="44.10164" lon="8.1496033"><ele>695.0</ele><time>2026-04-05T13:52:27.944Z</time></trkpt><trkpt lat="44.1016017" lon="8.1496883"><ele>695.0000000000001</ele><time>2026-04-05T13:52:30.944Z</time></trkpt><trkpt lat="44.10166" lon="8.1496117"><ele>695.0</ele><time>2026-04-05T14:06:55.943Z</time></trkpt><trkpt lat="44.1016867" lon="8.14953"><ele>695.0</ele><time>2026-04-05T14:06:57.943Z</time></trkpt><trkpt lat="44.1017217" lon="8.1494333"><ele>695.0</ele><time>2026-04-05T14:07:00.943Z</time></trkpt><trkpt lat="44.10175" lon="8.149325"><ele>695.0</ele><time>2026-04-05T14:07:03.943Z</time></trkpt><trkpt lat="44.101765" lon="8.1492383"><ele>695.0000000000001</ele><time>2026-04-05T14:07:05.943Z</time></trkpt><trkpt lat="44.10179" lon="8.1491483"><ele>695.0</ele><time>2026-04-05T14:07:07.943Z</time></trkpt><trkpt lat="44.1018183" lon="8.14906"><ele>694.0000000000001</ele><time>2026-04-05T14:07:09.943Z</time></trkpt><trkpt lat="44.1018567" lon="8.1489717"><ele>693.0</ele><time>2026-04-05T14:07:11.943Z</time></trkpt><trkpt lat="44.1019017" lon="8.148885"><ele>692.0</ele><time>2026-04-05T14:07:13.943Z</time></trkpt><trkpt lat="44.1019467" lon="8.1487933"><ele>691.0</ele><time>2026-04-05T14:07:15.943Z</time></trkpt><trkpt lat="44.1019783" lon="8.1487017"><ele>690.0</ele><time>2026-04-05T14:07:17.943Z</time></trkpt><trkpt lat="44.1020067" lon="8.1486117"><ele>689.0000000000001</ele><time>2026-04-05T14:07:19.943Z</time></trkpt><trkpt lat="44.102055" lon="8.14854"><ele>688.0</ele><time>2026-04-05T14:07:21.943Z</time></trkpt><trkpt lat="44.1021033" lon="8.1484833"><ele>688.0</ele><time>2026-04-05T14:07:23.943Z</time></trkpt><trkpt lat="44.1021567" lon="8.148415"><ele>688.0</ele><time>2026-04-05T14:07:25.942Z</time></trkpt><trkpt lat="44.1022283" lon="8.1483467"><ele>688.0</ele><time>2026-04-05T14:07:28.942Z</time></trkpt><trkpt lat="44.1023" lon="8.148335"><ele>688.0</ele><time>2026-04-05T14:07:31.942Z</time></trkpt><trkpt lat="44.1023583" lon="8.1483783"><ele>688.0</ele><time>2026-04-05T14:07:35.942Z</time></trkpt><trkpt lat="44.1023833" lon="8.1484683"><ele>688.0</ele><time>2026-04-05T14:07:38.942Z</time></trkpt><trkpt lat="44.102435" lon="8.1485617"><ele>687.1666666666667</ele><time>2026-04-05T14:07:41.942Z</time></trkpt><trkpt lat="44.1025067" lon="8.1486133"><ele>686.3333333333334</ele><time>2026-04-05T14:07:44.942Z</time></trkpt><trkpt lat="44.1025667" lon="8.14871"><ele>685.5</ele><time>2026-04-05T14:07:47.943Z</time></trkpt><trkpt lat="44.1026" lon="8.1487867"><ele>684.6666666666666</ele><time>2026-04-05T14:07:49.942Z</time></trkpt><trkpt lat="44.1026417" lon="8.14887"><ele>683.8333333333333</ele><time>2026-04-05T14:07:51.942Z</time></trkpt><trkpt lat="44.1026883" lon="8.148945"><ele>683.0</ele><time>2026-04-05T14:07:53.943Z</time></trkpt><trkpt lat="44.102735" lon="8.1490383"><ele>683.6666666666666</ele><time>2026-04-05T14:07:55.942Z</time></trkpt><trkpt lat="44.10279" lon="8.1491183"><ele>684.3333333333333</ele><time>2026-04-05T14:07:57.942Z</time></trkpt><trkpt lat="44.1028233" lon="8.1491983"><ele>685.0</ele><time>2026-04-05T14:07:59.942Z</time></trkpt><trkpt lat="44.1028633" lon="8.149275"><ele>685.6666666666666</ele><time>2026-04-05T14:08:01.942Z</time></trkpt><trkpt lat="44.1028967" lon="8.149365"><ele>686.3333333333334</ele><time>2026-04-05T14:08:03.942Z</time></trkpt><trkpt lat="44.10294" lon="8.1494717"><ele>687.0</ele><time>2026-04-05T14:08:05.942Z</time></trkpt><trkpt lat="44.10297" lon="8.1495933"><ele>687.0</ele><time>2026-04-05T14:08:07.942Z</time></trkpt><trkpt lat="44.102985" lon="8.14972"><ele>687.0</ele><time>2026-04-05T14:08:09.942Z</time></trkpt><trkpt lat="44.103005" lon="8.1498283"><ele>687.0</ele><time>2026-04-05T14:08:11.942Z</time></trkpt><trkpt lat="44.1030133" lon="8.14995"><ele>687.0</ele><time>2026-04-05T14:08:13.942Z</time></trkpt><trkpt lat="44.1030117" lon="8.1500817"><ele>687.0</ele><time>2026-04-05T14:08:15.943Z</time></trkpt><trkpt lat="44.1030117" lon="8.150215"><ele>685.5</ele><time>2026-04-05T14:08:17.942Z</time></trkpt><trkpt lat="44.1030183" lon="8.1503283"><ele>684.0</ele><time>2026-04-05T14:08:19.942Z</time></trkpt><trkpt lat="44.10303" lon="8.1504317"><ele>682.5</ele><time>2026-04-05T14:08:21.943Z</time></trkpt><trkpt lat="44.1030283" lon="8.15054"><ele>681.0</ele><time>2026-04-05T14:08:23.942Z</time></trkpt><trkpt lat="44.1030233" lon="8.1506533"><ele>679.5</ele><time>2026-04-05T14:08:25.942Z</time></trkpt><trkpt lat="44.1030217" lon="8.1507733"><ele>678.0</ele><time>2026-04-05T14:08:27.942Z</time></trkpt><trkpt lat="44.1030267" lon="8.1508817"><ele>676.5</ele><time>2026-04-05T14:08:29.942Z</time></trkpt><trkpt lat="44.10303" lon="8.1509817"><ele>675.0</ele><time>2026-04-05T14:08:31.942Z</time></trkpt><trkpt lat="44.1030283" lon="8.1510817"><ele>673.5</ele><time>2026-04-05T14:08:33.942Z</time></trkpt><trkpt lat="44.1030267" lon="8.151185"><ele>672.0</ele><time>2026-04-05T14:08:35.942Z</time></trkpt><trkpt lat="44.10303" lon="8.1512967"><ele>670.5</ele><time>2026-04-05T14:08:37.942Z</time></trkpt><trkpt lat="44.10304" lon="8.1514117"><ele>669.0</ele><time>2026-04-05T14:08:39.943Z</time></trkpt><trkpt lat="44.103045" lon="8.1515267"><ele>666.6</ele><time>2026-04-05T14:08:41.942Z</time></trkpt><trkpt lat="44.1030517" lon="8.1516467"><ele>664.2</ele><time>2026-04-05T14:08:43.943Z</time></trkpt><trkpt lat="44.1030633" lon="8.1517867"><ele>661.8000000000001</ele><time>2026-04-05T14:08:45.942Z</time></trkpt><trkpt lat="44.10308" lon="8.1519283"><ele>659.4000000000001</ele><time>2026-04-05T14:08:47.942Z</time></trkpt><trkpt lat="44.1031017" lon="8.152085"><ele>657.0</ele><time>2026-04-05T14:08:49.942Z</time></trkpt><trkpt lat="44.1031383" lon="8.15223"><ele>657.0</ele><time>2026-04-05T14:08:51.942Z</time></trkpt><trkpt lat="44.1031583" lon="8.1523717"><ele>657.0</ele><time>2026-04-05T14:08:53.942Z</time></trkpt><trkpt lat="44.1031883" lon="8.1524867"><ele>657.0</ele><time>2026-04-05T14:08:55.942Z</time></trkpt><trkpt lat="44.10321" lon="8.152605"><ele>657.0</ele><time>2026-04-05T14:08:57.942Z</time></trkpt><trkpt lat="44.10324" lon="8.1527267"><ele>657.0</ele><time>2026-04-05T14:08:59.942Z</time></trkpt><trkpt lat="44.103265" lon="8.1528433"><ele>658.3333333333334</ele><time>2026-04-05T14:09:01.942Z</time></trkpt><trkpt lat="44.1032833" lon="8.152965"><ele>659.6666666666666</ele><time>2026-04-05T14:09:03.942Z</time></trkpt><trkpt lat="44.1033133" lon="8.153065"><ele>661.0</ele><time>2026-04-05T14:09:05.943Z</time></trkpt><trkpt lat="44.10333" lon="8.1531567"><ele>662.3333333333333</ele><time>2026-04-05T14:09:07.942Z</time></trkpt><trkpt lat="44.10336" lon="8.153245"><ele>663.6666666666666</ele><time>2026-04-05T14:09:09.942Z</time></trkpt><trkpt lat="44.1033867" lon="8.15335"><ele>665.0</ele><time>2026-04-05T14:09:11.942Z</time></trkpt><trkpt lat="44.10341" lon="8.1534383"><ele>665.0</ele><time>2026-04-05T14:09:13.942Z</time></trkpt><trkpt lat="44.10344" lon="8.1535233"><ele>665.0</ele><time>2026-04-05T14:09:15.942Z</time></trkpt><trkpt lat="44.1034783" lon="8.1535933"><ele>665.0</ele><time>2026-04-05T14:09:17.942Z</time></trkpt><trkpt lat="44.1035167" lon="8.153675"><ele>665.0</ele><time>2026-04-05T14:09:19.942Z</time></trkpt><trkpt lat="44.10357" lon="8.1537817"><ele>665.0</ele><time>2026-04-05T14:09:22.942Z</time></trkpt><trkpt lat="44.103625" lon="8.1538667"><ele>665.0</ele><time>2026-04-05T14:09:25.942Z</time></trkpt><trkpt lat="44.103685" lon="8.1539267"><ele>665.0</ele><time>2026-04-05T14:09:27.942Z</time></trkpt><trkpt lat="44.1037417" lon="8.15399"><ele>665.0</ele><time>2026-04-05T14:09:29.942Z</time></trkpt><trkpt lat="44.1037967" lon="8.1540633"><ele>665.0</ele><time>2026-04-05T14:09:31.942Z</time></trkpt><trkpt lat="44.1038433" lon="8.1541417"><ele>665.0</ele><time>2026-04-05T14:09:33.942Z</time></trkpt><trkpt lat="44.1039117" lon="8.15422"><ele>665.0</ele><time>2026-04-05T14:09:35.943Z</time></trkpt><trkpt lat="44.1039833" lon="8.1542767"><ele>665.0</ele><time>2026-04-05T14:09:37.942Z</time></trkpt><trkpt lat="44.1040633" lon="8.1543383"><ele>664.8333333333333</ele><time>2026-04-05T14:09:39.942Z</time></trkpt><trkpt lat="44.1041517" lon="8.1543617"><ele>664.6666666666666</ele><time>2026-04-05T14:09:41.943Z</time></trkpt><trkpt lat="44.1042167" lon="8.1544117"><ele>664.5</ele><time>2026-04-05T14:09:43.942Z</time></trkpt><trkpt lat="44.1042633" lon="8.154495"><ele>664.3333333333334</ele><time>2026-04-05T14:09:45.942Z</time></trkpt><trkpt lat="44.104275" lon="8.1546117"><ele>664.1666666666667</ele><time>2026-04-05T14:09:47.942Z</time></trkpt><trkpt lat="44.1042633" lon="8.1547383"><ele>664.0</ele><time>2026-04-05T14:09:49.942Z</time></trkpt><trkpt lat="44.1042467" lon="8.1548667"><ele>663.0</ele><time>2026-04-05T14:09:51.942Z</time></trkpt><trkpt lat="44.1042617" lon="8.1549933"><ele>662.0</ele><time>2026-04-05T14:09:53.942Z</time></trkpt><trkpt lat="44.1042933" lon="8.1551333"><ele>661.0</ele><time>2026-04-05T14:09:55.942Z</time></trkpt><trkpt lat="44.10432" lon="8.15526"><ele>660.0</ele><time>2026-04-05T14:09:57.942Z</time></trkpt><trkpt lat="44.104345" lon="8.1553833"><ele>659.0</ele><time>2026-04-05T14:09:59.942Z</time></trkpt><trkpt lat="44.1043683" lon="8.1555183"><ele>659.0</ele><time>2026-04-05T14:10:01.942Z</time></trkpt><trkpt lat="44.1044083" lon="8.1556533"><ele>659.0</ele><time>2026-04-05T14:10:03.942Z</time></trkpt><trkpt lat="44.104445" lon="8.1557833"><ele>659.0</ele><time>2026-04-05T14:10:05.942Z</time></trkpt><trkpt lat="44.1044717" lon="8.1559233"><ele>659.0</ele><time>2026-04-05T14:10:07.942Z</time></trkpt><trkpt lat="44.1044683" lon="8.15607"><ele>659.0</ele><time>2026-04-05T14:10:09.942Z</time></trkpt><trkpt lat="44.10446" lon="8.1562217"><ele>658.5</ele><time>2026-04-05T14:10:11.942Z</time></trkpt><trkpt lat="44.1044467" lon="8.1563417"><ele>658.0</ele><time>2026-04-05T14:10:13.942Z</time></trkpt><trkpt lat="44.1044383" lon="8.1564333"><ele>657.5</ele><time>2026-04-05T14:10:15.942Z</time></trkpt><trkpt lat="44.1045233" lon="8.1565167"><ele>657.0</ele><time>2026-04-05T14:10:18.942Z</time></trkpt><trkpt lat="44.104595" lon="8.1565367"><ele>656.5</ele><time>2026-04-05T14:10:20.942Z</time></trkpt><trkpt lat="44.1046733" lon="8.1565633"><ele>656.0</ele><time>2026-04-05T14:10:22.942Z</time></trkpt><trkpt lat="44.1047433" lon="8.1565767"><ele>655.3333333333333</ele><time>2026-04-05T14:10:24.942Z</time></trkpt><trkpt lat="44.1048183" lon="8.1566"><ele>654.6666666666666</ele><time>2026-04-05T14:10:26.943Z</time></trkpt><trkpt lat="44.1048883" lon="8.1566117"><ele>654.0</ele><time>2026-04-05T14:10:28.942Z</time></trkpt><trkpt lat="44.10495" lon="8.15665"><ele>653.3333333333334</ele><time>2026-04-05T14:10:30.942Z</time></trkpt><trkpt lat="44.1050217" lon="8.1567067"><ele>652.6666666666667</ele><time>2026-04-05T14:10:32.942Z</time></trkpt><trkpt lat="44.1050917" lon="8.156775"><ele>652.0</ele><time>2026-04-05T14:10:34.942Z</time></trkpt><trkpt lat="44.10516" lon="8.1568617"><ele>654.8333333333334</ele><time>2026-04-05T14:10:36.942Z</time></trkpt><trkpt lat="44.105225" lon="8.1569583"><ele>657.6666666666667</ele><time>2026-04-05T14:10:38.942Z</time></trkpt><trkpt lat="44.1052467" lon="8.157045"><ele>660.5</ele><time>2026-04-05T14:10:40.942Z</time></trkpt><trkpt lat="44.105265" lon="8.15716"><ele>663.3333333333334</ele><time>2026-04-05T14:10:42.942Z</time></trkpt><trkpt lat="44.1052683" lon="8.15727"><ele>666.1666666666666</ele><time>2026-04-05T14:10:44.942Z</time></trkpt><trkpt lat="44.1052617" lon="8.157385"><ele>669.0</ele><time>2026-04-05T14:10:46.942Z</time></trkpt><trkpt lat="44.1052433" lon="8.1574983"><ele>669.0</ele><time>2026-04-05T14:10:48.942Z</time></trkpt><trkpt lat="44.1052533" lon="8.1576483"><ele>669.0</ele><time>2026-04-05T14:10:50.942Z</time></trkpt><trkpt lat="44.10527" lon="8.1577817"><ele>669.0</ele><time>2026-04-05T14:10:52.942Z</time></trkpt><trkpt lat="44.10529" lon="8.15791"><ele>669.0</ele><time>2026-04-05T14:10:54.942Z</time></trkpt><trkpt lat="44.1052933" lon="8.1580367"><ele>669.0</ele><time>2026-04-05T14:10:56.942Z</time></trkpt><trkpt lat="44.1052933" lon="8.158155"><ele>670.1666666666666</ele><time>2026-04-05T14:10:58.942Z</time></trkpt><trkpt lat="44.1052817" lon="8.1582717"><ele>671.3333333333334</ele><time>2026-04-05T14:11:00.943Z</time></trkpt><trkpt lat="44.1052767" lon="8.1583767"><ele>672.5</ele><time>2026-04-05T14:11:02.942Z</time></trkpt><trkpt lat="44.1052733" lon="8.1584717"><ele>673.6666666666667</ele><time>2026-04-05T14:11:04.942Z</time></trkpt><trkpt lat="44.1052317" lon="8.1585633"><ele>674.8333333333334</ele><time>2026-04-05T14:11:07.942Z</time></trkpt><trkpt lat="44.105205" lon="8.1586667"><ele>676.0</ele><time>2026-04-05T14:11:10.942Z</time></trkpt><trkpt lat="44.10526" lon="8.15872"><ele>676.0</ele><time>2026-04-05T14:11:14.942Z</time></trkpt><trkpt lat="44.1053233" lon="8.1586617"><ele>676.0</ele><time>2026-04-05T14:11:17.943Z</time></trkpt><trkpt lat="44.1053617" lon="8.15859"><ele>676.0</ele><time>2026-04-05T14:11:19.942Z</time></trkpt><trkpt lat="44.105415" lon="8.158525"><ele>676.0</ele><time>2026-04-05T14:11:21.942Z</time></trkpt><trkpt lat="44.1054683" lon="8.1584783"><ele>676.0</ele><time>2026-04-05T14:11:23.942Z</time></trkpt><trkpt lat="44.1055183" lon="8.15842"><ele>676.0</ele><time>2026-04-05T14:11:25.942Z</time></trkpt><trkpt lat="44.105555" lon="8.158335"><ele>676.0</ele><time>2026-04-05T14:11:27.942Z</time></trkpt><trkpt lat="44.1055917" lon="8.158245"><ele>676.0</ele><time>2026-04-05T14:11:29.942Z</time></trkpt><trkpt lat="44.1056217" lon="8.158165"><ele>676.0</ele><time>2026-04-05T14:11:31.942Z</time></trkpt><trkpt lat="44.1056533" lon="8.15805"><ele>676.0</ele><time>2026-04-05T14:11:34.943Z</time></trkpt><trkpt lat="44.105725" lon="8.15804"><ele>676.0</ele><time>2026-04-05T14:11:38.942Z</time></trkpt><trkpt lat="44.105725" lon="8.1581317"><ele>676.0</ele><time>2026-04-05T14:11:41.943Z</time></trkpt><trkpt lat="44.1057233" lon="8.1582267"><ele>676.0</ele><time>2026-04-05T14:11:43.942Z</time></trkpt><trkpt lat="44.1057367" lon="8.1583317"><ele>676.0</ele><time>2026-04-05T14:11:45.942Z</time></trkpt><trkpt lat="44.1057533" lon="8.1584467"><ele>676.0</ele><time>2026-04-05T14:11:47.942Z</time></trkpt><trkpt lat="44.10575" lon="8.1585517"><ele>676.0</ele><time>2026-04-05T14:11:49.943Z</time></trkpt><trkpt lat="44.10574" lon="8.1586483"><ele>676.0</ele><time>2026-04-05T14:11:51.942Z</time></trkpt><trkpt lat="44.105735" lon="8.15876"><ele>676.0</ele><time>2026-04-05T14:11:53.942Z</time></trkpt><trkpt lat="44.1057217" lon="8.1588883"><ele>676.0</ele><time>2026-04-05T14:11:55.942Z</time></trkpt><trkpt lat="44.1056967" lon="8.15899"><ele>676.0</ele><time>2026-04-05T14:11:57.942Z</time></trkpt><trkpt lat="44.1056667" lon="8.1591"><ele>678.3333333333334</ele><time>2026-04-05T14:11:59.942Z</time></trkpt><trkpt lat="44.10562" lon="8.1592017"><ele>680.6666666666667</ele><time>2026-04-05T14:12:01.942Z</time></trkpt><trkpt lat="44.1055667" lon="8.15927"><ele>683.0</ele><time>2026-04-05T14:12:03.942Z</time></trkpt><trkpt lat="44.1055083" lon="8.1593317"><ele>685.3333333333334</ele><time>2026-04-05T14:12:05.943Z</time></trkpt><trkpt lat="44.1054467" lon="8.1593917"><ele>687.6666666666666</ele><time>2026-04-05T14:12:07.942Z</time></trkpt><trkpt lat="44.1054233" lon="8.15949"><ele>690.0</ele><time>2026-04-05T14:12:09.942Z</time></trkpt><trkpt lat="44.10542" lon="8.1596083"><ele>690.0</ele><time>2026-04-05T14:12:11.942Z</time></trkpt><trkpt lat="44.105495" lon="8.1596767"><ele>690.0</ele><time>2026-04-05T14:12:14.942Z</time></trkpt><trkpt lat="44.1055767" lon="8.159625"><ele>690.0</ele><time>2026-04-05T14:12:17.942Z</time></trkpt><trkpt lat="44.1056333" lon="8.159555"><ele>690.0</ele><time>2026-04-05T14:12:19.942Z</time></trkpt><trkpt lat="44.105695" lon="8.15948"><ele>690.0</ele><time>2026-04-05T14:12:21.942Z</time></trkpt><trkpt lat="44.1057683" lon="8.1594117"><ele>690.0</ele><time>2026-04-05T14:12:23.942Z</time></trkpt><trkpt lat="44.10586" lon="8.159315"><ele>690.8333333333334</ele><time>2026-04-05T14:12:25.942Z</time></trkpt><trkpt lat="44.1059483" lon="8.159225"><ele>691.6666666666666</ele><time>2026-04-05T14:12:27.942Z</time></trkpt><trkpt lat="44.10603" lon="8.1591467"><ele>692.5</ele><time>2026-04-05T14:12:29.942Z</time></trkpt><trkpt lat="44.1060983" lon="8.159065"><ele>693.3333333333333</ele><time>2026-04-05T14:12:31.942Z</time></trkpt><trkpt lat="44.106145" lon="8.1590017"><ele>694.1666666666666</ele><time>2026-04-05T14:12:33.942Z</time></trkpt><trkpt lat="44.1062033" lon="8.1589633"><ele>695.0</ele><time>2026-04-05T14:12:35.942Z</time></trkpt><trkpt lat="44.1062683" lon="8.1589783"><ele>696.8333333333333</ele><time>2026-04-05T14:12:37.942Z</time></trkpt><trkpt lat="44.10628" lon="8.1590733"><ele>698.6666666666666</ele><time>2026-04-05T14:12:40.943Z</time></trkpt><trkpt lat="44.106255" lon="8.159165"><ele>700.5</ele><time>2026-04-05T14:12:42.942Z</time></trkpt><trkpt lat="44.10624" lon="8.1592767"><ele>702.3333333333334</ele><time>2026-04-05T14:12:44.942Z</time></trkpt><trkpt lat="44.1062183" lon="8.1593867"><ele>704.1666666666667</ele><time>2026-04-05T14:12:46.942Z</time></trkpt><trkpt lat="44.1061817" lon="8.159485"><ele>706.0</ele><time>2026-04-05T14:12:48.942Z</time></trkpt><trkpt lat="44.1061483" lon="8.1595933"><ele>706.0</ele><time>2026-04-05T14:12:50.942Z</time></trkpt><trkpt lat="44.1061483" lon="8.1597133"><ele>706.0</ele><time>2026-04-05T14:12:52.942Z</time></trkpt><trkpt lat="44.1062133" lon="8.159815"><ele>706.0</ele><time>2026-04-05T14:12:54.942Z</time></trkpt><trkpt lat="44.10629" lon="8.1598833"><ele>706.0</ele><time>2026-04-05T14:12:56.943Z</time></trkpt><trkpt lat="44.1063517" lon="8.1599517"><ele>706.0</ele><time>2026-04-05T14:12:58.942Z</time></trkpt><trkpt lat="44.106425" lon="8.1600333"><ele>706.0</ele><time>2026-04-05T14:13:00.943Z</time></trkpt><trkpt lat="44.1064983" lon="8.1601117"><ele>705.5</ele><time>2026-04-05T14:13:02.942Z</time></trkpt><trkpt lat="44.1065667" lon="8.1601833"><ele>705.0</ele><time>2026-04-05T14:13:04.942Z</time></trkpt><trkpt lat="44.106615" lon="8.1602633"><ele>704.5</ele><time>2026-04-05T14:13:06.943Z</time></trkpt><trkpt lat="44.1066633" lon="8.1603667"><ele>704.0</ele><time>2026-04-05T14:13:08.942Z</time></trkpt><trkpt lat="44.10669" lon="8.1604733"><ele>703.5</ele><time>2026-04-05T14:13:10.942Z</time></trkpt><trkpt lat="44.1067183" lon="8.1606017"><ele>703.0</ele><time>2026-04-05T14:13:12.942Z</time></trkpt><trkpt lat="44.1067383" lon="8.16075"><ele>706.1666666666667</ele><time>2026-04-05T14:13:14.942Z</time></trkpt><trkpt lat="44.1067583" lon="8.1608683"><ele>709.3333333333334</ele><time>2026-04-05T14:13:16.943Z</time></trkpt><trkpt lat="44.106775" lon="8.1609567"><ele>712.5</ele><time>2026-04-05T14:13:18.942Z</time></trkpt><trkpt lat="44.1068" lon="8.1610383"><ele>715.6666666666666</ele><time>2026-04-05T14:13:20.943Z</time></trkpt><trkpt lat="44.1068217" lon="8.1611333"><ele>718.8333333333333</ele><time>2026-04-05T14:13:22.942Z</time></trkpt><trkpt lat="44.1068667" lon="8.1612317"><ele>722.0</ele><time>2026-04-05T14:13:24.943Z</time></trkpt><trkpt lat="44.1069183" lon="8.161325"><ele>722.0</ele><time>2026-04-05T14:13:26.942Z</time></trkpt><trkpt lat="44.106975" lon="8.161415"><ele>722.0</ele><time>2026-04-05T14:13:28.942Z</time></trkpt><trkpt lat="44.1070367" lon="8.1615117"><ele>722.0</ele><time>2026-04-05T14:13:30.942Z</time></trkpt><trkpt lat="44.1070983" lon="8.1615983"><ele>722.0</ele><time>2026-04-05T14:13:32.942Z</time></trkpt><trkpt lat="44.1071767" lon="8.1617017"><ele>722.0</ele><time>2026-04-05T14:13:34.943Z</time></trkpt><trkpt lat="44.1072433" lon="8.1618067"><ele>725.8</ele><time>2026-04-05T14:13:36.942Z</time></trkpt><trkpt lat="44.1073083" lon="8.161915"><ele>729.6</ele><time>2026-04-05T14:13:38.943Z</time></trkpt><trkpt lat="44.1073567" lon="8.1620367"><ele>733.4</ele><time>2026-04-05T14:13:40.942Z</time></trkpt><trkpt lat="44.1074" lon="8.1621483"><ele>737.1999999999999</ele><time>2026-04-05T14:13:42.942Z</time></trkpt><trkpt lat="44.1074617" lon="8.162255"><ele>741.0</ele><time>2026-04-05T14:13:44.942Z</time></trkpt><trkpt lat="44.1075367" lon="8.16236"><ele>736.0</ele><time>2026-04-05T14:13:46.942Z</time></trkpt><trkpt lat="44.10763" lon="8.1624617"><ele>731.0</ele><time>2026-04-05T14:13:48.942Z</time></trkpt><trkpt lat="44.1077117" lon="8.1625183"><ele>726.0</ele><time>2026-04-05T14:13:50.942Z</time></trkpt><trkpt lat="44.1078017" lon="8.1625183"><ele>721.0</ele><time>2026-04-05T14:13:52.942Z</time></trkpt><trkpt lat="44.1078833" lon="8.162485"><ele>716.0</ele><time>2026-04-05T14:13:54.941Z</time></trkpt><trkpt lat="44.1079367" lon="8.16239"><ele>721.0</ele><time>2026-04-05T14:13:56.941Z</time></trkpt><trkpt lat="44.10798" lon="8.1622817"><ele>726.0</ele><time>2026-04-05T14:13:58.941Z</time></trkpt><trkpt lat="44.1080183" lon="8.1621617"><ele>731.0</ele><time>2026-04-05T14:14:00.942Z</time></trkpt><trkpt lat="44.10806" lon="8.1620333"><ele>736.0</ele><time>2026-04-05T14:14:02.941Z</time></trkpt><trkpt lat="44.1080983" lon="8.1619017"><ele>741.0</ele><time>2026-04-05T14:14:04.941Z</time></trkpt><trkpt lat="44.1081533" lon="8.16177"><ele>741.0</ele><time>2026-04-05T14:14:06.941Z</time></trkpt><trkpt lat="44.10819" lon="8.161645"><ele>741.0</ele><time>2026-04-05T14:14:08.942Z</time></trkpt><trkpt lat="44.1082267" lon="8.1615017"><ele>741.0</ele><time>2026-04-05T14:14:10.941Z</time></trkpt><trkpt lat="44.1082667" lon="8.1613483"><ele>741.0</ele><time>2026-04-05T14:14:12.941Z</time></trkpt><trkpt lat="44.1082883" lon="8.1611983"><ele>741.0</ele><time>2026-04-05T14:14:14.941Z</time></trkpt><trkpt lat="44.1083167" lon="8.16108"><ele>741.6666666666666</ele><time>2026-04-05T14:14:16.941Z</time></trkpt><trkpt lat="44.108325" lon="8.1609767"><ele>742.3333333333334</ele><time>2026-04-05T14:14:19.941Z</time></trkpt><trkpt lat="44.10839" lon="8.1609283"><ele>743.0</ele><time>2026-04-05T14:14:39.942Z</time></trkpt><trkpt lat="44.10847" lon="8.1609967"><ele>743.6666666666667</ele><time>2026-04-05T14:14:42.942Z</time></trkpt><trkpt lat="44.1085217" lon="8.161075"><ele>744.3333333333334</ele><time>2026-04-05T14:14:44.941Z</time></trkpt><trkpt lat="44.1085583" lon="8.1611667"><ele>745.0</ele><time>2026-04-05T14:14:46.941Z</time></trkpt><trkpt lat="44.10859" lon="8.161295"><ele>745.0</ele><time>2026-04-05T14:14:48.941Z</time></trkpt><trkpt lat="44.1086283" lon="8.1614133"><ele>745.0</ele><time>2026-04-05T14:14:50.941Z</time></trkpt><trkpt lat="44.1086717" lon="8.1615333"><ele>745.0</ele><time>2026-04-05T14:14:52.941Z</time></trkpt><trkpt lat="44.108725" lon="8.1616667"><ele>745.0</ele><time>2026-04-05T14:14:54.941Z</time></trkpt><trkpt lat="44.10878" lon="8.161805"><ele>745.0</ele><time>2026-04-05T14:14:56.941Z</time></trkpt><trkpt lat="44.1088383" lon="8.161915"><ele>745.5</ele><time>2026-04-05T14:14:58.941Z</time></trkpt><trkpt lat="44.108905" lon="8.1620067"><ele>746.0</ele><time>2026-04-05T14:15:00.941Z</time></trkpt><trkpt lat="44.1089867" lon="8.1620617"><ele>746.5</ele><time>2026-04-05T14:15:02.941Z</time></trkpt><trkpt lat="44.109075" lon="8.16206"><ele>747.0</ele><time>2026-04-05T14:15:04.941Z</time></trkpt><trkpt lat="44.1091467" lon="8.16201"><ele>747.5</ele><time>2026-04-05T14:15:06.941Z</time></trkpt><trkpt lat="44.109225" lon="8.1619667"><ele>748.0</ele><time>2026-04-05T14:15:08.941Z</time></trkpt><trkpt lat="44.1092917" lon="8.16198"><ele>748.0</ele><time>2026-04-05T14:15:10.941Z</time></trkpt><trkpt lat="44.1093483" lon="8.162035"><ele>748.0</ele><time>2026-04-05T14:15:12.941Z</time></trkpt><trkpt lat="44.1093533" lon="8.1621433"><ele>748.0</ele><time>2026-04-05T14:15:14.941Z</time></trkpt><trkpt lat="44.1093367" lon="8.16226"><ele>748.0</ele><time>2026-04-05T14:15:16.941Z</time></trkpt><trkpt lat="44.1093217" lon="8.162385"><ele>748.0</ele><time>2026-04-05T14:15:18.942Z</time></trkpt><trkpt lat="44.1093517" lon="8.1624633"><ele>748.0</ele><time>2026-04-05T14:15:20.941Z</time></trkpt><trkpt lat="44.1094467" lon="8.16244"><ele>748.0</ele><time>2026-04-05T14:15:23.941Z</time></trkpt><trkpt lat="44.1095333" lon="8.1623783"><ele>748.0</ele><time>2026-04-05T14:15:25.942Z</time></trkpt><trkpt lat="44.10963" lon="8.1623083"><ele>748.0</ele><time>2026-04-05T14:15:27.941Z</time></trkpt><trkpt lat="44.1097183" lon="8.1622417"><ele>748.0</ele><time>2026-04-05T14:15:29.941Z</time></trkpt><trkpt lat="44.109835" lon="8.1621717"><ele>748.0</ele><time>2026-04-05T14:15:31.941Z</time></trkpt><trkpt lat="44.1099217" lon="8.162115"><ele>748.2</ele><time>2026-04-05T14:15:33.941Z</time></trkpt><trkpt lat="44.1100217" lon="8.1620533"><ele>748.4</ele><time>2026-04-05T14:15:35.941Z</time></trkpt><trkpt lat="44.11013" lon="8.1619867"><ele>748.6</ele><time>2026-04-05T14:15:37.941Z</time></trkpt><trkpt lat="44.1102533" lon="8.1619367"><ele>748.8000000000001</ele><time>2026-04-05T14:15:39.942Z</time></trkpt><trkpt lat="44.11032" lon="8.161925"><ele>749.0</ele><time>2026-04-05T14:15:40.941Z</time></trkpt><trkpt lat="44.1104333" lon="8.1618967"><ele>749.0</ele><time>2026-04-05T14:15:42.941Z</time></trkpt><trkpt lat="44.1105383" lon="8.1618717"><ele>749.0</ele><time>2026-04-05T14:15:44.942Z</time></trkpt><trkpt lat="44.1106433" lon="8.1618433"><ele>749.0</ele><time>2026-04-05T14:15:46.942Z</time></trkpt><trkpt lat="44.110745" lon="8.16182"><ele>749.0</ele><time>2026-04-05T14:15:48.941Z</time></trkpt><trkpt lat="44.110865" lon="8.1618383"><ele>749.0</ele><time>2026-04-05T14:15:50.941Z</time></trkpt><trkpt lat="44.1109333" lon="8.1618733"><ele>747.6666666666666</ele><time>2026-04-05T14:15:51.941Z</time></trkpt><trkpt lat="44.111005" lon="8.1619267"><ele>746.3333333333333</ele><time>2026-04-05T14:15:52.941Z</time></trkpt><trkpt lat="44.1110717" lon="8.1619783"><ele>745.0</ele><time>2026-04-05T14:15:53.941Z</time></trkpt><trkpt lat="44.1111317" lon="8.16203"><ele>743.6666666666666</ele><time>2026-04-05T14:15:54.941Z</time></trkpt><trkpt lat="44.111215" lon="8.1621417"><ele>742.3333333333334</ele><time>2026-04-05T14:15:56.941Z</time></trkpt><trkpt lat="44.1112883" lon="8.162195"><ele>741.0</ele><time>2026-04-05T14:15:58.941Z</time></trkpt><trkpt lat="44.1113617" lon="8.1621583"><ele>741.0</ele><time>2026-04-05T14:16:00.941Z</time></trkpt><trkpt lat="44.11142" lon="8.16204"><ele>741.0</ele><time>2026-04-05T14:16:02.941Z</time></trkpt><trkpt lat="44.1114717" lon="8.1618883"><ele>741.0</ele><time>2026-04-05T14:16:04.941Z</time></trkpt><trkpt lat="44.111485" lon="8.1617267"><ele>741.0</ele><time>2026-04-05T14:16:06.941Z</time></trkpt><trkpt lat="44.111485" lon="8.16163"><ele>741.0</ele><time>2026-04-05T14:16:07.941Z</time></trkpt><trkpt lat="44.1114783" lon="8.16154"><ele>745.5999999999999</ele><time>2026-04-05T14:16:08.941Z</time></trkpt><trkpt lat="44.1114617" lon="8.1613683"><ele>750.2</ele><time>2026-04-05T14:16:10.941Z</time></trkpt><trkpt lat="44.1114417" lon="8.1612033"><ele>754.8</ele><time>2026-04-05T14:16:12.941Z</time></trkpt><trkpt lat="44.1114317" lon="8.1611117"><ele>759.4000000000001</ele><time>2026-04-05T14:16:13.941Z</time></trkpt><trkpt lat="44.11142" lon="8.16096"><ele>764.0</ele><time>2026-04-05T14:16:15.941Z</time></trkpt><trkpt lat="44.1114233" lon="8.1608083"><ele>764.0</ele><time>2026-04-05T14:16:17.941Z</time></trkpt><trkpt lat="44.11144" lon="8.1607183"><ele>764.0</ele><time>2026-04-05T14:16:18.941Z</time></trkpt><trkpt lat="44.1114567" lon="8.16063"><ele>764.0</ele><time>2026-04-05T14:16:19.941Z</time></trkpt><trkpt lat="44.1114783" lon="8.16054"><ele>764.0</ele><time>2026-04-05T14:16:20.941Z</time></trkpt><trkpt lat="44.111515" lon="8.1604533"><ele>764.0</ele><time>2026-04-05T14:16:21.942Z</time></trkpt><trkpt lat="44.1115467" lon="8.1603667"><ele>764.0</ele><time>2026-04-05T14:16:22.941Z</time></trkpt><trkpt lat="44.1115767" lon="8.1602783"><ele>764.0</ele><time>2026-04-05T14:16:23.941Z</time></trkpt><trkpt lat="44.11161" lon="8.1601917"><ele>760.1428571428572</ele><time>2026-04-05T14:16:24.942Z</time></trkpt><trkpt lat="44.1116433" lon="8.160105"><ele>756.2857142857142</ele><time>2026-04-05T14:16:25.941Z</time></trkpt><trkpt lat="44.111675" lon="8.1600217"><ele>752.4285714285714</ele><time>2026-04-05T14:16:26.941Z</time></trkpt><trkpt lat="44.1117067" lon="8.159935"><ele>748.5714285714287</ele><time>2026-04-05T14:16:27.941Z</time></trkpt><trkpt lat="44.1117367" lon="8.1598517"><ele>744.7142857142858</ele><time>2026-04-05T14:16:28.941Z</time></trkpt><trkpt lat="44.1117683" lon="8.1597717"><ele>740.8571428571429</ele><time>2026-04-05T14:16:29.941Z</time></trkpt><trkpt lat="44.1118033" lon="8.1596883"><ele>737.0</ele><time>2026-04-05T14:16:30.941Z</time></trkpt><trkpt lat="44.111835" lon="8.1596033"><ele>737.0000000000001</ele><time>2026-04-05T14:16:31.942Z</time></trkpt><trkpt lat="44.1118567" lon="8.1595167"><ele>737.0</ele><time>2026-04-05T14:16:32.941Z</time></trkpt><trkpt lat="44.1118717" lon="8.1594283"><ele>737.0</ele><time>2026-04-05T14:16:33.941Z</time></trkpt><trkpt lat="44.1118833" lon="8.1593417"><ele>737.0</ele><time>2026-04-05T14:16:34.941Z</time></trkpt><trkpt lat="44.1118967" lon="8.1592517"><ele>737.0</ele><time>2026-04-05T14:16:35.941Z</time></trkpt><trkpt lat="44.111915" lon="8.1591533"><ele>737.0000000000001</ele><time>2026-04-05T14:16:36.941Z</time></trkpt><trkpt lat="44.1119317" lon="8.159065"><ele>737.0</ele><time>2026-04-05T14:16:37.941Z</time></trkpt><trkpt lat="44.1119417" lon="8.15888"><ele>736.6666666666666</ele><time>2026-04-05T14:16:39.941Z</time></trkpt><trkpt lat="44.1119267" lon="8.1587717"><ele>736.3333333333333</ele><time>2026-04-05T14:16:40.941Z</time></trkpt><trkpt lat="44.1119017" lon="8.1586633"><ele>736.0</ele><time>2026-04-05T14:16:41.941Z</time></trkpt><trkpt lat="44.1118733" lon="8.15856"><ele>735.6666666666666</ele><time>2026-04-05T14:16:42.941Z</time></trkpt><trkpt lat="44.1118367" lon="8.15846"><ele>735.3333333333334</ele><time>2026-04-05T14:16:43.941Z</time></trkpt><trkpt lat="44.1117917" lon="8.1583617"><ele>735.0</ele><time>2026-04-05T14:16:44.942Z</time></trkpt><trkpt lat="44.11176" lon="8.1582533"><ele>734.1666666666666</ele><time>2026-04-05T14:16:45.941Z</time></trkpt><trkpt lat="44.1117317" lon="8.1581467"><ele>733.3333333333334</ele><time>2026-04-05T14:16:46.941Z</time></trkpt><trkpt lat="44.1117033" lon="8.1580417"><ele>732.5</ele><time>2026-04-05T14:16:47.941Z</time></trkpt><trkpt lat="44.1116767" lon="8.15794"><ele>731.6666666666667</ele><time>2026-04-05T14:16:48.941Z</time></trkpt><trkpt lat="44.1116617" lon="8.157835"><ele>730.8333333333334</ele><time>2026-04-05T14:16:49.941Z</time></trkpt><trkpt lat="44.1116533" lon="8.1577367"><ele>730.0</ele><time>2026-04-05T14:16:50.941Z</time></trkpt><trkpt lat="44.11165" lon="8.1576333"><ele>730.0</ele><time>2026-04-05T14:16:51.941Z</time></trkpt><trkpt lat="44.1116633" lon="8.1575233"><ele>730.0</ele><time>2026-04-05T14:16:52.941Z</time></trkpt><trkpt lat="44.1116817" lon="8.157425"><ele>730.0</ele><time>2026-04-05T14:16:53.941Z</time></trkpt><trkpt lat="44.1117033" lon="8.1573383"><ele>730.0</ele><time>2026-04-05T14:16:54.941Z</time></trkpt><trkpt lat="44.1117367" lon="8.1572567"><ele>730.0</ele><time>2026-04-05T14:16:55.941Z</time></trkpt><trkpt lat="44.1117917" lon="8.1571317"><ele>730.0</ele><time>2026-04-05T14:16:57.942Z</time></trkpt><trkpt lat="44.111835" lon="8.1570667"><ele>730.0</ele><time>2026-04-05T14:16:59.941Z</time></trkpt><trkpt lat="44.1118883" lon="8.156995"><ele>730.0</ele><time>2026-04-05T14:17:03.941Z</time></trkpt><trkpt lat="44.11195" lon="8.15692"><ele>730.0</ele><time>2026-04-05T14:17:06.941Z</time></trkpt><trkpt lat="44.1119983" lon="8.156855"><ele>730.0</ele><time>2026-04-05T14:17:08.942Z</time></trkpt><trkpt lat="44.1120583" lon="8.1567533"><ele>730.0</ele><time>2026-04-05T14:17:10.941Z</time></trkpt><trkpt lat="44.1121317" lon="8.15663"><ele>730.0</ele><time>2026-04-05T14:17:12.941Z</time></trkpt><trkpt lat="44.112185" lon="8.1564933"><ele>728.4</ele><time>2026-04-05T14:17:14.941Z</time></trkpt><trkpt lat="44.1122217" lon="8.1563567"><ele>726.8</ele><time>2026-04-05T14:17:16.941Z</time></trkpt><trkpt lat="44.1122533" lon="8.156215"><ele>725.2</ele><time>2026-04-05T14:17:18.941Z</time></trkpt><trkpt lat="44.112285" lon="8.1560483"><ele>723.6</ele><time>2026-04-05T14:17:20.942Z</time></trkpt><trkpt lat="44.1123" lon="8.15595"><ele>722.0</ele><time>2026-04-05T14:17:21.941Z</time></trkpt><trkpt lat="44.11231" lon="8.1558467"><ele>722.0</ele><time>2026-04-05T14:17:22.941Z</time></trkpt><trkpt lat="44.1123083" lon="8.155735"><ele>722.0</ele><time>2026-04-05T14:17:23.941Z</time></trkpt><trkpt lat="44.112305" lon="8.1556117"><ele>722.0</ele><time>2026-04-05T14:17:24.941Z</time></trkpt><trkpt lat="44.1123033" lon="8.15549"><ele>722.0</ele><time>2026-04-05T14:17:25.941Z</time></trkpt><trkpt lat="44.1122983" lon="8.1553783"><ele>722.0</ele><time>2026-04-05T14:17:26.941Z</time></trkpt><trkpt lat="44.1122983" lon="8.15527"><ele>722.0</ele><time>2026-04-05T14:17:27.941Z</time></trkpt><trkpt lat="44.1123" lon="8.155165"><ele>719.8333333333333</ele><time>2026-04-05T14:17:28.941Z</time></trkpt><trkpt lat="44.11231" lon="8.1550533"><ele>717.6666666666666</ele><time>2026-04-05T14:17:29.942Z</time></trkpt><trkpt lat="44.1123167" lon="8.1549517"><ele>715.5</ele><time>2026-04-05T14:17:30.941Z</time></trkpt><trkpt lat="44.11232" lon="8.1548533"><ele>713.3333333333334</ele><time>2026-04-05T14:17:31.941Z</time></trkpt><trkpt lat="44.1123367" lon="8.1547533"><ele>711.1666666666667</ele><time>2026-04-05T14:17:32.941Z</time></trkpt><trkpt lat="44.112335" lon="8.1545867"><ele>709.0</ele><time>2026-04-05T14:17:34.941Z</time></trkpt><trkpt lat="44.1123333" lon="8.154415"><ele>705.8000000000001</ele><time>2026-04-05T14:17:36.941Z</time></trkpt><trkpt lat="44.11234" lon="8.1543233"><ele>702.6</ele><time>2026-04-05T14:17:37.941Z</time></trkpt><trkpt lat="44.112345" lon="8.15417"><ele>699.4</ele><time>2026-04-05T14:17:39.941Z</time></trkpt><trkpt lat="44.112355" lon="8.15401"><ele>696.2</ele><time>2026-04-05T14:17:41.941Z</time></trkpt><trkpt lat="44.1123617" lon="8.1538483"><ele>693.0</ele><time>2026-04-05T14:17:43.941Z</time></trkpt><trkpt lat="44.1123817" lon="8.1537067"><ele>693.1428571428571</ele><time>2026-04-05T14:17:45.941Z</time></trkpt><trkpt lat="44.1124067" lon="8.1535467"><ele>693.2857142857142</ele><time>2026-04-05T14:17:47.941Z</time></trkpt><trkpt lat="44.1124117" lon="8.1534583"><ele>693.4285714285714</ele><time>2026-04-05T14:17:48.941Z</time></trkpt><trkpt lat="44.1124233" lon="8.1533717"><ele>693.5714285714286</ele><time>2026-04-05T14:17:49.941Z</time></trkpt><trkpt lat="44.1124383" lon="8.1532833"><ele>693.7142857142857</ele><time>2026-04-05T14:17:50.941Z</time></trkpt><trkpt lat="44.112455" lon="8.15319"><ele>693.8571428571429</ele><time>2026-04-05T14:17:51.941Z</time></trkpt><trkpt lat="44.1124733" lon="8.153095"><ele>694.0</ele><time>2026-04-05T14:17:52.941Z</time></trkpt><trkpt lat="44.1124933" lon="8.153005"><ele>694.5714285714286</ele><time>2026-04-05T14:17:53.941Z</time></trkpt><trkpt lat="44.1125133" lon="8.15291"><ele>695.1428571428571</ele><time>2026-04-05T14:17:54.941Z</time></trkpt><trkpt lat="44.1125367" lon="8.1528117"><ele>695.7142857142857</ele><time>2026-04-05T14:17:55.941Z</time></trkpt><trkpt lat="44.11256" lon="8.1527183"><ele>696.2857142857142</ele><time>2026-04-05T14:17:56.941Z</time></trkpt><trkpt lat="44.1125833" lon="8.1526333"><ele>696.8571428571429</ele><time>2026-04-05T14:17:57.941Z</time></trkpt><trkpt lat="44.11262" lon="8.1525517"><ele>697.4285714285713</ele><time>2026-04-05T14:17:58.941Z</time></trkpt><trkpt lat="44.112655" lon="8.1524733"><ele>698.0</ele><time>2026-04-05T14:17:59.941Z</time></trkpt><trkpt lat="44.1126983" lon="8.152395"><ele>696.0</ele><time>2026-04-05T14:18:00.941Z</time></trkpt><trkpt lat="44.112755" lon="8.1523217"><ele>694.0</ele><time>2026-04-05T14:18:01.941Z</time></trkpt><trkpt lat="44.11281" lon="8.15225"><ele>692.0</ele><time>2026-04-05T14:18:02.941Z</time></trkpt><trkpt lat="44.1128783" lon="8.1521983"><ele>690.0</ele><time>2026-04-05T14:18:03.941Z</time></trkpt><trkpt lat="44.1129867" lon="8.1521383"><ele>688.0</ele><time>2026-04-05T14:18:05.941Z</time></trkpt><trkpt lat="44.11303" lon="8.15205"><ele>686.0</ele><time>2026-04-05T14:18:07.941Z</time></trkpt><trkpt lat="44.1130217" lon="8.1519333"><ele>686.0</ele><time>2026-04-05T14:18:09.941Z</time></trkpt><trkpt lat="44.1129583" lon="8.1517817"><ele>686.0</ele><time>2026-04-05T14:18:11.941Z</time></trkpt><trkpt lat="44.112925" lon="8.1517033"><ele>686.0</ele><time>2026-04-05T14:18:12.941Z</time></trkpt><trkpt lat="44.1128967" lon="8.1516117"><ele>686.0</ele><time>2026-04-05T14:18:13.942Z</time></trkpt><trkpt lat="44.1128667" lon="8.1515267"><ele>686.0</ele><time>2026-04-05T14:18:14.941Z</time></trkpt><trkpt lat="44.1128467" lon="8.15143"><ele>686.0</ele><time>2026-04-05T14:18:15.941Z</time></trkpt><trkpt lat="44.112825" lon="8.15133"><ele>684.4285714285714</ele><time>2026-04-05T14:18:16.941Z</time></trkpt><trkpt lat="44.112805" lon="8.1512317"><ele>682.8571428571429</ele><time>2026-04-05T14:18:17.941Z</time></trkpt><trkpt lat="44.1127883" lon="8.151135"><ele>681.2857142857142</ele><time>2026-04-05T14:18:18.941Z</time></trkpt><trkpt lat="44.11278" lon="8.1510433"><ele>679.7142857142858</ele><time>2026-04-05T14:18:19.941Z</time></trkpt><trkpt lat="44.1127767" lon="8.15095"><ele>678.1428571428571</ele><time>2026-04-05T14:18:20.941Z</time></trkpt><trkpt lat="44.112785" lon="8.1508583"><ele>676.5714285714286</ele><time>2026-04-05T14:18:21.941Z</time></trkpt><trkpt lat="44.1128017" lon="8.1507733"><ele>675.0</ele><time>2026-04-05T14:18:22.942Z</time></trkpt><trkpt lat="44.1128233" lon="8.15069"><ele>673.0</ele><time>2026-04-05T14:18:23.941Z</time></trkpt><trkpt lat="44.1128533" lon="8.1506083"><ele>671.0</ele><time>2026-04-05T14:18:24.941Z</time></trkpt><trkpt lat="44.1128917" lon="8.1505383"><ele>669.0</ele><time>2026-04-05T14:18:25.941Z</time></trkpt><trkpt lat="44.11294" lon="8.1504533"><ele>667.0</ele><time>2026-04-05T14:18:27.941Z</time></trkpt><trkpt lat="44.1129783" lon="8.1503617"><ele>665.0</ele><time>2026-04-05T14:18:39.941Z</time></trkpt><trkpt lat="44.11299" lon="8.1502417"><ele>663.0</ele><time>2026-04-05T14:18:41.941Z</time></trkpt><trkpt lat="44.1130133" lon="8.1501017"><ele>663.0</ele><time>2026-04-05T14:18:43.941Z</time></trkpt><trkpt lat="44.1130433" lon="8.149965"><ele>663.0</ele><time>2026-04-05T14:18:45.941Z</time></trkpt><trkpt lat="44.1130917" lon="8.1498317"><ele>663.0</ele><time>2026-04-05T14:18:47.941Z</time></trkpt><trkpt lat="44.1131417" lon="8.1497067"><ele>663.0</ele><time>2026-04-05T14:18:49.941Z</time></trkpt><trkpt lat="44.1131783" lon="8.1496083"><ele>663.0</ele><time>2026-04-05T14:18:51.942Z</time></trkpt><trkpt lat="44.113215" lon="8.14951"><ele>664.5999999999999</ele><time>2026-04-05T14:18:54.941Z</time></trkpt><trkpt lat="44.11324" lon="8.1494183"><ele>666.1999999999999</ele><time>2026-04-05T14:18:56.941Z</time></trkpt><trkpt lat="44.1132817" lon="8.149295"><ele>667.8</ele><time>2026-04-05T14:18:58.941Z</time></trkpt><trkpt lat="44.1133083" lon="8.1492117"><ele>669.4</ele><time>2026-04-05T14:18:59.941Z</time></trkpt><trkpt lat="44.113355" lon="8.14905"><ele>671.0</ele><time>2026-04-05T14:19:01.941Z</time></trkpt><trkpt lat="44.1133933" lon="8.1488967"><ele>671.1999999999999</ele><time>2026-04-05T14:19:03.941Z</time></trkpt><trkpt lat="44.11344" lon="8.1487617"><ele>671.4</ele><time>2026-04-05T14:19:05.941Z</time></trkpt><trkpt lat="44.113485" lon="8.1486333"><ele>671.6</ele><time>2026-04-05T14:19:07.941Z</time></trkpt><trkpt lat="44.1135417" lon="8.148485"><ele>671.8</ele><time>2026-04-05T14:19:09.941Z</time></trkpt><trkpt lat="44.1136083" lon="8.1483533"><ele>672.0</ele><time>2026-04-05T14:19:11.941Z</time></trkpt><trkpt lat="44.1136867" lon="8.1482333"><ele>671.1666666666666</ele><time>2026-04-05T14:19:13.941Z</time></trkpt><trkpt lat="44.1137933" lon="8.148135"><ele>670.3333333333334</ele><time>2026-04-05T14:19:15.941Z</time></trkpt><trkpt lat="44.11385" lon="8.1480833"><ele>669.5</ele><time>2026-04-05T14:19:16.941Z</time></trkpt><trkpt lat="44.1139067" lon="8.1480317"><ele>668.6666666666667</ele><time>2026-04-05T14:19:17.941Z</time></trkpt><trkpt lat="44.113965" lon="8.1479733"><ele>667.8333333333334</ele><time>2026-04-05T14:19:18.941Z</time></trkpt><trkpt lat="44.1140267" lon="8.147915"><ele>667.0</ele><time>2026-04-05T14:19:19.941Z</time></trkpt><trkpt lat="44.1140833" lon="8.147855"><ele>671.4000000000001</ele><time>2026-04-05T14:19:20.941Z</time></trkpt><trkpt lat="44.11413" lon="8.1477917"><ele>675.8000000000001</ele><time>2026-04-05T14:19:21.941Z</time></trkpt><trkpt lat="44.114175" lon="8.1477267"><ele>680.2</ele><time>2026-04-05T14:19:22.941Z</time></trkpt><trkpt lat="44.114265" lon="8.1476167"><ele>684.6</ele><time>2026-04-05T14:19:24.941Z</time></trkpt><trkpt lat="44.1143617" lon="8.14754"><ele>689.0</ele><time>2026-04-05T14:19:26.941Z</time></trkpt><trkpt lat="44.1144433" lon="8.1474567"><ele>689.4000000000001</ele><time>2026-04-05T14:19:28.941Z</time></trkpt><trkpt lat="44.1144967" lon="8.1473317"><ele>689.8</ele><time>2026-04-05T14:19:30.942Z</time></trkpt><trkpt lat="44.1145233" lon="8.1471667"><ele>690.2</ele><time>2026-04-05T14:19:32.941Z</time></trkpt><trkpt lat="44.114525" lon="8.1470717"><ele>690.5999999999999</ele><time>2026-04-05T14:19:33.941Z</time></trkpt><trkpt lat="44.1145317" lon="8.14698"><ele>691.0</ele><time>2026-04-05T14:19:34.941Z</time></trkpt><trkpt lat="44.114535" lon="8.1468067"><ele>690.9999999999999</ele><time>2026-04-05T14:19:36.942Z</time></trkpt><trkpt lat="44.11455" lon="8.1467167"><ele>691.0</ele><time>2026-04-05T14:19:37.941Z</time></trkpt><trkpt lat="44.114565" lon="8.1466183"><ele>691.0</ele><time>2026-04-05T14:19:38.942Z</time></trkpt><trkpt lat="44.1145817" lon="8.146525"><ele>691.0</ele><time>2026-04-05T14:19:39.941Z</time></trkpt><trkpt lat="44.1146117" lon="8.1464317"><ele>691.0</ele><time>2026-04-05T14:19:40.941Z</time></trkpt><trkpt lat="44.1146467" lon="8.1463367"><ele>690.9999999999999</ele><time>2026-04-05T14:19:41.941Z</time></trkpt><trkpt lat="44.1146817" lon="8.1462433"><ele>691.0</ele><time>2026-04-05T14:19:42.941Z</time></trkpt><trkpt lat="44.1147117" lon="8.146165"><ele>688.6666666666667</ele><time>2026-04-05T14:19:43.941Z</time></trkpt><trkpt lat="44.11474" lon="8.1460833"><ele>686.3333333333334</ele><time>2026-04-05T14:19:44.941Z</time></trkpt><trkpt lat="44.1147783" lon="8.1460067"><ele>684.0</ele><time>2026-04-05T14:19:45.942Z</time></trkpt><trkpt lat="44.11482" lon="8.145935"><ele>681.6666666666666</ele><time>2026-04-05T14:19:46.941Z</time></trkpt><trkpt lat="44.114895" lon="8.1457867"><ele>679.3333333333333</ele><time>2026-04-05T14:19:48.941Z</time></trkpt><trkpt lat="44.1149367" lon="8.1457083"><ele>677.0</ele><time>2026-04-05T14:19:49.941Z</time></trkpt><trkpt lat="44.1149767" lon="8.14563"><ele>677.0</ele><time>2026-04-05T14:19:50.942Z</time></trkpt><trkpt lat="44.115015" lon="8.14555"><ele>677.0</ele><time>2026-04-05T14:19:51.941Z</time></trkpt><trkpt lat="44.115055" lon="8.14548"><ele>677.0</ele><time>2026-04-05T14:19:52.941Z</time></trkpt><trkpt lat="44.1151033" lon="8.1454033"><ele>677.0</ele><time>2026-04-05T14:19:53.941Z</time></trkpt><trkpt lat="44.115145" lon="8.145325"><ele>677.0</ele><time>2026-04-05T14:19:54.941Z</time></trkpt><trkpt lat="44.115215" lon="8.1451867"><ele>677.0</ele><time>2026-04-05T14:19:56.941Z</time></trkpt><trkpt lat="44.1152717" lon="8.1450483"><ele>677.0</ele><time>2026-04-05T14:19:58.941Z</time></trkpt><trkpt lat="44.1153317" lon="8.1449183"><ele>677.0</ele><time>2026-04-05T14:20:00.941Z</time></trkpt><trkpt lat="44.1153883" lon="8.144815"><ele>677.0</ele><time>2026-04-05T14:20:02.941Z</time></trkpt><trkpt lat="44.1154483" lon="8.1447233"><ele>677.0</ele><time>2026-04-05T14:20:04.941Z</time></trkpt><trkpt lat="44.11551" lon="8.14463"><ele>677.0</ele><time>2026-04-05T14:20:06.941Z</time></trkpt><trkpt lat="44.115575" lon="8.14455"><ele>674.5</ele><time>2026-04-05T14:20:08.941Z</time></trkpt><trkpt lat="44.1156483" lon="8.1444817"><ele>672.0</ele><time>2026-04-05T14:20:10.941Z</time></trkpt><trkpt lat="44.115725" lon="8.144405"><ele>669.5</ele><time>2026-04-05T14:20:12.941Z</time></trkpt><trkpt lat="44.1158033" lon="8.1443433"><ele>667.0</ele><time>2026-04-05T14:20:14.941Z</time></trkpt><trkpt lat="44.1158717" lon="8.144275"><ele>664.5</ele><time>2026-04-05T14:20:16.941Z</time></trkpt><trkpt lat="44.115935" lon="8.144215"><ele>662.0</ele><time>2026-04-05T14:20:18.942Z</time></trkpt><trkpt lat="44.1159867" lon="8.144145"><ele>662.0</ele><time>2026-04-05T14:20:20.941Z</time></trkpt><trkpt lat="44.1160467" lon="8.1440767"><ele>662.0</ele><time>2026-04-05T14:20:22.941Z</time></trkpt><trkpt lat="44.11611" lon="8.14398"><ele>662.0</ele><time>2026-04-05T14:20:24.941Z</time></trkpt><trkpt lat="44.1161667" lon="8.1438367"><ele>662.0</ele><time>2026-04-05T14:20:26.941Z</time></trkpt><trkpt lat="44.1162" lon="8.1437567"><ele>662.0</ele><time>2026-04-05T14:20:27.941Z</time></trkpt><trkpt lat="44.116235" lon="8.1436717"><ele>662.0</ele><time>2026-04-05T14:20:28.941Z</time></trkpt><trkpt lat="44.116285" lon="8.1435933"><ele>660.1666666666666</ele><time>2026-04-05T14:20:29.941Z</time></trkpt><trkpt lat="44.1163417" lon="8.1435217"><ele>658.3333333333333</ele><time>2026-04-05T14:20:30.941Z</time></trkpt><trkpt lat="44.1163967" lon="8.1434683"><ele>656.5</ele><time>2026-04-05T14:20:31.941Z</time></trkpt><trkpt lat="44.1164667" lon="8.1434367"><ele>654.6666666666666</ele><time>2026-04-05T14:20:32.941Z</time></trkpt><trkpt lat="44.1165333" lon="8.143415"><ele>652.8333333333334</ele><time>2026-04-05T14:20:33.941Z</time></trkpt><trkpt lat="44.116665" lon="8.1434317"><ele>651.0</ele><time>2026-04-05T14:20:35.941Z</time></trkpt><trkpt lat="44.11673" lon="8.1434867"><ele>651.0</ele><time>2026-04-05T14:20:36.941Z</time></trkpt><trkpt lat="44.1168017" lon="8.1435333"><ele>651.0</ele><time>2026-04-05T14:20:37.941Z</time></trkpt><trkpt lat="44.116875" lon="8.14357"><ele>651.0</ele><time>2026-04-05T14:20:38.941Z</time></trkpt><trkpt lat="44.1169417" lon="8.1436017"><ele>651.0</ele><time>2026-04-05T14:20:39.941Z</time></trkpt><trkpt lat="44.1170067" lon="8.1436117"><ele>651.0</ele><time>2026-04-05T14:20:40.942Z</time></trkpt><trkpt lat="44.1171217" lon="8.1436367"><ele>651.0</ele><time>2026-04-05T14:20:42.941Z</time></trkpt><trkpt lat="44.1172033" lon="8.14369"><ele>651.0</ele><time>2026-04-05T14:20:44.941Z</time></trkpt><trkpt lat="44.1172917" lon="8.143775"><ele>651.0</ele><time>2026-04-05T14:20:46.941Z</time></trkpt><trkpt lat="44.1173867" lon="8.14386"><ele>651.0</ele><time>2026-04-05T14:20:48.942Z</time></trkpt><trkpt lat="44.1174417" lon="8.1439083"><ele>651.0</ele><time>2026-04-05T14:20:49.941Z</time></trkpt><trkpt lat="44.1175017" lon="8.1439717"><ele>651.0</ele><time>2026-04-05T14:20:50.941Z</time></trkpt><trkpt lat="44.1175583" lon="8.144045"><ele>651.0</ele><time>2026-04-05T14:20:51.941Z</time></trkpt><trkpt lat="44.117615" lon="8.1441017"><ele>651.5</ele><time>2026-04-05T14:20:52.942Z</time></trkpt><trkpt lat="44.1176867" lon="8.1441567"><ele>652.0</ele><time>2026-04-05T14:20:53.941Z</time></trkpt><trkpt lat="44.1177617" lon="8.144205"><ele>652.5</ele><time>2026-04-05T14:20:54.941Z</time></trkpt><trkpt lat="44.117825" lon="8.1442567"><ele>653.0</ele><time>2026-04-05T14:20:55.941Z</time></trkpt><trkpt lat="44.117885" lon="8.144315"><ele>653.5</ele><time>2026-04-05T14:20:56.941Z</time></trkpt><trkpt lat="44.1179567" lon="8.1443817"><ele>654.0</ele><time>2026-04-05T14:20:57.941Z</time></trkpt><trkpt lat="44.1180233" lon="8.1444583"><ele>654.0</ele><time>2026-04-05T14:20:58.941Z</time></trkpt><trkpt lat="44.1180767" lon="8.1445533"><ele>654.0</ele><time>2026-04-05T14:20:59.941Z</time></trkpt><trkpt lat="44.1181317" lon="8.1446533"><ele>654.0</ele><time>2026-04-05T14:21:00.942Z</time></trkpt><trkpt lat="44.1181733" lon="8.1447667"><ele>654.0</ele><time>2026-04-05T14:21:01.941Z</time></trkpt><trkpt lat="44.1182083" lon="8.1448867"><ele>654.0</ele><time>2026-04-05T14:21:02.941Z</time></trkpt><trkpt lat="44.11825" lon="8.1450033"><ele>653.5</ele><time>2026-04-05T14:21:03.942Z</time></trkpt><trkpt lat="44.1182867" lon="8.1451167"><ele>653.0</ele><time>2026-04-05T14:21:04.941Z</time></trkpt><trkpt lat="44.118325" lon="8.1452283"><ele>652.5</ele><time>2026-04-05T14:21:05.941Z</time></trkpt><trkpt lat="44.11838" lon="8.14533"><ele>652.0</ele><time>2026-04-05T14:21:06.941Z</time></trkpt><trkpt lat="44.1184417" lon="8.1454067"><ele>651.5</ele><time>2026-04-05T14:21:07.941Z</time></trkpt><trkpt lat="44.1185017" lon="8.145465"><ele>651.0</ele><time>2026-04-05T14:21:08.941Z</time></trkpt><trkpt lat="44.1185733" lon="8.14549"><ele>651.0</ele><time>2026-04-05T14:21:09.941Z</time></trkpt><trkpt lat="44.118655" lon="8.1454933"><ele>651.0</ele><time>2026-04-05T14:21:10.941Z</time></trkpt><trkpt lat="44.11873" lon="8.145455"><ele>651.0</ele><time>2026-04-05T14:21:11.941Z</time></trkpt><trkpt lat="44.118805" lon="8.1454083"><ele>651.0</ele><time>2026-04-05T14:21:12.941Z</time></trkpt><trkpt lat="44.1188817" lon="8.1453683"><ele>651.0</ele><time>2026-04-05T14:21:13.941Z</time></trkpt><trkpt lat="44.1189567" lon="8.145345"><ele>651.0</ele><time>2026-04-05T14:21:14.941Z</time></trkpt><trkpt lat="44.119035" lon="8.1453217"><ele>651.6666666666666</ele><time>2026-04-05T14:21:15.941Z</time></trkpt><trkpt lat="44.119115" lon="8.1453067"><ele>652.3333333333334</ele><time>2026-04-05T14:21:16.941Z</time></trkpt><trkpt lat="44.1192017" lon="8.1452933"><ele>653.0</ele><time>2026-04-05T14:21:17.942Z</time></trkpt><trkpt lat="44.119285" lon="8.1452817"><ele>653.6666666666667</ele><time>2026-04-05T14:21:18.941Z</time></trkpt><trkpt lat="44.1193633" lon="8.14527"><ele>654.3333333333334</ele><time>2026-04-05T14:21:19.941Z</time></trkpt><trkpt lat="44.119445" lon="8.1452717"><ele>655.0</ele><time>2026-04-05T14:21:20.941Z</time></trkpt><trkpt lat="44.1195267" lon="8.1452767"><ele>655.0</ele><time>2026-04-05T14:21:21.941Z</time></trkpt><trkpt lat="44.119605" lon="8.14529"><ele>655.0</ele><time>2026-04-05T14:21:22.941Z</time></trkpt><trkpt lat="44.1196817" lon="8.1453117"><ele>655.0</ele><time>2026-04-05T14:21:23.941Z</time></trkpt><trkpt lat="44.1197633" lon="8.1453367"><ele>655.0</ele><time>2026-04-05T14:21:24.941Z</time></trkpt><trkpt lat="44.1198417" lon="8.1453617"><ele>655.0</ele><time>2026-04-05T14:21:25.941Z</time></trkpt><trkpt lat="44.1199283" lon="8.1453817"><ele>655.0</ele><time>2026-04-05T14:21:26.941Z</time></trkpt><trkpt lat="44.1200167" lon="8.145385"><ele>653.0</ele><time>2026-04-05T14:21:27.941Z</time></trkpt><trkpt lat="44.1201033" lon="8.145375"><ele>651.0</ele><time>2026-04-05T14:21:28.941Z</time></trkpt><trkpt lat="44.1201917" lon="8.145365"><ele>649.0</ele><time>2026-04-05T14:21:29.941Z</time></trkpt><trkpt lat="44.120285" lon="8.1453767"><ele>647.0</ele><time>2026-04-05T14:21:30.941Z</time></trkpt><trkpt lat="44.1203817" lon="8.145405"><ele>645.0</ele><time>2026-04-05T14:21:31.941Z</time></trkpt><trkpt lat="44.120475" lon="8.1454417"><ele>645.0</ele><time>2026-04-05T14:21:32.941Z</time></trkpt><trkpt lat="44.1205667" lon="8.1455133"><ele>645.0</ele><time>2026-04-05T14:21:33.941Z</time></trkpt><trkpt lat="44.1206617" lon="8.1455717"><ele>645.0</ele><time>2026-04-05T14:21:34.941Z</time></trkpt><trkpt lat="44.1207633" lon="8.1456317"><ele>645.0</ele><time>2026-04-05T14:21:35.941Z</time></trkpt><trkpt lat="44.1208567" lon="8.14569"><ele>645.0</ele><time>2026-04-05T14:21:36.941Z</time></trkpt><trkpt lat="44.1209483" lon="8.1457567"><ele>640.8</ele><time>2026-04-05T14:21:37.941Z</time></trkpt><trkpt lat="44.1210283" lon="8.1458267"><ele>636.6</ele><time>2026-04-05T14:21:38.941Z</time></trkpt><trkpt lat="44.1211083" lon="8.145905"><ele>632.4</ele><time>2026-04-05T14:21:39.942Z</time></trkpt><trkpt lat="44.1212" lon="8.1459867"><ele>628.2</ele><time>2026-04-05T14:21:40.941Z</time></trkpt><trkpt lat="44.1212817" lon="8.1460233"><ele>624.0</ele><time>2026-04-05T14:21:41.941Z</time></trkpt><trkpt lat="44.1213633" lon="8.1460383"><ele>624.0</ele><time>2026-04-05T14:21:42.941Z</time></trkpt><trkpt lat="44.121445" lon="8.1460317"><ele>624.0</ele><time>2026-04-05T14:21:43.941Z</time></trkpt><trkpt lat="44.121535" lon="8.1460067"><ele>624.0</ele><time>2026-04-05T14:21:44.941Z</time></trkpt><trkpt lat="44.121625" lon="8.1459817"><ele>624.0</ele><time>2026-04-05T14:21:45.941Z</time></trkpt><trkpt lat="44.1217117" lon="8.1459633"><ele>624.0</ele><time>2026-04-05T14:21:46.941Z</time></trkpt><trkpt lat="44.1218033" lon="8.1459483"><ele>624.0</ele><time>2026-04-05T14:21:47.941Z</time></trkpt><trkpt lat="44.121885" lon="8.1459367"><ele>623.5</ele><time>2026-04-05T14:21:48.941Z</time></trkpt><trkpt lat="44.121975" lon="8.145925"><ele>623.0</ele><time>2026-04-05T14:21:49.941Z</time></trkpt><trkpt lat="44.1220617" lon="8.1459117"><ele>622.5</ele><time>2026-04-05T14:21:50.941Z</time></trkpt><trkpt lat="44.12214" lon="8.145915"><ele>622.0</ele><time>2026-04-05T14:21:51.941Z</time></trkpt><trkpt lat="44.122205" lon="8.14595"><ele>621.5</ele><time>2026-04-05T14:21:52.941Z</time></trkpt><trkpt lat="44.1222467" lon="8.146025"><ele>621.0</ele><time>2026-04-05T14:21:53.941Z</time></trkpt><trkpt lat="44.1222533" lon="8.1461183"><ele>621.0</ele><time>2026-04-05T14:21:54.941Z</time></trkpt><trkpt lat="44.1222267" lon="8.14624"><ele>621.0</ele><time>2026-04-05T14:21:55.941Z</time></trkpt><trkpt lat="44.1222083" lon="8.1463633"><ele>621.0</ele><time>2026-04-05T14:21:56.941Z</time></trkpt><trkpt lat="44.1221917" lon="8.1464833"><ele>621.0</ele><time>2026-04-05T14:21:57.941Z</time></trkpt><trkpt lat="44.1221767" lon="8.1466117"><ele>621.0</ele><time>2026-04-05T14:21:58.941Z</time></trkpt><trkpt lat="44.122175" lon="8.1467333"><ele>618.5</ele><time>2026-04-05T14:21:59.941Z</time></trkpt><trkpt lat="44.12219" lon="8.146835"><ele>616.0</ele><time>2026-04-05T14:22:00.942Z</time></trkpt><trkpt lat="44.12223" lon="8.1469267"><ele>613.5</ele><time>2026-04-05T14:22:01.941Z</time></trkpt><trkpt lat="44.1222833" lon="8.147005"><ele>611.0</ele><time>2026-04-05T14:22:02.941Z</time></trkpt><trkpt lat="44.1223583" lon="8.1470733"><ele>608.5</ele><time>2026-04-05T14:22:03.941Z</time></trkpt><trkpt lat="44.1224467" lon="8.14711"><ele>606.0</ele><time>2026-04-05T14:22:04.941Z</time></trkpt><trkpt lat="44.1225333" lon="8.1471333"><ele>606.0</ele><time>2026-04-05T14:22:05.942Z</time></trkpt><trkpt lat="44.1226267" lon="8.1471383"><ele>606.0</ele><time>2026-04-05T14:22:06.941Z</time></trkpt><trkpt lat="44.1227283" lon="8.147135"><ele>606.0</ele><time>2026-04-05T14:22:07.941Z</time></trkpt><trkpt lat="44.1228267" lon="8.14712"><ele>606.0</ele><time>2026-04-05T14:22:08.941Z</time></trkpt><trkpt lat="44.12291" lon="8.1470983"><ele>606.0</ele><time>2026-04-05T14:22:09.941Z</time></trkpt><trkpt lat="44.12299" lon="8.1470983"><ele>606.0</ele><time>2026-04-05T14:22:10.941Z</time></trkpt><trkpt lat="44.1230633" lon="8.1471333"><ele>606.0</ele><time>2026-04-05T14:22:11.941Z</time></trkpt><trkpt lat="44.1231233" lon="8.14719"><ele>606.0</ele><time>2026-04-05T14:22:12.941Z</time></trkpt><trkpt lat="44.1231733" lon="8.1472767"><ele>606.0</ele><time>2026-04-05T14:22:13.941Z</time></trkpt><trkpt lat="44.1232067" lon="8.1473767"><ele>606.0</ele><time>2026-04-05T14:22:14.941Z</time></trkpt><trkpt lat="44.1232133" lon="8.1474867"><ele>606.0</ele><time>2026-04-05T14:22:15.94Z</time></trkpt><trkpt lat="44.1232167" lon="8.147605"><ele>601.8</ele><time>2026-04-05T14:22:16.941Z</time></trkpt><trkpt lat="44.1232117" lon="8.1477383"><ele>597.6</ele><time>2026-04-05T14:22:17.941Z</time></trkpt><trkpt lat="44.1232033" lon="8.1478717"><ele>593.4</ele><time>2026-04-05T14:22:18.941Z</time></trkpt><trkpt lat="44.1231833" lon="8.148"><ele>589.2</ele><time>2026-04-05T14:22:19.941Z</time></trkpt><trkpt lat="44.1231533" lon="8.1481183"><ele>585.0</ele><time>2026-04-05T14:22:20.942Z</time></trkpt><trkpt lat="44.1231233" lon="8.1482233"><ele>584.4285714285714</ele><time>2026-04-05T14:22:21.942Z</time></trkpt><trkpt lat="44.1230817" lon="8.14832"><ele>583.8571428571429</ele><time>2026-04-05T14:22:22.941Z</time></trkpt><trkpt lat="44.1230433" lon="8.1483933"><ele>583.2857142857142</ele><time>2026-04-05T14:22:23.941Z</time></trkpt><trkpt lat="44.123" lon="8.14847"><ele>582.7142857142858</ele><time>2026-04-05T14:22:24.941Z</time></trkpt><trkpt lat="44.1229567" lon="8.1485467"><ele>582.1428571428571</ele><time>2026-04-05T14:22:25.941Z</time></trkpt><trkpt lat="44.1229167" lon="8.148625"><ele>581.5714285714286</ele><time>2026-04-05T14:22:26.941Z</time></trkpt><trkpt lat="44.1228733" lon="8.1487167"><ele>581.0</ele><time>2026-04-05T14:22:27.941Z</time></trkpt><trkpt lat="44.1228333" lon="8.148815"><ele>581.0</ele><time>2026-04-05T14:22:28.941Z</time></trkpt><trkpt lat="44.122805" lon="8.1489317"><ele>581.0</ele><time>2026-04-05T14:22:29.941Z</time></trkpt><trkpt lat="44.1227817" lon="8.1490467"><ele>581.0</ele><time>2026-04-05T14:22:30.941Z</time></trkpt><trkpt lat="44.1227617" lon="8.1491767"><ele>581.0</ele><time>2026-04-05T14:22:31.941Z</time></trkpt><trkpt lat="44.122725" lon="8.1493133"><ele>581.0</ele><time>2026-04-05T14:22:32.941Z</time></trkpt><trkpt lat="44.1226917" lon="8.1494533"><ele>580.8</ele><time>2026-04-05T14:22:33.941Z</time></trkpt><trkpt lat="44.12266" lon="8.1495917"><ele>580.6</ele><time>2026-04-05T14:22:34.942Z</time></trkpt><trkpt lat="44.1226433" lon="8.14974"><ele>580.4</ele><time>2026-04-05T14:22:35.941Z</time></trkpt><trkpt lat="44.1226233" lon="8.149895"><ele>580.2</ele><time>2026-04-05T14:22:36.941Z</time></trkpt><trkpt lat="44.122595" lon="8.1500333"><ele>580.0</ele><time>2026-04-05T14:22:37.941Z</time></trkpt><trkpt lat="44.122565" lon="8.1501617"><ele>580.0</ele><time>2026-04-05T14:22:38.941Z</time></trkpt><trkpt lat="44.1225283" lon="8.150285"><ele>580.0</ele><time>2026-04-05T14:22:39.941Z</time></trkpt><trkpt lat="44.1224933" lon="8.1504083"><ele>580.0</ele><time>2026-04-05T14:22:40.941Z</time></trkpt><trkpt lat="44.1224933" lon="8.15053"><ele>580.0</ele><time>2026-04-05T14:22:41.941Z</time></trkpt><trkpt lat="44.1225233" lon="8.1506467"><ele>580.0</ele><time>2026-04-05T14:22:42.941Z</time></trkpt><trkpt lat="44.1225833" lon="8.1507517"><ele>578.8</ele><time>2026-04-05T14:22:43.941Z</time></trkpt><trkpt lat="44.1226367" lon="8.150865"><ele>577.6</ele><time>2026-04-05T14:22:44.941Z</time></trkpt><trkpt lat="44.1226817" lon="8.150965"><ele>576.4</ele><time>2026-04-05T14:22:45.941Z</time></trkpt><trkpt lat="44.1226933" lon="8.1510783"><ele>575.2</ele><time>2026-04-05T14:22:46.941Z</time></trkpt><trkpt lat="44.122665" lon="8.1512017"><ele>574.0</ele><time>2026-04-05T14:22:47.941Z</time></trkpt><trkpt lat="44.1226167" lon="8.1513217"><ele>574.0</ele><time>2026-04-05T14:22:48.941Z</time></trkpt><trkpt lat="44.1225733" lon="8.1514417"><ele>574.0</ele><time>2026-04-05T14:22:49.942Z</time></trkpt><trkpt lat="44.1225417" lon="8.1515483"><ele>574.0</ele><time>2026-04-05T14:22:50.941Z</time></trkpt><trkpt lat="44.122525" lon="8.15166"><ele>574.0</ele><time>2026-04-05T14:22:51.941Z</time></trkpt><trkpt lat="44.1225317" lon="8.1517633"><ele>574.0</ele><time>2026-04-05T14:22:52.941Z</time></trkpt><trkpt lat="44.1225767" lon="8.15186"><ele>574.0</ele><time>2026-04-05T14:22:53.941Z</time></trkpt><trkpt lat="44.1226417" lon="8.1519333"><ele>572.5</ele><time>2026-04-05T14:22:54.941Z</time></trkpt><trkpt lat="44.1227083" lon="8.1519817"><ele>571.0</ele><time>2026-04-05T14:22:55.941Z</time></trkpt><trkpt lat="44.1227883" lon="8.1520117"><ele>569.5</ele><time>2026-04-05T14:22:56.941Z</time></trkpt><trkpt lat="44.1228717" lon="8.1520233"><ele>568.0</ele><time>2026-04-05T14:22:57.941Z</time></trkpt><trkpt lat="44.1229567" lon="8.152035"><ele>566.5</ele><time>2026-04-05T14:22:58.941Z</time></trkpt><trkpt lat="44.123045" lon="8.152025"><ele>565.0</ele><time>2026-04-05T14:22:59.941Z</time></trkpt><trkpt lat="44.1231317" lon="8.15202"><ele>565.0</ele><time>2026-04-05T14:23:00.941Z</time></trkpt><trkpt lat="44.1232067" lon="8.15203"><ele>565.0</ele><time>2026-04-05T14:23:01.941Z</time></trkpt><trkpt lat="44.12329" lon="8.1520733"><ele>565.0</ele><time>2026-04-05T14:23:02.941Z</time></trkpt><trkpt lat="44.1233567" lon="8.1521533"><ele>565.0</ele><time>2026-04-05T14:23:03.941Z</time></trkpt><trkpt lat="44.123425" lon="8.1522367"><ele>565.0</ele><time>2026-04-05T14:23:04.941Z</time></trkpt><trkpt lat="44.1234917" lon="8.152325"><ele>565.0</ele><time>2026-04-05T14:23:05.941Z</time></trkpt><trkpt lat="44.1235667" lon="8.1523983"><ele>563.1666666666667</ele><time>2026-04-05T14:23:06.941Z</time></trkpt><trkpt lat="44.1236383" lon="8.1524467"><ele>561.3333333333334</ele><time>2026-04-05T14:23:07.941Z</time></trkpt><trkpt lat="44.12371" lon="8.1524967"><ele>559.5</ele><time>2026-04-05T14:23:08.941Z</time></trkpt><trkpt lat="44.12378" lon="8.152545"><ele>557.6666666666666</ele><time>2026-04-05T14:23:09.941Z</time></trkpt><trkpt lat="44.1238517" lon="8.1525967"><ele>555.8333333333333</ele><time>2026-04-05T14:23:10.941Z</time></trkpt><trkpt lat="44.1239167" lon="8.1526467"><ele>554.0</ele><time>2026-04-05T14:23:11.941Z</time></trkpt><trkpt lat="44.123985" lon="8.1526933"><ele>556.3333333333333</ele><time>2026-04-05T14:23:12.941Z</time></trkpt><trkpt lat="44.1240683" lon="8.1527283"><ele>558.6666666666666</ele><time>2026-04-05T14:23:13.941Z</time></trkpt><trkpt lat="44.1241467" lon="8.15275"><ele>561.0</ele><time>2026-04-05T14:23:14.941Z</time></trkpt><trkpt lat="44.124225" lon="8.15279"><ele>563.3333333333334</ele><time>2026-04-05T14:23:15.941Z</time></trkpt><trkpt lat="44.1242983" lon="8.15285"><ele>565.6666666666667</ele><time>2026-04-05T14:23:16.941Z</time></trkpt><trkpt lat="44.12434" lon="8.15294"><ele>568.0</ele><time>2026-04-05T14:23:17.941Z</time></trkpt><trkpt lat="44.1243617" lon="8.153045"><ele>568.0</ele><time>2026-04-05T14:23:18.941Z</time></trkpt><trkpt lat="44.124355" lon="8.15317"><ele>568.0</ele><time>2026-04-05T14:23:19.941Z</time></trkpt><trkpt lat="44.1243583" lon="8.1532983"><ele>568.0</ele><time>2026-04-05T14:23:20.941Z</time></trkpt><trkpt lat="44.1243767" lon="8.1534267"><ele>568.0</ele><time>2026-04-05T14:23:21.942Z</time></trkpt><trkpt lat="44.12441" lon="8.153545"><ele>568.0</ele><time>2026-04-05T14:23:22.941Z</time></trkpt><trkpt lat="44.1244483" lon="8.1536583"><ele>563.4</ele><time>2026-04-05T14:23:23.942Z</time></trkpt><trkpt lat="44.124485" lon="8.1537733"><ele>558.8</ele><time>2026-04-05T14:23:24.941Z</time></trkpt><trkpt lat="44.1245133" lon="8.153895"><ele>554.2</ele><time>2026-04-05T14:23:25.942Z</time></trkpt><trkpt lat="44.1245417" lon="8.1540183"><ele>549.6</ele><time>2026-04-05T14:23:26.942Z</time></trkpt><trkpt lat="44.1245583" lon="8.1541367"><ele>545.0</ele><time>2026-04-05T14:23:27.942Z</time></trkpt><trkpt lat="44.12456" lon="8.1542683"><ele>542.0</ele><time>2026-04-05T14:23:28.941Z</time></trkpt><trkpt lat="44.1245517" lon="8.1544067"><ele>539.0</ele><time>2026-04-05T14:23:29.941Z</time></trkpt><trkpt lat="44.124535" lon="8.1545433"><ele>536.0</ele><time>2026-04-05T14:23:30.941Z</time></trkpt><trkpt lat="44.12451" lon="8.1546733"><ele>533.0</ele><time>2026-04-05T14:23:31.941Z</time></trkpt><trkpt lat="44.124495" lon="8.154805"><ele>530.0</ele><time>2026-04-05T14:23:32.941Z</time></trkpt><trkpt lat="44.124475" lon="8.1549317"><ele>528.6666666666666</ele><time>2026-04-05T14:23:33.941Z</time></trkpt><trkpt lat="44.1244717" lon="8.15505"><ele>527.3333333333333</ele><time>2026-04-05T14:23:34.941Z</time></trkpt><trkpt lat="44.1244933" lon="8.155155"><ele>526.0</ele><time>2026-04-05T14:23:35.941Z</time></trkpt><trkpt lat="44.124535" lon="8.1552317"><ele>524.6666666666666</ele><time>2026-04-05T14:23:36.941Z</time></trkpt><trkpt lat="44.1245917" lon="8.155275"><ele>523.3333333333334</ele><time>2026-04-05T14:23:37.941Z</time></trkpt><trkpt lat="44.1246717" lon="8.1553067"><ele>522.0</ele><time>2026-04-05T14:23:38.941Z</time></trkpt><trkpt lat="44.12476" lon="8.1553383"><ele>522.0</ele><time>2026-04-05T14:23:39.941Z</time></trkpt><trkpt lat="44.1248617" lon="8.15537"><ele>522.0</ele><time>2026-04-05T14:23:40.941Z</time></trkpt><trkpt lat="44.124975" lon="8.1554083"><ele>522.0</ele><time>2026-04-05T14:23:41.941Z</time></trkpt><trkpt lat="44.1250933" lon="8.1554783"><ele>522.0</ele><time>2026-04-05T14:23:42.941Z</time></trkpt><trkpt lat="44.125195" lon="8.1555583"><ele>520.4</ele><time>2026-04-05T14:23:43.942Z</time></trkpt><trkpt lat="44.1252833" lon="8.1556683"><ele>518.8000000000001</ele><time>2026-04-05T14:23:44.941Z</time></trkpt><trkpt lat="44.1253667" lon="8.15577"><ele>517.2</ele><time>2026-04-05T14:23:45.941Z</time></trkpt><trkpt lat="44.12545" lon="8.155855"><ele>515.6</ele><time>2026-04-05T14:23:46.941Z</time></trkpt><trkpt lat="44.1255317" lon="8.15593"><ele>514.0</ele><time>2026-04-05T14:23:47.941Z</time></trkpt><trkpt lat="44.1256233" lon="8.1559917"><ele>514.0</ele><time>2026-04-05T14:23:48.941Z</time></trkpt><trkpt lat="44.1257117" lon="8.1560683"><ele>514.0</ele><time>2026-04-05T14:23:49.941Z</time></trkpt><trkpt lat="44.1257883" lon="8.1561383"><ele>514.0</ele><time>2026-04-05T14:23:50.941Z</time></trkpt><trkpt lat="44.1258617" lon="8.156205"><ele>514.0</ele><time>2026-04-05T14:23:51.942Z</time></trkpt><trkpt lat="44.1259067" lon="8.15627"><ele>514.0</ele><time>2026-04-05T14:23:52.941Z</time></trkpt><trkpt lat="44.1259217" lon="8.1564117"><ele>514.0</ele><time>2026-04-05T14:23:54.941Z</time></trkpt><trkpt lat="44.1258383" lon="8.1564867"><ele>514.0</ele><time>2026-04-05T14:23:56.941Z</time></trkpt><trkpt lat="44.1257583" lon="8.1564733"><ele>514.0</ele><time>2026-04-05T14:23:57.941Z</time></trkpt><trkpt lat="44.125675" lon="8.156435"><ele>514.0</ele><time>2026-04-05T14:23:58.942Z</time></trkpt><trkpt lat="44.1255783" lon="8.1563667"><ele>514.0</ele><time>2026-04-05T14:23:59.941Z</time></trkpt><trkpt lat="44.1254817" lon="8.1562967"><ele>514.0</ele><time>2026-04-05T14:24:00.941Z</time></trkpt><trkpt lat="44.1253883" lon="8.156215"><ele>514.0</ele><time>2026-04-05T14:24:01.941Z</time></trkpt><trkpt lat="44.1252967" lon="8.156135"><ele>514.0</ele><time>2026-04-05T14:24:02.941Z</time></trkpt><trkpt lat="44.125215" lon="8.1560517"><ele>514.0</ele><time>2026-04-05T14:24:03.94Z</time></trkpt><trkpt lat="44.12513" lon="8.1559817"><ele>514.0</ele><time>2026-04-05T14:24:04.941Z</time></trkpt><trkpt lat="44.1250517" lon="8.15592"><ele>514.0</ele><time>2026-04-05T14:24:05.942Z</time></trkpt><trkpt lat="44.124955" lon="8.1558933"><ele>514.0</ele><time>2026-04-05T14:24:06.941Z</time></trkpt><trkpt lat="44.1248533" lon="8.1559117"><ele>514.0</ele><time>2026-04-05T14:24:07.942Z</time></trkpt><trkpt lat="44.1247567" lon="8.1559417"><ele>514.0</ele><time>2026-04-05T14:24:08.941Z</time></trkpt><trkpt lat="44.1246567" lon="8.155975"><ele>514.0</ele><time>2026-04-05T14:24:09.941Z</time></trkpt><trkpt lat="44.1245517" lon="8.1560067"><ele>511.75</ele><time>2026-04-05T14:24:10.941Z</time></trkpt><trkpt lat="44.1244483" lon="8.15604"><ele>509.5</ele><time>2026-04-05T14:24:11.941Z</time></trkpt><trkpt lat="44.12433" lon="8.1560567"><ele>507.25</ele><time>2026-04-05T14:24:12.941Z</time></trkpt><trkpt lat="44.1242083" lon="8.1560617"><ele>505.0</ele><time>2026-04-05T14:24:13.941Z</time></trkpt><trkpt lat="44.1240767" lon="8.156065"><ele>500.0</ele><time>2026-04-05T14:24:14.941Z</time></trkpt><trkpt lat="44.1239533" lon="8.1560633"><ele>495.0</ele><time>2026-04-05T14:24:15.941Z</time></trkpt><trkpt lat="44.12383" lon="8.15609"><ele>490.0</ele><time>2026-04-05T14:24:16.942Z</time></trkpt><trkpt lat="44.12372" lon="8.1561133"><ele>485.0</ele><time>2026-04-05T14:24:17.942Z</time></trkpt><trkpt lat="44.12363" lon="8.15613"><ele>484.99999999999994</ele><time>2026-04-05T14:24:18.941Z</time></trkpt><trkpt lat="44.12355" lon="8.1561433"><ele>485.0</ele><time>2026-04-05T14:24:19.941Z</time></trkpt><trkpt lat="44.123485" lon="8.1560983"><ele>485.0</ele><time>2026-04-05T14:24:20.941Z</time></trkpt><trkpt lat="44.1234283" lon="8.1560283"><ele>485.0</ele><time>2026-04-05T14:24:21.941Z</time></trkpt><trkpt lat="44.1233783" lon="8.155925"><ele>484.99999999999994</ele><time>2026-04-05T14:24:22.941Z</time></trkpt><trkpt lat="44.1233417" lon="8.155785"><ele>485.0</ele><time>2026-04-05T14:24:23.941Z</time></trkpt><trkpt lat="44.12333" lon="8.1556317"><ele>485.4</ele><time>2026-04-05T14:24:24.941Z</time></trkpt><trkpt lat="44.1233467" lon="8.1554917"><ele>485.8</ele><time>2026-04-05T14:24:25.941Z</time></trkpt><trkpt lat="44.1233683" lon="8.1553617"><ele>486.20000000000005</ele><time>2026-04-05T14:24:26.941Z</time></trkpt><trkpt lat="44.123385" lon="8.1552333"><ele>486.6</ele><time>2026-04-05T14:24:27.941Z</time></trkpt><trkpt lat="44.12339" lon="8.1550883"><ele>487.0</ele><time>2026-04-05T14:24:28.941Z</time></trkpt><trkpt lat="44.1233867" lon="8.1549467"><ele>488.40000000000003</ele><time>2026-04-05T14:24:29.941Z</time></trkpt><trkpt lat="44.123375" lon="8.1548"><ele>489.80000000000007</ele><time>2026-04-05T14:24:30.941Z</time></trkpt><trkpt lat="44.1233483" lon="8.1546567"><ele>491.2</ele><time>2026-04-05T14:24:31.941Z</time></trkpt><trkpt lat="44.1233317" lon="8.15453"><ele>492.6</ele><time>2026-04-05T14:24:32.941Z</time></trkpt><trkpt lat="44.1233033" lon="8.1544133"><ele>494.0</ele><time>2026-04-05T14:24:33.941Z</time></trkpt><trkpt lat="44.12326" lon="8.1543117"><ele>495.16666666666663</ele><time>2026-04-05T14:24:34.941Z</time></trkpt><trkpt lat="44.1232117" lon="8.154225"><ele>496.3333333333333</ele><time>2026-04-05T14:24:35.942Z</time></trkpt><trkpt lat="44.1231567" lon="8.1541383"><ele>497.5</ele><time>2026-04-05T14:24:36.941Z</time></trkpt><trkpt lat="44.1230917" lon="8.1540617"><ele>498.66666666666663</ele><time>2026-04-05T14:24:37.941Z</time></trkpt><trkpt lat="44.1230183" lon="8.154"><ele>499.8333333333333</ele><time>2026-04-05T14:24:38.942Z</time></trkpt><trkpt lat="44.12293" lon="8.15396"><ele>501.0</ele><time>2026-04-05T14:24:39.941Z</time></trkpt><trkpt lat="44.122835" lon="8.15392"><ele>501.0</ele><time>2026-04-05T14:24:40.941Z</time></trkpt><trkpt lat="44.1227317" lon="8.1539067"><ele>501.0</ele><time>2026-04-05T14:24:41.941Z</time></trkpt><trkpt lat="44.1226417" lon="8.1539133"><ele>501.0</ele><time>2026-04-05T14:24:42.941Z</time></trkpt><trkpt lat="44.1225567" lon="8.1539583"><ele>501.0</ele><time>2026-04-05T14:24:43.941Z</time></trkpt><trkpt lat="44.1224817" lon="8.1540517"><ele>501.0</ele><time>2026-04-05T14:24:44.941Z</time></trkpt><trkpt lat="44.122415" lon="8.1541533"><ele>494.1666666666667</ele><time>2026-04-05T14:24:45.941Z</time></trkpt><trkpt lat="44.1223467" lon="8.1542333"><ele>487.33333333333337</ele><time>2026-04-05T14:24:46.941Z</time></trkpt><trkpt lat="44.122285" lon="8.1542933"><ele>480.5</ele><time>2026-04-05T14:24:47.941Z</time></trkpt><trkpt lat="44.1222117" lon="8.1543133"><ele>473.6666666666667</ele><time>2026-04-05T14:24:48.941Z</time></trkpt><trkpt lat="44.1221367" lon="8.1543033"><ele>466.83333333333337</ele><time>2026-04-05T14:24:49.941Z</time></trkpt><trkpt lat="44.12206" lon="8.1542517"><ele>460.0</ele><time>2026-04-05T14:24:50.941Z</time></trkpt><trkpt lat="44.1219883" lon="8.15418"><ele>460.0</ele><time>2026-04-05T14:24:51.941Z</time></trkpt><trkpt lat="44.1219267" lon="8.1541017"><ele>460.0</ele><time>2026-04-05T14:24:52.941Z</time></trkpt><trkpt lat="44.1218717" lon="8.1539967"><ele>460.0</ele><time>2026-04-05T14:24:53.941Z</time></trkpt><trkpt lat="44.1218067" lon="8.1538983"><ele>460.0</ele><time>2026-04-05T14:24:54.942Z</time></trkpt><trkpt lat="44.12176" lon="8.1537633"><ele>460.0</ele><time>2026-04-05T14:24:55.941Z</time></trkpt><trkpt lat="44.1217033" lon="8.1536467"><ele>460.00000000000006</ele><time>2026-04-05T14:24:56.942Z</time></trkpt><trkpt lat="44.1216433" lon="8.1535583"><ele>460.0</ele><time>2026-04-05T14:24:57.941Z</time></trkpt><trkpt lat="44.121575" lon="8.15352"><ele>460.0</ele><time>2026-04-05T14:24:58.941Z</time></trkpt><trkpt lat="44.1215017" lon="8.1535067"><ele>460.0</ele><time>2026-04-05T14:24:59.941Z</time></trkpt><trkpt lat="44.1214267" lon="8.15352"><ele>460.00000000000006</ele><time>2026-04-05T14:25:00.941Z</time></trkpt><trkpt lat="44.121355" lon="8.1535733"><ele>460.0</ele><time>2026-04-05T14:25:01.941Z</time></trkpt><trkpt lat="44.1212783" lon="8.1536283"><ele>460.00000000000006</ele><time>2026-04-05T14:25:02.942Z</time></trkpt><trkpt lat="44.12121" lon="8.1536867"><ele>460.0</ele><time>2026-04-05T14:25:03.941Z</time></trkpt><trkpt lat="44.1211433" lon="8.1537467"><ele>460.0</ele><time>2026-04-05T14:25:04.941Z</time></trkpt><trkpt lat="44.12108" lon="8.153795"><ele>460.0</ele><time>2026-04-05T14:25:05.941Z</time></trkpt><trkpt lat="44.1210083" lon="8.1538067"><ele>460.00000000000006</ele><time>2026-04-05T14:25:06.942Z</time></trkpt><trkpt lat="44.1209317" lon="8.153775"><ele>460.0</ele><time>2026-04-05T14:25:07.941Z</time></trkpt><trkpt lat="44.1208783" lon="8.153705"><ele>460.00000000000006</ele><time>2026-04-05T14:25:08.941Z</time></trkpt><trkpt lat="44.1208283" lon="8.1536183"><ele>460.0</ele><time>2026-04-05T14:25:09.941Z</time></trkpt><trkpt lat="44.1208033" lon="8.1535083"><ele>460.0</ele><time>2026-04-05T14:25:10.941Z</time></trkpt><trkpt lat="44.120795" lon="8.1533867"><ele>460.0</ele><time>2026-04-05T14:25:11.941Z</time></trkpt><trkpt lat="44.1207883" lon="8.1532567"><ele>460.00000000000006</ele><time>2026-04-05T14:25:12.941Z</time></trkpt><trkpt lat="44.12077" lon="8.1531233"><ele>460.0</ele><time>2026-04-05T14:25:13.941Z</time></trkpt><trkpt lat="44.120755" lon="8.1529917"><ele>456.4</ele><time>2026-04-05T14:25:14.941Z</time></trkpt><trkpt lat="44.1207317" lon="8.152865"><ele>452.8</ele><time>2026-04-05T14:25:15.941Z</time></trkpt><trkpt lat="44.1207133" lon="8.15274"><ele>449.20000000000005</ele><time>2026-04-05T14:25:16.941Z</time></trkpt><trkpt lat="44.1206983" lon="8.1526083"><ele>445.6</ele><time>2026-04-05T14:25:17.941Z</time></trkpt><trkpt lat="44.12067" lon="8.1524817"><ele>442.0</ele><time>2026-04-05T14:25:18.942Z</time></trkpt><trkpt lat="44.1206333" lon="8.1523633"><ele>442.00000000000006</ele><time>2026-04-05T14:25:19.941Z</time></trkpt><trkpt lat="44.12058" lon="8.152265"><ele>442.0</ele><time>2026-04-05T14:25:20.941Z</time></trkpt><trkpt lat="44.12052" lon="8.152185"><ele>442.0</ele><time>2026-04-05T14:25:21.941Z</time></trkpt><trkpt lat="44.1204467" lon="8.152135"><ele>442.0</ele><time>2026-04-05T14:25:22.941Z</time></trkpt><trkpt lat="44.1203733" lon="8.152065"><ele>442.00000000000006</ele><time>2026-04-05T14:25:23.941Z</time></trkpt><trkpt lat="44.1203083" lon="8.1519933"><ele>442.0</ele><time>2026-04-05T14:25:24.941Z</time></trkpt><trkpt lat="44.1202617" lon="8.1518933"><ele>442.0</ele><time>2026-04-05T14:25:25.942Z</time></trkpt><trkpt lat="44.12023" lon="8.1517767"><ele>442.00000000000006</ele><time>2026-04-05T14:25:26.941Z</time></trkpt><trkpt lat="44.1202067" lon="8.1516583"><ele>442.00000000000006</ele><time>2026-04-05T14:25:27.941Z</time></trkpt><trkpt lat="44.1201833" lon="8.1515583"><ele>442.0</ele><time>2026-04-05T14:25:28.941Z</time></trkpt><trkpt lat="44.1200967" lon="8.1514667"><ele>442.0</ele><time>2026-04-05T14:25:30.941Z</time></trkpt><trkpt lat="44.120035" lon="8.1515967"><ele>442.00000000000006</ele><time>2026-04-05T14:25:32.941Z</time></trkpt><trkpt lat="44.1200517" lon="8.1516917"><ele>442.0</ele><time>2026-04-05T14:25:33.941Z</time></trkpt><trkpt lat="44.1200817" lon="8.1517883"><ele>442.0</ele><time>2026-04-05T14:25:34.941Z</time></trkpt><trkpt lat="44.1201083" lon="8.151895"><ele>442.0</ele><time>2026-04-05T14:25:35.941Z</time></trkpt><trkpt lat="44.120135" lon="8.15201"><ele>442.00000000000006</ele><time>2026-04-05T14:25:36.941Z</time></trkpt><trkpt lat="44.120185" lon="8.15212"><ele>442.0</ele><time>2026-04-05T14:25:37.941Z</time></trkpt><trkpt lat="44.1202483" lon="8.1522267"><ele>442.00000000000006</ele><time>2026-04-05T14:25:38.941Z</time></trkpt><trkpt lat="44.1203117" lon="8.152325"><ele>442.0</ele><time>2026-04-05T14:25:39.941Z</time></trkpt><trkpt lat="44.120345" lon="8.1524283"><ele>442.0</ele><time>2026-04-05T14:25:40.942Z</time></trkpt><trkpt lat="44.1203633" lon="8.1525417"><ele>442.0</ele><time>2026-04-05T14:25:41.941Z</time></trkpt><trkpt lat="44.1203633" lon="8.152665"><ele>442.00000000000006</ele><time>2026-04-05T14:25:42.941Z</time></trkpt><trkpt lat="44.1203433" lon="8.1527867"><ele>442.0</ele><time>2026-04-05T14:25:43.941Z</time></trkpt><trkpt lat="44.12033" lon="8.1529083"><ele>440.6</ele><time>2026-04-05T14:25:44.941Z</time></trkpt><trkpt lat="44.120325" lon="8.153035"><ele>439.20000000000005</ele><time>2026-04-05T14:25:45.942Z</time></trkpt><trkpt lat="44.1203367" lon="8.1531683"><ele>437.8</ele><time>2026-04-05T14:25:46.941Z</time></trkpt><trkpt lat="44.120345" lon="8.1533117"><ele>436.4</ele><time>2026-04-05T14:25:47.941Z</time></trkpt><trkpt lat="44.1203283" lon="8.1534483"><ele>435.0</ele><time>2026-04-05T14:25:48.941Z</time></trkpt><trkpt lat="44.1202967" lon="8.1535783"><ele>434.0</ele><time>2026-04-05T14:25:49.942Z</time></trkpt><trkpt lat="44.1202617" lon="8.1536933"><ele>433.0</ele><time>2026-04-05T14:25:50.941Z</time></trkpt><trkpt lat="44.1202317" lon="8.1538033"><ele>432.0</ele><time>2026-04-05T14:25:51.941Z</time></trkpt><trkpt lat="44.1202" lon="8.15391"><ele>431.0</ele><time>2026-04-05T14:25:52.941Z</time></trkpt><trkpt lat="44.120185" lon="8.154015"><ele>430.0</ele><time>2026-04-05T14:25:53.941Z</time></trkpt><trkpt lat="44.1201867" lon="8.1541233"><ele>429.0</ele><time>2026-04-05T14:25:54.941Z</time></trkpt><trkpt lat="44.120205" lon="8.1542233"><ele>428.1666666666667</ele><time>2026-04-05T14:25:55.941Z</time></trkpt><trkpt lat="44.1202633" lon="8.1543"><ele>427.33333333333337</ele><time>2026-04-05T14:25:56.941Z</time></trkpt><trkpt lat="44.1203217" lon="8.1543533"><ele>426.5</ele><time>2026-04-05T14:25:57.941Z</time></trkpt><trkpt lat="44.1204033" lon="8.15437"><ele>425.6666666666667</ele><time>2026-04-05T14:25:58.942Z</time></trkpt><trkpt lat="44.1204983" lon="8.15437"><ele>424.83333333333337</ele><time>2026-04-05T14:25:59.941Z</time></trkpt><trkpt lat="44.1206" lon="8.1543667"><ele>424.0</ele><time>2026-04-05T14:26:00.941Z</time></trkpt><trkpt lat="44.1206933" lon="8.15438"><ele>427.33333333333337</ele><time>2026-04-05T14:26:01.941Z</time></trkpt><trkpt lat="44.12078" lon="8.15441"><ele>430.6666666666667</ele><time>2026-04-05T14:26:02.941Z</time></trkpt><trkpt lat="44.1208683" lon="8.1544283"><ele>434.0</ele><time>2026-04-05T14:26:03.941Z</time></trkpt><trkpt lat="44.1209467" lon="8.154455"><ele>437.33333333333337</ele><time>2026-04-05T14:26:04.941Z</time></trkpt><trkpt lat="44.1210233" lon="8.1544583"><ele>440.6666666666667</ele><time>2026-04-05T14:26:05.941Z</time></trkpt><trkpt lat="44.121095" lon="8.1544517"><ele>444.0</ele><time>2026-04-05T14:26:06.941Z</time></trkpt><trkpt lat="44.1211767" lon="8.1544417"><ele>444.0</ele><time>2026-04-05T14:26:07.941Z</time></trkpt><trkpt lat="44.1212567" lon="8.1544633"><ele>444.0</ele><time>2026-04-05T14:26:08.941Z</time></trkpt><trkpt lat="44.1213267" lon="8.1545167"><ele>444.0</ele><time>2026-04-05T14:26:09.941Z</time></trkpt><trkpt lat="44.1213867" lon="8.15459"><ele>444.0</ele><time>2026-04-05T14:26:10.941Z</time></trkpt><trkpt lat="44.12143" lon="8.1546883"><ele>444.0</ele><time>2026-04-05T14:26:11.941Z</time></trkpt><trkpt lat="44.121475" lon="8.1548"><ele>444.0</ele><time>2026-04-05T14:26:12.941Z</time></trkpt><trkpt lat="44.1215167" lon="8.1549133"><ele>441.6</ele><time>2026-04-05T14:26:13.941Z</time></trkpt><trkpt lat="44.12157" lon="8.15502"><ele>439.2</ele><time>2026-04-05T14:26:14.942Z</time></trkpt><trkpt lat="44.121645" lon="8.155115"><ele>436.80000000000007</ele><time>2026-04-05T14:26:15.941Z</time></trkpt><trkpt lat="44.1217333" lon="8.1551883"><ele>434.40000000000003</ele><time>2026-04-05T14:26:16.941Z</time></trkpt><trkpt lat="44.1218117" lon="8.1552517"><ele>432.0</ele><time>2026-04-05T14:26:17.941Z</time></trkpt><trkpt lat="44.121875" lon="8.1553283"><ele>432.0</ele><time>2026-04-05T14:26:18.941Z</time></trkpt><trkpt lat="44.1219183" lon="8.1554117"><ele>432.0</ele><time>2026-04-05T14:26:19.941Z</time></trkpt><trkpt lat="44.1219417" lon="8.155495"><ele>432.0</ele><time>2026-04-05T14:26:20.941Z</time></trkpt><trkpt lat="44.1219283" lon="8.1555817"><ele>432.0</ele><time>2026-04-05T14:26:21.941Z</time></trkpt><trkpt lat="44.1218867" lon="8.1556617"><ele>432.0</ele><time>2026-04-05T14:26:22.941Z</time></trkpt><trkpt lat="44.1218233" lon="8.15573"><ele>432.0</ele><time>2026-04-05T14:26:23.941Z</time></trkpt><trkpt lat="44.1217617" lon="8.155795"><ele>432.0</ele><time>2026-04-05T14:26:24.941Z</time></trkpt><trkpt lat="44.121715" lon="8.1558817"><ele>429.6666666666667</ele><time>2026-04-05T14:26:25.941Z</time></trkpt><trkpt lat="44.1216833" lon="8.1559583"><ele>427.33333333333337</ele><time>2026-04-05T14:26:26.941Z</time></trkpt><trkpt lat="44.12168" lon="8.1560617"><ele>425.0</ele><time>2026-04-05T14:26:27.942Z</time></trkpt><trkpt lat="44.12172" lon="8.1562217"><ele>422.6666666666667</ele><time>2026-04-05T14:26:29.941Z</time></trkpt><trkpt lat="44.1217533" lon="8.1563033"><ele>420.33333333333337</ele><time>2026-04-05T14:26:30.941Z</time></trkpt><trkpt lat="44.12178" lon="8.1563917"><ele>418.0</ele><time>2026-04-05T14:26:31.942Z</time></trkpt><trkpt lat="44.1218" lon="8.1564917"><ele>417.6666666666667</ele><time>2026-04-05T14:26:32.941Z</time></trkpt><trkpt lat="44.1218217" lon="8.1566"><ele>417.33333333333337</ele><time>2026-04-05T14:26:33.941Z</time></trkpt><trkpt lat="44.12184" lon="8.15671"><ele>417.0</ele><time>2026-04-05T14:26:34.942Z</time></trkpt><trkpt lat="44.1218433" lon="8.15681"><ele>416.66666666666663</ele><time>2026-04-05T14:26:35.942Z</time></trkpt><trkpt lat="44.121835" lon="8.156915"><ele>416.3333333333333</ele><time>2026-04-05T14:26:36.941Z</time></trkpt><trkpt lat="44.12182" lon="8.1570133"><ele>416.0</ele><time>2026-04-05T14:26:37.941Z</time></trkpt><trkpt lat="44.121815" lon="8.157115"><ele>416.0</ele><time>2026-04-05T14:26:38.941Z</time></trkpt><trkpt lat="44.1217933" lon="8.1572067"><ele>416.0</ele><time>2026-04-05T14:26:39.941Z</time></trkpt><trkpt lat="44.1217683" lon="8.1572917"><ele>416.0</ele><time>2026-04-05T14:26:40.941Z</time></trkpt><trkpt lat="44.1217383" lon="8.1573733"><ele>416.0</ele><time>2026-04-05T14:26:41.941Z</time></trkpt><trkpt lat="44.1217117" lon="8.157455"><ele>416.0</ele><time>2026-04-05T14:26:42.941Z</time></trkpt><trkpt lat="44.1216867" lon="8.1575383"><ele>416.0</ele><time>2026-04-05T14:26:43.941Z</time></trkpt><trkpt lat="44.12167" lon="8.1576267"><ele>416.0</ele><time>2026-04-05T14:26:44.941Z</time></trkpt><trkpt lat="44.1216517" lon="8.1577117"><ele>415.8333333333333</ele><time>2026-04-05T14:26:45.941Z</time></trkpt><trkpt lat="44.1216417" lon="8.1578117"><ele>415.66666666666663</ele><time>2026-04-05T14:26:46.941Z</time></trkpt><trkpt lat="44.1216383" lon="8.1579083"><ele>415.5</ele><time>2026-04-05T14:26:47.941Z</time></trkpt><trkpt lat="44.1216383" lon="8.1580033"><ele>415.33333333333337</ele><time>2026-04-05T14:26:48.941Z</time></trkpt><trkpt lat="44.1216367" lon="8.1581067"><ele>415.1666666666667</ele><time>2026-04-05T14:26:49.941Z</time></trkpt><trkpt lat="44.1216333" lon="8.1582017"><ele>415.0</ele><time>2026-04-05T14:26:50.942Z</time></trkpt><trkpt lat="44.121625" lon="8.158375"><ele>414.50000000000006</ele><time>2026-04-05T14:26:52.942Z</time></trkpt><trkpt lat="44.1216517" lon="8.1585317"><ele>414.0</ele><time>2026-04-05T14:26:54.942Z</time></trkpt><trkpt lat="44.12173" lon="8.1586317"><ele>413.5</ele><time>2026-04-05T14:26:56.941Z</time></trkpt><trkpt lat="44.121795" lon="8.1586433"><ele>413.0</ele><time>2026-04-05T14:26:57.942Z</time></trkpt><trkpt lat="44.1218617" lon="8.1586367"><ele>412.50000000000006</ele><time>2026-04-05T14:26:58.942Z</time></trkpt><trkpt lat="44.1219467" lon="8.1586133"><ele>412.0</ele><time>2026-04-05T14:26:59.941Z</time></trkpt><trkpt lat="44.1220417" lon="8.1585767"><ele>412.00000000000006</ele><time>2026-04-05T14:27:00.941Z</time></trkpt><trkpt lat="44.1221233" lon="8.1585217"><ele>412.0</ele><time>2026-04-05T14:27:01.941Z</time></trkpt><trkpt lat="44.1221983" lon="8.1584717"><ele>412.0</ele><time>2026-04-05T14:27:02.941Z</time></trkpt><trkpt lat="44.1222783" lon="8.1584117"><ele>412.0</ele><time>2026-04-05T14:27:03.942Z</time></trkpt><trkpt lat="44.1223583" lon="8.1583567"><ele>412.00000000000006</ele><time>2026-04-05T14:27:04.941Z</time></trkpt><trkpt lat="44.1224383" lon="8.1583167"><ele>412.0</ele><time>2026-04-05T14:27:05.941Z</time></trkpt><trkpt lat="44.12251" lon="8.1582883"><ele>411.33333333333337</ele><time>2026-04-05T14:27:06.941Z</time></trkpt><trkpt lat="44.1225917" lon="8.1582633"><ele>410.6666666666667</ele><time>2026-04-05T14:27:07.941Z</time></trkpt><trkpt lat="44.1226867" lon="8.1582683"><ele>410.0</ele><time>2026-04-05T14:27:08.941Z</time></trkpt><trkpt lat="44.1227817" lon="8.1582917"><ele>409.33333333333337</ele><time>2026-04-05T14:27:09.941Z</time></trkpt><trkpt lat="44.12287" lon="8.15832"><ele>408.6666666666667</ele><time>2026-04-05T14:27:10.941Z</time></trkpt><trkpt lat="44.1229483" lon="8.1583367"><ele>408.0</ele><time>2026-04-05T14:27:11.941Z</time></trkpt><trkpt lat="44.1230333" lon="8.15835"><ele>408.0</ele><time>2026-04-05T14:27:12.941Z</time></trkpt><trkpt lat="44.1231033" lon="8.1583567"><ele>408.0</ele><time>2026-04-05T14:27:13.941Z</time></trkpt><trkpt lat="44.1231817" lon="8.1583483"><ele>408.0</ele><time>2026-04-05T14:27:14.941Z</time></trkpt><trkpt lat="44.1232633" lon="8.1583233"><ele>408.0</ele><time>2026-04-05T14:27:15.941Z</time></trkpt><trkpt lat="44.1233467" lon="8.1582633"><ele>408.0</ele><time>2026-04-05T14:27:16.941Z</time></trkpt><trkpt lat="44.123445" lon="8.1582317"><ele>408.0</ele><time>2026-04-05T14:27:17.941Z</time></trkpt><trkpt lat="44.1235367" lon="8.1581983"><ele>413.0</ele><time>2026-04-05T14:27:18.941Z</time></trkpt><trkpt lat="44.1236367" lon="8.158165"><ele>418.0</ele><time>2026-04-05T14:27:19.942Z</time></trkpt><trkpt lat="44.1237317" lon="8.1581467"><ele>422.99999999999994</ele><time>2026-04-05T14:27:20.941Z</time></trkpt><trkpt lat="44.1238233" lon="8.1581433"><ele>428.0</ele><time>2026-04-05T14:27:21.941Z</time></trkpt><trkpt lat="44.12392" lon="8.1581517"><ele>433.0</ele><time>2026-04-05T14:27:22.941Z</time></trkpt><trkpt lat="44.12402" lon="8.15818"><ele>427.79999999999995</ele><time>2026-04-05T14:27:23.941Z</time></trkpt><trkpt lat="44.124115" lon="8.1582117"><ele>422.59999999999997</ele><time>2026-04-05T14:27:24.941Z</time></trkpt><trkpt lat="44.1242133" lon="8.1582533"><ele>417.4</ele><time>2026-04-05T14:27:25.941Z</time></trkpt><trkpt lat="44.1243083" lon="8.1583017"><ele>412.20000000000005</ele><time>2026-04-05T14:27:26.941Z</time></trkpt><trkpt lat="44.124395" lon="8.15837"><ele>407.0</ele><time>2026-04-05T14:27:27.942Z</time></trkpt><trkpt lat="44.12448" lon="8.15844"><ele>407.0</ele><time>2026-04-05T14:27:28.941Z</time></trkpt><trkpt lat="44.1245683" lon="8.158515"><ele>407.0</ele><time>2026-04-05T14:27:29.942Z</time></trkpt><trkpt lat="44.1246533" lon="8.1585867"><ele>407.0</ele><time>2026-04-05T14:27:30.941Z</time></trkpt><trkpt lat="44.1247367" lon="8.1586817"><ele>407.0</ele><time>2026-04-05T14:27:31.941Z</time></trkpt><trkpt lat="44.1248133" lon="8.1587917"><ele>407.0</ele><time>2026-04-05T14:27:32.941Z</time></trkpt><trkpt lat="44.1248783" lon="8.15893"><ele>405.8</ele><time>2026-04-05T14:27:33.941Z</time></trkpt><trkpt lat="44.124935" lon="8.1590683"><ele>404.6</ele><time>2026-04-05T14:27:34.941Z</time></trkpt><trkpt lat="44.125005" lon="8.1591883"><ele>403.40000000000003</ele><time>2026-04-05T14:27:35.941Z</time></trkpt><trkpt lat="44.12507" lon="8.1593117"><ele>402.20000000000005</ele><time>2026-04-05T14:27:36.941Z</time></trkpt><trkpt lat="44.1251383" lon="8.1594167"><ele>401.0</ele><time>2026-04-05T14:27:37.941Z</time></trkpt><trkpt lat="44.12521" lon="8.15952"><ele>401.0</ele><time>2026-04-05T14:27:38.941Z</time></trkpt><trkpt lat="44.12529" lon="8.15959"><ele>401.0</ele><time>2026-04-05T14:27:39.942Z</time></trkpt><trkpt lat="44.1253733" lon="8.1596267"><ele>401.0</ele><time>2026-04-05T14:27:40.941Z</time></trkpt><trkpt lat="44.1254483" lon="8.15963"><ele>401.0</ele><time>2026-04-05T14:27:41.941Z</time></trkpt><trkpt lat="44.125545" lon="8.15959"><ele>401.0</ele><time>2026-04-05T14:27:42.941Z</time></trkpt><trkpt lat="44.1256433" lon="8.1595283"><ele>403.0</ele><time>2026-04-05T14:27:43.941Z</time></trkpt><trkpt lat="44.1257467" lon="8.15945"><ele>405.0</ele><time>2026-04-05T14:27:44.941Z</time></trkpt><trkpt lat="44.12583" lon="8.1593817"><ele>407.0</ele><time>2026-04-05T14:27:45.941Z</time></trkpt><trkpt lat="44.125915" lon="8.1593267"><ele>409.0</ele><time>2026-04-05T14:27:46.942Z</time></trkpt><trkpt lat="44.1259983" lon="8.1593017"><ele>411.0</ele><time>2026-04-05T14:27:47.941Z</time></trkpt><trkpt lat="44.1260833" lon="8.1593117"><ele>411.0</ele><time>2026-04-05T14:27:48.941Z</time></trkpt><trkpt lat="44.1261617" lon="8.159345"><ele>411.0</ele><time>2026-04-05T14:27:49.941Z</time></trkpt><trkpt lat="44.12624" lon="8.15939"><ele>411.0</ele><time>2026-04-05T14:27:50.941Z</time></trkpt><trkpt lat="44.1263183" lon="8.1594217"><ele>411.0</ele><time>2026-04-05T14:27:51.941Z</time></trkpt><trkpt lat="44.1263917" lon="8.159445"><ele>411.0</ele><time>2026-04-05T14:27:52.941Z</time></trkpt><trkpt lat="44.12647" lon="8.1594467"><ele>411.0</ele><time>2026-04-05T14:27:53.942Z</time></trkpt><trkpt lat="44.1265517" lon="8.1594167"><ele>409.1666666666667</ele><time>2026-04-05T14:27:54.941Z</time></trkpt><trkpt lat="44.1266417" lon="8.1593683"><ele>407.33333333333337</ele><time>2026-04-05T14:27:55.941Z</time></trkpt><trkpt lat="44.1267233" lon="8.1593183"><ele>405.5</ele><time>2026-04-05T14:27:56.941Z</time></trkpt><trkpt lat="44.1267933" lon="8.1592833"><ele>403.6666666666667</ele><time>2026-04-05T14:27:57.941Z</time></trkpt><trkpt lat="44.1268583" lon="8.1592517"><ele>401.83333333333337</ele><time>2026-04-05T14:27:58.941Z</time></trkpt><trkpt lat="44.1269283" lon="8.1592133"><ele>400.0</ele><time>2026-04-05T14:27:59.941Z</time></trkpt><trkpt lat="44.1269967" lon="8.1591817"><ele>400.0</ele><time>2026-04-05T14:28:00.941Z</time></trkpt><trkpt lat="44.1271333" lon="8.159145"><ele>400.0</ele><time>2026-04-05T14:28:02.941Z</time></trkpt><trkpt lat="44.1272117" lon="8.1591533"><ele>400.0</ele><time>2026-04-05T14:28:03.942Z</time></trkpt><trkpt lat="44.1272833" lon="8.15917"><ele>400.0</ele><time>2026-04-05T14:28:04.941Z</time></trkpt><trkpt lat="44.1273733" lon="8.159265"><ele>400.0</ele><time>2026-04-05T14:28:06.941Z</time></trkpt><trkpt lat="44.1274083" lon="8.1594267"><ele>400.00000000000006</ele><time>2026-04-05T14:28:08.942Z</time></trkpt><trkpt lat="44.1273917" lon="8.1595217"><ele>400.0</ele><time>2026-04-05T14:28:09.941Z</time></trkpt><trkpt lat="44.12735" lon="8.1596083"><ele>400.0</ele><time>2026-04-05T14:28:10.941Z</time></trkpt><trkpt lat="44.1273" lon="8.1597"><ele>400.0</ele><time>2026-04-05T14:28:11.941Z</time></trkpt><trkpt lat="44.1272567" lon="8.1597933"><ele>400.00000000000006</ele><time>2026-04-05T14:28:12.941Z</time></trkpt><trkpt lat="44.127215" lon="8.1598983"><ele>400.0</ele><time>2026-04-05T14:28:13.941Z</time></trkpt><trkpt lat="44.12717" lon="8.1600033"><ele>394.8</ele><time>2026-04-05T14:28:14.941Z</time></trkpt><trkpt lat="44.1271117" lon="8.1601067"><ele>389.6</ele><time>2026-04-05T14:28:15.941Z</time></trkpt><trkpt lat="44.1270567" lon="8.160215"><ele>384.4</ele><time>2026-04-05T14:28:16.941Z</time></trkpt><trkpt lat="44.1269917" lon="8.16033"><ele>379.2</ele><time>2026-04-05T14:28:17.941Z</time></trkpt><trkpt lat="44.1269283" lon="8.16045"><ele>374.0</ele><time>2026-04-05T14:28:18.942Z</time></trkpt><trkpt lat="44.12687" lon="8.160555"><ele>374.0</ele><time>2026-04-05T14:28:19.942Z</time></trkpt><trkpt lat="44.12681" lon="8.160665"><ele>374.0</ele><time>2026-04-05T14:28:20.941Z</time></trkpt><trkpt lat="44.126735" lon="8.1607633"><ele>374.0</ele><time>2026-04-05T14:28:21.941Z</time></trkpt><trkpt lat="44.1266683" lon="8.16088"><ele>374.0</ele><time>2026-04-05T14:28:22.941Z</time></trkpt><trkpt lat="44.1266067" lon="8.160995"><ele>374.0</ele><time>2026-04-05T14:28:23.942Z</time></trkpt><trkpt lat="44.12656" lon="8.1611167"><ele>371.0</ele><time>2026-04-05T14:28:24.941Z</time></trkpt><trkpt lat="44.1265117" lon="8.1612383"><ele>368.0</ele><time>2026-04-05T14:28:25.941Z</time></trkpt><trkpt lat="44.1264633" lon="8.1613533"><ele>365.0</ele><time>2026-04-05T14:28:26.941Z</time></trkpt><trkpt lat="44.1264083" lon="8.16145"><ele>362.0</ele><time>2026-04-05T14:28:27.941Z</time></trkpt><trkpt lat="44.12634" lon="8.1615383"><ele>359.0</ele><time>2026-04-05T14:28:28.941Z</time></trkpt><trkpt lat="44.126275" lon="8.161625"><ele>359.0</ele><time>2026-04-05T14:28:29.941Z</time></trkpt><trkpt lat="44.12622" lon="8.16171"><ele>359.0</ele><time>2026-04-05T14:28:30.942Z</time></trkpt><trkpt lat="44.1261683" lon="8.1618117"><ele>359.0</ele><time>2026-04-05T14:28:31.941Z</time></trkpt><trkpt lat="44.1261433" lon="8.1619317"><ele>359.0</ele><time>2026-04-05T14:28:32.941Z</time></trkpt><trkpt lat="44.126125" lon="8.1620467"><ele>359.0</ele><time>2026-04-05T14:28:33.941Z</time></trkpt><trkpt lat="44.12611" lon="8.162175"><ele>359.0</ele><time>2026-04-05T14:28:34.941Z</time></trkpt><trkpt lat="44.1261017" lon="8.1623"><ele>360.6</ele><time>2026-04-05T14:28:35.941Z</time></trkpt><trkpt lat="44.1260967" lon="8.16243"><ele>362.2</ele><time>2026-04-05T14:28:36.941Z</time></trkpt><trkpt lat="44.1261033" lon="8.1625517"><ele>363.8</ele><time>2026-04-05T14:28:37.941Z</time></trkpt><trkpt lat="44.1261033" lon="8.16268"><ele>365.40000000000003</ele><time>2026-04-05T14:28:38.941Z</time></trkpt><trkpt lat="44.1261033" lon="8.1628083"><ele>367.0</ele><time>2026-04-05T14:28:39.941Z</time></trkpt><trkpt lat="44.126095" lon="8.162935"><ele>367.0</ele><time>2026-04-05T14:28:40.941Z</time></trkpt><trkpt lat="44.126095" lon="8.1630567"><ele>367.0</ele><time>2026-04-05T14:28:41.941Z</time></trkpt><trkpt lat="44.12611" lon="8.16318"><ele>367.0</ele><time>2026-04-05T14:28:42.941Z</time></trkpt><trkpt lat="44.12612" lon="8.163295"><ele>367.0</ele><time>2026-04-05T14:28:43.941Z</time></trkpt><trkpt lat="44.1261283" lon="8.16341"><ele>367.0</ele><time>2026-04-05T14:28:44.941Z</time></trkpt><trkpt lat="44.12614" lon="8.1635217"><ele>367.0</ele><time>2026-04-05T14:28:45.941Z</time></trkpt><trkpt lat="44.1261467" lon="8.1636283"><ele>366.0</ele><time>2026-04-05T14:28:46.941Z</time></trkpt><trkpt lat="44.1261633" lon="8.163745"><ele>365.0</ele><time>2026-04-05T14:28:47.941Z</time></trkpt><trkpt lat="44.1261867" lon="8.1638633"><ele>364.0</ele><time>2026-04-05T14:28:48.941Z</time></trkpt><trkpt lat="44.12622" lon="8.1639867"><ele>363.0</ele><time>2026-04-05T14:28:49.941Z</time></trkpt><trkpt lat="44.1262483" lon="8.16411"><ele>362.0</ele><time>2026-04-05T14:28:50.941Z</time></trkpt><trkpt lat="44.126295" lon="8.1642217"><ele>361.0</ele><time>2026-04-05T14:28:51.941Z</time></trkpt><trkpt lat="44.126335" lon="8.164345"><ele>360.0</ele><time>2026-04-05T14:28:52.941Z</time></trkpt><trkpt lat="44.1263783" lon="8.1644583"><ele>359.0</ele><time>2026-04-05T14:28:53.941Z</time></trkpt><trkpt lat="44.1264183" lon="8.164585"><ele>358.0</ele><time>2026-04-05T14:28:54.941Z</time></trkpt><trkpt lat="44.1264683" lon="8.1647067"><ele>357.0</ele><time>2026-04-05T14:28:55.941Z</time></trkpt><trkpt lat="44.1265133" lon="8.1648333"><ele>355.8</ele><time>2026-04-05T14:28:56.941Z</time></trkpt><trkpt lat="44.126555" lon="8.164965"><ele>354.6</ele><time>2026-04-05T14:28:57.941Z</time></trkpt><trkpt lat="44.1265883" lon="8.1650967"><ele>353.40000000000003</ele><time>2026-04-05T14:28:58.941Z</time></trkpt><trkpt lat="44.1266083" lon="8.1652317"><ele>352.20000000000005</ele><time>2026-04-05T14:28:59.941Z</time></trkpt><trkpt lat="44.1266117" lon="8.1653683"><ele>351.0</ele><time>2026-04-05T14:29:00.941Z</time></trkpt><trkpt lat="44.126605" lon="8.1655017"><ele>351.8333333333333</ele><time>2026-04-05T14:29:01.941Z</time></trkpt><trkpt lat="44.126595" lon="8.1656317"><ele>352.6666666666667</ele><time>2026-04-05T14:29:02.941Z</time></trkpt><trkpt lat="44.1265867" lon="8.16576"><ele>353.5</ele><time>2026-04-05T14:29:03.941Z</time></trkpt><trkpt lat="44.1265917" lon="8.1658833"><ele>354.33333333333337</ele><time>2026-04-05T14:29:04.941Z</time></trkpt><trkpt lat="44.1265967" lon="8.1660083"><ele>355.1666666666667</ele><time>2026-04-05T14:29:05.941Z</time></trkpt><trkpt lat="44.1265833" lon="8.16612"><ele>356.0</ele><time>2026-04-05T14:29:06.941Z</time></trkpt><trkpt lat="44.126555" lon="8.16623"><ele>356.0</ele><time>2026-04-05T14:29:07.941Z</time></trkpt><trkpt lat="44.126495" lon="8.166325"><ele>356.0</ele><time>2026-04-05T14:29:08.941Z</time></trkpt><trkpt lat="44.1264217" lon="8.16641"><ele>356.0</ele><time>2026-04-05T14:29:09.941Z</time></trkpt><trkpt lat="44.1263333" lon="8.1664717"><ele>356.0</ele><time>2026-04-05T14:29:10.941Z</time></trkpt><trkpt lat="44.1262417" lon="8.16653"><ele>356.0</ele><time>2026-04-05T14:29:11.942Z</time></trkpt><trkpt lat="44.1261417" lon="8.16658"><ele>359.8</ele><time>2026-04-05T14:29:12.941Z</time></trkpt><trkpt lat="44.1260517" lon="8.1666317"><ele>363.6</ele><time>2026-04-05T14:29:13.941Z</time></trkpt><trkpt lat="44.1259567" lon="8.1666783"><ele>367.4</ele><time>2026-04-05T14:29:14.942Z</time></trkpt><trkpt lat="44.1258633" lon="8.1667067"><ele>371.2</ele><time>2026-04-05T14:29:15.941Z</time></trkpt><trkpt lat="44.12577" lon="8.1667417"><ele>375.0</ele><time>2026-04-05T14:29:16.941Z</time></trkpt><trkpt lat="44.1256767" lon="8.166765"><ele>375.0</ele><time>2026-04-05T14:29:17.941Z</time></trkpt><trkpt lat="44.1255833" lon="8.1667867"><ele>375.0</ele><time>2026-04-05T14:29:18.941Z</time></trkpt><trkpt lat="44.1254933" lon="8.1668133"><ele>375.0</ele><time>2026-04-05T14:29:19.941Z</time></trkpt><trkpt lat="44.1254033" lon="8.1668617"><ele>375.0</ele><time>2026-04-05T14:29:20.941Z</time></trkpt><trkpt lat="44.1253233" lon="8.166915"><ele>375.0</ele><time>2026-04-05T14:29:21.941Z</time></trkpt><trkpt lat="44.12525" lon="8.1669867"><ele>375.0</ele><time>2026-04-05T14:29:22.941Z</time></trkpt><trkpt lat="44.1251833" lon="8.16706"><ele>375.0</ele><time>2026-04-05T14:29:23.941Z</time></trkpt><trkpt lat="44.1251233" lon="8.1671383"><ele>375.0</ele><time>2026-04-05T14:29:24.941Z</time></trkpt><trkpt lat="44.1250567" lon="8.16721"><ele>375.0</ele><time>2026-04-05T14:29:25.941Z</time></trkpt><trkpt lat="44.12498" lon="8.16728"><ele>375.0</ele><time>2026-04-05T14:29:26.941Z</time></trkpt><trkpt lat="44.1249233" lon="8.1673317"><ele>375.0</ele><time>2026-04-05T14:29:27.942Z</time></trkpt><trkpt lat="44.124855" lon="8.167395"><ele>375.8333333333333</ele><time>2026-04-05T14:29:28.941Z</time></trkpt><trkpt lat="44.12478" lon="8.1674533"><ele>376.6666666666667</ele><time>2026-04-05T14:29:29.942Z</time></trkpt><trkpt lat="44.1247267" lon="8.1675367"><ele>377.5</ele><time>2026-04-05T14:29:30.941Z</time></trkpt><trkpt lat="44.1246733" lon="8.1676117"><ele>378.33333333333337</ele><time>2026-04-05T14:29:31.941Z</time></trkpt><trkpt lat="44.124625" lon="8.1676867"><ele>379.1666666666667</ele><time>2026-04-05T14:29:32.941Z</time></trkpt><trkpt lat="44.1245733" lon="8.1677567"><ele>380.0</ele><time>2026-04-05T14:29:33.941Z</time></trkpt><trkpt lat="44.1245233" lon="8.167825"><ele>380.0</ele><time>2026-04-05T14:29:34.941Z</time></trkpt><trkpt lat="44.124475" lon="8.1678983"><ele>380.0</ele><time>2026-04-05T14:29:35.941Z</time></trkpt><trkpt lat="44.1244317" lon="8.1679717"><ele>380.0</ele><time>2026-04-05T14:29:36.941Z</time></trkpt><trkpt lat="44.1243583" lon="8.1680867"><ele>380.0</ele><time>2026-04-05T14:29:38.941Z</time></trkpt><trkpt lat="44.1243033" lon="8.1681617"><ele>380.0</ele><time>2026-04-05T14:29:41.941Z</time></trkpt><trkpt lat="44.1242517" lon="8.1682383"><ele>380.0</ele><time>2026-04-05T14:29:44.941Z</time></trkpt><trkpt lat="44.1241917" lon="8.1683433"><ele>381.6666666666667</ele><time>2026-04-05T14:29:46.941Z</time></trkpt><trkpt lat="44.1241383" lon="8.168495"><ele>383.33333333333337</ele><time>2026-04-05T14:29:48.941Z</time></trkpt><trkpt lat="44.1241133" lon="8.1685933"><ele>385.0</ele><time>2026-04-05T14:29:49.941Z</time></trkpt><trkpt lat="44.1241033" lon="8.1687117"><ele>386.6666666666667</ele><time>2026-04-05T14:29:50.941Z</time></trkpt><trkpt lat="44.1240983" lon="8.1688083"><ele>388.3333333333333</ele><time>2026-04-05T14:29:51.941Z</time></trkpt><trkpt lat="44.12409" lon="8.1689017"><ele>390.0</ele><time>2026-04-05T14:29:52.941Z</time></trkpt><trkpt lat="44.1240717" lon="8.1690767"><ele>390.57142857142856</ele><time>2026-04-05T14:29:54.941Z</time></trkpt><trkpt lat="44.1240783" lon="8.169165"><ele>391.1428571428571</ele><time>2026-04-05T14:29:55.941Z</time></trkpt><trkpt lat="44.124105" lon="8.1692517"><ele>391.7142857142857</ele><time>2026-04-05T14:29:56.941Z</time></trkpt><trkpt lat="44.12414" lon="8.16934"><ele>392.2857142857143</ele><time>2026-04-05T14:29:57.941Z</time></trkpt><trkpt lat="44.1241767" lon="8.16943"><ele>392.8571428571429</ele><time>2026-04-05T14:29:58.941Z</time></trkpt><trkpt lat="44.1242267" lon="8.16951"><ele>393.42857142857144</ele><time>2026-04-05T14:29:59.941Z</time></trkpt><trkpt lat="44.1242917" lon="8.1696017"><ele>394.0</ele><time>2026-04-05T14:30:00.941Z</time></trkpt><trkpt lat="44.1243667" lon="8.1696783"><ele>394.00000000000006</ele><time>2026-04-05T14:30:01.941Z</time></trkpt><trkpt lat="44.12443" lon="8.1697433"><ele>394.0</ele><time>2026-04-05T14:30:02.941Z</time></trkpt><trkpt lat="44.1244967" lon="8.1698217"><ele>394.0</ele><time>2026-04-05T14:30:03.942Z</time></trkpt><trkpt lat="44.124565" lon="8.1699033"><ele>394.0</ele><time>2026-04-05T14:30:04.941Z</time></trkpt><trkpt lat="44.1246183" lon="8.1699967"><ele>394.00000000000006</ele><time>2026-04-05T14:30:05.941Z</time></trkpt><trkpt lat="44.12466" lon="8.17009"><ele>394.0</ele><time>2026-04-05T14:30:06.941Z</time></trkpt><trkpt lat="44.12469" lon="8.1701917"><ele>391.00000000000006</ele><time>2026-04-05T14:30:07.942Z</time></trkpt><trkpt lat="44.1247033" lon="8.1702967"><ele>388.0</ele><time>2026-04-05T14:30:08.941Z</time></trkpt><trkpt lat="44.1246917" lon="8.170415"><ele>385.0</ele><time>2026-04-05T14:30:09.941Z</time></trkpt><trkpt lat="44.1246667" lon="8.170535"><ele>382.0</ele><time>2026-04-05T14:30:10.942Z</time></trkpt><trkpt lat="44.1246267" lon="8.1706617"><ele>379.0</ele><time>2026-04-05T14:30:11.941Z</time></trkpt><trkpt lat="44.1246" lon="8.1707917"><ele>376.0</ele><time>2026-04-05T14:30:12.941Z</time></trkpt><trkpt lat="44.124585" lon="8.1709267"><ele>374.0</ele><time>2026-04-05T14:30:13.941Z</time></trkpt><trkpt lat="44.124565" lon="8.1710667"><ele>372.0</ele><time>2026-04-05T14:30:14.941Z</time></trkpt><trkpt lat="44.12454" lon="8.1711983"><ele>370.0</ele><time>2026-04-05T14:30:15.941Z</time></trkpt><trkpt lat="44.1245117" lon="8.171325"><ele>368.0</ele><time>2026-04-05T14:30:16.941Z</time></trkpt><trkpt lat="44.1244833" lon="8.1714517"><ele>366.0</ele><time>2026-04-05T14:30:17.941Z</time></trkpt><trkpt lat="44.1244533" lon="8.1715733"><ele>366.0</ele><time>2026-04-05T14:30:18.941Z</time></trkpt><trkpt lat="44.12443" lon="8.171695"><ele>366.0</ele><time>2026-04-05T14:30:19.941Z</time></trkpt><trkpt lat="44.12441" lon="8.1718133"><ele>366.0</ele><time>2026-04-05T14:30:20.941Z</time></trkpt><trkpt lat="44.124395" lon="8.171935"><ele>366.0</ele><time>2026-04-05T14:30:21.942Z</time></trkpt><trkpt lat="44.1243867" lon="8.17206"><ele>366.0</ele><time>2026-04-05T14:30:22.942Z</time></trkpt><trkpt lat="44.1243883" lon="8.172185"><ele>366.0</ele><time>2026-04-05T14:30:23.941Z</time></trkpt><trkpt lat="44.124405" lon="8.1723083"><ele>366.0</ele><time>2026-04-05T14:30:24.941Z</time></trkpt><trkpt lat="44.1244283" lon="8.17242"><ele>366.0</ele><time>2026-04-05T14:30:25.942Z</time></trkpt><trkpt lat="44.124455" lon="8.1725317"><ele>366.0</ele><time>2026-04-05T14:30:26.941Z</time></trkpt><trkpt lat="44.1244917" lon="8.172635"><ele>366.0</ele><time>2026-04-05T14:30:27.941Z</time></trkpt><trkpt lat="44.1245283" lon="8.17274"><ele>366.0</ele><time>2026-04-05T14:30:28.942Z</time></trkpt><trkpt lat="44.1245617" lon="8.1728483"><ele>366.0</ele><time>2026-04-05T14:30:29.941Z</time></trkpt><trkpt lat="44.124595" lon="8.17296"><ele>366.0</ele><time>2026-04-05T14:30:30.941Z</time></trkpt><trkpt lat="44.12462" lon="8.1730767"><ele>366.0</ele><time>2026-04-05T14:30:31.942Z</time></trkpt><trkpt lat="44.1246383" lon="8.173185"><ele>366.0</ele><time>2026-04-05T14:30:32.941Z</time></trkpt><trkpt lat="44.12465" lon="8.1732983"><ele>366.0</ele><time>2026-04-05T14:30:33.941Z</time></trkpt><trkpt lat="44.1246717" lon="8.1734133"><ele>366.0</ele><time>2026-04-05T14:30:34.942Z</time></trkpt><trkpt lat="44.124695" lon="8.173525"><ele>366.0</ele><time>2026-04-05T14:30:35.941Z</time></trkpt><trkpt lat="44.1247133" lon="8.1736383"><ele>366.8333333333333</ele><time>2026-04-05T14:30:36.941Z</time></trkpt><trkpt lat="44.12473" lon="8.1737433"><ele>367.6666666666667</ele><time>2026-04-05T14:30:37.941Z</time></trkpt><trkpt lat="44.1247367" lon="8.1738417"><ele>368.5</ele><time>2026-04-05T14:30:38.941Z</time></trkpt><trkpt lat="44.1247417" lon="8.1739533"><ele>369.33333333333337</ele><time>2026-04-05T14:30:39.942Z</time></trkpt><trkpt lat="44.1247517" lon="8.1740567"><ele>370.1666666666667</ele><time>2026-04-05T14:30:40.941Z</time></trkpt><trkpt lat="44.1247583" lon="8.1741583"><ele>371.0</ele><time>2026-04-05T14:30:41.941Z</time></trkpt><trkpt lat="44.12478" lon="8.17427"><ele>371.0</ele><time>2026-04-05T14:30:42.941Z</time></trkpt><trkpt lat="44.1247967" lon="8.1743833"><ele>371.0</ele><time>2026-04-05T14:30:43.941Z</time></trkpt><trkpt lat="44.12481" lon="8.1744833"><ele>371.0</ele><time>2026-04-05T14:30:44.941Z</time></trkpt><trkpt lat="44.1248283" lon="8.17458"><ele>371.0</ele><time>2026-04-05T14:30:45.942Z</time></trkpt><trkpt lat="44.1248517" lon="8.1746683"><ele>371.0</ele><time>2026-04-05T14:30:46.941Z</time></trkpt><trkpt lat="44.124875" lon="8.1748233"><ele>371.0</ele><time>2026-04-05T14:30:48.941Z</time></trkpt><trkpt lat="44.1248967" lon="8.1749367"><ele>369.4</ele><time>2026-04-05T14:30:50.941Z</time></trkpt><trkpt lat="44.12492" lon="8.175045"><ele>367.8</ele><time>2026-04-05T14:30:52.941Z</time></trkpt><trkpt lat="44.1249617" lon="8.175195"><ele>366.2</ele><time>2026-04-05T14:30:54.941Z</time></trkpt><trkpt lat="44.1249883" lon="8.17528"><ele>364.59999999999997</ele><time>2026-04-05T14:30:55.941Z</time></trkpt><trkpt lat="44.1250367" lon="8.1754417"><ele>363.0</ele><time>2026-04-05T14:30:57.941Z</time></trkpt><trkpt lat="44.1250967" lon="8.1755783"><ele>363.0</ele><time>2026-04-05T14:30:59.941Z</time></trkpt><trkpt lat="44.1252183" lon="8.175585"><ele>363.0</ele><time>2026-04-05T14:31:01.941Z</time></trkpt><trkpt lat="44.1252933" lon="8.1755533"><ele>363.0</ele><time>2026-04-05T14:31:02.941Z</time></trkpt><trkpt lat="44.125375" lon="8.1755283"><ele>363.0</ele><time>2026-04-05T14:31:03.941Z</time></trkpt><trkpt lat="44.1254567" lon="8.1755183"><ele>363.0</ele><time>2026-04-05T14:31:04.941Z</time></trkpt><trkpt lat="44.1255483" lon="8.1755167"><ele>363.0</ele><time>2026-04-05T14:31:05.941Z</time></trkpt><trkpt lat="44.1256333" lon="8.175515"><ele>363.0</ele><time>2026-04-05T14:31:06.942Z</time></trkpt><trkpt lat="44.125715" lon="8.17552"><ele>363.0</ele><time>2026-04-05T14:31:07.941Z</time></trkpt><trkpt lat="44.1257983" lon="8.1755417"><ele>363.0</ele><time>2026-04-05T14:31:08.941Z</time></trkpt><trkpt lat="44.1258817" lon="8.175575"><ele>363.0</ele><time>2026-04-05T14:31:09.941Z</time></trkpt><trkpt lat="44.1259533" lon="8.1756333"><ele>363.0</ele><time>2026-04-05T14:31:10.941Z</time></trkpt><trkpt lat="44.1260083" lon="8.1757117"><ele>361.2</ele><time>2026-04-05T14:31:11.942Z</time></trkpt><trkpt lat="44.126025" lon="8.1758117"><ele>359.4</ele><time>2026-04-05T14:31:12.941Z</time></trkpt><trkpt lat="44.1260183" lon="8.1759183"><ele>357.59999999999997</ele><time>2026-04-05T14:31:13.941Z</time></trkpt><trkpt lat="44.1259917" lon="8.1760517"><ele>355.79999999999995</ele><time>2026-04-05T14:31:14.941Z</time></trkpt><trkpt lat="44.1259583" lon="8.176195"><ele>354.0</ele><time>2026-04-05T14:31:15.941Z</time></trkpt><trkpt lat="44.1259217" lon="8.1763333"><ele>354.0</ele><time>2026-04-05T14:31:16.941Z</time></trkpt><trkpt lat="44.1258867" lon="8.1764667"><ele>354.0</ele><time>2026-04-05T14:31:17.941Z</time></trkpt><trkpt lat="44.125835" lon="8.1765983"><ele>354.0</ele><time>2026-04-05T14:31:18.941Z</time></trkpt><trkpt lat="44.12577" lon="8.1767233"><ele>354.0</ele><time>2026-04-05T14:31:19.941Z</time></trkpt><trkpt lat="44.1257" lon="8.1768517"><ele>354.0</ele><time>2026-04-05T14:31:20.941Z</time></trkpt><trkpt lat="44.1256233" lon="8.176975"><ele>348.75</ele><time>2026-04-05T14:31:21.941Z</time></trkpt><trkpt lat="44.1255467" lon="8.1770883"><ele>343.5</ele><time>2026-04-05T14:31:22.941Z</time></trkpt><trkpt lat="44.1254683" lon="8.177205"><ele>338.25</ele><time>2026-04-05T14:31:23.941Z</time></trkpt><trkpt lat="44.1253883" lon="8.177315"><ele>333.0</ele><time>2026-04-05T14:31:24.941Z</time></trkpt><trkpt lat="44.1253083" lon="8.1774283"><ele>333.0</ele><time>2026-04-05T14:31:25.941Z</time></trkpt><trkpt lat="44.1252367" lon="8.1775467"><ele>333.0</ele><time>2026-04-05T14:31:26.941Z</time></trkpt><trkpt lat="44.1251583" lon="8.1776633"><ele>333.0</ele><time>2026-04-05T14:31:27.941Z</time></trkpt><trkpt lat="44.12509" lon="8.1777883"><ele>333.0</ele><time>2026-04-05T14:31:28.941Z</time></trkpt><trkpt lat="44.1250233" lon="8.1779183"><ele>333.0</ele><time>2026-04-05T14:31:29.941Z</time></trkpt><trkpt lat="44.1249633" lon="8.17804"><ele>333.0</ele><time>2026-04-05T14:31:30.941Z</time></trkpt><trkpt lat="44.1249217" lon="8.1781667"><ele>333.0</ele><time>2026-04-05T14:31:31.941Z</time></trkpt><trkpt lat="44.1248767" lon="8.1782983"><ele>333.0</ele><time>2026-04-05T14:31:32.941Z</time></trkpt><trkpt lat="44.1248417" lon="8.1784317"><ele>333.0</ele><time>2026-04-05T14:31:33.942Z</time></trkpt><trkpt lat="44.1248183" lon="8.17858"><ele>328.75</ele><time>2026-04-05T14:31:34.941Z</time></trkpt><trkpt lat="44.1247983" lon="8.1787283"><ele>324.5</ele><time>2026-04-05T14:31:35.941Z</time></trkpt><trkpt lat="44.12477" lon="8.1788817"><ele>320.25</ele><time>2026-04-05T14:31:36.941Z</time></trkpt><trkpt lat="44.1247467" lon="8.1790483"><ele>316.0</ele><time>2026-04-05T14:31:37.941Z</time></trkpt><trkpt lat="44.124715" lon="8.1792117"><ele>316.0</ele><time>2026-04-05T14:31:38.941Z</time></trkpt><trkpt lat="44.124675" lon="8.1793633"><ele>316.0</ele><time>2026-04-05T14:31:39.941Z</time></trkpt><trkpt lat="44.1246267" lon="8.1795133"><ele>316.0</ele><time>2026-04-05T14:31:40.941Z</time></trkpt><trkpt lat="44.1245717" lon="8.1796567"><ele>316.0</ele><time>2026-04-05T14:31:41.942Z</time></trkpt><trkpt lat="44.1245133" lon="8.1798067"><ele>316.5</ele><time>2026-04-05T14:31:42.941Z</time></trkpt><trkpt lat="44.1244517" lon="8.1799667"><ele>317.0</ele><time>2026-04-05T14:31:43.941Z</time></trkpt><trkpt lat="44.124395" lon="8.1801183"><ele>317.5</ele><time>2026-04-05T14:31:44.941Z</time></trkpt><trkpt lat="44.1243533" lon="8.1802833"><ele>318.0</ele><time>2026-04-05T14:31:45.941Z</time></trkpt><trkpt lat="44.124305" lon="8.1804433"><ele>318.0</ele><time>2026-04-05T14:31:46.941Z</time></trkpt><trkpt lat="44.1242583" lon="8.1805983"><ele>318.0</ele><time>2026-04-05T14:31:47.941Z</time></trkpt><trkpt lat="44.1242133" lon="8.1807467"><ele>318.0</ele><time>2026-04-05T14:31:48.942Z</time></trkpt><trkpt lat="44.124175" lon="8.1808733"><ele>318.0</ele><time>2026-04-05T14:31:49.941Z</time></trkpt><trkpt lat="44.124145" lon="8.180995"><ele>318.0</ele><time>2026-04-05T14:31:50.941Z</time></trkpt><trkpt lat="44.12412" lon="8.1811"><ele>319.0</ele><time>2026-04-05T14:31:51.941Z</time></trkpt><trkpt lat="44.1241083" lon="8.181205"><ele>320.0</ele><time>2026-04-05T14:31:52.941Z</time></trkpt><trkpt lat="44.1241217" lon="8.1813017"><ele>321.0</ele><time>2026-04-05T14:31:53.941Z</time></trkpt><trkpt lat="44.1241667" lon="8.1813867"><ele>322.0</ele><time>2026-04-05T14:31:54.941Z</time></trkpt><trkpt lat="44.1242233" lon="8.1814617"><ele>323.0</ele><time>2026-04-05T14:31:55.941Z</time></trkpt><trkpt lat="44.1242917" lon="8.1815433"><ele>324.0</ele><time>2026-04-05T14:31:56.941Z</time></trkpt><trkpt lat="44.1243717" lon="8.1816333"><ele>321.59999999999997</ele><time>2026-04-05T14:31:57.941Z</time></trkpt><trkpt lat="44.1244533" lon="8.1817317"><ele>319.2</ele><time>2026-04-05T14:31:58.941Z</time></trkpt><trkpt lat="44.1245283" lon="8.1818217"><ele>316.79999999999995</ele><time>2026-04-05T14:31:59.941Z</time></trkpt><trkpt lat="44.1246017" lon="8.181895"><ele>314.4</ele><time>2026-04-05T14:32:00.941Z</time></trkpt><trkpt lat="44.1246867" lon="8.18196"><ele>312.0</ele><time>2026-04-05T14:32:01.942Z</time></trkpt><trkpt lat="44.1247617" lon="8.1820067"><ele>312.0</ele><time>2026-04-05T14:32:02.942Z</time></trkpt><trkpt lat="44.1248233" lon="8.1820683"><ele>312.0</ele><time>2026-04-05T14:32:03.942Z</time></trkpt><trkpt lat="44.1248533" lon="8.1821517"><ele>312.0</ele><time>2026-04-05T14:32:04.942Z</time></trkpt><trkpt lat="44.1248467" lon="8.1823183"><ele>312.0</ele><time>2026-04-05T14:32:06.941Z</time></trkpt><trkpt lat="44.124795" lon="8.1824"><ele>312.0</ele><time>2026-04-05T14:32:07.941Z</time></trkpt><trkpt lat="44.1247167" lon="8.18248"><ele>312.0</ele><time>2026-04-05T14:32:08.941Z</time></trkpt><trkpt lat="44.1246183" lon="8.1825567"><ele>308.4</ele><time>2026-04-05T14:32:09.941Z</time></trkpt><trkpt lat="44.1245367" lon="8.182645"><ele>304.79999999999995</ele><time>2026-04-05T14:32:10.941Z</time></trkpt><trkpt lat="44.1244817" lon="8.1827517"><ele>301.2</ele><time>2026-04-05T14:32:11.941Z</time></trkpt><trkpt lat="44.1244517" lon="8.1828783"><ele>297.59999999999997</ele><time>2026-04-05T14:32:12.941Z</time></trkpt><trkpt lat="44.1244217" lon="8.1830217"><ele>294.0</ele><time>2026-04-05T14:32:13.941Z</time></trkpt><trkpt lat="44.12439" lon="8.1831717"><ele>293.59999999999997</ele><time>2026-04-05T14:32:14.942Z</time></trkpt><trkpt lat="44.1243483" lon="8.183295"><ele>293.2</ele><time>2026-04-05T14:32:15.941Z</time></trkpt><trkpt lat="44.1243117" lon="8.1834083"><ele>292.79999999999995</ele><time>2026-04-05T14:32:16.942Z</time></trkpt><trkpt lat="44.12429" lon="8.1835317"><ele>292.4</ele><time>2026-04-05T14:32:17.941Z</time></trkpt><trkpt lat="44.1242833" lon="8.183665"><ele>292.0</ele><time>2026-04-05T14:32:18.942Z</time></trkpt><trkpt lat="44.124285" lon="8.1837883"><ele>292.0</ele><time>2026-04-05T14:32:19.941Z</time></trkpt><trkpt lat="44.1242683" lon="8.1839"><ele>292.0</ele><time>2026-04-05T14:32:20.941Z</time></trkpt><trkpt lat="44.1242383" lon="8.1840183"><ele>292.0</ele><time>2026-04-05T14:32:21.941Z</time></trkpt><trkpt lat="44.1241833" lon="8.1841233"><ele>292.0</ele><time>2026-04-05T14:32:22.941Z</time></trkpt><trkpt lat="44.1241233" lon="8.1842367"><ele>292.0</ele><time>2026-04-05T14:32:23.942Z</time></trkpt><trkpt lat="44.1240567" lon="8.18435"><ele>287.8</ele><time>2026-04-05T14:32:24.941Z</time></trkpt><trkpt lat="44.123995" lon="8.184465"><ele>283.6</ele><time>2026-04-05T14:32:25.941Z</time></trkpt><trkpt lat="44.1239267" lon="8.1845667"><ele>279.40000000000003</ele><time>2026-04-05T14:32:26.941Z</time></trkpt><trkpt lat="44.1238583" lon="8.1846717"><ele>275.2</ele><time>2026-04-05T14:32:27.941Z</time></trkpt><trkpt lat="44.1237883" lon="8.1847767"><ele>271.0</ele><time>2026-04-05T14:32:28.942Z</time></trkpt><trkpt lat="44.12372" lon="8.184885"><ele>271.0</ele><time>2026-04-05T14:32:29.941Z</time></trkpt><trkpt lat="44.1236533" lon="8.1849867"><ele>271.0</ele><time>2026-04-05T14:32:30.941Z</time></trkpt><trkpt lat="44.1235933" lon="8.1850883"><ele>271.0</ele><time>2026-04-05T14:32:31.941Z</time></trkpt><trkpt lat="44.1235467" lon="8.1851933"><ele>271.0</ele><time>2026-04-05T14:32:32.941Z</time></trkpt><trkpt lat="44.1235183" lon="8.18531"><ele>271.0</ele><time>2026-04-05T14:32:33.941Z</time></trkpt><trkpt lat="44.123495" lon="8.1854217"><ele>271.0</ele><time>2026-04-05T14:32:34.941Z</time></trkpt><trkpt lat="44.1234767" lon="8.1855283"><ele>271.0</ele><time>2026-04-05T14:32:35.941Z</time></trkpt><trkpt lat="44.12347" lon="8.1856267"><ele>271.0</ele><time>2026-04-05T14:32:36.941Z</time></trkpt><trkpt lat="44.1234867" lon="8.1857183"><ele>271.0</ele><time>2026-04-05T14:32:37.941Z</time></trkpt><trkpt lat="44.1235267" lon="8.1857883"><ele>271.0</ele><time>2026-04-05T14:32:38.941Z</time></trkpt><trkpt lat="44.1235867" lon="8.1858433"><ele>271.0</ele><time>2026-04-05T14:32:39.941Z</time></trkpt><trkpt lat="44.12365" lon="8.1858917"><ele>271.0</ele><time>2026-04-05T14:32:40.941Z</time></trkpt><trkpt lat="44.12372" lon="8.185935"><ele>271.66666666666663</ele><time>2026-04-05T14:32:41.941Z</time></trkpt><trkpt lat="44.1237733" lon="8.185995"><ele>272.3333333333333</ele><time>2026-04-05T14:32:42.941Z</time></trkpt><trkpt lat="44.123815" lon="8.186065"><ele>273.0</ele><time>2026-04-05T14:32:43.941Z</time></trkpt><trkpt lat="44.1238717" lon="8.186185"><ele>273.6666666666667</ele><time>2026-04-05T14:32:45.942Z</time></trkpt><trkpt lat="44.1239483" lon="8.18626"><ele>274.33333333333337</ele><time>2026-04-05T14:32:47.941Z</time></trkpt><trkpt lat="44.1240483" lon="8.1862667"><ele>275.0</ele><time>2026-04-05T14:32:49.941Z</time></trkpt><trkpt lat="44.124155" lon="8.1862367"><ele>278.8</ele><time>2026-04-05T14:32:51.942Z</time></trkpt><trkpt lat="44.1242667" lon="8.186185"><ele>282.6</ele><time>2026-04-05T14:32:53.942Z</time></trkpt><trkpt lat="44.1243783" lon="8.18612"><ele>286.4</ele><time>2026-04-05T14:32:55.941Z</time></trkpt><trkpt lat="44.1244817" lon="8.1860433"><ele>290.2</ele><time>2026-04-05T14:32:57.941Z</time></trkpt><trkpt lat="44.1245367" lon="8.186"><ele>294.0</ele><time>2026-04-05T14:32:58.941Z</time></trkpt><trkpt lat="44.1246383" lon="8.18593"><ele>294.0</ele><time>2026-04-05T14:33:00.941Z</time></trkpt><trkpt lat="44.1247283" lon="8.1858783"><ele>294.0</ele><time>2026-04-05T14:33:02.942Z</time></trkpt><trkpt lat="44.1248083" lon="8.1858333"><ele>294.0</ele><time>2026-04-05T14:33:04.942Z</time></trkpt><trkpt lat="44.12489" lon="8.1858583"><ele>294.0</ele><time>2026-04-05T14:33:06.941Z</time></trkpt><trkpt lat="44.1249517" lon="8.185965"><ele>294.0</ele><time>2026-04-05T14:33:08.941Z</time></trkpt><trkpt lat="44.1249367" lon="8.18613"><ele>294.0</ele><time>2026-04-05T14:33:10.942Z</time></trkpt><trkpt lat="44.1249167" lon="8.18622"><ele>294.0</ele><time>2026-04-05T14:33:11.941Z</time></trkpt><trkpt lat="44.1248883" lon="8.186305"><ele>294.0</ele><time>2026-04-05T14:33:12.941Z</time></trkpt><trkpt lat="44.1248667" lon="8.1863917"><ele>294.0</ele><time>2026-04-05T14:33:13.941Z</time></trkpt><trkpt lat="44.1248433" lon="8.186485"><ele>294.0</ele><time>2026-04-05T14:33:14.941Z</time></trkpt><trkpt lat="44.12482" lon="8.1865867"><ele>294.0</ele><time>2026-04-05T14:33:15.941Z</time></trkpt><trkpt lat="44.1247933" lon="8.186695"><ele>294.0</ele><time>2026-04-05T14:33:16.942Z</time></trkpt><trkpt lat="44.1247633" lon="8.1868"><ele>289.6666666666667</ele><time>2026-04-05T14:33:17.941Z</time></trkpt><trkpt lat="44.12474" lon="8.1869067"><ele>285.3333333333333</ele><time>2026-04-05T14:33:18.941Z</time></trkpt><trkpt lat="44.12471" lon="8.187015"><ele>281.0</ele><time>2026-04-05T14:33:19.941Z</time></trkpt><trkpt lat="44.1246933" lon="8.18713"><ele>276.66666666666663</ele><time>2026-04-05T14:33:20.941Z</time></trkpt><trkpt lat="44.1246833" lon="8.1872483"><ele>272.3333333333333</ele><time>2026-04-05T14:33:21.942Z</time></trkpt><trkpt lat="44.1246767" lon="8.1873783"><ele>268.0</ele><time>2026-04-05T14:33:22.941Z</time></trkpt><trkpt lat="44.1246733" lon="8.1875033"><ele>263.0</ele><time>2026-04-05T14:33:23.941Z</time></trkpt><trkpt lat="44.12468" lon="8.1876183"><ele>258.0</ele><time>2026-04-05T14:33:24.941Z</time></trkpt><trkpt lat="44.124685" lon="8.187735"><ele>253.0</ele><time>2026-04-05T14:33:25.941Z</time></trkpt><trkpt lat="44.12469" lon="8.1878467"><ele>248.0</ele><time>2026-04-05T14:33:26.941Z</time></trkpt><trkpt lat="44.12471" lon="8.1879433"><ele>242.99999999999997</ele><time>2026-04-05T14:33:27.941Z</time></trkpt><trkpt lat="44.1247417" lon="8.18803"><ele>238.0</ele><time>2026-04-05T14:33:28.941Z</time></trkpt><trkpt lat="44.1248117" lon="8.1881817"><ele>236.2</ele><time>2026-04-05T14:33:30.941Z</time></trkpt><trkpt lat="44.1248517" lon="8.188325"><ele>234.4</ele><time>2026-04-05T14:33:32.941Z</time></trkpt><trkpt lat="44.124805" lon="8.1884667"><ele>232.59999999999997</ele><time>2026-04-05T14:33:34.941Z</time></trkpt><trkpt lat="44.1247317" lon="8.1885667"><ele>230.79999999999998</ele><time>2026-04-05T14:33:36.941Z</time></trkpt><trkpt lat="44.12465" lon="8.1886583"><ele>229.0</ele><time>2026-04-05T14:33:38.941Z</time></trkpt><trkpt lat="44.12456" lon="8.18878"><ele>228.99999999999997</ele><time>2026-04-05T14:33:40.941Z</time></trkpt><trkpt lat="44.1244733" lon="8.1889017"><ele>229.0</ele><time>2026-04-05T14:33:42.941Z</time></trkpt><trkpt lat="44.1244233" lon="8.1889733"><ele>229.0</ele><time>2026-04-05T14:33:43.941Z</time></trkpt><trkpt lat="44.1243717" lon="8.189045"><ele>229.0</ele><time>2026-04-05T14:33:44.941Z</time></trkpt><trkpt lat="44.1243417" lon="8.1891283"><ele>228.99999999999997</ele><time>2026-04-05T14:33:45.941Z</time></trkpt><trkpt lat="44.1243217" lon="8.1892283"><ele>229.0</ele><time>2026-04-05T14:33:46.941Z</time></trkpt><trkpt lat="44.1243233" lon="8.189325"><ele>230.16666666666666</ele><time>2026-04-05T14:33:47.941Z</time></trkpt><trkpt lat="44.1243383" lon="8.1894233"><ele>231.33333333333331</ele><time>2026-04-05T14:33:48.941Z</time></trkpt><trkpt lat="44.1243517" lon="8.1895217"><ele>232.5</ele><time>2026-04-05T14:33:49.941Z</time></trkpt><trkpt lat="44.1243733" lon="8.1896233"><ele>233.66666666666669</ele><time>2026-04-05T14:33:50.941Z</time></trkpt><trkpt lat="44.1243967" lon="8.1897383"><ele>234.83333333333334</ele><time>2026-04-05T14:33:51.941Z</time></trkpt><trkpt lat="44.1244117" lon="8.1898417"><ele>236.0</ele><time>2026-04-05T14:33:52.941Z</time></trkpt><trkpt lat="44.1244183" lon="8.1899567"><ele>236.00000000000003</ele><time>2026-04-05T14:33:53.941Z</time></trkpt><trkpt lat="44.1244133" lon="8.19006"><ele>236.0</ele><time>2026-04-05T14:33:54.941Z</time></trkpt><trkpt lat="44.1244" lon="8.19016"><ele>236.0</ele><time>2026-04-05T14:33:55.941Z</time></trkpt><trkpt lat="44.1243833" lon="8.1902633"><ele>236.0</ele><time>2026-04-05T14:33:56.941Z</time></trkpt><trkpt lat="44.1243767" lon="8.1903767"><ele>236.00000000000003</ele><time>2026-04-05T14:33:57.941Z</time></trkpt><trkpt lat="44.1243783" lon="8.1904833"><ele>236.0</ele><time>2026-04-05T14:33:58.941Z</time></trkpt><trkpt lat="44.1243817" lon="8.1905833"><ele>235.42857142857142</ele><time>2026-04-05T14:33:59.941Z</time></trkpt><trkpt lat="44.1243833" lon="8.19068"><ele>234.8571428571429</ele><time>2026-04-05T14:34:00.941Z</time></trkpt><trkpt lat="44.12439" lon="8.19078"><ele>234.2857142857143</ele><time>2026-04-05T14:34:01.942Z</time></trkpt><trkpt lat="44.124385" lon="8.1908783"><ele>233.71428571428572</ele><time>2026-04-05T14:34:02.941Z</time></trkpt><trkpt lat="44.1243867" lon="8.19098"><ele>233.14285714285717</ele><time>2026-04-05T14:34:03.941Z</time></trkpt><trkpt lat="44.1243833" lon="8.19108"><ele>232.5714285714286</ele><time>2026-04-05T14:34:04.941Z</time></trkpt><trkpt lat="44.124395" lon="8.1911833"><ele>232.00000000000003</ele><time>2026-04-05T14:34:05.941Z</time></trkpt><trkpt lat="44.124405" lon="8.19127"><ele>232.00000000000003</ele><time>2026-04-05T14:34:06.941Z</time></trkpt><trkpt lat="44.1244333" lon="8.191355"><ele>232.0</ele><time>2026-04-05T14:34:07.941Z</time></trkpt><trkpt lat="44.1244683" lon="8.1914317"><ele>232.00000000000003</ele><time>2026-04-05T14:34:08.942Z</time></trkpt><trkpt lat="44.124525" lon="8.1915017"><ele>232.00000000000003</ele><time>2026-04-05T14:34:09.941Z</time></trkpt><trkpt lat="44.124585" lon="8.1915633"><ele>232.0</ele><time>2026-04-05T14:34:10.941Z</time></trkpt><trkpt lat="44.1246483" lon="8.1916233"><ele>232.00000000000003</ele><time>2026-04-05T14:34:11.941Z</time></trkpt><trkpt lat="44.124705" lon="8.1916883"><ele>232.00000000000003</ele><time>2026-04-05T14:34:12.941Z</time></trkpt><trkpt lat="44.1247617" lon="8.1917617"><ele>231.5714285714286</ele><time>2026-04-05T14:34:13.941Z</time></trkpt><trkpt lat="44.1248117" lon="8.1918467"><ele>231.14285714285717</ele><time>2026-04-05T14:34:14.941Z</time></trkpt><trkpt lat="44.1248517" lon="8.19194"><ele>230.71428571428572</ele><time>2026-04-05T14:34:15.942Z</time></trkpt><trkpt lat="44.1248917" lon="8.1920417"><ele>230.2857142857143</ele><time>2026-04-05T14:34:16.941Z</time></trkpt><trkpt lat="44.1249183" lon="8.1921317"><ele>229.8571428571429</ele><time>2026-04-05T14:34:17.941Z</time></trkpt><trkpt lat="44.1249417" lon="8.19222"><ele>229.42857142857142</ele><time>2026-04-05T14:34:18.941Z</time></trkpt><trkpt lat="44.1249767" lon="8.1922967"><ele>229.0</ele><time>2026-04-05T14:34:19.941Z</time></trkpt><trkpt lat="44.1250133" lon="8.1923683"><ele>229.0</ele><time>2026-04-05T14:34:20.941Z</time></trkpt><trkpt lat="44.1250517" lon="8.19244"><ele>229.0</ele><time>2026-04-05T14:34:21.942Z</time></trkpt><trkpt lat="44.12509" lon="8.192515"><ele>229.0</ele><time>2026-04-05T14:34:22.941Z</time></trkpt><trkpt lat="44.12513" lon="8.1925967"><ele>229.0</ele><time>2026-04-05T14:34:23.941Z</time></trkpt><trkpt lat="44.1251717" lon="8.1926767"><ele>229.0</ele><time>2026-04-05T14:34:24.941Z</time></trkpt><trkpt lat="44.1252017" lon="8.1927567"><ele>229.0</ele><time>2026-04-05T14:34:25.941Z</time></trkpt><trkpt lat="44.125225" lon="8.19284"><ele>229.0</ele><time>2026-04-05T14:34:26.941Z</time></trkpt><trkpt lat="44.125255" lon="8.1929417"><ele>229.0</ele><time>2026-04-05T14:34:27.942Z</time></trkpt><trkpt lat="44.125295" lon="8.19303"><ele>228.99999999999997</ele><time>2026-04-05T14:34:28.941Z</time></trkpt><trkpt lat="44.1253383" lon="8.1931083"><ele>228.99999999999997</ele><time>2026-04-05T14:34:29.941Z</time></trkpt><trkpt lat="44.1253917" lon="8.1931783"><ele>229.0</ele><time>2026-04-05T14:34:30.941Z</time></trkpt><trkpt lat="44.125495" lon="8.1932817"><ele>229.0</ele><time>2026-04-05T14:34:32.941Z</time></trkpt><trkpt lat="44.12562" lon="8.1933133"><ele>227.6</ele><time>2026-04-05T14:34:34.941Z</time></trkpt><trkpt lat="44.1256833" lon="8.193325"><ele>226.2</ele><time>2026-04-05T14:34:35.941Z</time></trkpt><trkpt lat="44.1258067" lon="8.1933467"><ele>224.79999999999998</ele><time>2026-04-05T14:34:37.941Z</time></trkpt><trkpt lat="44.1258767" lon="8.19336"><ele>223.39999999999998</ele><time>2026-04-05T14:34:38.941Z</time></trkpt><trkpt lat="44.12594" lon="8.1933717"><ele>222.0</ele><time>2026-04-05T14:34:39.941Z</time></trkpt><trkpt lat="44.12607" lon="8.193395"><ele>222.0</ele><time>2026-04-05T14:34:41.941Z</time></trkpt><trkpt lat="44.1261383" lon="8.1933917"><ele>222.0</ele><time>2026-04-05T14:34:42.941Z</time></trkpt><trkpt lat="44.1262017" lon="8.1933733"><ele>222.0</ele><time>2026-04-05T14:34:43.941Z</time></trkpt><trkpt lat="44.1262633" lon="8.1933433"><ele>222.0</ele><time>2026-04-05T14:34:44.941Z</time></trkpt><trkpt lat="44.12638" lon="8.1932733"><ele>222.0</ele><time>2026-04-05T14:34:46.941Z</time></trkpt><trkpt lat="44.12648" lon="8.1932"><ele>222.0</ele><time>2026-04-05T14:34:48.941Z</time></trkpt><trkpt lat="44.1265717" lon="8.1931617"><ele>222.83333333333334</ele><time>2026-04-05T14:34:50.941Z</time></trkpt><trkpt lat="44.126675" lon="8.1932017"><ele>223.66666666666669</ele><time>2026-04-05T14:34:52.941Z</time></trkpt><trkpt lat="44.1267617" lon="8.193315"><ele>224.5</ele><time>2026-04-05T14:34:54.94Z</time></trkpt><trkpt lat="44.1267867" lon="8.19341"><ele>225.33333333333334</ele><time>2026-04-05T14:34:55.941Z</time></trkpt><trkpt lat="44.126805" lon="8.1935017"><ele>226.16666666666669</ele><time>2026-04-05T14:34:56.94Z</time></trkpt><trkpt lat="44.1268133" lon="8.1936033"><ele>227.0</ele><time>2026-04-05T14:34:57.94Z</time></trkpt><trkpt lat="44.1268167" lon="8.1937183"><ele>227.0</ele><time>2026-04-05T14:34:58.941Z</time></trkpt><trkpt lat="44.12682" lon="8.1938667"><ele>227.0</ele><time>2026-04-05T14:34:59.94Z</time></trkpt><trkpt lat="44.1268133" lon="8.1940383"><ele>227.0</ele><time>2026-04-05T14:35:00.94Z</time></trkpt><trkpt lat="44.1268133" lon="8.194235"><ele>227.0</ele><time>2026-04-05T14:35:01.941Z</time></trkpt><trkpt lat="44.1268083" lon="8.1944467"><ele>223.0</ele><time>2026-04-05T14:35:02.94Z</time></trkpt><trkpt lat="44.126805" lon="8.19464"><ele>219.0</ele><time>2026-04-05T14:35:03.94Z</time></trkpt><trkpt lat="44.1267983" lon="8.1948183"><ele>215.0</ele><time>2026-04-05T14:35:04.941Z</time></trkpt><trkpt lat="44.1268017" lon="8.1949683"><ele>211.0</ele><time>2026-04-05T14:35:05.94Z</time></trkpt><trkpt lat="44.1268233" lon="8.1951133"><ele>208.8</ele><time>2026-04-05T14:35:06.94Z</time></trkpt><trkpt lat="44.126845" lon="8.1952583"><ele>206.60000000000002</ele><time>2026-04-05T14:35:07.94Z</time></trkpt><trkpt lat="44.1268717" lon="8.1953933"><ele>204.4</ele><time>2026-04-05T14:35:08.94Z</time></trkpt><trkpt lat="44.1269117" lon="8.1955233"><ele>202.2</ele><time>2026-04-05T14:35:09.94Z</time></trkpt><trkpt lat="44.126965" lon="8.1956533"><ele>200.0</ele><time>2026-04-05T14:35:10.94Z</time></trkpt><trkpt lat="44.1270367" lon="8.1957783"><ele>201.8</ele><time>2026-04-05T14:35:11.94Z</time></trkpt><trkpt lat="44.1271117" lon="8.19589"><ele>203.6</ele><time>2026-04-05T14:35:12.94Z</time></trkpt><trkpt lat="44.127195" lon="8.19599"><ele>205.39999999999998</ele><time>2026-04-05T14:35:13.94Z</time></trkpt><trkpt lat="44.12729" lon="8.196075"><ele>207.2</ele><time>2026-04-05T14:35:14.94Z</time></trkpt><trkpt lat="44.12739" lon="8.1961533"><ele>209.0</ele><time>2026-04-05T14:35:15.94Z</time></trkpt><trkpt lat="44.1274817" lon="8.1962317"><ele>209.0</ele><time>2026-04-05T14:35:16.94Z</time></trkpt><trkpt lat="44.12757" lon="8.1963033"><ele>209.0</ele><time>2026-04-05T14:35:17.94Z</time></trkpt><trkpt lat="44.1276483" lon="8.1963967"><ele>209.0</ele><time>2026-04-05T14:35:18.941Z</time></trkpt><trkpt lat="44.1277317" lon="8.1964767"><ele>209.0</ele><time>2026-04-05T14:35:19.94Z</time></trkpt><trkpt lat="44.1278217" lon="8.1965367"><ele>209.0</ele><time>2026-04-05T14:35:20.941Z</time></trkpt><trkpt lat="44.1279083" lon="8.1965917"><ele>204.50000000000003</ele><time>2026-04-05T14:35:21.94Z</time></trkpt><trkpt lat="44.1279933" lon="8.19664"><ele>200.0</ele><time>2026-04-05T14:35:22.94Z</time></trkpt><trkpt lat="44.1280717" lon="8.1966767"><ele>195.5</ele><time>2026-04-05T14:35:23.94Z</time></trkpt><trkpt lat="44.128135" lon="8.1967183"><ele>191.0</ele><time>2026-04-05T14:35:24.94Z</time></trkpt><trkpt lat="44.1281967" lon="8.1968233"><ele>186.5</ele><time>2026-04-05T14:35:26.94Z</time></trkpt><trkpt lat="44.1281367" lon="8.1969167"><ele>182.0</ele><time>2026-04-05T14:35:28.941Z</time></trkpt><trkpt lat="44.128065" lon="8.1969067"><ele>182.0</ele><time>2026-04-05T14:35:29.94Z</time></trkpt><trkpt lat="44.1279967" lon="8.196855"><ele>182.0</ele><time>2026-04-05T14:35:30.94Z</time></trkpt><trkpt lat="44.127925" lon="8.1967817"><ele>182.0</ele><time>2026-04-05T14:35:31.94Z</time></trkpt><trkpt lat="44.1278417" lon="8.196705"><ele>182.0</ele><time>2026-04-05T14:35:32.94Z</time></trkpt><trkpt lat="44.12775" lon="8.1966317"><ele>182.0</ele><time>2026-04-05T14:35:33.94Z</time></trkpt><trkpt lat="44.1276517" lon="8.1965667"><ele>182.5</ele><time>2026-04-05T14:35:34.94Z</time></trkpt><trkpt lat="44.1275517" lon="8.1964983"><ele>183.0</ele><time>2026-04-05T14:35:35.94Z</time></trkpt><trkpt lat="44.127445" lon="8.1964417"><ele>183.5</ele><time>2026-04-05T14:35:36.94Z</time></trkpt><trkpt lat="44.127345" lon="8.1963833"><ele>184.0</ele><time>2026-04-05T14:35:37.94Z</time></trkpt><trkpt lat="44.12724" lon="8.196315"><ele>184.0</ele><time>2026-04-05T14:35:38.94Z</time></trkpt><trkpt lat="44.12713" lon="8.196245"><ele>184.0</ele><time>2026-04-05T14:35:39.94Z</time></trkpt><trkpt lat="44.12702" lon="8.1961733"><ele>184.0</ele><time>2026-04-05T14:35:40.94Z</time></trkpt><trkpt lat="44.1269183" lon="8.1961033"><ele>184.0</ele><time>2026-04-05T14:35:41.94Z</time></trkpt><trkpt lat="44.1268183" lon="8.1960333"><ele>184.0</ele><time>2026-04-05T14:35:42.941Z</time></trkpt><trkpt lat="44.1267217" lon="8.1959533"><ele>184.0</ele><time>2026-04-05T14:35:43.94Z</time></trkpt><trkpt lat="44.1266267" lon="8.1958567"><ele>184.0</ele><time>2026-04-05T14:35:44.94Z</time></trkpt><trkpt lat="44.1265433" lon="8.1957417"><ele>184.0</ele><time>2026-04-05T14:35:45.941Z</time></trkpt><trkpt lat="44.1264683" lon="8.1956167"><ele>179.25</ele><time>2026-04-05T14:35:46.94Z</time></trkpt><trkpt lat="44.1264017" lon="8.19547"><ele>174.5</ele><time>2026-04-05T14:35:47.94Z</time></trkpt><trkpt lat="44.1263517" lon="8.1953167"><ele>169.75</ele><time>2026-04-05T14:35:48.94Z</time></trkpt><trkpt lat="44.1263117" lon="8.1951483"><ele>165.0</ele><time>2026-04-05T14:35:49.94Z</time></trkpt><trkpt lat="44.1262867" lon="8.1949867"><ele>165.0</ele><time>2026-04-05T14:35:50.94Z</time></trkpt><trkpt lat="44.126275" lon="8.19484"><ele>165.0</ele><time>2026-04-05T14:35:51.94Z</time></trkpt><trkpt lat="44.1262617" lon="8.1947133"><ele>165.0</ele><time>2026-04-05T14:35:52.94Z</time></trkpt><trkpt lat="44.1262267" lon="8.1946083"><ele>165.0</ele><time>2026-04-05T14:35:53.94Z</time></trkpt><trkpt lat="44.12618" lon="8.1945183"><ele>165.0</ele><time>2026-04-05T14:35:54.94Z</time></trkpt><trkpt lat="44.1261067" lon="8.19447"><ele>165.0</ele><time>2026-04-05T14:35:55.94Z</time></trkpt><trkpt lat="44.1260283" lon="8.194455"><ele>166.0</ele><time>2026-04-05T14:35:56.94Z</time></trkpt><trkpt lat="44.125925" lon="8.1944767"><ele>167.0</ele><time>2026-04-05T14:35:57.941Z</time></trkpt><trkpt lat="44.1258117" lon="8.1945183"><ele>168.0</ele><time>2026-04-05T14:35:58.94Z</time></trkpt><trkpt lat="44.12569" lon="8.19455"><ele>169.0</ele><time>2026-04-05T14:35:59.94Z</time></trkpt><trkpt lat="44.12556" lon="8.1945617"><ele>169.0</ele><time>2026-04-05T14:36:00.94Z</time></trkpt><trkpt lat="44.12543" lon="8.1945667"><ele>169.0</ele><time>2026-04-05T14:36:01.941Z</time></trkpt><trkpt lat="44.1253067" lon="8.1945483"><ele>169.0</ele><time>2026-04-05T14:36:02.94Z</time></trkpt><trkpt lat="44.125185" lon="8.1945233"><ele>169.0</ele><time>2026-04-05T14:36:03.94Z</time></trkpt><trkpt lat="44.125075" lon="8.194495"><ele>169.0</ele><time>2026-04-05T14:36:04.94Z</time></trkpt><trkpt lat="44.1249733" lon="8.194435"><ele>169.0</ele><time>2026-04-05T14:36:05.94Z</time></trkpt><trkpt lat="44.1248733" lon="8.1943433"><ele>169.0</ele><time>2026-04-05T14:36:06.94Z</time></trkpt><trkpt lat="44.12478" lon="8.19424"><ele>169.0</ele><time>2026-04-05T14:36:07.94Z</time></trkpt><trkpt lat="44.1246783" lon="8.194125"><ele>168.0</ele><time>2026-04-05T14:36:08.941Z</time></trkpt><trkpt lat="44.12457" lon="8.1940183"><ele>167.0</ele><time>2026-04-05T14:36:09.94Z</time></trkpt><trkpt lat="44.1244617" lon="8.193915"><ele>166.0</ele><time>2026-04-05T14:36:10.94Z</time></trkpt><trkpt lat="44.1243633" lon="8.19379"><ele>165.0</ele><time>2026-04-05T14:36:11.94Z</time></trkpt><trkpt lat="44.124255" lon="8.1936817"><ele>165.0</ele><time>2026-04-05T14:36:12.94Z</time></trkpt><trkpt lat="44.1241583" lon="8.1935717"><ele>165.0</ele><time>2026-04-05T14:36:13.94Z</time></trkpt><trkpt lat="44.1240733" lon="8.1934583"><ele>165.0</ele><time>2026-04-05T14:36:14.941Z</time></trkpt><trkpt lat="44.1239967" lon="8.19335"><ele>165.0</ele><time>2026-04-05T14:36:15.94Z</time></trkpt><trkpt lat="44.1239367" lon="8.19322"><ele>163.0</ele><time>2026-04-05T14:36:16.94Z</time></trkpt><trkpt lat="44.1238717" lon="8.193075"><ele>161.0</ele><time>2026-04-05T14:36:17.94Z</time></trkpt><trkpt lat="44.123795" lon="8.1929583"><ele>159.0</ele><time>2026-04-05T14:36:18.94Z</time></trkpt><trkpt lat="44.1236883" lon="8.19287"><ele>157.0</ele><time>2026-04-05T14:36:19.94Z</time></trkpt><trkpt lat="44.1235767" lon="8.1927983"><ele>157.0</ele><time>2026-04-05T14:36:20.94Z</time></trkpt><trkpt lat="44.1234633" lon="8.1927217"><ele>157.0</ele><time>2026-04-05T14:36:21.941Z</time></trkpt><trkpt lat="44.123355" lon="8.19265"><ele>157.0</ele><time>2026-04-05T14:36:22.94Z</time></trkpt><trkpt lat="44.1232433" lon="8.19257"><ele>157.0</ele><time>2026-04-05T14:36:23.941Z</time></trkpt><trkpt lat="44.12314" lon="8.1924733"><ele>150.5</ele><time>2026-04-05T14:36:24.94Z</time></trkpt><trkpt lat="44.1230417" lon="8.192355"><ele>144.0</ele><time>2026-04-05T14:36:25.94Z</time></trkpt><trkpt lat="44.122965" lon="8.1922217"><ele>137.5</ele><time>2026-04-05T14:36:26.94Z</time></trkpt><trkpt lat="44.122895" lon="8.1920667"><ele>131.0</ele><time>2026-04-05T14:36:27.94Z</time></trkpt><trkpt lat="44.122855" lon="8.1919217"><ele>131.0</ele><time>2026-04-05T14:36:28.94Z</time></trkpt><trkpt lat="44.12283" lon="8.19178"><ele>131.0</ele><time>2026-04-05T14:36:29.941Z</time></trkpt><trkpt lat="44.1228183" lon="8.1916617"><ele>131.0</ele><time>2026-04-05T14:36:30.94Z</time></trkpt><trkpt lat="44.1227967" lon="8.1915633"><ele>131.0</ele><time>2026-04-05T14:36:31.94Z</time></trkpt><trkpt lat="44.1227383" lon="8.1915033"><ele>131.0</ele><time>2026-04-05T14:36:32.94Z</time></trkpt><trkpt lat="44.1226683" lon="8.1914833"><ele>131.0</ele><time>2026-04-05T14:36:33.94Z</time></trkpt><trkpt lat="44.1225833" lon="8.1916033"><ele>131.0</ele><time>2026-04-05T14:36:35.94Z</time></trkpt><trkpt lat="44.1225767" lon="8.191705"><ele>131.0</ele><time>2026-04-05T14:36:36.94Z</time></trkpt><trkpt lat="44.1225917" lon="8.1918167"><ele>131.0</ele><time>2026-04-05T14:36:37.94Z</time></trkpt><trkpt lat="44.122625" lon="8.1919517"><ele>131.0</ele><time>2026-04-05T14:36:38.94Z</time></trkpt><trkpt lat="44.1226783" lon="8.1920867"><ele>131.0</ele><time>2026-04-05T14:36:39.94Z</time></trkpt><trkpt lat="44.1227267" lon="8.19223"><ele>127.25</ele><time>2026-04-05T14:36:40.94Z</time></trkpt><trkpt lat="44.122775" lon="8.1923783"><ele>123.5</ele><time>2026-04-05T14:36:41.94Z</time></trkpt><trkpt lat="44.1228267" lon="8.1925233"><ele>119.75</ele><time>2026-04-05T14:36:42.94Z</time></trkpt><trkpt lat="44.1228867" lon="8.1926783"><ele>116.0</ele><time>2026-04-05T14:36:43.94Z</time></trkpt><trkpt lat="44.1229683" lon="8.1928217"><ele>116.0</ele><time>2026-04-05T14:36:44.94Z</time></trkpt><trkpt lat="44.1230683" lon="8.19295"><ele>116.0</ele><time>2026-04-05T14:36:45.94Z</time></trkpt><trkpt lat="44.1231683" lon="8.1930783"><ele>116.0</ele><time>2026-04-05T14:36:46.94Z</time></trkpt><trkpt lat="44.1232583" lon="8.193215"><ele>116.0</ele><time>2026-04-05T14:36:47.941Z</time></trkpt><trkpt lat="44.1233333" lon="8.1933533"><ele>115.0</ele><time>2026-04-05T14:36:48.94Z</time></trkpt><trkpt lat="44.123405" lon="8.1935117"><ele>114.0</ele><time>2026-04-05T14:36:49.94Z</time></trkpt><trkpt lat="44.12346" lon="8.193675"><ele>113.0</ele><time>2026-04-05T14:36:50.94Z</time></trkpt><trkpt lat="44.1235167" lon="8.1938383"><ele>112.0</ele><time>2026-04-05T14:36:51.94Z</time></trkpt><trkpt lat="44.1235833" lon="8.194005"><ele>112.0</ele><time>2026-04-05T14:36:52.941Z</time></trkpt><trkpt lat="44.1236683" lon="8.1941733"><ele>112.0</ele><time>2026-04-05T14:36:53.94Z</time></trkpt><trkpt lat="44.1237617" lon="8.1943433"><ele>112.0</ele><time>2026-04-05T14:36:54.94Z</time></trkpt><trkpt lat="44.1238683" lon="8.19451"><ele>112.0</ele><time>2026-04-05T14:36:55.94Z</time></trkpt><trkpt lat="44.1239733" lon="8.19469"><ele>112.0</ele><time>2026-04-05T14:36:56.94Z</time></trkpt><trkpt lat="44.1240683" lon="8.194865"><ele>112.0</ele><time>2026-04-05T14:36:57.94Z</time></trkpt><trkpt lat="44.1241617" lon="8.19505"><ele>113.75</ele><time>2026-04-05T14:36:58.94Z</time></trkpt><trkpt lat="44.12425" lon="8.1952233"><ele>115.5</ele><time>2026-04-05T14:36:59.94Z</time></trkpt><trkpt lat="44.1243283" lon="8.1953967"><ele>117.25</ele><time>2026-04-05T14:37:00.941Z</time></trkpt><trkpt lat="44.124405" lon="8.1955733"><ele>119.0</ele><time>2026-04-05T14:37:01.94Z</time></trkpt><trkpt lat="44.1244767" lon="8.19575"><ele>115.0</ele><time>2026-04-05T14:37:02.94Z</time></trkpt><trkpt lat="44.1245267" lon="8.1959"><ele>111.0</ele><time>2026-04-05T14:37:03.94Z</time></trkpt><trkpt lat="44.1245617" lon="8.1960317"><ele>107.0</ele><time>2026-04-05T14:37:04.941Z</time></trkpt><trkpt lat="44.1245883" lon="8.1961533"><ele>103.0</ele><time>2026-04-05T14:37:05.94Z</time></trkpt><trkpt lat="44.124585" lon="8.1962783"><ele>99.0</ele><time>2026-04-05T14:37:06.94Z</time></trkpt><trkpt lat="44.1245583" lon="8.1964067"><ele>98.2</ele><time>2026-04-05T14:37:07.94Z</time></trkpt><trkpt lat="44.1245267" lon="8.196535"><ele>97.4</ele><time>2026-04-05T14:37:08.94Z</time></trkpt><trkpt lat="44.1244983" lon="8.1966667"><ele>96.6</ele><time>2026-04-05T14:37:09.94Z</time></trkpt><trkpt lat="44.12449" lon="8.1968067"><ele>95.8</ele><time>2026-04-05T14:37:10.94Z</time></trkpt><trkpt lat="44.124515" lon="8.1969533"><ele>95.0</ele><time>2026-04-05T14:37:11.94Z</time></trkpt><trkpt lat="44.1245817" lon="8.1970867"><ele>95.0</ele><time>2026-04-05T14:37:12.94Z</time></trkpt><trkpt lat="44.1246667" lon="8.1972133"><ele>95.0</ele><time>2026-04-05T14:37:13.94Z</time></trkpt><trkpt lat="44.1247617" lon="8.1973483"><ele>95.0</ele><time>2026-04-05T14:37:14.94Z</time></trkpt><trkpt lat="44.1248633" lon="8.19749"><ele>95.0</ele><time>2026-04-05T14:37:15.94Z</time></trkpt><trkpt lat="44.124965" lon="8.1976117"><ele>96.25</ele><time>2026-04-05T14:37:16.94Z</time></trkpt><trkpt lat="44.12506" lon="8.1977467"><ele>97.5</ele><time>2026-04-05T14:37:17.94Z</time></trkpt><trkpt lat="44.1251517" lon="8.1978717"><ele>98.75</ele><time>2026-04-05T14:37:18.94Z</time></trkpt><trkpt lat="44.1252283" lon="8.1980017"><ele>100.0</ele><time>2026-04-05T14:37:19.941Z</time></trkpt><trkpt lat="44.1252867" lon="8.1981417"><ele>97.25</ele><time>2026-04-05T14:37:20.94Z</time></trkpt><trkpt lat="44.1253333" lon="8.1982967"><ele>94.5</ele><time>2026-04-05T14:37:21.94Z</time></trkpt><trkpt lat="44.125385" lon="8.1984633"><ele>91.75</ele><time>2026-04-05T14:37:22.94Z</time></trkpt><trkpt lat="44.1254217" lon="8.1986383"><ele>89.0</ele><time>2026-04-05T14:37:23.94Z</time></trkpt><trkpt lat="44.1254733" lon="8.1988083"><ele>89.0</ele><time>2026-04-05T14:37:24.94Z</time></trkpt><trkpt lat="44.125515" lon="8.198975"><ele>89.0</ele><time>2026-04-05T14:37:25.94Z</time></trkpt><trkpt lat="44.1255717" lon="8.1991433"><ele>89.0</ele><time>2026-04-05T14:37:26.94Z</time></trkpt><trkpt lat="44.1256167" lon="8.1993083"><ele>89.0</ele><time>2026-04-05T14:37:27.94Z</time></trkpt><trkpt lat="44.1256567" lon="8.19947"><ele>89.0</ele><time>2026-04-05T14:37:28.94Z</time></trkpt><trkpt lat="44.1257033" lon="8.1996417"><ele>89.0</ele><time>2026-04-05T14:37:29.94Z</time></trkpt><trkpt lat="44.12574" lon="8.1998167"><ele>89.0</ele><time>2026-04-05T14:37:30.94Z</time></trkpt><trkpt lat="44.1257767" lon="8.19997"><ele>89.0</ele><time>2026-04-05T14:37:31.94Z</time></trkpt><trkpt lat="44.1258167" lon="8.20012"><ele>87.5</ele><time>2026-04-05T14:37:32.941Z</time></trkpt><trkpt lat="44.12585" lon="8.2002783"><ele>86.0</ele><time>2026-04-05T14:37:33.94Z</time></trkpt><trkpt lat="44.1258733" lon="8.200435"><ele>84.5</ele><time>2026-04-05T14:37:34.941Z</time></trkpt><trkpt lat="44.125885" lon="8.2005983"><ele>83.0</ele><time>2026-04-05T14:37:35.94Z</time></trkpt><trkpt lat="44.1258933" lon="8.200765"><ele>82.0</ele><time>2026-04-05T14:37:36.94Z</time></trkpt><trkpt lat="44.1258983" lon="8.2009333"><ele>81.0</ele><time>2026-04-05T14:37:37.941Z</time></trkpt><trkpt lat="44.1259133" lon="8.2011033"><ele>80.0</ele><time>2026-04-05T14:37:38.94Z</time></trkpt><trkpt lat="44.1259233" lon="8.20127"><ele>79.0</ele><time>2026-04-05T14:37:39.94Z</time></trkpt><trkpt lat="44.12593" lon="8.2014433"><ele>78.0</ele><time>2026-04-05T14:37:40.94Z</time></trkpt><trkpt lat="44.1259317" lon="8.2016083"><ele>77.0</ele><time>2026-04-05T14:37:41.94Z</time></trkpt><trkpt lat="44.125935" lon="8.2017583"><ele>76.0</ele><time>2026-04-05T14:37:42.94Z</time></trkpt><trkpt lat="44.1259367" lon="8.2018983"><ele>75.0</ele><time>2026-04-05T14:37:43.941Z</time></trkpt><trkpt lat="44.125935" lon="8.2020167"><ele>74.0</ele><time>2026-04-05T14:37:44.941Z</time></trkpt><trkpt lat="44.1259217" lon="8.2021233"><ele>74.0</ele><time>2026-04-05T14:37:45.94Z</time></trkpt><trkpt lat="44.1259067" lon="8.202225"><ele>74.0</ele><time>2026-04-05T14:37:46.94Z</time></trkpt><trkpt lat="44.12591" lon="8.2023317"><ele>74.0</ele><time>2026-04-05T14:37:47.94Z</time></trkpt><trkpt lat="44.125935" lon="8.20245"><ele>74.0</ele><time>2026-04-05T14:37:48.94Z</time></trkpt><trkpt lat="44.125975" lon="8.202575"><ele>74.0</ele><time>2026-04-05T14:37:49.94Z</time></trkpt><trkpt lat="44.12601" lon="8.2027183"><ele>74.0</ele><time>2026-04-05T14:37:50.94Z</time></trkpt><trkpt lat="44.1260383" lon="8.202875"><ele>73.0</ele><time>2026-04-05T14:37:51.94Z</time></trkpt><trkpt lat="44.1260783" lon="8.2030317"><ele>72.0</ele><time>2026-04-05T14:37:52.94Z</time></trkpt><trkpt lat="44.1261167" lon="8.2031867"><ele>71.0</ele><time>2026-04-05T14:37:53.94Z</time></trkpt><trkpt lat="44.1261517" lon="8.2033417"><ele>70.0</ele><time>2026-04-05T14:37:54.94Z</time></trkpt><trkpt lat="44.1261883" lon="8.2034917"><ele>70.0</ele><time>2026-04-05T14:37:55.941Z</time></trkpt><trkpt lat="44.1262217" lon="8.20366"><ele>70.0</ele><time>2026-04-05T14:37:56.94Z</time></trkpt><trkpt lat="44.1262517" lon="8.20382"><ele>70.0</ele><time>2026-04-05T14:37:57.94Z</time></trkpt><trkpt lat="44.1262767" lon="8.203965"><ele>70.0</ele><time>2026-04-05T14:37:58.94Z</time></trkpt><trkpt lat="44.1263" lon="8.204105"><ele>69.5</ele><time>2026-04-05T14:37:59.94Z</time></trkpt><trkpt lat="44.1263267" lon="8.2042233"><ele>69.0</ele><time>2026-04-05T14:38:00.94Z</time></trkpt><trkpt lat="44.1263533" lon="8.2043217"><ele>68.5</ele><time>2026-04-05T14:38:01.94Z</time></trkpt><trkpt lat="44.1263833" lon="8.2044083"><ele>68.0</ele><time>2026-04-05T14:38:02.94Z</time></trkpt><trkpt lat="44.12645" lon="8.2044483"><ele>67.5</ele><time>2026-04-05T14:38:03.94Z</time></trkpt><trkpt lat="44.12653" lon="8.204475"><ele>67.0</ele><time>2026-04-05T14:38:04.94Z</time></trkpt><trkpt lat="44.1266183" lon="8.2045017"><ele>67.0</ele><time>2026-04-05T14:38:05.94Z</time></trkpt><trkpt lat="44.1267017" lon="8.2045267"><ele>67.0</ele><time>2026-04-05T14:38:06.94Z</time></trkpt><trkpt lat="44.1267933" lon="8.2045533"><ele>67.0</ele><time>2026-04-05T14:38:07.94Z</time></trkpt><trkpt lat="44.1268583" lon="8.2045917"><ele>67.0</ele><time>2026-04-05T14:38:08.94Z</time></trkpt><trkpt lat="44.1269267" lon="8.2046317"><ele>67.0</ele><time>2026-04-05T14:38:09.941Z</time></trkpt><trkpt lat="44.12699" lon="8.2046617"><ele>67.0</ele><time>2026-04-05T14:38:10.94Z</time></trkpt><trkpt lat="44.127095" lon="8.2047017"><ele>67.0</ele><time>2026-04-05T14:38:12.941Z</time></trkpt><trkpt lat="44.1271567" lon="8.2047617"><ele>67.0</ele><time>2026-04-05T14:38:14.94Z</time></trkpt><trkpt lat="44.12715" lon="8.2049017"><ele>67.0</ele><time>2026-04-05T14:38:17.94Z</time></trkpt><trkpt lat="44.1270667" lon="8.2050283"><ele>67.0</ele><time>2026-04-05T14:38:19.94Z</time></trkpt><trkpt lat="44.1270083" lon="8.2051233"><ele>67.0</ele><time>2026-04-05T14:38:20.94Z</time></trkpt><trkpt lat="44.126935" lon="8.20524"><ele>66.5</ele><time>2026-04-05T14:38:21.94Z</time></trkpt><trkpt lat="44.1268567" lon="8.20536"><ele>66.0</ele><time>2026-04-05T14:38:22.94Z</time></trkpt><trkpt lat="44.1267817" lon="8.2054867"><ele>65.5</ele><time>2026-04-05T14:38:23.94Z</time></trkpt><trkpt lat="44.12671" lon="8.2056283"><ele>65.0</ele><time>2026-04-05T14:38:24.94Z</time></trkpt><trkpt lat="44.12663" lon="8.2057633"><ele>64.0</ele><time>2026-04-05T14:38:25.94Z</time></trkpt><trkpt lat="44.1265583" lon="8.2058933"><ele>63.0</ele><time>2026-04-05T14:38:26.94Z</time></trkpt><trkpt lat="44.1264867" lon="8.2060083"><ele>62.0</ele><time>2026-04-05T14:38:27.94Z</time></trkpt><trkpt lat="44.1264183" lon="8.2061133"><ele>61.0</ele><time>2026-04-05T14:38:28.94Z</time></trkpt><trkpt lat="44.126355" lon="8.2062283"><ele>60.0</ele><time>2026-04-05T14:38:29.94Z</time></trkpt><trkpt lat="44.1262883" lon="8.2063483"><ele>60.0</ele><time>2026-04-05T14:38:30.94Z</time></trkpt><trkpt lat="44.1262317" lon="8.2064633"><ele>60.0</ele><time>2026-04-05T14:38:31.94Z</time></trkpt><trkpt lat="44.1261717" lon="8.20657"><ele>60.0</ele><time>2026-04-05T14:38:32.94Z</time></trkpt><trkpt lat="44.1261083" lon="8.2066733"><ele>60.0</ele><time>2026-04-05T14:38:33.94Z</time></trkpt><trkpt lat="44.1260333" lon="8.2067733"><ele>60.0</ele><time>2026-04-05T14:38:34.94Z</time></trkpt><trkpt lat="44.125975" lon="8.2068833"><ele>60.2</ele><time>2026-04-05T14:38:35.94Z</time></trkpt><trkpt lat="44.1259083" lon="8.206995"><ele>60.4</ele><time>2026-04-05T14:38:36.94Z</time></trkpt><trkpt lat="44.1258517" lon="8.2071033"><ele>60.599999999999994</ele><time>2026-04-05T14:38:37.94Z</time></trkpt><trkpt lat="44.125795" lon="8.20721"><ele>60.8</ele><time>2026-04-05T14:38:38.94Z</time></trkpt><trkpt lat="44.1257383" lon="8.2073167"><ele>61.0</ele><time>2026-04-05T14:38:39.94Z</time></trkpt><trkpt lat="44.1256783" lon="8.2074433"><ele>61.0</ele><time>2026-04-05T14:38:40.94Z</time></trkpt><trkpt lat="44.1256033" lon="8.2075567"><ele>60.99999999999999</ele><time>2026-04-05T14:38:41.94Z</time></trkpt><trkpt lat="44.1255317" lon="8.2076817"><ele>60.99999999999999</ele><time>2026-04-05T14:38:42.94Z</time></trkpt><trkpt lat="44.1254733" lon="8.2078017"><ele>61.0</ele><time>2026-04-05T14:38:43.94Z</time></trkpt><trkpt lat="44.1254067" lon="8.2079317"><ele>61.0</ele><time>2026-04-05T14:38:44.941Z</time></trkpt><trkpt lat="44.1253433" lon="8.2080617"><ele>60.25</ele><time>2026-04-05T14:38:45.941Z</time></trkpt><trkpt lat="44.125265" lon="8.2082133"><ele>59.5</ele><time>2026-04-05T14:38:46.94Z</time></trkpt><trkpt lat="44.12518" lon="8.2083617"><ele>58.75</ele><time>2026-04-05T14:38:47.94Z</time></trkpt><trkpt lat="44.1251017" lon="8.2084967"><ele>58.0</ele><time>2026-04-05T14:38:48.94Z</time></trkpt><trkpt lat="44.1250217" lon="8.2086317"><ele>58.0</ele><time>2026-04-05T14:38:49.94Z</time></trkpt><trkpt lat="44.1249517" lon="8.2087617"><ele>58.0</ele><time>2026-04-05T14:38:50.94Z</time></trkpt><trkpt lat="44.1248833" lon="8.2089"><ele>58.0</ele><time>2026-04-05T14:38:51.94Z</time></trkpt><trkpt lat="44.12482" lon="8.2090533"><ele>58.0</ele><time>2026-04-05T14:38:52.94Z</time></trkpt><trkpt lat="44.1247533" lon="8.20921"><ele>58.5</ele><time>2026-04-05T14:38:53.94Z</time></trkpt><trkpt lat="44.124685" lon="8.20937"><ele>59.0</ele><time>2026-04-05T14:38:54.94Z</time></trkpt><trkpt lat="44.124625" lon="8.2095217"><ele>59.5</ele><time>2026-04-05T14:38:55.94Z</time></trkpt><trkpt lat="44.1245717" lon="8.20967"><ele>60.0</ele><time>2026-04-05T14:38:56.94Z</time></trkpt><trkpt lat="44.1245183" lon="8.20981"><ele>58.5</ele><time>2026-04-05T14:38:57.94Z</time></trkpt><trkpt lat="44.1244583" lon="8.2099433"><ele>57.0</ele><time>2026-04-05T14:38:58.94Z</time></trkpt><trkpt lat="44.1244" lon="8.2100817"><ele>55.5</ele><time>2026-04-05T14:38:59.94Z</time></trkpt><trkpt lat="44.1243433" lon="8.2102167"><ele>54.0</ele><time>2026-04-05T14:39:00.94Z</time></trkpt><trkpt lat="44.1242817" lon="8.2103517"><ele>54.0</ele><time>2026-04-05T14:39:01.94Z</time></trkpt><trkpt lat="44.1242233" lon="8.2104767"><ele>54.00000000000001</ele><time>2026-04-05T14:39:02.94Z</time></trkpt><trkpt lat="44.12416" lon="8.2105983"><ele>54.00000000000001</ele><time>2026-04-05T14:39:03.94Z</time></trkpt><trkpt lat="44.1241067" lon="8.2107167"><ele>54.0</ele><time>2026-04-05T14:39:04.94Z</time></trkpt><trkpt lat="44.124055" lon="8.2108267"><ele>54.0</ele><time>2026-04-05T14:39:05.941Z</time></trkpt><trkpt lat="44.1240017" lon="8.21094"><ele>57.666666666666664</ele><time>2026-04-05T14:39:06.941Z</time></trkpt><trkpt lat="44.1239617" lon="8.2110467"><ele>61.33333333333333</ele><time>2026-04-05T14:39:07.94Z</time></trkpt><trkpt lat="44.1239183" lon="8.2111467"><ele>65.0</ele><time>2026-04-05T14:39:08.94Z</time></trkpt><trkpt lat="44.1238767" lon="8.21125"><ele>68.66666666666666</ele><time>2026-04-05T14:39:09.94Z</time></trkpt><trkpt lat="44.1238267" lon="8.2113283"><ele>72.33333333333333</ele><time>2026-04-05T14:39:10.94Z</time></trkpt><trkpt lat="44.1237783" lon="8.2114067"><ele>76.0</ele><time>2026-04-05T14:39:11.94Z</time></trkpt><trkpt lat="44.1237383" lon="8.2114883"><ele>73.33333333333333</ele><time>2026-04-05T14:39:12.94Z</time></trkpt><trkpt lat="44.1237033" lon="8.2115817"><ele>70.66666666666666</ele><time>2026-04-05T14:39:13.94Z</time></trkpt><trkpt lat="44.1236667" lon="8.2116733"><ele>68.0</ele><time>2026-04-05T14:39:14.94Z</time></trkpt><trkpt lat="44.1236317" lon="8.211775"><ele>65.33333333333333</ele><time>2026-04-05T14:39:15.94Z</time></trkpt><trkpt lat="44.123595" lon="8.211875"><ele>62.666666666666664</ele><time>2026-04-05T14:39:16.94Z</time></trkpt><trkpt lat="44.123545" lon="8.21198"><ele>60.0</ele><time>2026-04-05T14:39:17.94Z</time></trkpt><trkpt lat="44.1235" lon="8.2120883"><ele>60.0</ele><time>2026-04-05T14:39:18.94Z</time></trkpt><trkpt lat="44.1234517" lon="8.2121867"><ele>60.0</ele><time>2026-04-05T14:39:19.94Z</time></trkpt><trkpt lat="44.1234067" lon="8.2122883"><ele>60.0</ele><time>2026-04-05T14:39:20.94Z</time></trkpt><trkpt lat="44.1233617" lon="8.2123967"><ele>60.0</ele><time>2026-04-05T14:39:21.94Z</time></trkpt><trkpt lat="44.1233133" lon="8.212505"><ele>60.0</ele><time>2026-04-05T14:39:22.94Z</time></trkpt><trkpt lat="44.1232717" lon="8.2126167"><ele>60.0</ele><time>2026-04-05T14:39:23.94Z</time></trkpt><trkpt lat="44.1232233" lon="8.2127317"><ele>59.6</ele><time>2026-04-05T14:39:24.94Z</time></trkpt><trkpt lat="44.1231783" lon="8.21285"><ele>59.2</ele><time>2026-04-05T14:39:25.94Z</time></trkpt><trkpt lat="44.123145" lon="8.212975"><ele>58.8</ele><time>2026-04-05T14:39:26.94Z</time></trkpt><trkpt lat="44.1231183" lon="8.2131133"><ele>58.4</ele><time>2026-04-05T14:39:27.94Z</time></trkpt><trkpt lat="44.1230917" lon="8.2132517"><ele>58.0</ele><time>2026-04-05T14:39:28.94Z</time></trkpt><trkpt lat="44.1230633" lon="8.213385"><ele>58.0</ele><time>2026-04-05T14:39:29.941Z</time></trkpt><trkpt lat="44.1230217" lon="8.213515"><ele>58.0</ele><time>2026-04-05T14:39:30.94Z</time></trkpt><trkpt lat="44.1229667" lon="8.2136333"><ele>58.0</ele><time>2026-04-05T14:39:31.94Z</time></trkpt><trkpt lat="44.1229083" lon="8.2137367"><ele>58.0</ele><time>2026-04-05T14:39:32.941Z</time></trkpt><trkpt lat="44.1228417" lon="8.213835"><ele>58.0</ele><time>2026-04-05T14:39:33.94Z</time></trkpt><trkpt lat="44.1227667" lon="8.213925"><ele>58.8</ele><time>2026-04-05T14:39:34.94Z</time></trkpt><trkpt lat="44.1226817" lon="8.2140217"><ele>59.599999999999994</ele><time>2026-04-05T14:39:35.94Z</time></trkpt><trkpt lat="44.1225917" lon="8.2141167"><ele>60.400000000000006</ele><time>2026-04-05T14:39:36.94Z</time></trkpt><trkpt lat="44.1225067" lon="8.2142183"><ele>61.2</ele><time>2026-04-05T14:39:37.94Z</time></trkpt><trkpt lat="44.1224183" lon="8.2143133"><ele>62.0</ele><time>2026-04-05T14:39:38.941Z</time></trkpt><trkpt lat="44.1223317" lon="8.2144133"><ele>62.0</ele><time>2026-04-05T14:39:39.94Z</time></trkpt><trkpt lat="44.1222583" lon="8.2145167"><ele>62.0</ele><time>2026-04-05T14:39:40.94Z</time></trkpt><trkpt lat="44.12218" lon="8.2146183"><ele>62.0</ele><time>2026-04-05T14:39:41.94Z</time></trkpt><trkpt lat="44.12211" lon="8.214725"><ele>62.0</ele><time>2026-04-05T14:39:42.94Z</time></trkpt><trkpt lat="44.1220367" lon="8.2148317"><ele>62.0</ele><time>2026-04-05T14:39:43.94Z</time></trkpt><trkpt lat="44.12197" lon="8.21495"><ele>59.6</ele><time>2026-04-05T14:39:44.94Z</time></trkpt><trkpt lat="44.1219083" lon="8.2150667"><ele>57.2</ele><time>2026-04-05T14:39:45.94Z</time></trkpt><trkpt lat="44.1218433" lon="8.2151917"><ele>54.8</ele><time>2026-04-05T14:39:46.94Z</time></trkpt><trkpt lat="44.1217867" lon="8.2153217"><ele>52.4</ele><time>2026-04-05T14:39:47.94Z</time></trkpt><trkpt lat="44.121735" lon="8.2154617"><ele>50.0</ele><time>2026-04-05T14:39:48.94Z</time></trkpt><trkpt lat="44.1216833" lon="8.2156067"><ele>50.75</ele><time>2026-04-05T14:39:49.941Z</time></trkpt><trkpt lat="44.1216383" lon="8.2157483"><ele>51.5</ele><time>2026-04-05T14:39:50.94Z</time></trkpt><trkpt lat="44.1215967" lon="8.2159033"><ele>52.25</ele><time>2026-04-05T14:39:51.94Z</time></trkpt><trkpt lat="44.121565" lon="8.21606"><ele>53.0</ele><time>2026-04-05T14:39:52.94Z</time></trkpt><trkpt lat="44.12153" lon="8.2162167"><ele>53.0</ele><time>2026-04-05T14:39:53.94Z</time></trkpt><trkpt lat="44.1214983" lon="8.2163667"><ele>53.0</ele><time>2026-04-05T14:39:54.941Z</time></trkpt><trkpt lat="44.1214767" lon="8.2165183"><ele>53.0</ele><time>2026-04-05T14:39:55.941Z</time></trkpt><trkpt lat="44.1214583" lon="8.216675"><ele>53.0</ele><time>2026-04-05T14:39:56.94Z</time></trkpt><trkpt lat="44.1214283" lon="8.2168483"><ele>53.333333333333336</ele><time>2026-04-05T14:39:57.94Z</time></trkpt><trkpt lat="44.121405" lon="8.2170383"><ele>53.66666666666667</ele><time>2026-04-05T14:39:58.941Z</time></trkpt><trkpt lat="44.12137" lon="8.2172433"><ele>54.0</ele><time>2026-04-05T14:39:59.941Z</time></trkpt><trkpt lat="44.1213317" lon="8.2174683"><ele>51.333333333333336</ele><time>2026-04-05T14:40:00.94Z</time></trkpt><trkpt lat="44.1212933" lon="8.2177083"><ele>48.66666666666667</ele><time>2026-04-05T14:40:01.94Z</time></trkpt><trkpt lat="44.1212517" lon="8.2179667"><ele>46.0</ele><time>2026-04-05T14:40:02.94Z</time></trkpt><trkpt lat="44.1212083" lon="8.2182117"><ele>43.333333333333336</ele><time>2026-04-05T14:40:03.94Z</time></trkpt><trkpt lat="44.1211583" lon="8.2184483"><ele>40.666666666666664</ele><time>2026-04-05T14:40:04.94Z</time></trkpt><trkpt lat="44.1210967" lon="8.2186583"><ele>38.0</ele><time>2026-04-05T14:40:05.941Z</time></trkpt><trkpt lat="44.121035" lon="8.2188533"><ele>37.25</ele><time>2026-04-05T14:40:06.94Z</time></trkpt><trkpt lat="44.12098" lon="8.21903"><ele>36.5</ele><time>2026-04-05T14:40:07.94Z</time></trkpt><trkpt lat="44.1209233" lon="8.2191933"><ele>35.75</ele><time>2026-04-05T14:40:08.94Z</time></trkpt><trkpt lat="44.1208633" lon="8.2193483"><ele>35.0</ele><time>2026-04-05T14:40:09.94Z</time></trkpt><trkpt lat="44.1208017" lon="8.2195083"><ele>35.0</ele><time>2026-04-05T14:40:10.941Z</time></trkpt><trkpt lat="44.1207383" lon="8.2196833"><ele>35.0</ele><time>2026-04-05T14:40:11.94Z</time></trkpt><trkpt lat="44.1206733" lon="8.21984"><ele>35.0</ele><time>2026-04-05T14:40:12.941Z</time></trkpt><trkpt lat="44.1206067" lon="8.219995"><ele>35.0</ele><time>2026-04-05T14:40:13.94Z</time></trkpt><trkpt lat="44.1205433" lon="8.2201367"><ele>34.5</ele><time>2026-04-05T14:40:14.94Z</time></trkpt><trkpt lat="44.120475" lon="8.220275"><ele>34.0</ele><time>2026-04-05T14:40:15.941Z</time></trkpt><trkpt lat="44.120405" lon="8.2204133"><ele>33.5</ele><time>2026-04-05T14:40:16.94Z</time></trkpt><trkpt lat="44.1203317" lon="8.2205467"><ele>33.0</ele><time>2026-04-05T14:40:17.94Z</time></trkpt><trkpt lat="44.1202683" lon="8.2206783"><ele>33.0</ele><time>2026-04-05T14:40:18.94Z</time></trkpt><trkpt lat="44.1202017" lon="8.2208267"><ele>33.0</ele><time>2026-04-05T14:40:19.941Z</time></trkpt><trkpt lat="44.1201317" lon="8.2209733"><ele>33.0</ele><time>2026-04-05T14:40:20.94Z</time></trkpt><trkpt lat="44.1200567" lon="8.221115"><ele>33.0</ele><time>2026-04-05T14:40:21.94Z</time></trkpt><trkpt lat="44.1199767" lon="8.2212583"><ele>33.0</ele><time>2026-04-05T14:40:22.941Z</time></trkpt><trkpt lat="44.1199033" lon="8.221405"><ele>33.0</ele><time>2026-04-05T14:40:23.94Z</time></trkpt><trkpt lat="44.1198383" lon="8.2215533"><ele>33.0</ele><time>2026-04-05T14:40:24.941Z</time></trkpt><trkpt lat="44.11977" lon="8.221695"><ele>33.0</ele><time>2026-04-05T14:40:25.94Z</time></trkpt><trkpt lat="44.119695" lon="8.2218333"><ele>33.5</ele><time>2026-04-05T14:40:26.94Z</time></trkpt><trkpt lat="44.119625" lon="8.2219733"><ele>34.0</ele><time>2026-04-05T14:40:27.94Z</time></trkpt><trkpt lat="44.1195517" lon="8.22212"><ele>34.5</ele><time>2026-04-05T14:40:28.94Z</time></trkpt><trkpt lat="44.1194767" lon="8.22227"><ele>35.0</ele><time>2026-04-05T14:40:29.94Z</time></trkpt><trkpt lat="44.119405" lon="8.2224167"><ele>35.0</ele><time>2026-04-05T14:40:30.94Z</time></trkpt><trkpt lat="44.1193333" lon="8.2225667"><ele>35.0</ele><time>2026-04-05T14:40:31.941Z</time></trkpt><trkpt lat="44.1192567" lon="8.222715"><ele>35.0</ele><time>2026-04-05T14:40:32.94Z</time></trkpt><trkpt lat="44.11918" lon="8.2228717"><ele>35.0</ele><time>2026-04-05T14:40:33.94Z</time></trkpt><trkpt lat="44.1191083" lon="8.2230333"><ele>36.75</ele><time>2026-04-05T14:40:34.94Z</time></trkpt><trkpt lat="44.11903" lon="8.2231917"><ele>38.5</ele><time>2026-04-05T14:40:35.94Z</time></trkpt><trkpt lat="44.1189533" lon="8.2233417"><ele>40.25</ele><time>2026-04-05T14:40:36.94Z</time></trkpt><trkpt lat="44.1188733" lon="8.22349"><ele>42.0</ele><time>2026-04-05T14:40:37.94Z</time></trkpt><trkpt lat="44.118795" lon="8.22364"><ele>42.0</ele><time>2026-04-05T14:40:38.94Z</time></trkpt><trkpt lat="44.11871" lon="8.2237917"><ele>42.0</ele><time>2026-04-05T14:40:39.941Z</time></trkpt><trkpt lat="44.1186333" lon="8.2239417"><ele>42.0</ele><time>2026-04-05T14:40:40.94Z</time></trkpt><trkpt lat="44.1185483" lon="8.2240933"><ele>42.0</ele><time>2026-04-05T14:40:41.94Z</time></trkpt><trkpt lat="44.1184633" lon="8.224255"><ele>40.75</ele><time>2026-04-05T14:40:42.94Z</time></trkpt><trkpt lat="44.1183833" lon="8.2244183"><ele>39.5</ele><time>2026-04-05T14:40:43.941Z</time></trkpt><trkpt lat="44.1182983" lon="8.2245717"><ele>38.25</ele><time>2026-04-05T14:40:44.94Z</time></trkpt><trkpt lat="44.1182217" lon="8.224735"><ele>37.0</ele><time>2026-04-05T14:40:45.94Z</time></trkpt><trkpt lat="44.1181433" lon="8.224895"><ele>41.25</ele><time>2026-04-05T14:40:46.94Z</time></trkpt><trkpt lat="44.1180633" lon="8.225045"><ele>45.5</ele><time>2026-04-05T14:40:47.94Z</time></trkpt><trkpt lat="44.1179817" lon="8.2251967"><ele>49.75</ele><time>2026-04-05T14:40:48.941Z</time></trkpt><trkpt lat="44.1178933" lon="8.225355"><ele>54.0</ele><time>2026-04-05T14:40:49.94Z</time></trkpt><trkpt lat="44.1178067" lon="8.2255033"><ele>49.5</ele><time>2026-04-05T14:40:50.94Z</time></trkpt><trkpt lat="44.11771" lon="8.2256517"><ele>45.0</ele><time>2026-04-05T14:40:51.94Z</time></trkpt><trkpt lat="44.117615" lon="8.225805"><ele>40.5</ele><time>2026-04-05T14:40:52.941Z</time></trkpt><trkpt lat="44.1175333" lon="8.225955"><ele>36.0</ele><time>2026-04-05T14:40:53.94Z</time></trkpt><trkpt lat="44.117455" lon="8.2261083"><ele>37.5</ele><time>2026-04-05T14:40:54.94Z</time></trkpt><trkpt lat="44.1173783" lon="8.2262583"><ele>39.0</ele><time>2026-04-05T14:40:55.94Z</time></trkpt><trkpt lat="44.1172967" lon="8.2264067"><ele>40.5</ele><time>2026-04-05T14:40:56.94Z</time></trkpt><trkpt lat="44.1172267" lon="8.22656"><ele>42.0</ele><time>2026-04-05T14:40:57.94Z</time></trkpt><trkpt lat="44.1171517" lon="8.2267033"><ele>42.0</ele><time>2026-04-05T14:40:58.94Z</time></trkpt><trkpt lat="44.1170633" lon="8.226845"><ele>42.0</ele><time>2026-04-05T14:40:59.94Z</time></trkpt><trkpt lat="44.1169933" lon="8.2269883"><ele>42.0</ele><time>2026-04-05T14:41:00.94Z</time></trkpt><trkpt lat="44.11693" lon="8.2271367"><ele>42.0</ele><time>2026-04-05T14:41:01.94Z</time></trkpt><trkpt lat="44.11683" lon="8.22725"><ele>44.0</ele><time>2026-04-05T14:41:02.94Z</time></trkpt><trkpt lat="44.1167433" lon="8.2273733"><ele>46.0</ele><time>2026-04-05T14:41:03.94Z</time></trkpt><trkpt lat="44.11666" lon="8.2275217"><ele>48.0</ele><time>2026-04-05T14:41:04.94Z</time></trkpt><trkpt lat="44.1165833" lon="8.2276617"><ele>50.0</ele><time>2026-04-05T14:41:05.94Z</time></trkpt><trkpt lat="44.1165283" lon="8.2277933"><ele>50.0</ele><time>2026-04-05T14:41:06.94Z</time></trkpt><trkpt lat="44.116465" lon="8.2279017"><ele>50.0</ele><time>2026-04-05T14:41:07.94Z</time></trkpt><trkpt lat="44.116405" lon="8.2280167"><ele>50.0</ele><time>2026-04-05T14:41:08.94Z</time></trkpt><trkpt lat="44.1163367" lon="8.2281283"><ele>50.0</ele><time>2026-04-05T14:41:09.94Z</time></trkpt><trkpt lat="44.1162767" lon="8.2282483"><ele>50.0</ele><time>2026-04-05T14:41:10.94Z</time></trkpt><trkpt lat="44.11621" lon="8.2283533"><ele>46.0</ele><time>2026-04-05T14:41:11.941Z</time></trkpt><trkpt lat="44.11614" lon="8.2284583"><ele>42.0</ele><time>2026-04-05T14:41:12.941Z</time></trkpt><trkpt lat="44.1160633" lon="8.2285583"><ele>38.0</ele><time>2026-04-05T14:41:13.94Z</time></trkpt><trkpt lat="44.1159767" lon="8.2286433"><ele>34.0</ele><time>2026-04-05T14:41:14.94Z</time></trkpt><trkpt lat="44.1158783" lon="8.2287183"><ele>30.0</ele><time>2026-04-05T14:41:15.941Z</time></trkpt><trkpt lat="44.11577" lon="8.2287917"><ele>29.25</ele><time>2026-04-05T14:41:16.94Z</time></trkpt><trkpt lat="44.1156617" lon="8.22888"><ele>28.5</ele><time>2026-04-05T14:41:17.94Z</time></trkpt><trkpt lat="44.1155483" lon="8.2289667"><ele>27.75</ele><time>2026-04-05T14:41:18.94Z</time></trkpt><trkpt lat="44.1154367" lon="8.2290517"><ele>27.0</ele><time>2026-04-05T14:41:19.94Z</time></trkpt><trkpt lat="44.1153317" lon="8.229125"><ele>27.0</ele><time>2026-04-05T14:41:20.94Z</time></trkpt><trkpt lat="44.1152233" lon="8.2292133"><ele>27.0</ele><time>2026-04-05T14:41:21.941Z</time></trkpt><trkpt lat="44.1151167" lon="8.229315"><ele>27.0</ele><time>2026-04-05T14:41:22.94Z</time></trkpt><trkpt lat="44.11502" lon="8.2294283"><ele>27.0</ele><time>2026-04-05T14:41:23.94Z</time></trkpt><trkpt lat="44.114925" lon="8.2295467"><ele>27.75</ele><time>2026-04-05T14:41:24.941Z</time></trkpt><trkpt lat="44.11484" lon="8.2296567"><ele>28.5</ele><time>2026-04-05T14:41:25.94Z</time></trkpt><trkpt lat="44.114765" lon="8.2297867"><ele>29.25</ele><time>2026-04-05T14:41:26.94Z</time></trkpt><trkpt lat="44.1146833" lon="8.22991"><ele>30.0</ele><time>2026-04-05T14:41:27.94Z</time></trkpt><trkpt lat="44.1146117" lon="8.2300267"><ele>30.0</ele><time>2026-04-05T14:41:28.941Z</time></trkpt><trkpt lat="44.1145467" lon="8.2301633"><ele>30.0</ele><time>2026-04-05T14:41:29.94Z</time></trkpt><trkpt lat="44.1144917" lon="8.2303117"><ele>30.0</ele><time>2026-04-05T14:41:30.94Z</time></trkpt><trkpt lat="44.1144467" lon="8.2304467"><ele>30.0</ele><time>2026-04-05T14:41:31.94Z</time></trkpt><trkpt lat="44.1144" lon="8.2305833"><ele>28.6</ele><time>2026-04-05T14:41:32.941Z</time></trkpt><trkpt lat="44.1143583" lon="8.230725"><ele>27.2</ele><time>2026-04-05T14:41:33.94Z</time></trkpt><trkpt lat="44.1143117" lon="8.230855"><ele>25.799999999999997</ele><time>2026-04-05T14:41:34.94Z</time></trkpt><trkpt lat="44.114265" lon="8.2309983"><ele>24.4</ele><time>2026-04-05T14:41:35.94Z</time></trkpt><trkpt lat="44.1142133" lon="8.231135"><ele>23.0</ele><time>2026-04-05T14:41:36.94Z</time></trkpt><trkpt lat="44.1141567" lon="8.2312683"><ele>23.0</ele><time>2026-04-05T14:41:37.94Z</time></trkpt><trkpt lat="44.1141133" lon="8.2314117"><ele>23.0</ele><time>2026-04-05T14:41:38.94Z</time></trkpt><trkpt lat="44.1140633" lon="8.2315433"><ele>23.0</ele><time>2026-04-05T14:41:39.941Z</time></trkpt><trkpt lat="44.1140217" lon="8.2316783"><ele>23.0</ele><time>2026-04-05T14:41:40.94Z</time></trkpt><trkpt lat="44.11397" lon="8.231805"><ele>23.0</ele><time>2026-04-05T14:41:41.94Z</time></trkpt><trkpt lat="44.1139233" lon="8.2319367"><ele>23.2</ele><time>2026-04-05T14:41:42.94Z</time></trkpt><trkpt lat="44.113875" lon="8.2320717"><ele>23.4</ele><time>2026-04-05T14:41:43.94Z</time></trkpt><trkpt lat="44.1138233" lon="8.2321983"><ele>23.599999999999998</ele><time>2026-04-05T14:41:44.94Z</time></trkpt><trkpt lat="44.1137767" lon="8.232335"><ele>23.799999999999997</ele><time>2026-04-05T14:41:45.94Z</time></trkpt><trkpt lat="44.1137267" lon="8.2324683"><ele>24.0</ele><time>2026-04-05T14:41:46.94Z</time></trkpt><trkpt lat="44.1136717" lon="8.2325967"><ele>24.0</ele><time>2026-04-05T14:41:47.94Z</time></trkpt><trkpt lat="44.1136233" lon="8.2327233"><ele>24.0</ele><time>2026-04-05T14:41:48.94Z</time></trkpt><trkpt lat="44.1135817" lon="8.2328467"><ele>24.0</ele><time>2026-04-05T14:41:49.94Z</time></trkpt><trkpt lat="44.1135383" lon="8.2329567"><ele>24.0</ele><time>2026-04-05T14:41:50.94Z</time></trkpt><trkpt lat="44.1134917" lon="8.2330567"><ele>24.0</ele><time>2026-04-05T14:41:51.941Z</time></trkpt><trkpt lat="44.11344" lon="8.2331633"><ele>23.799999999999997</ele><time>2026-04-05T14:41:52.94Z</time></trkpt><trkpt lat="44.1133833" lon="8.23327"><ele>23.599999999999998</ele><time>2026-04-05T14:41:53.94Z</time></trkpt><trkpt lat="44.1133333" lon="8.233375"><ele>23.4</ele><time>2026-04-05T14:41:54.94Z</time></trkpt><trkpt lat="44.1132833" lon="8.2334783"><ele>23.2</ele><time>2026-04-05T14:41:55.94Z</time></trkpt><trkpt lat="44.1132283" lon="8.2336"><ele>23.0</ele><time>2026-04-05T14:41:56.94Z</time></trkpt><trkpt lat="44.1131817" lon="8.23372"><ele>22.799999999999997</ele><time>2026-04-05T14:41:57.94Z</time></trkpt><trkpt lat="44.11313" lon="8.23384"><ele>22.6</ele><time>2026-04-05T14:41:58.94Z</time></trkpt><trkpt lat="44.1130717" lon="8.2339467"><ele>22.4</ele><time>2026-04-05T14:41:59.941Z</time></trkpt><trkpt lat="44.1130117" lon="8.2340633"><ele>22.200000000000003</ele><time>2026-04-05T14:42:00.94Z</time></trkpt><trkpt lat="44.1129517" lon="8.234185"><ele>22.0</ele><time>2026-04-05T14:42:01.94Z</time></trkpt><trkpt lat="44.1128883" lon="8.23432"><ele>22.0</ele><time>2026-04-05T14:42:02.94Z</time></trkpt><trkpt lat="44.112835" lon="8.2344483"><ele>22.0</ele><time>2026-04-05T14:42:03.94Z</time></trkpt><trkpt lat="44.112795" lon="8.2345833"><ele>22.0</ele><time>2026-04-05T14:42:04.94Z</time></trkpt><trkpt lat="44.11275" lon="8.234715"><ele>22.0</ele><time>2026-04-05T14:42:05.94Z</time></trkpt><trkpt lat="44.1126983" lon="8.2348533"><ele>22.0</ele><time>2026-04-05T14:42:06.94Z</time></trkpt><trkpt lat="44.1126417" lon="8.23498"><ele>21.6</ele><time>2026-04-05T14:42:07.94Z</time></trkpt><trkpt lat="44.1125983" lon="8.2350983"><ele>21.200000000000003</ele><time>2026-04-05T14:42:08.94Z</time></trkpt><trkpt lat="44.1125517" lon="8.2352133"><ele>20.8</ele><time>2026-04-05T14:42:09.94Z</time></trkpt><trkpt lat="44.1125067" lon="8.2353167"><ele>20.4</ele><time>2026-04-05T14:42:10.94Z</time></trkpt><trkpt lat="44.1124617" lon="8.23542"><ele>20.0</ele><time>2026-04-05T14:42:11.94Z</time></trkpt><trkpt lat="44.1124167" lon="8.2355217"><ele>20.333333333333336</ele><time>2026-04-05T14:42:12.941Z</time></trkpt><trkpt lat="44.1123717" lon="8.23563"><ele>20.666666666666668</ele><time>2026-04-05T14:42:13.94Z</time></trkpt><trkpt lat="44.1123217" lon="8.235735"><ele>21.0</ele><time>2026-04-05T14:42:14.94Z</time></trkpt><trkpt lat="44.1122683" lon="8.2358317"><ele>21.333333333333332</ele><time>2026-04-05T14:42:15.94Z</time></trkpt><trkpt lat="44.1122167" lon="8.235935"><ele>21.666666666666664</ele><time>2026-04-05T14:42:16.94Z</time></trkpt><trkpt lat="44.1121633" lon="8.2360333"><ele>22.0</ele><time>2026-04-05T14:42:17.94Z</time></trkpt><trkpt lat="44.112105" lon="8.236125"><ele>21.200000000000003</ele><time>2026-04-05T14:42:18.94Z</time></trkpt><trkpt lat="44.1120317" lon="8.236215"><ele>20.400000000000002</ele><time>2026-04-05T14:42:19.94Z</time></trkpt><trkpt lat="44.1119783" lon="8.2363133"><ele>19.6</ele><time>2026-04-05T14:42:20.94Z</time></trkpt><trkpt lat="44.111915" lon="8.2364083"><ele>18.8</ele><time>2026-04-05T14:42:21.94Z</time></trkpt><trkpt lat="44.1118567" lon="8.2365"><ele>18.0</ele><time>2026-04-05T14:42:22.94Z</time></trkpt><trkpt lat="44.11181" lon="8.236595"><ele>17.857142857142858</ele><time>2026-04-05T14:42:23.94Z</time></trkpt><trkpt lat="44.1117617" lon="8.23669"><ele>17.714285714285715</ele><time>2026-04-05T14:42:24.94Z</time></trkpt><trkpt lat="44.111715" lon="8.236775"><ele>17.57142857142857</ele><time>2026-04-05T14:42:25.941Z</time></trkpt><trkpt lat="44.111675" lon="8.2368583"><ele>17.42857142857143</ele><time>2026-04-05T14:42:26.94Z</time></trkpt><trkpt lat="44.1116333" lon="8.23694"><ele>17.285714285714285</ele><time>2026-04-05T14:42:27.94Z</time></trkpt><trkpt lat="44.1115933" lon="8.2370183"><ele>17.142857142857142</ele><time>2026-04-05T14:42:28.94Z</time></trkpt><trkpt lat="44.111555" lon="8.2371"><ele>17.0</ele><time>2026-04-05T14:42:29.94Z</time></trkpt><trkpt lat="44.11151" lon="8.23719"><ele>17.833333333333336</ele><time>2026-04-05T14:42:30.94Z</time></trkpt><trkpt lat="44.11146" lon="8.2372767"><ele>18.666666666666668</ele><time>2026-04-05T14:42:31.94Z</time></trkpt><trkpt lat="44.11142" lon="8.2373633"><ele>19.5</ele><time>2026-04-05T14:42:32.94Z</time></trkpt><trkpt lat="44.1113833" lon="8.237455"><ele>20.333333333333332</ele><time>2026-04-05T14:42:33.94Z</time></trkpt><trkpt lat="44.11134" lon="8.2375383"><ele>21.166666666666664</ele><time>2026-04-05T14:42:34.94Z</time></trkpt><trkpt lat="44.11127" lon="8.2376783"><ele>22.0</ele><time>2026-04-05T14:42:36.94Z</time></trkpt><trkpt lat="44.11123" lon="8.2377517"><ele>22.0</ele><time>2026-04-05T14:42:37.94Z</time></trkpt><trkpt lat="44.1111867" lon="8.237825"><ele>22.0</ele><time>2026-04-05T14:42:38.94Z</time></trkpt><trkpt lat="44.1111383" lon="8.2378983"><ele>22.0</ele><time>2026-04-05T14:42:39.94Z</time></trkpt><trkpt lat="44.1110883" lon="8.2379767"><ele>22.0</ele><time>2026-04-05T14:42:40.94Z</time></trkpt><trkpt lat="44.111045" lon="8.238065"><ele>22.0</ele><time>2026-04-05T14:42:41.94Z</time></trkpt><trkpt lat="44.1109983" lon="8.2381533"><ele>22.0</ele><time>2026-04-05T14:42:42.94Z</time></trkpt><trkpt lat="44.110955" lon="8.23824"><ele>22.0</ele><time>2026-04-05T14:42:43.94Z</time></trkpt><trkpt lat="44.1109067" lon="8.2383233"><ele>23.166666666666664</ele><time>2026-04-05T14:42:44.94Z</time></trkpt><trkpt lat="44.1108583" lon="8.2384083"><ele>24.333333333333332</ele><time>2026-04-05T14:42:45.94Z</time></trkpt><trkpt lat="44.1108133" lon="8.2384967"><ele>25.5</ele><time>2026-04-05T14:42:46.94Z</time></trkpt><trkpt lat="44.1107717" lon="8.2385867"><ele>26.666666666666664</ele><time>2026-04-05T14:42:47.94Z</time></trkpt><trkpt lat="44.1107317" lon="8.238685"><ele>27.833333333333332</ele><time>2026-04-05T14:42:48.94Z</time></trkpt><trkpt lat="44.1107067" lon="8.238795"><ele>29.0</ele><time>2026-04-05T14:42:49.94Z</time></trkpt><trkpt lat="44.1106917" lon="8.238905"><ele>26.4</ele><time>2026-04-05T14:42:50.94Z</time></trkpt><trkpt lat="44.1106867" lon="8.239025"><ele>23.799999999999997</ele><time>2026-04-05T14:42:51.94Z</time></trkpt><trkpt lat="44.11068" lon="8.2391483"><ele>21.200000000000003</ele><time>2026-04-05T14:42:52.94Z</time></trkpt><trkpt lat="44.1106783" lon="8.2392683"><ele>18.6</ele><time>2026-04-05T14:42:53.94Z</time></trkpt><trkpt lat="44.1106617" lon="8.2394017"><ele>16.0</ele><time>2026-04-05T14:42:54.941Z</time></trkpt><trkpt lat="44.1106567" lon="8.2395333"><ele>15.999999999999998</ele><time>2026-04-05T14:42:55.94Z</time></trkpt><trkpt lat="44.1106367" lon="8.239665"><ele>16.0</ele><time>2026-04-05T14:42:56.94Z</time></trkpt><trkpt lat="44.1106233" lon="8.23979"><ele>16.0</ele><time>2026-04-05T14:42:57.94Z</time></trkpt><trkpt lat="44.11061" lon="8.2398883"><ele>16.0</ele><time>2026-04-05T14:42:58.94Z</time></trkpt><trkpt lat="44.1105617" lon="8.239985"><ele>15.999999999999998</ele><time>2026-04-05T14:42:59.94Z</time></trkpt><trkpt lat="44.110505" lon="8.2400833"><ele>16.0</ele><time>2026-04-05T14:43:00.94Z</time></trkpt><trkpt lat="44.1104483" lon="8.240175"><ele>14.666666666666666</ele><time>2026-04-05T14:43:01.94Z</time></trkpt><trkpt lat="44.1104033" lon="8.2402617"><ele>13.333333333333332</ele><time>2026-04-05T14:43:02.94Z</time></trkpt><trkpt lat="44.110355" lon="8.2403317"><ele>12.0</ele><time>2026-04-05T14:43:03.94Z</time></trkpt><trkpt lat="44.1103067" lon="8.2404017"><ele>10.666666666666666</ele><time>2026-04-05T14:43:04.94Z</time></trkpt><trkpt lat="44.1102367" lon="8.2405367"><ele>9.333333333333332</ele><time>2026-04-05T14:43:06.94Z</time></trkpt><trkpt lat="44.1102067" lon="8.24066"><ele>8.0</ele><time>2026-04-05T14:43:08.94Z</time></trkpt><trkpt lat="44.1102367" lon="8.2407467"><ele>7.800000000000001</ele><time>2026-04-05T14:43:10.94Z</time></trkpt><trkpt lat="44.110295" lon="8.2408167"><ele>7.6000000000000005</ele><time>2026-04-05T14:43:12.94Z</time></trkpt><trkpt lat="44.110365" lon="8.2408867"><ele>7.3999999999999995</ele><time>2026-04-05T14:43:14.941Z</time></trkpt><trkpt lat="44.110435" lon="8.2409617"><ele>7.199999999999999</ele><time>2026-04-05T14:43:16.94Z</time></trkpt><trkpt lat="44.1105267" lon="8.2410533"><ele>7.0</ele><time>2026-04-05T14:43:18.94Z</time></trkpt><trkpt lat="44.1106217" lon="8.2411617"><ele>7.0</ele><time>2026-04-05T14:43:20.94Z</time></trkpt><trkpt lat="44.110675" lon="8.2412217"><ele>7.0</ele><time>2026-04-05T14:43:21.94Z</time></trkpt><trkpt lat="44.1107283" lon="8.24128"><ele>7.0</ele><time>2026-04-05T14:43:22.94Z</time></trkpt><trkpt lat="44.11078" lon="8.241335"><ele>7.0</ele><time>2026-04-05T14:43:23.941Z</time></trkpt><trkpt lat="44.1108317" lon="8.241395"><ele>7.0</ele><time>2026-04-05T14:43:24.94Z</time></trkpt><trkpt lat="44.11088" lon="8.2414567"><ele>7.0</ele><time>2026-04-05T14:43:25.94Z</time></trkpt><trkpt lat="44.1109283" lon="8.241515"><ele>7.0</ele><time>2026-04-05T14:43:26.94Z</time></trkpt><trkpt lat="44.11102" lon="8.2415967"><ele>6.8</ele><time>2026-04-05T14:43:28.94Z</time></trkpt><trkpt lat="44.1110917" lon="8.2416583"><ele>6.6</ele><time>2026-04-05T14:43:30.94Z</time></trkpt><trkpt lat="44.11108" lon="8.2417717"><ele>6.3999999999999995</ele><time>2026-04-05T14:43:33.94Z</time></trkpt><trkpt lat="44.110995" lon="8.2418833"><ele>6.199999999999999</ele><time>2026-04-05T14:43:35.941Z</time></trkpt><trkpt lat="44.1109483" lon="8.241955"><ele>6.0</ele><time>2026-04-05T14:43:36.94Z</time></trkpt><trkpt lat="44.11088" lon="8.2420683"><ele>6.0</ele><time>2026-04-05T14:43:38.94Z</time></trkpt><trkpt lat="44.11082" lon="8.2421433"><ele>6.0</ele><time>2026-04-05T14:43:40.941Z</time></trkpt><trkpt lat="44.110755" lon="8.242165"><ele>6.0</ele><time>2026-04-05T14:43:42.94Z</time></trkpt><trkpt lat="44.11067" lon="8.2422"><ele>6.0</ele><time>2026-04-05T14:43:44.94Z</time></trkpt><trkpt lat="44.1105683" lon="8.24225"><ele>6.0</ele><time>2026-04-05T14:43:46.94Z</time></trkpt><trkpt lat="44.1104517" lon="8.2422667"><ele>6.0</ele><time>2026-04-05T14:43:48.94Z</time></trkpt><trkpt lat="44.1103433" lon="8.2422367"><ele>6.0</ele><time>2026-04-05T14:43:50.94Z</time></trkpt><trkpt lat="44.1102533" lon="8.2422333"><ele>6.0</ele><time>2026-04-05T14:43:52.94Z</time></trkpt><trkpt lat="44.110185" lon="8.2422233"><ele>6.0</ele><time>2026-04-05T14:43:54.94Z</time></trkpt><trkpt lat="44.110085" lon="8.242215"><ele>6.0</ele><time>2026-04-05T14:44:15.94Z</time></trkpt><trkpt lat="44.1099617" lon="8.2421667"><ele>6.166666666666667</ele><time>2026-04-05T14:44:17.94Z</time></trkpt><trkpt lat="44.1098783" lon="8.2421133"><ele>6.333333333333334</ele><time>2026-04-05T14:44:18.94Z</time></trkpt><trkpt lat="44.1098" lon="8.24205"><ele>6.5</ele><time>2026-04-05T14:44:19.94Z</time></trkpt><trkpt lat="44.1097217" lon="8.2419833"><ele>6.666666666666667</ele><time>2026-04-05T14:44:20.94Z</time></trkpt><trkpt lat="44.10964" lon="8.2419133"><ele>6.833333333333334</ele><time>2026-04-05T14:44:21.941Z</time></trkpt><trkpt lat="44.1095817" lon="8.2418417"><ele>7.0</ele><time>2026-04-05T14:44:22.94Z</time></trkpt><trkpt lat="44.1095317" lon="8.2417817"><ele>7.000000000000001</ele><time>2026-04-05T14:44:23.94Z</time></trkpt><trkpt lat="44.1094667" lon="8.24171"><ele>7.0</ele><time>2026-04-05T14:44:25.94Z</time></trkpt><trkpt lat="44.1094183" lon="8.241635"><ele>7.0</ele><time>2026-04-05T14:44:27.94Z</time></trkpt><trkpt lat="44.10937" lon="8.2415717"><ele>7.0</ele><time>2026-04-05T14:44:29.94Z</time></trkpt><trkpt lat="44.1093033" lon="8.2415"><ele>7.000000000000001</ele><time>2026-04-05T14:44:31.94Z</time></trkpt><trkpt lat="44.1092233" lon="8.241425"><ele>7.0</ele><time>2026-04-05T14:44:33.94Z</time></trkpt><trkpt lat="44.1091433" lon="8.2413433"><ele>7.0</ele><time>2026-04-05T14:44:35.94Z</time></trkpt><trkpt lat="44.109045" lon="8.24125"><ele>6.999999999999999</ele><time>2026-04-05T14:44:37.94Z</time></trkpt><trkpt lat="44.1089317" lon="8.2411517"><ele>6.999999999999999</ele><time>2026-04-05T14:44:39.941Z</time></trkpt><trkpt lat="44.108865" lon="8.2410917"><ele>7.0</ele><time>2026-04-05T14:44:40.941Z</time></trkpt><trkpt lat="44.1088" lon="8.24104"><ele>7.0</ele><time>2026-04-05T14:44:41.94Z</time></trkpt><trkpt lat="44.1087383" lon="8.2409833"><ele>7.000000000000001</ele><time>2026-04-05T14:44:42.94Z</time></trkpt><trkpt lat="44.1086683" lon="8.2409317"><ele>7.0</ele><time>2026-04-05T14:44:43.94Z</time></trkpt><trkpt lat="44.108605" lon="8.24089"><ele>7.0</ele><time>2026-04-05T14:44:44.94Z</time></trkpt><trkpt lat="44.1085383" lon="8.2408283"><ele>7.0</ele><time>2026-04-05T14:44:45.94Z</time></trkpt><trkpt lat="44.108475" lon="8.24075"><ele>7.000000000000001</ele><time>2026-04-05T14:44:46.94Z</time></trkpt><trkpt lat="44.10842" lon="8.2406883"><ele>7.0</ele><time>2026-04-05T14:44:47.94Z</time></trkpt><trkpt lat="44.1083617" lon="8.240625"><ele>7.000000000000001</ele><time>2026-04-05T14:44:48.94Z</time></trkpt><trkpt lat="44.1083017" lon="8.2405683"><ele>7.0</ele><time>2026-04-05T14:44:49.94Z</time></trkpt><trkpt lat="44.10824" lon="8.2405083"><ele>7.0</ele><time>2026-04-05T14:44:50.94Z</time></trkpt><trkpt lat="44.1081767" lon="8.24045"><ele>7.0</ele><time>2026-04-05T14:44:51.94Z</time></trkpt><trkpt lat="44.1081183" lon="8.2403833"><ele>7.000000000000001</ele><time>2026-04-05T14:44:52.941Z</time></trkpt><trkpt lat="44.10806" lon="8.2403133"><ele>7.0</ele><time>2026-04-05T14:44:53.94Z</time></trkpt><trkpt lat="44.1080017" lon="8.2402483"><ele>6.666666666666667</ele><time>2026-04-05T14:44:54.94Z</time></trkpt><trkpt lat="44.1079433" lon="8.2401783"><ele>6.333333333333334</ele><time>2026-04-05T14:44:55.94Z</time></trkpt><trkpt lat="44.1078867" lon="8.2401083"><ele>6.0</ele><time>2026-04-05T14:44:56.941Z</time></trkpt><trkpt lat="44.1078267" lon="8.24004"><ele>5.666666666666667</ele><time>2026-04-05T14:44:57.941Z</time></trkpt><trkpt lat="44.107765" lon="8.2399633"><ele>5.333333333333334</ele><time>2026-04-05T14:44:58.94Z</time></trkpt><trkpt lat="44.1076917" lon="8.23988"><ele>5.0</ele><time>2026-04-05T14:44:59.94Z</time></trkpt><trkpt lat="44.1076133" lon="8.2397883"><ele>5.5</ele><time>2026-04-05T14:45:00.94Z</time></trkpt><trkpt lat="44.1075167" lon="8.2397017"><ele>6.0</ele><time>2026-04-05T14:45:01.94Z</time></trkpt><trkpt lat="44.1074133" lon="8.2395883"><ele>6.5</ele><time>2026-04-05T14:45:02.941Z</time></trkpt><trkpt lat="44.10731" lon="8.23945"><ele>7.0</ele><time>2026-04-05T14:45:03.941Z</time></trkpt><trkpt lat="44.1072133" lon="8.2393317"><ele>7.0</ele><time>2026-04-05T14:45:04.94Z</time></trkpt><trkpt lat="44.107135" lon="8.2392217"><ele>6.999999999999999</ele><time>2026-04-05T14:45:05.94Z</time></trkpt><trkpt lat="44.1070617" lon="8.2391233"><ele>6.999999999999999</ele><time>2026-04-05T14:45:06.94Z</time></trkpt><trkpt lat="44.1069817" lon="8.2390333"><ele>7.0</ele><time>2026-04-05T14:45:07.94Z</time></trkpt><trkpt lat="44.1069067" lon="8.2389367"><ele>7.0</ele><time>2026-04-05T14:45:08.94Z</time></trkpt><trkpt lat="44.1068367" lon="8.23883"><ele>12.6</ele><time>2026-04-05T14:45:09.94Z</time></trkpt><trkpt lat="44.10676" lon="8.238735"><ele>18.2</ele><time>2026-04-05T14:45:10.94Z</time></trkpt><trkpt lat="44.106675" lon="8.23865"><ele>23.8</ele><time>2026-04-05T14:45:11.94Z</time></trkpt><trkpt lat="44.10658" lon="8.2385867"><ele>29.4</ele><time>2026-04-05T14:45:12.94Z</time></trkpt><trkpt lat="44.1064667" lon="8.2385533"><ele>35.0</ele><time>2026-04-05T14:45:13.941Z</time></trkpt><trkpt lat="44.1063533" lon="8.2385383"><ele>35.75</ele><time>2026-04-05T14:45:14.94Z</time></trkpt><trkpt lat="44.1062333" lon="8.2385633"><ele>36.5</ele><time>2026-04-05T14:45:15.94Z</time></trkpt><trkpt lat="44.1061117" lon="8.2386033"><ele>37.25</ele><time>2026-04-05T14:45:16.94Z</time></trkpt><trkpt lat="44.1059967" lon="8.2386683"><ele>38.0</ele><time>2026-04-05T14:45:17.941Z</time></trkpt><trkpt lat="44.105885" lon="8.23875"><ele>38.0</ele><time>2026-04-05T14:45:18.94Z</time></trkpt><trkpt lat="44.1057783" lon="8.2388267"><ele>38.0</ele><time>2026-04-05T14:45:19.94Z</time></trkpt><trkpt lat="44.1056983" lon="8.23888"><ele>38.0</ele><time>2026-04-05T14:45:20.94Z</time></trkpt><trkpt lat="44.1056017" lon="8.2389367"><ele>38.0</ele><time>2026-04-05T14:45:22.94Z</time></trkpt><trkpt lat="44.1054983" lon="8.2389567"><ele>38.0</ele><time>2026-04-05T14:45:24.94Z</time></trkpt><trkpt lat="44.1054233" lon="8.2389633"><ele>33.6</ele><time>2026-04-05T14:45:25.94Z</time></trkpt><trkpt lat="44.1053367" lon="8.2389767"><ele>29.199999999999996</ele><time>2026-04-05T14:45:26.94Z</time></trkpt><trkpt lat="44.105255" lon="8.2389917"><ele>24.8</ele><time>2026-04-05T14:45:27.94Z</time></trkpt><trkpt lat="44.1051817" lon="8.2390067"><ele>20.4</ele><time>2026-04-05T14:45:28.94Z</time></trkpt><trkpt lat="44.1050667" lon="8.239015"><ele>16.0</ele><time>2026-04-05T14:45:30.94Z</time></trkpt><trkpt lat="44.10497" lon="8.2390233"><ele>14.666666666666666</ele><time>2026-04-05T14:45:32.94Z</time></trkpt><trkpt lat="44.1048633" lon="8.2390283"><ele>13.333333333333332</ele><time>2026-04-05T14:45:34.94Z</time></trkpt><trkpt lat="44.1047983" lon="8.2390217"><ele>12.0</ele><time>2026-04-05T14:45:35.94Z</time></trkpt><trkpt lat="44.1047267" lon="8.2390233"><ele>10.666666666666666</ele><time>2026-04-05T14:45:36.94Z</time></trkpt><trkpt lat="44.1046567" lon="8.2390367"><ele>9.333333333333332</ele><time>2026-04-05T14:45:37.94Z</time></trkpt><trkpt lat="44.1045833" lon="8.2390417"><ele>8.0</ele><time>2026-04-05T14:45:38.94Z</time></trkpt><trkpt lat="44.1045067" lon="8.23904"><ele>7.999999999999999</ele><time>2026-04-05T14:45:39.94Z</time></trkpt><trkpt lat="44.1044317" lon="8.2390183"><ele>8.0</ele><time>2026-04-05T14:45:40.94Z</time></trkpt><trkpt lat="44.1043667" lon="8.2389867"><ele>8.0</ele><time>2026-04-05T14:45:41.94Z</time></trkpt><trkpt lat="44.1042983" lon="8.2389483"><ele>8.0</ele><time>2026-04-05T14:45:42.94Z</time></trkpt><trkpt lat="44.1042233" lon="8.2389067"><ele>7.999999999999999</ele><time>2026-04-05T14:45:43.94Z</time></trkpt><trkpt lat="44.1041483" lon="8.2388733"><ele>8.0</ele><time>2026-04-05T14:45:44.94Z</time></trkpt><trkpt lat="44.10407" lon="8.238835"><ele>10.0</ele><time>2026-04-05T14:45:45.94Z</time></trkpt><trkpt lat="44.1039883" lon="8.23879"><ele>12.0</ele><time>2026-04-05T14:45:46.94Z</time></trkpt><trkpt lat="44.1039083" lon="8.238755"><ele>14.0</ele><time>2026-04-05T14:45:47.94Z</time></trkpt><trkpt lat="44.1038333" lon="8.238715"><ele>16.0</ele><time>2026-04-05T14:45:48.94Z</time></trkpt><trkpt lat="44.10376" lon="8.23869"><ele>18.0</ele><time>2026-04-05T14:45:49.94Z</time></trkpt><trkpt lat="44.1036967" lon="8.2386333"><ele>20.0</ele><time>2026-04-05T14:45:50.94Z</time></trkpt><trkpt lat="44.103635" lon="8.23856"><ele>20.0</ele><time>2026-04-05T14:45:51.94Z</time></trkpt><trkpt lat="44.10357" lon="8.23848"><ele>20.0</ele><time>2026-04-05T14:45:52.94Z</time></trkpt><trkpt lat="44.1034917" lon="8.2384"><ele>20.0</ele><time>2026-04-05T14:45:53.94Z</time></trkpt><trkpt lat="44.10342" lon="8.2383233"><ele>20.0</ele><time>2026-04-05T14:45:54.941Z</time></trkpt><trkpt lat="44.1033517" lon="8.2382433"><ele>20.0</ele><time>2026-04-05T14:45:55.94Z</time></trkpt><trkpt lat="44.1032683" lon="8.2381767"><ele>19.5</ele><time>2026-04-05T14:45:56.941Z</time></trkpt><trkpt lat="44.1031983" lon="8.2381267"><ele>19.0</ele><time>2026-04-05T14:45:57.94Z</time></trkpt><trkpt lat="44.103135" lon="8.2380783"><ele>18.5</ele><time>2026-04-05T14:45:58.94Z</time></trkpt><trkpt lat="44.1030733" lon="8.238025"><ele>18.0</ele><time>2026-04-05T14:45:59.94Z</time></trkpt><trkpt lat="44.1030133" lon="8.2379733"><ele>17.5</ele><time>2026-04-05T14:46:00.941Z</time></trkpt><trkpt lat="44.1029467" lon="8.237905"><ele>17.0</ele><time>2026-04-05T14:46:01.94Z</time></trkpt><trkpt lat="44.1028883" lon="8.2378117"><ele>17.0</ele><time>2026-04-05T14:46:02.94Z</time></trkpt><trkpt lat="44.1028317" lon="8.237725"><ele>17.0</ele><time>2026-04-05T14:46:03.94Z</time></trkpt><trkpt lat="44.1027767" lon="8.23763"><ele>17.0</ele><time>2026-04-05T14:46:04.94Z</time></trkpt><trkpt lat="44.1027217" lon="8.2375317"><ele>17.0</ele><time>2026-04-05T14:46:05.94Z</time></trkpt><trkpt lat="44.10267" lon="8.2374467"><ele>17.0</ele><time>2026-04-05T14:46:06.941Z</time></trkpt><trkpt lat="44.1026067" lon="8.2373683"><ele>17.0</ele><time>2026-04-05T14:46:07.94Z</time></trkpt><trkpt lat="44.1025383" lon="8.2373133"><ele>17.0</ele><time>2026-04-05T14:46:08.941Z</time></trkpt><trkpt lat="44.1024617" lon="8.2372667"><ele>17.0</ele><time>2026-04-05T14:46:09.94Z</time></trkpt><trkpt lat="44.102385" lon="8.2372183"><ele>17.0</ele><time>2026-04-05T14:46:10.94Z</time></trkpt><trkpt lat="44.1023083" lon="8.2371767"><ele>17.0</ele><time>2026-04-05T14:46:11.94Z</time></trkpt><trkpt lat="44.10223" lon="8.23714"><ele>17.0</ele><time>2026-04-05T14:46:12.94Z</time></trkpt><trkpt lat="44.1021567" lon="8.2371033"><ele>17.0</ele><time>2026-04-05T14:46:13.94Z</time></trkpt><trkpt lat="44.1020867" lon="8.2370583"><ele>17.0</ele><time>2026-04-05T14:46:14.94Z</time></trkpt><trkpt lat="44.1020167" lon="8.237015"><ele>17.0</ele><time>2026-04-05T14:46:15.94Z</time></trkpt><trkpt lat="44.1019433" lon="8.2369633"><ele>17.0</ele><time>2026-04-05T14:46:16.941Z</time></trkpt><trkpt lat="44.10187" lon="8.2369017"><ele>17.0</ele><time>2026-04-05T14:46:17.94Z</time></trkpt><trkpt lat="44.101795" lon="8.236835"><ele>17.0</ele><time>2026-04-05T14:46:18.94Z</time></trkpt><trkpt lat="44.1017233" lon="8.236745"><ele>17.0</ele><time>2026-04-05T14:46:19.94Z</time></trkpt><trkpt lat="44.1016567" lon="8.23667"><ele>17.0</ele><time>2026-04-05T14:46:20.94Z</time></trkpt><trkpt lat="44.1015933" lon="8.23659"><ele>17.0</ele><time>2026-04-05T14:46:21.94Z</time></trkpt><trkpt lat="44.101545" lon="8.236525"><ele>17.0</ele><time>2026-04-05T14:46:22.94Z</time></trkpt><trkpt lat="44.1015" lon="8.2364583"><ele>17.0</ele><time>2026-04-05T14:46:23.94Z</time></trkpt><trkpt lat="44.101455" lon="8.236395"><ele>17.0</ele><time>2026-04-05T14:46:24.94Z</time></trkpt><trkpt lat="44.1013767" lon="8.2362733"><ele>17.0</ele><time>2026-04-05T14:46:26.941Z</time></trkpt><trkpt lat="44.1013117" lon="8.2361633"><ele>17.0</ele><time>2026-04-05T14:46:28.94Z</time></trkpt><trkpt lat="44.1012033" lon="8.2360867"><ele>17.0</ele><time>2026-04-05T14:46:30.94Z</time></trkpt><trkpt lat="44.1011317" lon="8.236055"><ele>17.0</ele><time>2026-04-05T14:46:31.94Z</time></trkpt><trkpt lat="44.101065" lon="8.2359983"><ele>17.0</ele><time>2026-04-05T14:46:32.94Z</time></trkpt><trkpt lat="44.100995" lon="8.23595"><ele>17.0</ele><time>2026-04-05T14:46:33.94Z</time></trkpt><trkpt lat="44.10092" lon="8.2358917"><ele>17.0</ele><time>2026-04-05T14:46:34.94Z</time></trkpt><trkpt lat="44.10084" lon="8.23583"><ele>17.0</ele><time>2026-04-05T14:46:35.94Z</time></trkpt><trkpt lat="44.1007567" lon="8.2357567"><ele>17.0</ele><time>2026-04-05T14:46:36.94Z</time></trkpt><trkpt lat="44.1006717" lon="8.23568"><ele>17.0</ele><time>2026-04-05T14:46:37.94Z</time></trkpt><trkpt lat="44.1005833" lon="8.2356033"><ele>17.0</ele><time>2026-04-05T14:46:38.94Z</time></trkpt><trkpt lat="44.1005" lon="8.2355233"><ele>17.0</ele><time>2026-04-05T14:46:39.94Z</time></trkpt><trkpt lat="44.100415" lon="8.235445"><ele>15.75</ele><time>2026-04-05T14:46:40.94Z</time></trkpt><trkpt lat="44.10033" lon="8.2353583"><ele>14.5</ele><time>2026-04-05T14:46:41.94Z</time></trkpt><trkpt lat="44.1002383" lon="8.235265"><ele>13.25</ele><time>2026-04-05T14:46:42.94Z</time></trkpt><trkpt lat="44.100135" lon="8.2351617"><ele>12.0</ele><time>2026-04-05T14:46:43.94Z</time></trkpt><trkpt lat="44.1000367" lon="8.2350617"><ele>12.0</ele><time>2026-04-05T14:46:44.94Z</time></trkpt><trkpt lat="44.09995" lon="8.2349733"><ele>12.0</ele><time>2026-04-05T14:46:45.94Z</time></trkpt><trkpt lat="44.0998667" lon="8.23488"><ele>12.0</ele><time>2026-04-05T14:46:46.941Z</time></trkpt><trkpt lat="44.09979" lon="8.234805"><ele>12.0</ele><time>2026-04-05T14:46:47.941Z</time></trkpt><trkpt lat="44.0997083" lon="8.2347183"><ele>12.0</ele><time>2026-04-05T14:46:48.94Z</time></trkpt><trkpt lat="44.0996233" lon="8.23463"><ele>11.8</ele><time>2026-04-05T14:46:49.94Z</time></trkpt><trkpt lat="44.099535" lon="8.2345467"><ele>11.6</ele><time>2026-04-05T14:46:50.94Z</time></trkpt><trkpt lat="44.0994483" lon="8.2344567"><ele>11.4</ele><time>2026-04-05T14:46:51.94Z</time></trkpt><trkpt lat="44.09936" lon="8.234365"><ele>11.200000000000001</ele><time>2026-04-05T14:46:52.94Z</time></trkpt><trkpt lat="44.099275" lon="8.2342733"><ele>11.0</ele><time>2026-04-05T14:46:53.94Z</time></trkpt><trkpt lat="44.099195" lon="8.23419"><ele>11.0</ele><time>2026-04-05T14:46:54.94Z</time></trkpt><trkpt lat="44.09912" lon="8.2341133"><ele>11.0</ele><time>2026-04-05T14:46:55.94Z</time></trkpt><trkpt lat="44.0990483" lon="8.2340467"><ele>11.0</ele><time>2026-04-05T14:46:56.94Z</time></trkpt><trkpt lat="44.09898" lon="8.23397"><ele>11.0</ele><time>2026-04-05T14:46:57.94Z</time></trkpt><trkpt lat="44.09891" lon="8.2339033"><ele>11.0</ele><time>2026-04-05T14:46:58.94Z</time></trkpt><trkpt lat="44.0988467" lon="8.2338417"><ele>11.0</ele><time>2026-04-05T14:46:59.94Z</time></trkpt><trkpt lat="44.0987767" lon="8.233775"><ele>11.600000000000001</ele><time>2026-04-05T14:47:00.941Z</time></trkpt><trkpt lat="44.0987" lon="8.233715"><ele>12.2</ele><time>2026-04-05T14:47:01.94Z</time></trkpt><trkpt lat="44.0986233" lon="8.23364"><ele>12.799999999999999</ele><time>2026-04-05T14:47:02.94Z</time></trkpt><trkpt lat="44.0985467" lon="8.2335517"><ele>13.399999999999999</ele><time>2026-04-05T14:47:03.94Z</time></trkpt><trkpt lat="44.0984617" lon="8.2334667"><ele>14.0</ele><time>2026-04-05T14:47:04.94Z</time></trkpt><trkpt lat="44.098375" lon="8.2333817"><ele>14.0</ele><time>2026-04-05T14:47:05.94Z</time></trkpt><trkpt lat="44.0982867" lon="8.233295"><ele>13.999999999999998</ele><time>2026-04-05T14:47:06.94Z</time></trkpt><trkpt lat="44.0982017" lon="8.2332033"><ele>13.999999999999998</ele><time>2026-04-05T14:47:07.94Z</time></trkpt><trkpt lat="44.0981183" lon="8.2331183"><ele>14.0</ele><time>2026-04-05T14:47:08.94Z</time></trkpt><trkpt lat="44.0980417" lon="8.23303"><ele>14.0</ele><time>2026-04-05T14:47:09.94Z</time></trkpt><trkpt lat="44.0979733" lon="8.232935"><ele>13.399999999999999</ele><time>2026-04-05T14:47:10.94Z</time></trkpt><trkpt lat="44.0978983" lon="8.2328483"><ele>12.799999999999999</ele><time>2026-04-05T14:47:11.94Z</time></trkpt><trkpt lat="44.0978217" lon="8.2327717"><ele>12.2</ele><time>2026-04-05T14:47:12.94Z</time></trkpt><trkpt lat="44.0977467" lon="8.2326967"><ele>11.600000000000001</ele><time>2026-04-05T14:47:13.94Z</time></trkpt><trkpt lat="44.09767" lon="8.232625"><ele>11.0</ele><time>2026-04-05T14:47:14.94Z</time></trkpt><trkpt lat="44.0975933" lon="8.2325583"><ele>11.0</ele><time>2026-04-05T14:47:15.94Z</time></trkpt><trkpt lat="44.097515" lon="8.232485"><ele>11.0</ele><time>2026-04-05T14:47:16.94Z</time></trkpt><trkpt lat="44.0974367" lon="8.232405"><ele>11.0</ele><time>2026-04-05T14:47:17.94Z</time></trkpt><trkpt lat="44.0973617" lon="8.2323267"><ele>11.0</ele><time>2026-04-05T14:47:18.94Z</time></trkpt><trkpt lat="44.097295" lon="8.2322667"><ele>11.0</ele><time>2026-04-05T14:47:19.94Z</time></trkpt><trkpt lat="44.09724" lon="8.232195"><ele>11.0</ele><time>2026-04-05T14:47:20.941Z</time></trkpt><trkpt lat="44.0971883" lon="8.2321083"><ele>10.833333333333332</ele><time>2026-04-05T14:47:21.94Z</time></trkpt><trkpt lat="44.0971267" lon="8.2320517"><ele>10.666666666666666</ele><time>2026-04-05T14:47:22.94Z</time></trkpt><trkpt lat="44.0970567" lon="8.2319867"><ele>10.5</ele><time>2026-04-05T14:47:23.941Z</time></trkpt><trkpt lat="44.0969783" lon="8.23193"><ele>10.333333333333334</ele><time>2026-04-05T14:47:24.94Z</time></trkpt><trkpt lat="44.096905" lon="8.2318767"><ele>10.166666666666668</ele><time>2026-04-05T14:47:25.94Z</time></trkpt><trkpt lat="44.0968267" lon="8.23183"><ele>10.0</ele><time>2026-04-05T14:47:26.94Z</time></trkpt><trkpt lat="44.0967467" lon="8.2317767"><ele>10.0</ele><time>2026-04-05T14:47:27.941Z</time></trkpt><trkpt lat="44.0966717" lon="8.23172"><ele>10.0</ele><time>2026-04-05T14:47:28.94Z</time></trkpt><trkpt lat="44.09659" lon="8.231685"><ele>10.0</ele><time>2026-04-05T14:47:29.94Z</time></trkpt><trkpt lat="44.09651" lon="8.231645"><ele>10.0</ele><time>2026-04-05T14:47:30.94Z</time></trkpt><trkpt lat="44.0964333" lon="8.2316133"><ele>10.0</ele><time>2026-04-05T14:47:31.94Z</time></trkpt><trkpt lat="44.0963517" lon="8.23157"><ele>10.0</ele><time>2026-04-05T14:47:33.94Z</time></trkpt><trkpt lat="44.0962833" lon="8.2315517"><ele>9.833333333333334</ele><time>2026-04-05T14:47:36.94Z</time></trkpt><trkpt lat="44.0962" lon="8.2315283"><ele>9.666666666666668</ele><time>2026-04-05T14:47:39.94Z</time></trkpt><trkpt lat="44.0961267" lon="8.2315017"><ele>9.5</ele><time>2026-04-05T14:47:42.941Z</time></trkpt><trkpt lat="44.096045" lon="8.23144"><ele>9.333333333333334</ele><time>2026-04-05T14:47:45.94Z</time></trkpt><trkpt lat="44.0959767" lon="8.2313833"><ele>9.166666666666666</ele><time>2026-04-05T14:47:47.94Z</time></trkpt><trkpt lat="44.0959167" lon="8.231355"><ele>9.0</ele><time>2026-04-05T14:47:50.94Z</time></trkpt><trkpt lat="44.0958483" lon="8.23134"><ele>9.2</ele><time>2026-04-05T14:47:56.94Z</time></trkpt><trkpt lat="44.09575" lon="8.23131"><ele>9.4</ele><time>2026-04-05T14:47:58.94Z</time></trkpt><trkpt lat="44.0956267" lon="8.2312733"><ele>9.6</ele><time>2026-04-05T14:48:00.94Z</time></trkpt><trkpt lat="44.0955483" lon="8.2312567"><ele>9.8</ele><time>2026-04-05T14:48:01.941Z</time></trkpt><trkpt lat="44.09547" lon="8.2312317"><ele>10.0</ele><time>2026-04-05T14:48:02.94Z</time></trkpt><trkpt lat="44.0953933" lon="8.2312067"><ele>10.0</ele><time>2026-04-05T14:48:03.94Z</time></trkpt><trkpt lat="44.0953167" lon="8.2311767"><ele>10.0</ele><time>2026-04-05T14:48:04.94Z</time></trkpt><trkpt lat="44.095245" lon="8.2311517"><ele>10.0</ele><time>2026-04-05T14:48:05.94Z</time></trkpt><trkpt lat="44.0951783" lon="8.2311267"><ele>10.0</ele><time>2026-04-05T14:48:06.941Z</time></trkpt><trkpt lat="44.0951117" lon="8.2311067"><ele>10.0</ele><time>2026-04-05T14:48:07.94Z</time></trkpt><trkpt lat="44.095045" lon="8.2310883"><ele>10.0</ele><time>2026-04-05T14:48:08.94Z</time></trkpt><trkpt lat="44.0949483" lon="8.2310517"><ele>9.4</ele><time>2026-04-05T14:48:10.941Z</time></trkpt><trkpt lat="44.094835" lon="8.2310117"><ele>8.8</ele><time>2026-04-05T14:48:18.94Z</time></trkpt><trkpt lat="44.0947233" lon="8.2309733"><ele>8.2</ele><time>2026-04-05T14:48:20.94Z</time></trkpt><trkpt lat="44.09461" lon="8.2309467"><ele>7.6</ele><time>2026-04-05T14:48:22.94Z</time></trkpt><trkpt lat="44.0945433" lon="8.23092"><ele>7.0</ele><time>2026-04-05T14:48:23.94Z</time></trkpt><trkpt lat="44.0944717" lon="8.2308967"><ele>7.000000000000001</ele><time>2026-04-05T14:48:24.94Z</time></trkpt><trkpt lat="44.0944017" lon="8.2308733"><ele>7.0</ele><time>2026-04-05T14:48:25.94Z</time></trkpt><trkpt lat="44.0943383" lon="8.230845"><ele>7.0</ele><time>2026-04-05T14:48:26.94Z</time></trkpt><trkpt lat="44.0942383" lon="8.2307967"><ele>7.0</ele><time>2026-04-05T14:48:28.941Z</time></trkpt><trkpt lat="44.0941683" lon="8.2307"><ele>7.000000000000001</ele><time>2026-04-05T14:48:30.94Z</time></trkpt><trkpt lat="44.09408" lon="8.230635"><ele>7.0</ele><time>2026-04-05T14:48:32.94Z</time></trkpt><trkpt lat="44.0939717" lon="8.2305917"><ele>7.199999999999999</ele><time>2026-04-05T14:48:34.94Z</time></trkpt><trkpt lat="44.09388" lon="8.2305583"><ele>7.3999999999999995</ele><time>2026-04-05T14:48:36.94Z</time></trkpt><trkpt lat="44.093855" lon="8.2304483"><ele>7.6000000000000005</ele><time>2026-04-05T14:48:38.94Z</time></trkpt><trkpt lat="44.0938683" lon="8.2302683"><ele>7.800000000000001</ele><time>2026-04-05T14:48:40.94Z</time></trkpt><trkpt lat="44.0938767" lon="8.23016"><ele>8.0</ele><time>2026-04-05T14:48:41.94Z</time></trkpt><trkpt lat="44.0938817" lon="8.2300383"><ele>8.0</ele><time>2026-04-05T14:48:42.94Z</time></trkpt><trkpt lat="44.0938833" lon="8.22992"><ele>8.0</ele><time>2026-04-05T14:48:43.94Z</time></trkpt><trkpt lat="44.0938833" lon="8.2297983"><ele>8.0</ele><time>2026-04-05T14:48:44.94Z</time></trkpt><trkpt lat="44.0938633" lon="8.229675"><ele>8.0</ele><time>2026-04-05T14:48:45.94Z</time></trkpt><trkpt lat="44.0938167" lon="8.2295467"><ele>8.0</ele><time>2026-04-05T14:48:46.94Z</time></trkpt><trkpt lat="44.0937517" lon="8.229435"><ele>8.600000000000001</ele><time>2026-04-05T14:48:47.94Z</time></trkpt><trkpt lat="44.0936767" lon="8.2293333"><ele>9.200000000000001</ele><time>2026-04-05T14:48:48.94Z</time></trkpt><trkpt lat="44.0935983" lon="8.2292383"><ele>9.8</ele><time>2026-04-05T14:48:49.94Z</time></trkpt><trkpt lat="44.093525" lon="8.2291433"><ele>10.4</ele><time>2026-04-05T14:48:50.941Z</time></trkpt><trkpt lat="44.0934483" lon="8.22905"><ele>11.0</ele><time>2026-04-05T14:48:51.94Z</time></trkpt><trkpt lat="44.0933683" lon="8.228955"><ele>11.75</ele><time>2026-04-05T14:48:52.94Z</time></trkpt><trkpt lat="44.0932833" lon="8.228865"><ele>12.5</ele><time>2026-04-05T14:48:53.94Z</time></trkpt><trkpt lat="44.0931933" lon="8.2287683"><ele>13.25</ele><time>2026-04-05T14:48:54.941Z</time></trkpt><trkpt lat="44.0931" lon="8.22867"><ele>14.0</ele><time>2026-04-05T14:48:55.94Z</time></trkpt><trkpt lat="44.0930017" lon="8.2285733"><ele>14.5</ele><time>2026-04-05T14:48:56.94Z</time></trkpt><trkpt lat="44.0929033" lon="8.228485"><ele>15.0</ele><time>2026-04-05T14:48:57.94Z</time></trkpt><trkpt lat="44.0928133" lon="8.2283883"><ele>15.5</ele><time>2026-04-05T14:48:58.94Z</time></trkpt><trkpt lat="44.0927233" lon="8.2282917"><ele>16.0</ele><time>2026-04-05T14:48:59.94Z</time></trkpt><trkpt lat="44.0926317" lon="8.2281933"><ele>15.5</ele><time>2026-04-05T14:49:00.94Z</time></trkpt><trkpt lat="44.0925383" lon="8.2280933"><ele>15.0</ele><time>2026-04-05T14:49:01.941Z</time></trkpt><trkpt lat="44.0924533" lon="8.2279833"><ele>14.5</ele><time>2026-04-05T14:49:02.94Z</time></trkpt><trkpt lat="44.09237" lon="8.22787"><ele>14.0</ele><time>2026-04-05T14:49:03.94Z</time></trkpt><trkpt lat="44.0922883" lon="8.227765"><ele>13.799999999999999</ele><time>2026-04-05T14:49:04.94Z</time></trkpt><trkpt lat="44.0922117" lon="8.2276767"><ele>13.599999999999998</ele><time>2026-04-05T14:49:05.941Z</time></trkpt><trkpt lat="44.0921433" lon="8.2275933"><ele>13.4</ele><time>2026-04-05T14:49:06.94Z</time></trkpt><trkpt lat="44.092075" lon="8.2275133"><ele>13.2</ele><time>2026-04-05T14:49:07.94Z</time></trkpt><trkpt lat="44.0920083" lon="8.2274367"><ele>13.0</ele><time>2026-04-05T14:49:08.941Z</time></trkpt><trkpt lat="44.09193" lon="8.22736"><ele>13.4</ele><time>2026-04-05T14:49:09.94Z</time></trkpt><trkpt lat="44.0918467" lon="8.2272783"><ele>13.8</ele><time>2026-04-05T14:49:10.941Z</time></trkpt><trkpt lat="44.0917667" lon="8.2271767"><ele>14.2</ele><time>2026-04-05T14:49:11.94Z</time></trkpt><trkpt lat="44.0916883" lon="8.2270633"><ele>14.6</ele><time>2026-04-05T14:49:12.941Z</time></trkpt><trkpt lat="44.0916" lon="8.2269583"><ele>15.0</ele><time>2026-04-05T14:49:13.94Z</time></trkpt><trkpt lat="44.0915083" lon="8.2268567"><ele>15.5</ele><time>2026-04-05T14:49:14.94Z</time></trkpt><trkpt lat="44.0914167" lon="8.2267433"><ele>16.0</ele><time>2026-04-05T14:49:15.94Z</time></trkpt><trkpt lat="44.0913183" lon="8.2266317"><ele>16.5</ele><time>2026-04-05T14:49:16.94Z</time></trkpt><trkpt lat="44.0912217" lon="8.2265183"><ele>17.0</ele><time>2026-04-05T14:49:17.94Z</time></trkpt><trkpt lat="44.0911167" lon="8.2263983"><ele>17.0</ele><time>2026-04-05T14:49:18.94Z</time></trkpt><trkpt lat="44.091005" lon="8.22629"><ele>17.0</ele><time>2026-04-05T14:49:19.94Z</time></trkpt><trkpt lat="44.0908917" lon="8.2261933"><ele>17.0</ele><time>2026-04-05T14:49:20.94Z</time></trkpt><trkpt lat="44.0907983" lon="8.226065"><ele>17.0</ele><time>2026-04-05T14:49:21.94Z</time></trkpt><trkpt lat="44.09069" lon="8.225955"><ele>16.5</ele><time>2026-04-05T14:49:22.941Z</time></trkpt><trkpt lat="44.0906017" lon="8.2258317"><ele>16.0</ele><time>2026-04-05T14:49:23.94Z</time></trkpt><trkpt lat="44.0905033" lon="8.225705"><ele>15.5</ele><time>2026-04-05T14:49:24.94Z</time></trkpt><trkpt lat="44.0904" lon="8.2256"><ele>15.0</ele><time>2026-04-05T14:49:25.94Z</time></trkpt><trkpt lat="44.0902933" lon="8.2254983"><ele>15.0</ele><time>2026-04-05T14:49:26.941Z</time></trkpt><trkpt lat="44.0901883" lon="8.2253967"><ele>15.0</ele><time>2026-04-05T14:49:27.94Z</time></trkpt><trkpt lat="44.0900817" lon="8.2252883"><ele>15.0</ele><time>2026-04-05T14:49:28.94Z</time></trkpt><trkpt lat="44.0899733" lon="8.2252017"><ele>15.0</ele><time>2026-04-05T14:49:29.94Z</time></trkpt><trkpt lat="44.0898683" lon="8.225125"><ele>14.25</ele><time>2026-04-05T14:49:30.94Z</time></trkpt><trkpt lat="44.0897467" lon="8.2250517"><ele>13.5</ele><time>2026-04-05T14:49:31.94Z</time></trkpt><trkpt lat="44.089635" lon="8.2249633"><ele>12.75</ele><time>2026-04-05T14:49:32.94Z</time></trkpt><trkpt lat="44.08951" lon="8.224885"><ele>12.0</ele><time>2026-04-05T14:49:33.941Z</time></trkpt><trkpt lat="44.0893933" lon="8.2248017"><ele>12.0</ele><time>2026-04-05T14:49:34.94Z</time></trkpt><trkpt lat="44.08927" lon="8.2247233"><ele>12.0</ele><time>2026-04-05T14:49:35.94Z</time></trkpt><trkpt lat="44.0891533" lon="8.2246317"><ele>12.0</ele><time>2026-04-05T14:49:36.941Z</time></trkpt><trkpt lat="44.0890383" lon="8.2245517"><ele>12.0</ele><time>2026-04-05T14:49:37.94Z</time></trkpt><trkpt lat="44.0889217" lon="8.2244433"><ele>12.0</ele><time>2026-04-05T14:49:38.939Z</time></trkpt><trkpt lat="44.0888033" lon="8.22433"><ele>12.0</ele><time>2026-04-05T14:49:39.94Z</time></trkpt><trkpt lat="44.08868" lon="8.2242333"><ele>12.0</ele><time>2026-04-05T14:49:40.941Z</time></trkpt><trkpt lat="44.0885567" lon="8.2241417"><ele>12.0</ele><time>2026-04-05T14:49:41.94Z</time></trkpt><trkpt lat="44.0884367" lon="8.2240517"><ele>12.75</ele><time>2026-04-05T14:49:42.94Z</time></trkpt><trkpt lat="44.0883167" lon="8.2239667"><ele>13.5</ele><time>2026-04-05T14:49:43.94Z</time></trkpt><trkpt lat="44.0882033" lon="8.2238817"><ele>14.25</ele><time>2026-04-05T14:49:44.94Z</time></trkpt><trkpt lat="44.0880817" lon="8.223805"><ele>15.0</ele><time>2026-04-05T14:49:45.94Z</time></trkpt><trkpt lat="44.0879733" lon="8.22372"><ele>15.0</ele><time>2026-04-05T14:49:46.94Z</time></trkpt><trkpt lat="44.0878683" lon="8.223645"><ele>15.0</ele><time>2026-04-05T14:49:47.94Z</time></trkpt><trkpt lat="44.0877617" lon="8.223585"><ele>15.0</ele><time>2026-04-05T14:49:48.94Z</time></trkpt><trkpt lat="44.0876533" lon="8.2235167"><ele>15.0</ele><time>2026-04-05T14:49:49.94Z</time></trkpt><trkpt lat="44.08755" lon="8.223435"><ele>15.0</ele><time>2026-04-05T14:49:50.941Z</time></trkpt><trkpt lat="44.0874583" lon="8.2233567"><ele>15.0</ele><time>2026-04-05T14:49:51.941Z</time></trkpt><trkpt lat="44.0873667" lon="8.2232767"><ele>15.0</ele><time>2026-04-05T14:49:52.94Z</time></trkpt><trkpt lat="44.0872767" lon="8.2231983"><ele>15.0</ele><time>2026-04-05T14:49:53.94Z</time></trkpt><trkpt lat="44.087185" lon="8.2231333"><ele>15.0</ele><time>2026-04-05T14:49:54.94Z</time></trkpt><trkpt lat="44.0870917" lon="8.2230683"><ele>14.6</ele><time>2026-04-05T14:49:55.94Z</time></trkpt><trkpt lat="44.0869933" lon="8.2230017"><ele>14.2</ele><time>2026-04-05T14:49:56.94Z</time></trkpt><trkpt lat="44.0869017" lon="8.2229233"><ele>13.8</ele><time>2026-04-05T14:49:57.94Z</time></trkpt><trkpt lat="44.0868083" lon="8.2228417"><ele>13.4</ele><time>2026-04-05T14:49:58.94Z</time></trkpt><trkpt lat="44.0867133" lon="8.2227483"><ele>13.0</ele><time>2026-04-05T14:49:59.94Z</time></trkpt><trkpt lat="44.0866183" lon="8.2226667"><ele>12.25</ele><time>2026-04-05T14:50:00.94Z</time></trkpt><trkpt lat="44.0865217" lon="8.2225967"><ele>11.5</ele><time>2026-04-05T14:50:01.94Z</time></trkpt><trkpt lat="44.08643" lon="8.222505"><ele>10.75</ele><time>2026-04-05T14:50:02.94Z</time></trkpt><trkpt lat="44.0863267" lon="8.22242"><ele>10.0</ele><time>2026-04-05T14:50:03.94Z</time></trkpt><trkpt lat="44.0862283" lon="8.2223383"><ele>11.25</ele><time>2026-04-05T14:50:04.94Z</time></trkpt><trkpt lat="44.08613" lon="8.222245"><ele>12.5</ele><time>2026-04-05T14:50:05.94Z</time></trkpt><trkpt lat="44.08604" lon="8.2221567"><ele>13.75</ele><time>2026-04-05T14:50:06.94Z</time></trkpt><trkpt lat="44.0859433" lon="8.22206"><ele>15.0</ele><time>2026-04-05T14:50:07.941Z</time></trkpt><trkpt lat="44.0858383" lon="8.2219617"><ele>13.75</ele><time>2026-04-05T14:50:08.94Z</time></trkpt><trkpt lat="44.0857333" lon="8.2218683"><ele>12.5</ele><time>2026-04-05T14:50:09.94Z</time></trkpt><trkpt lat="44.0856383" lon="8.2217633"><ele>11.25</ele><time>2026-04-05T14:50:10.94Z</time></trkpt><trkpt lat="44.0855367" lon="8.2216533"><ele>10.0</ele><time>2026-04-05T14:50:11.94Z</time></trkpt><trkpt lat="44.085435" lon="8.2215433"><ele>10.75</ele><time>2026-04-05T14:50:12.941Z</time></trkpt><trkpt lat="44.0853367" lon="8.2214333"><ele>11.5</ele><time>2026-04-05T14:50:13.94Z</time></trkpt><trkpt lat="44.08524" lon="8.2213217"><ele>12.25</ele><time>2026-04-05T14:50:14.941Z</time></trkpt><trkpt lat="44.08516" lon="8.22122"><ele>13.0</ele><time>2026-04-05T14:50:15.94Z</time></trkpt><trkpt lat="44.085085" lon="8.2211083"><ele>12.999999999999998</ele><time>2026-04-05T14:50:16.94Z</time></trkpt><trkpt lat="44.0850233" lon="8.2210067"><ele>13.0</ele><time>2026-04-05T14:50:17.94Z</time></trkpt><trkpt lat="44.0849717" lon="8.2209183"><ele>13.0</ele><time>2026-04-05T14:50:18.94Z</time></trkpt><trkpt lat="44.0849233" lon="8.220845"><ele>13.0</ele><time>2026-04-05T14:50:19.94Z</time></trkpt><trkpt lat="44.0848767" lon="8.22078"><ele>12.999999999999998</ele><time>2026-04-05T14:50:20.94Z</time></trkpt><trkpt lat="44.0848267" lon="8.2206983"><ele>13.0</ele><time>2026-04-05T14:50:21.94Z</time></trkpt><trkpt lat="44.0847733" lon="8.2205983"><ele>13.0</ele><time>2026-04-05T14:50:22.94Z</time></trkpt><trkpt lat="44.0847083" lon="8.2204833"><ele>13.0</ele><time>2026-04-05T14:50:23.94Z</time></trkpt><trkpt lat="44.0846333" lon="8.2203383"><ele>13.0</ele><time>2026-04-05T14:50:24.94Z</time></trkpt><trkpt lat="44.08455" lon="8.2201733"><ele>13.0</ele><time>2026-04-05T14:50:25.94Z</time></trkpt><trkpt lat="44.0844467" lon="8.220005"><ele>13.0</ele><time>2026-04-05T14:50:26.94Z</time></trkpt><trkpt lat="44.0843383" lon="8.2198233"><ele>13.0</ele><time>2026-04-05T14:50:27.94Z</time></trkpt><trkpt lat="44.084225" lon="8.2196233"><ele>13.0</ele><time>2026-04-05T14:50:28.94Z</time></trkpt><trkpt lat="44.0841117" lon="8.21941"><ele>13.333333333333332</ele><time>2026-04-05T14:50:29.941Z</time></trkpt><trkpt lat="44.0839983" lon="8.2191917"><ele>13.666666666666668</ele><time>2026-04-05T14:50:30.94Z</time></trkpt><trkpt lat="44.0838733" lon="8.2189817"><ele>14.0</ele><time>2026-04-05T14:50:31.94Z</time></trkpt><trkpt lat="44.08375" lon="8.2187933"><ele>14.666666666666668</ele><time>2026-04-05T14:50:32.94Z</time></trkpt><trkpt lat="44.0836183" lon="8.2186233"><ele>15.333333333333332</ele><time>2026-04-05T14:50:33.94Z</time></trkpt><trkpt lat="44.0835" lon="8.2184667"><ele>16.0</ele><time>2026-04-05T14:50:34.94Z</time></trkpt><trkpt lat="44.083375" lon="8.218335"><ele>15.75</ele><time>2026-04-05T14:50:35.94Z</time></trkpt><trkpt lat="44.083255" lon="8.2182067"><ele>15.5</ele><time>2026-04-05T14:50:36.94Z</time></trkpt><trkpt lat="44.0831383" lon="8.2180867"><ele>15.25</ele><time>2026-04-05T14:50:37.94Z</time></trkpt><trkpt lat="44.0830333" lon="8.2179567"><ele>15.0</ele><time>2026-04-05T14:50:38.94Z</time></trkpt><trkpt lat="44.0829367" lon="8.21783"><ele>15.0</ele><time>2026-04-05T14:50:39.94Z</time></trkpt><trkpt lat="44.0828433" lon="8.21772"><ele>15.0</ele><time>2026-04-05T14:50:40.94Z</time></trkpt><trkpt lat="44.0827567" lon="8.217615"><ele>15.0</ele><time>2026-04-05T14:50:41.94Z</time></trkpt><trkpt lat="44.0826883" lon="8.217515"><ele>15.0</ele><time>2026-04-05T14:50:42.94Z</time></trkpt><trkpt lat="44.0826217" lon="8.2174317"><ele>15.0</ele><time>2026-04-05T14:50:43.94Z</time></trkpt><trkpt lat="44.0825583" lon="8.21735"><ele>15.0</ele><time>2026-04-05T14:50:44.94Z</time></trkpt><trkpt lat="44.082515" lon="8.2172817"><ele>15.0</ele><time>2026-04-05T14:50:45.94Z</time></trkpt><trkpt lat="44.0824483" lon="8.21719"><ele>15.0</ele><time>2026-04-05T14:50:47.94Z</time></trkpt><trkpt lat="44.0824033" lon="8.2171283"><ele>15.0</ele><time>2026-04-05T14:50:49.94Z</time></trkpt><trkpt lat="44.0823433" lon="8.2170517"><ele>15.0</ele><time>2026-04-05T14:50:52.94Z</time></trkpt><trkpt lat="44.082285" lon="8.2169633"><ele>15.0</ele><time>2026-04-05T14:50:55.94Z</time></trkpt><trkpt lat="44.082215" lon="8.2168683"><ele>14.8</ele><time>2026-04-05T14:50:58.94Z</time></trkpt><trkpt lat="44.0821333" lon="8.2167583"><ele>14.6</ele><time>2026-04-05T14:51:00.941Z</time></trkpt><trkpt lat="44.08207" lon="8.2167"><ele>14.399999999999999</ele><time>2026-04-05T14:51:01.94Z</time></trkpt><trkpt lat="44.08199" lon="8.2166167"><ele>14.2</ele><time>2026-04-05T14:51:02.94Z</time></trkpt><trkpt lat="44.081905" lon="8.21649"><ele>14.0</ele><time>2026-04-05T14:51:03.94Z</time></trkpt><trkpt lat="44.0818083" lon="8.2163517"><ele>14.0</ele><time>2026-04-05T14:51:04.94Z</time></trkpt><trkpt lat="44.081695" lon="8.2161917"><ele>14.0</ele><time>2026-04-05T14:51:05.94Z</time></trkpt><trkpt lat="44.0815683" lon="8.21601"><ele>14.0</ele><time>2026-04-05T14:51:06.94Z</time></trkpt><trkpt lat="44.0814267" lon="8.2158383"><ele>13.333333333333334</ele><time>2026-04-05T14:51:07.94Z</time></trkpt><trkpt lat="44.0812933" lon="8.2156867"><ele>12.666666666666668</ele><time>2026-04-05T14:51:08.94Z</time></trkpt><trkpt lat="44.08116" lon="8.2155533"><ele>12.0</ele><time>2026-04-05T14:51:09.94Z</time></trkpt><trkpt lat="44.08104" lon="8.2154133"><ele>12.0</ele><time>2026-04-05T14:51:10.94Z</time></trkpt><trkpt lat="44.0809283" lon="8.2152933"><ele>12.0</ele><time>2026-04-05T14:51:11.94Z</time></trkpt><trkpt lat="44.08082" lon="8.2151817"><ele>12.0</ele><time>2026-04-05T14:51:12.94Z</time></trkpt><trkpt lat="44.0807233" lon="8.2150783"><ele>12.0</ele><time>2026-04-05T14:51:13.94Z</time></trkpt><trkpt lat="44.0806283" lon="8.2149667"><ele>12.0</ele><time>2026-04-05T14:51:14.941Z</time></trkpt><trkpt lat="44.0805317" lon="8.2148583"><ele>12.0</ele><time>2026-04-05T14:51:15.94Z</time></trkpt><trkpt lat="44.0804383" lon="8.2147617"><ele>12.0</ele><time>2026-04-05T14:51:16.94Z</time></trkpt><trkpt lat="44.0803467" lon="8.2146567"><ele>12.0</ele><time>2026-04-05T14:51:17.94Z</time></trkpt><trkpt lat="44.08022" lon="8.2146083"><ele>12.0</ele><time>2026-04-05T14:51:18.94Z</time></trkpt><trkpt lat="44.080085" lon="8.21459"><ele>12.0</ele><time>2026-04-05T14:51:19.94Z</time></trkpt><trkpt lat="44.07994" lon="8.2145533"><ele>12.0</ele><time>2026-04-05T14:51:20.94Z</time></trkpt><trkpt lat="44.0797983" lon="8.214495"><ele>12.0</ele><time>2026-04-05T14:51:21.94Z</time></trkpt><trkpt lat="44.0796533" lon="8.214415"><ele>11.333333333333334</ele><time>2026-04-05T14:51:22.941Z</time></trkpt><trkpt lat="44.0794983" lon="8.21433"><ele>10.666666666666668</ele><time>2026-04-05T14:51:23.94Z</time></trkpt><trkpt lat="44.0793267" lon="8.21423"><ele>10.0</ele><time>2026-04-05T14:51:24.94Z</time></trkpt><trkpt lat="44.0791583" lon="8.2141433"><ele>9.333333333333334</ele><time>2026-04-05T14:51:25.94Z</time></trkpt><trkpt lat="44.0789883" lon="8.214055"><ele>8.666666666666666</ele><time>2026-04-05T14:51:26.94Z</time></trkpt><trkpt lat="44.0788267" lon="8.21397"><ele>8.0</ele><time>2026-04-05T14:51:27.94Z</time></trkpt><trkpt lat="44.0786717" lon="8.2138867"><ele>8.0</ele><time>2026-04-05T14:51:28.94Z</time></trkpt><trkpt lat="44.07853" lon="8.2138017"><ele>8.0</ele><time>2026-04-05T14:51:29.94Z</time></trkpt><trkpt lat="44.0783983" lon="8.2137317"><ele>8.0</ele><time>2026-04-05T14:51:30.94Z</time></trkpt><trkpt lat="44.07827" lon="8.21366"><ele>8.0</ele><time>2026-04-05T14:51:31.94Z</time></trkpt><trkpt lat="44.0781533" lon="8.213595"><ele>7.666666666666666</ele><time>2026-04-05T14:51:32.94Z</time></trkpt><trkpt lat="44.0780567" lon="8.2135283"><ele>7.333333333333333</ele><time>2026-04-05T14:51:33.941Z</time></trkpt><trkpt lat="44.0779783" lon="8.213465"><ele>7.0</ele><time>2026-04-05T14:51:34.94Z</time></trkpt><trkpt lat="44.0779233" lon="8.2134117"><ele>6.666666666666666</ele><time>2026-04-05T14:51:35.94Z</time></trkpt><trkpt lat="44.0778583" lon="8.21334"><ele>6.333333333333333</ele><time>2026-04-05T14:51:37.94Z</time></trkpt><trkpt lat="44.0777833" lon="8.21335"><ele>6.0</ele><time>2026-04-05T14:51:39.94Z</time></trkpt><trkpt lat="44.0776767" lon="8.213445"><ele>6.0</ele><time>2026-04-05T14:51:41.94Z</time></trkpt><trkpt lat="44.07761" lon="8.2135167"><ele>6.0</ele><time>2026-04-05T14:51:42.94Z</time></trkpt><trkpt lat="44.0775383" lon="8.2135917"><ele>6.0</ele><time>2026-04-05T14:51:43.94Z</time></trkpt><trkpt lat="44.0774517" lon="8.2136733"><ele>6.0</ele><time>2026-04-05T14:51:44.94Z</time></trkpt><trkpt lat="44.0773667" lon="8.21375"><ele>6.0</ele><time>2026-04-05T14:51:45.94Z</time></trkpt><trkpt lat="44.077295" lon="8.2138317"><ele>5.8</ele><time>2026-04-05T14:51:46.94Z</time></trkpt><trkpt lat="44.0772183" lon="8.2139183"><ele>5.6</ele><time>2026-04-05T14:51:47.94Z</time></trkpt><trkpt lat="44.0771433" lon="8.2139917"><ele>5.4</ele><time>2026-04-05T14:51:48.941Z</time></trkpt><trkpt lat="44.07707" lon="8.2140717"><ele>5.2</ele><time>2026-04-05T14:51:49.94Z</time></trkpt><trkpt lat="44.077005" lon="8.2141567"><ele>5.0</ele><time>2026-04-05T14:51:50.94Z</time></trkpt><trkpt lat="44.076945" lon="8.2142433"><ele>5.0</ele><time>2026-04-05T14:51:51.94Z</time></trkpt><trkpt lat="44.0768933" lon="8.21431"><ele>5.0</ele><time>2026-04-05T14:51:52.94Z</time></trkpt><trkpt lat="44.0767967" lon="8.2143767"><ele>5.0</ele><time>2026-04-05T14:51:54.94Z</time></trkpt><trkpt lat="44.0767033" lon="8.2143333"><ele>5.0</ele><time>2026-04-05T14:51:56.94Z</time></trkpt><trkpt lat="44.0765883" lon="8.2142767"><ele>5.0</ele><time>2026-04-05T14:51:58.94Z</time></trkpt><trkpt lat="44.0765133" lon="8.2142583"><ele>4.714285714285714</ele><time>2026-04-05T14:51:59.94Z</time></trkpt><trkpt lat="44.076445" lon="8.2142317"><ele>4.428571428571429</ele><time>2026-04-05T14:52:00.94Z</time></trkpt><trkpt lat="44.0763767" lon="8.214205"><ele>4.142857142857142</ele><time>2026-04-05T14:52:01.94Z</time></trkpt><trkpt lat="44.076305" lon="8.2141767"><ele>3.8571428571428568</ele><time>2026-04-05T14:52:02.94Z</time></trkpt><trkpt lat="44.0762367" lon="8.2141583"><ele>3.571428571428571</ele><time>2026-04-05T14:52:03.94Z</time></trkpt><trkpt lat="44.0761667" lon="8.2141333"><ele>3.2857142857142856</ele><time>2026-04-05T14:52:04.94Z</time></trkpt><trkpt lat="44.0761017" lon="8.2140817"><ele>3.0</ele><time>2026-04-05T14:52:05.941Z</time></trkpt><trkpt lat="44.0760333" lon="8.214025"><ele>3.0</ele><time>2026-04-05T14:52:06.94Z</time></trkpt><trkpt lat="44.0759733" lon="8.2139583"><ele>3.0</ele><time>2026-04-05T14:52:07.941Z</time></trkpt><trkpt lat="44.0759117" lon="8.21389"><ele>3.0</ele><time>2026-04-05T14:52:08.94Z</time></trkpt><trkpt lat="44.0758483" lon="8.2138267"><ele>3.0</ele><time>2026-04-05T14:52:09.94Z</time></trkpt><trkpt lat="44.0757883" lon="8.2137733"><ele>3.0</ele><time>2026-04-05T14:52:10.941Z</time></trkpt><trkpt lat="44.07573" lon="8.213715"><ele>3.0</ele><time>2026-04-05T14:52:11.941Z</time></trkpt><trkpt lat="44.0756717" lon="8.2136533"><ele>3.1666666666666665</ele><time>2026-04-05T14:52:12.94Z</time></trkpt><trkpt lat="44.0756033" lon="8.21361"><ele>3.333333333333333</ele><time>2026-04-05T14:52:13.941Z</time></trkpt><trkpt lat="44.0755367" lon="8.2135567"><ele>3.5</ele><time>2026-04-05T14:52:14.94Z</time></trkpt><trkpt lat="44.0754733" lon="8.2134967"><ele>3.6666666666666665</ele><time>2026-04-05T14:52:15.94Z</time></trkpt><trkpt lat="44.0754117" lon="8.2134367"><ele>3.833333333333333</ele><time>2026-04-05T14:52:16.94Z</time></trkpt><trkpt lat="44.0753433" lon="8.2133717"><ele>4.0</ele><time>2026-04-05T14:52:17.94Z</time></trkpt><trkpt lat="44.0752767" lon="8.213305"><ele>3.9999999999999996</ele><time>2026-04-05T14:52:18.94Z</time></trkpt><trkpt lat="44.0752033" lon="8.2132383"><ele>4.0</ele><time>2026-04-05T14:52:19.94Z</time></trkpt><trkpt lat="44.075135" lon="8.2131733"><ele>4.0</ele><time>2026-04-05T14:52:20.94Z</time></trkpt><trkpt lat="44.0750583" lon="8.21311"><ele>4.0</ele><time>2026-04-05T14:52:21.94Z</time></trkpt><trkpt lat="44.0749767" lon="8.2130467"><ele>3.9999999999999996</ele><time>2026-04-05T14:52:22.94Z</time></trkpt><trkpt lat="44.0749067" lon="8.2129933"><ele>4.0</ele><time>2026-04-05T14:52:23.94Z</time></trkpt><trkpt lat="44.0748317" lon="8.2129533"><ele>3.9999999999999996</ele><time>2026-04-05T14:52:24.94Z</time></trkpt><trkpt lat="44.07476" lon="8.212925"><ele>4.0</ele><time>2026-04-05T14:52:25.94Z</time></trkpt><trkpt lat="44.0746967" lon="8.212885"><ele>4.0</ele><time>2026-04-05T14:52:26.94Z</time></trkpt><trkpt lat="44.0746367" lon="8.2128483"><ele>4.0</ele><time>2026-04-05T14:52:27.94Z</time></trkpt><trkpt lat="44.07454" lon="8.2127833"><ele>3.9999999999999996</ele><time>2026-04-05T14:52:29.94Z</time></trkpt><trkpt lat="44.074465" lon="8.2127717"><ele>4.0</ele><time>2026-04-05T14:52:31.94Z</time></trkpt><trkpt lat="44.0744017" lon="8.2127667"><ele>4.0</ele><time>2026-04-05T14:52:34.941Z</time></trkpt><trkpt lat="44.0744183" lon="8.212655"><ele>4.0</ele><time>2026-04-05T14:54:08.94Z</time></trkpt><trkpt lat="44.074465" lon="8.2125767"><ele>4.0</ele><time>2026-04-05T14:54:12.94Z</time></trkpt></trkseg></trk></gpx>